<?xml version="1.0" encoding="UTF-8" standalone="no" ?><gpx xmlns="http://www.topografix.com/GPX/1/1" xmlns:gpxx="http://www.garmin.com/xmlschemas/GpxExtensions/v3" xmlns:wptx1="http://www.garmin.com/xmlschemas/WaypointExtension/v1" xmlns:gpxtpx="http://www.garmin.com/xmlschemas/TrackPointExtension/v1" creator="Alpha 50 EU" version="1.1" xmlns:xsi="http://www.w3.org/2001/XMLSchema-instance" xsi:schemaLocation="http://www.topografix.com/GPX/1/1 http://www.topografix.com/GPX/1/1/gpx.xsd http://www.garmin.com/xmlschemas/GpxExtensions/v3 http://www8.garmin.com/xmlschemas/GpxExtensionsv3.xsd http://www.garmin.com/xmlschemas/WaypointExtension/v1 http://www8.garmin.com/xmlschemas/WaypointExtensionv1.xsd http://www.garmin.com/xmlschemas/TrackPointExtension/v1 http://www.garmin.com/xmlschemas/TrackPointExtensionv1.xsd"><metadata><link href="http://www.garmin.com"><text>Garmin International</text></link><time>2026-04-22T13:52:10Z</time></metadata><trk><name>2026-04-22 16:51:52</name><extensions><gpxx:TrackExtension><gpxx:DisplayColor>Red</gpxx:DisplayColor></gpxx:TrackExtension></extensions><trkseg><trkpt lat="60.1220749039" lon="30.5183050968"><ele>46.28</ele><time>2026-03-21T15:33:08Z</time></trkpt><trkpt lat="60.1220371854" lon="30.5182146560"><ele>46.76</ele><time>2026-03-21T15:33:31Z</time></trkpt><trkpt lat="60.1220692042" lon="30.5182151590"><ele>47.72</ele><time>2026-03-21T15:33:45Z</time></trkpt><trkpt lat="60.1221562084" lon="30.5182873271"><ele>47.72</ele><time>2026-03-21T15:34:04Z</time></trkpt><trkpt lat="60.1221945137" lon="30.5182222836"><ele>48.20</ele><time>2026-03-21T15:34:19Z</time></trkpt><trkpt lat="60.1223200746" lon="30.5181198567"><ele>48.68</ele><time>2026-03-21T15:34:31Z</time></trkpt><trkpt lat="60.1223564520" lon="30.5180878378"><ele>49.16</ele><time>2026-03-21T15:34:40Z</time></trkpt><trkpt lat="60.1223922428" lon="30.5181719922"><ele>50.13</ele><time>2026-03-21T15:35:14Z</time></trkpt><trkpt lat="60.1224409416" lon="30.5182531290"><ele>50.13</ele><time>2026-03-21T15:35:36Z</time></trkpt><trkpt lat="60.1224765647" lon="30.5181797035"><ele>50.13</ele><time>2026-03-21T15:35:42Z</time></trkpt><trkpt lat="60.1225910615" lon="30.5179819744"><ele>50.13</ele><time>2026-03-21T15:35:58Z</time></trkpt><trkpt lat="60.1227216516" lon="30.5178383086"><ele>50.13</ele><time>2026-03-21T15:36:14Z</time></trkpt><trkpt lat="60.1227936521" lon="30.5178750213"><ele>50.13</ele><time>2026-03-21T15:36:28Z</time></trkpt><trkpt lat="60.1228244137" lon="30.5177912023"><ele>47.72</ele><time>2026-03-21T15:36:40Z</time></trkpt><trkpt lat="60.1228305325" lon="30.5177900288"><ele>47.72</ele><time>2026-03-21T15:36:41Z</time></trkpt><trkpt lat="60.1228504814" lon="30.5177482869"><ele>49.16</ele><time>2026-03-21T15:36:44Z</time></trkpt><trkpt lat="60.1228749566" lon="30.5177912023"><ele>50.13</ele><time>2026-03-21T15:36:56Z</time></trkpt><trkpt lat="60.1229496393" lon="30.5177553277"><ele>50.13</ele><time>2026-03-21T15:37:05Z</time></trkpt><trkpt lat="60.1230455283" lon="30.5175919645"><ele>50.13</ele><time>2026-03-21T15:37:19Z</time></trkpt><trkpt lat="60.1231127512" lon="30.5172970891"><ele>50.13</ele><time>2026-03-21T15:37:35Z</time></trkpt><trkpt lat="60.1231586840" lon="30.5172752123"><ele>50.13</ele><time>2026-03-21T15:37:41Z</time></trkpt><trkpt lat="60.1232630387" lon="30.5173058063"><ele>50.13</ele><time>2026-03-21T15:37:55Z</time></trkpt><trkpt lat="60.1233347878" lon="30.5172868632"><ele>50.13</ele><time>2026-03-21T15:38:02Z</time></trkpt><trkpt lat="60.1234215405" lon="30.5171107594"><ele>50.61</ele><time>2026-03-21T15:38:15Z</time></trkpt><trkpt lat="60.1235144958" lon="30.5169030558"><ele>51.09</ele><time>2026-03-21T15:38:29Z</time></trkpt><trkpt lat="60.1235460117" lon="30.5167607311"><ele>51.57</ele><time>2026-03-21T15:38:37Z</time></trkpt><trkpt lat="60.1235692296" lon="30.5166723020"><ele>52.53</ele><time>2026-03-21T15:38:41Z</time></trkpt><trkpt lat="60.1235858258" lon="30.5166747328"><ele>52.53</ele><time>2026-03-21T15:38:46Z</time></trkpt><trkpt lat="60.1236745063" lon="30.5167562049"><ele>52.53</ele><time>2026-03-21T15:38:54Z</time></trkpt><trkpt lat="60.1238260511" lon="30.5169593822"><ele>52.53</ele><time>2026-03-21T15:39:07Z</time></trkpt><trkpt lat="60.1239829604" lon="30.5172048882"><ele>53.01</ele><time>2026-03-21T15:39:21Z</time></trkpt><trkpt lat="60.1240181644" lon="30.5172699317"><ele>53.01</ele><time>2026-03-21T15:39:25Z</time></trkpt><trkpt lat="60.1241837908" lon="30.5174683314"><ele>53.49</ele><time>2026-03-21T15:39:39Z</time></trkpt><trkpt lat="60.1242962759" lon="30.5176135898"><ele>53.97</ele><time>2026-03-21T15:39:49Z</time></trkpt><trkpt lat="60.1244535204" lon="30.5178235564"><ele>54.45</ele><time>2026-03-21T15:40:05Z</time></trkpt><trkpt lat="60.1245829370" lon="30.5180360377"><ele>54.93</ele><time>2026-03-21T15:40:19Z</time></trkpt><trkpt lat="60.1246582903" lon="30.5180377141"><ele>55.41</ele><time>2026-03-21T15:40:26Z</time></trkpt><trkpt lat="60.1247586217" lon="30.5177190341"><ele>56.86</ele><time>2026-03-21T15:40:41Z</time></trkpt><trkpt lat="60.1248644851" lon="30.5174898729"><ele>56.86</ele><time>2026-03-21T15:40:54Z</time></trkpt><trkpt lat="60.1250209752" lon="30.5171499029"><ele>57.34</ele><time>2026-03-21T15:41:11Z</time></trkpt><trkpt lat="60.1250742003" lon="30.5171136931"><ele>57.34</ele><time>2026-03-21T15:41:17Z</time></trkpt><trkpt lat="60.1252053771" lon="30.5171482265"><ele>58.78</ele><time>2026-03-21T15:41:28Z</time></trkpt><trkpt lat="60.1253665611" lon="30.5170038901"><ele>59.74</ele><time>2026-03-21T15:41:41Z</time></trkpt><trkpt lat="60.1253823191" lon="30.5169045646"><ele>59.74</ele><time>2026-03-21T15:41:45Z</time></trkpt><trkpt lat="60.1254067943" lon="30.5168976914"><ele>60.22</ele><time>2026-03-21T15:42:06Z</time></trkpt><trkpt lat="60.1254641265" lon="30.5166052468"><ele>60.22</ele><time>2026-03-21T15:42:20Z</time></trkpt><trkpt lat="60.1254927088" lon="30.5166931730"><ele>60.70</ele><time>2026-03-21T15:42:38Z</time></trkpt><trkpt lat="60.1254982408" lon="30.5167128704"><ele>61.18</ele><time>2026-03-21T15:42:44Z</time></trkpt><trkpt lat="60.1257063635" lon="30.5168720428"><ele>61.18</ele><time>2026-03-21T15:42:59Z</time></trkpt><trkpt lat="60.1258054376" lon="30.5168625712"><ele>62.62</ele><time>2026-03-21T15:43:14Z</time></trkpt><trkpt lat="60.1258095447" lon="30.5168408621"><ele>62.62</ele><time>2026-03-21T15:43:18Z</time></trkpt></trkseg><trkseg><trkpt lat="59.9496134743" lon="30.6354212388"><ele>65.99</ele><time>2026-03-31T08:54:26Z</time></trkpt><trkpt lat="59.9496127199" lon="30.6354559399"><ele>68.39</ele><time>2026-03-31T08:56:56Z</time></trkpt><trkpt lat="59.9496216886" lon="30.6354343984"><ele>68.39</ele><time>2026-03-31T08:57:23Z</time></trkpt><trkpt lat="59.9496115465" lon="30.6354195625"><ele>68.39</ele><time>2026-03-31T08:57:53Z</time></trkpt><trkpt lat="59.9496199284" lon="30.6354131922"><ele>68.39</ele><time>2026-03-31T08:58:24Z</time></trkpt><trkpt lat="59.9496376142" lon="30.6354510784"><ele>68.39</ele><time>2026-03-31T08:58:38Z</time></trkpt><trkpt lat="59.9496420566" lon="30.6356115080"><ele>68.39</ele><time>2026-03-31T08:58:45Z</time></trkpt><trkpt lat="59.9497277196" lon="30.6355978455"><ele>68.39</ele><time>2026-03-31T08:58:54Z</time></trkpt><trkpt lat="59.9497925956" lon="30.6352546904"><ele>68.39</ele><time>2026-03-31T08:59:09Z</time></trkpt><trkpt lat="59.9497884046" lon="30.6348599866"><ele>69.35</ele><time>2026-03-31T08:59:25Z</time></trkpt><trkpt lat="59.9498247821" lon="30.6346085295"><ele>69.83</ele><time>2026-03-31T08:59:38Z</time></trkpt><trkpt lat="59.9498740677" lon="30.6344828010"><ele>69.83</ele><time>2026-03-31T08:59:54Z</time></trkpt><trkpt lat="59.9498817790" lon="30.6344726589"><ele>69.83</ele><time>2026-03-31T08:59:55Z</time></trkpt><trkpt lat="59.9499788415" lon="30.6342669670"><ele>68.87</ele><time>2026-03-31T09:00:06Z</time></trkpt><trkpt lat="59.9500859622" lon="30.6339710020"><ele>67.43</ele><time>2026-03-31T09:00:22Z</time></trkpt><trkpt lat="59.9500785023" lon="30.6335207261"><ele>66.95</ele><time>2026-03-31T09:00:39Z</time></trkpt><trkpt lat="59.9500131235" lon="30.6331456359"><ele>66.95</ele><time>2026-03-31T09:00:56Z</time></trkpt><trkpt lat="59.9499977008" lon="30.6331012957"><ele>66.95</ele><time>2026-03-31T09:00:58Z</time></trkpt><trkpt lat="59.9499632511" lon="30.6328762416"><ele>68.39</ele><time>2026-03-31T09:01:08Z</time></trkpt><trkpt lat="59.9499588087" lon="30.6328599807"><ele>68.39</ele><time>2026-03-31T09:01:09Z</time></trkpt><trkpt lat="59.9499433860" lon="30.6327489205"><ele>68.87</ele><time>2026-03-31T09:01:14Z</time></trkpt><trkpt lat="59.9499202520" lon="30.6324307434"><ele>71.27</ele><time>2026-03-31T09:01:27Z</time></trkpt><trkpt lat="59.9499324895" lon="30.6323715672"><ele>71.76</ele><time>2026-03-31T09:01:30Z</time></trkpt><trkpt lat="59.9499625806" lon="30.6323171686"><ele>72.24</ele><time>2026-03-31T09:01:34Z</time></trkpt><trkpt lat="59.9500475731" lon="30.6321230438"><ele>74.64</ele><time>2026-03-31T09:01:46Z</time></trkpt><trkpt lat="59.9500927515" lon="30.6320296694"><ele>75.60</ele><time>2026-03-31T09:01:51Z</time></trkpt><trkpt lat="59.9503135309" lon="30.6319358759"><ele>77.52</ele><time>2026-03-31T09:02:10Z</time></trkpt><trkpt lat="59.9504883774" lon="30.6318717543"><ele>78.48</ele><time>2026-03-31T09:02:24Z</time></trkpt><trkpt lat="59.9506674986" lon="30.6318216305"><ele>79.45</ele><time>2026-03-31T09:02:39Z</time></trkpt><trkpt lat="59.9508858472" lon="30.6318539008"><ele>79.93</ele><time>2026-03-31T09:02:56Z</time></trkpt><trkpt lat="59.9510555808" lon="30.6318816449"><ele>79.93</ele><time>2026-03-31T09:03:12Z</time></trkpt><trkpt lat="59.9511766154" lon="30.6317699142"><ele>79.93</ele><time>2026-03-31T09:03:21Z</time></trkpt><trkpt lat="59.9512239732" lon="30.6316193752"><ele>78.97</ele><time>2026-03-31T09:03:37Z</time></trkpt><trkpt lat="59.9512950517" lon="30.6315876916"><ele>78.00</ele><time>2026-03-31T09:03:52Z</time></trkpt><trkpt lat="59.9514268152" lon="30.6315293536"><ele>76.56</ele><time>2026-03-31T09:04:08Z</time></trkpt><trkpt lat="59.9515357800" lon="30.6314814091"><ele>74.16</ele><time>2026-03-31T09:04:24Z</time></trkpt><trkpt lat="59.9515587464" lon="30.6314681657"><ele>73.68</ele><time>2026-03-31T09:04:26Z</time></trkpt><trkpt lat="59.9517374486" lon="30.6313685048"><ele>73.20</ele><time>2026-03-31T09:04:42Z</time></trkpt><trkpt lat="59.9518429767" lon="30.6312981807"><ele>73.20</ele><time>2026-03-31T09:04:52Z</time></trkpt><trkpt lat="59.9519702140" lon="30.6312154513"><ele>75.12</ele><time>2026-03-31T09:05:04Z</time></trkpt><trkpt lat="59.9520184100" lon="30.6311852764"><ele>76.56</ele><time>2026-03-31T09:05:19Z</time></trkpt><trkpt lat="59.9520294741" lon="30.6311139464"><ele>77.04</ele><time>2026-03-31T09:05:38Z</time></trkpt><trkpt lat="59.9520390294" lon="30.6311359908"><ele>77.52</ele><time>2026-03-31T09:05:56Z</time></trkpt><trkpt lat="59.9520382751" lon="30.6311133597"><ele>77.52</ele><time>2026-03-31T09:06:15Z</time></trkpt><trkpt lat="59.9520099442" lon="30.6311739609"><ele>78.00</ele><time>2026-03-31T09:06:31Z</time></trkpt><trkpt lat="59.9520482495" lon="30.6310819276"><ele>78.00</ele><time>2026-03-31T09:07:04Z</time></trkpt><trkpt lat="59.9520215951" lon="30.6310903933"><ele>78.00</ele><time>2026-03-31T09:07:25Z</time></trkpt><trkpt lat="59.9520469923" lon="30.6310647447"><ele>78.00</ele><time>2026-03-31T09:08:11Z</time></trkpt><trkpt lat="59.9520486686" lon="30.6310284510"><ele>78.00</ele><time>2026-03-31T09:08:14Z</time></trkpt><trkpt lat="59.9520731438" lon="30.6307949312"><ele>78.00</ele><time>2026-03-31T09:08:25Z</time></trkpt><trkpt lat="59.9521776661" lon="30.6305501796"><ele>75.12</ele><time>2026-03-31T09:08:41Z</time></trkpt><trkpt lat="59.9523258582" lon="30.6303651910"><ele>74.16</ele><time>2026-03-31T09:08:53Z</time></trkpt><trkpt lat="59.9525240902" lon="30.6302558072"><ele>73.68</ele><time>2026-03-31T09:09:09Z</time></trkpt><trkpt lat="59.9526493158" lon="30.6302838866"><ele>73.68</ele><time>2026-03-31T09:09:20Z</time></trkpt><trkpt lat="59.9526976794" lon="30.6303344294"><ele>73.68</ele><time>2026-03-31T09:09:25Z</time></trkpt><trkpt lat="59.9528241623" lon="30.6306002196"><ele>75.60</ele><time>2026-03-31T09:09:42Z</time></trkpt><trkpt lat="59.9529265054" lon="30.6307968590"><ele>77.04</ele><time>2026-03-31T09:09:53Z</time></trkpt><trkpt lat="59.9529488012" lon="30.6308602262"><ele>77.04</ele><time>2026-03-31T09:09:56Z</time></trkpt><trkpt lat="59.9530852586" lon="30.6311296206"><ele>77.04</ele><time>2026-03-31T09:10:12Z</time></trkpt><trkpt lat="59.9531503022" lon="30.6312472187"><ele>75.60</ele><time>2026-03-31T09:10:20Z</time></trkpt><trkpt lat="59.9531778786" lon="30.6313265953"><ele>73.68</ele><time>2026-03-31T09:10:35Z</time></trkpt><trkpt lat="59.9533372186" lon="30.6317228917"><ele>71.76</ele><time>2026-03-31T09:10:55Z</time></trkpt><trkpt lat="59.9534398969" lon="30.6318559963"><ele>69.83</ele><time>2026-03-31T09:11:07Z</time></trkpt><trkpt lat="59.9535492808" lon="30.6320450921"><ele>66.95</ele><time>2026-03-31T09:11:20Z</time></trkpt><trkpt lat="59.9535663798" lon="30.6321782805"><ele>65.99</ele><time>2026-03-31T09:11:25Z</time></trkpt><trkpt lat="59.9535894301" lon="30.6322429888"><ele>65.51</ele><time>2026-03-31T09:11:28Z</time></trkpt><trkpt lat="59.9536279030" lon="30.6322760973"><ele>65.03</ele><time>2026-03-31T09:11:31Z</time></trkpt><trkpt lat="59.9537755921" lon="30.6321631931"><ele>64.55</ele><time>2026-03-31T09:11:44Z</time></trkpt><trkpt lat="59.9538237881" lon="30.6319624465"><ele>64.55</ele><time>2026-03-31T09:11:57Z</time></trkpt><trkpt lat="59.9538580701" lon="30.6318744365"><ele>64.55</ele><time>2026-03-31T09:12:01Z</time></trkpt><trkpt lat="59.9538957886" lon="30.6317534018"><ele>64.55</ele><time>2026-03-31T09:12:06Z</time></trkpt><trkpt lat="59.9539751653" lon="30.6315498892"><ele>64.07</ele><time>2026-03-31T09:12:16Z</time></trkpt><trkpt lat="59.9540272169" lon="30.6314227358"><ele>64.07</ele><time>2026-03-31T09:12:22Z</time></trkpt><trkpt lat="59.9542171508" lon="30.6312476378"><ele>64.07</ele><time>2026-03-31T09:12:39Z</time></trkpt><trkpt lat="59.9543913268" lon="30.6311209872"><ele>63.58</ele><time>2026-03-31T09:12:54Z</time></trkpt><trkpt lat="59.9545308016" lon="30.6310515013"><ele>62.62</ele><time>2026-03-31T09:13:05Z</time></trkpt><trkpt lat="59.9545495771" lon="30.6310784910"><ele>62.62</ele><time>2026-03-31T09:13:07Z</time></trkpt><trkpt lat="59.9546437059" lon="30.6311054807"><ele>62.62</ele><time>2026-03-31T09:13:14Z</time></trkpt><trkpt lat="59.9548735376" lon="30.6311080791"><ele>62.62</ele><time>2026-03-31T09:13:32Z</time></trkpt><trkpt lat="59.9551356398" lon="30.6312931515"><ele>62.62</ele><time>2026-03-31T09:13:49Z</time></trkpt><trkpt lat="59.9552747793" lon="30.6313721091"><ele>62.62</ele><time>2026-03-31T09:14:02Z</time></trkpt><trkpt lat="59.9554248992" lon="30.6316150166"><ele>63.58</ele><time>2026-03-31T09:14:19Z</time></trkpt><trkpt lat="59.9555828143" lon="30.6315085664"><ele>64.55</ele><time>2026-03-31T09:14:33Z</time></trkpt><trkpt lat="59.9556205329" lon="30.6314755417"><ele>65.03</ele><time>2026-03-31T09:14:37Z</time></trkpt><trkpt lat="59.9556841515" lon="30.6314295251"><ele>65.51</ele><time>2026-03-31T09:14:43Z</time></trkpt><trkpt lat="59.9557719938" lon="30.6313703489"><ele>66.95</ele><time>2026-03-31T09:14:53Z</time></trkpt><trkpt lat="59.9558821321" lon="30.6315529067"><ele>68.39</ele><time>2026-03-31T09:15:07Z</time></trkpt><trkpt lat="59.9560286477" lon="30.6317235623"><ele>70.79</ele><time>2026-03-31T09:15:21Z</time></trkpt><trkpt lat="59.9560358562" lon="30.6317785475"><ele>71.27</ele><time>2026-03-31T09:15:24Z</time></trkpt><trkpt lat="59.9560407177" lon="30.6318169367"><ele>71.27</ele><time>2026-03-31T09:15:26Z</time></trkpt><trkpt lat="59.9560869858" lon="30.6318804715"><ele>71.27</ele><time>2026-03-31T09:15:31Z</time></trkpt><trkpt lat="59.9561477546" lon="30.6319605187"><ele>71.76</ele><time>2026-03-31T09:15:36Z</time></trkpt><trkpt lat="59.9562598206" lon="30.6320528872"><ele>71.76</ele><time>2026-03-31T09:15:46Z</time></trkpt><trkpt lat="59.9563671090" lon="30.6322285719"><ele>71.76</ele><time>2026-03-31T09:15:56Z</time></trkpt><trkpt lat="59.9564767443" lon="30.6323491875"><ele>71.76</ele><time>2026-03-31T09:16:07Z</time></trkpt><trkpt lat="59.9565866310" lon="30.6325846352"><ele>70.31</ele><time>2026-03-31T09:16:40Z</time></trkpt><trkpt lat="59.9565691128" lon="30.6326518580"><ele>70.31</ele><time>2026-03-31T09:16:44Z</time></trkpt><trkpt lat="59.9566291273" lon="30.6330654211"><ele>69.35</ele><time>2026-03-31T09:17:00Z</time></trkpt><trkpt lat="59.9566232599" lon="30.6334052235"><ele>67.43</ele><time>2026-03-31T09:17:15Z</time></trkpt><trkpt lat="59.9566304684" lon="30.6335897092"><ele>66.95</ele><time>2026-03-31T09:17:22Z</time></trkpt><trkpt lat="59.9566347431" lon="30.6337563414"><ele>66.47</ele><time>2026-03-31T09:17:28Z</time></trkpt><trkpt lat="59.9566699471" lon="30.6339188665"><ele>65.99</ele><time>2026-03-31T09:17:35Z</time></trkpt><trkpt lat="59.9567211606" lon="30.6342132390"><ele>64.07</ele><time>2026-03-31T09:17:47Z</time></trkpt><trkpt lat="59.9567283690" lon="30.6343673822"><ele>63.10</ele><time>2026-03-31T09:17:52Z</time></trkpt><trkpt lat="59.9567418639" lon="30.6347055081"><ele>61.18</ele><time>2026-03-31T09:18:07Z</time></trkpt><trkpt lat="59.9567036424" lon="30.6347315758"><ele>60.70</ele><time>2026-03-31T09:18:10Z</time></trkpt><trkpt lat="59.9565946776" lon="30.6348138861"><ele>58.78</ele><time>2026-03-31T09:18:21Z</time></trkpt><trkpt lat="59.9565582164" lon="30.6349826138"><ele>57.82</ele><time>2026-03-31T09:18:29Z</time></trkpt><trkpt lat="59.9565204140" lon="30.6352566183"><ele>57.34</ele><time>2026-03-31T09:18:40Z</time></trkpt><trkpt lat="59.9565321486" lon="30.6355378311"><ele>55.89</ele><time>2026-03-31T09:18:52Z</time></trkpt><trkpt lat="59.9565878045" lon="30.6358056329"><ele>55.89</ele><time>2026-03-31T09:19:03Z</time></trkpt><trkpt lat="59.9566848669" lon="30.6361176912"><ele>55.41</ele><time>2026-03-31T09:19:18Z</time></trkpt><trkpt lat="59.9567695241" lon="30.6368402950"><ele>59.26</ele><time>2026-03-31T09:19:57Z</time></trkpt><trkpt lat="59.9566160515" lon="30.6374054868"><ele>60.70</ele><time>2026-03-31T09:20:27Z</time></trkpt><trkpt lat="59.9563791789" lon="30.6375638209"><ele>60.22</ele><time>2026-03-31T09:20:39Z</time></trkpt><trkpt lat="59.9563008081" lon="30.6377390865"><ele>59.26</ele><time>2026-03-31T09:20:47Z</time></trkpt><trkpt lat="59.9562818650" lon="30.6379124243"><ele>59.26</ele><time>2026-03-31T09:20:56Z</time></trkpt><trkpt lat="59.9562728964" lon="30.6380535755"><ele>59.26</ele><time>2026-03-31T09:21:01Z</time></trkpt><trkpt lat="59.9563077651" lon="30.6382161845"><ele>60.22</ele><time>2026-03-31T09:21:08Z</time></trkpt><trkpt lat="59.9563098606" lon="30.6382917054"><ele>60.22</ele><time>2026-03-31T09:21:13Z</time></trkpt><trkpt lat="59.9563228525" lon="30.6384692341"><ele>61.18</ele><time>2026-03-31T09:21:19Z</time></trkpt><trkpt lat="59.9563909974" lon="30.6389376987"><ele>62.14</ele><time>2026-03-31T09:21:37Z</time></trkpt><trkpt lat="59.9564196635" lon="30.6390536204"><ele>62.62</ele><time>2026-03-31T09:21:42Z</time></trkpt><trkpt lat="59.9564316496" lon="30.6392641738"><ele>63.58</ele><time>2026-03-31T09:21:54Z</time></trkpt><trkpt lat="59.9565433804" lon="30.6394501682"><ele>62.62</ele><time>2026-03-31T09:22:08Z</time></trkpt><trkpt lat="59.9566475675" lon="30.6395903137"><ele>61.66</ele><time>2026-03-31T09:22:17Z</time></trkpt><trkpt lat="59.9567452166" lon="30.6399691757"><ele>61.18</ele><time>2026-03-31T09:22:30Z</time></trkpt><trkpt lat="59.9567447137" lon="30.6401978340"><ele>61.18</ele><time>2026-03-31T09:22:41Z</time></trkpt><trkpt lat="59.9567684345" lon="30.6402953994"><ele>61.18</ele><time>2026-03-31T09:22:46Z</time></trkpt><trkpt lat="59.9568605516" lon="30.6405590102"><ele>60.70</ele><time>2026-03-31T09:23:03Z</time></trkpt><trkpt lat="59.9568611383" lon="30.6408429053"><ele>60.70</ele><time>2026-03-31T09:23:15Z</time></trkpt><trkpt lat="59.9568122718" lon="30.6408750080"><ele>60.22</ele><time>2026-03-31T09:23:19Z</time></trkpt><trkpt lat="59.9567920715" lon="30.6409244612"><ele>59.26</ele><time>2026-03-31T09:23:22Z</time></trkpt><trkpt lat="59.9566518422" lon="30.6410898361"><ele>56.37</ele><time>2026-03-31T09:23:34Z</time></trkpt><trkpt lat="59.9566459749" lon="30.6411360204"><ele>56.86</ele><time>2026-03-31T09:23:36Z</time></trkpt><trkpt lat="59.9566538539" lon="30.6411797740"><ele>55.89</ele><time>2026-03-31T09:23:38Z</time></trkpt><trkpt lat="59.9567613099" lon="30.6414256152"><ele>53.97</ele><time>2026-03-31T09:23:52Z</time></trkpt><trkpt lat="59.9569140282" lon="30.6418211572"><ele>52.53</ele><time>2026-03-31T09:24:09Z</time></trkpt><trkpt lat="59.9569742940" lon="30.6421239115"><ele>52.05</ele><time>2026-03-31T09:24:22Z</time></trkpt><trkpt lat="59.9569957517" lon="30.6422363129"><ele>51.57</ele><time>2026-03-31T09:24:27Z</time></trkpt><trkpt lat="59.9571407586" lon="30.6426501274"><ele>51.57</ele><time>2026-03-31T09:24:44Z</time></trkpt><trkpt lat="59.9571877811" lon="30.6428588368"><ele>51.09</ele><time>2026-03-31T09:24:59Z</time></trkpt><trkpt lat="59.9572074786" lon="30.6430198532"><ele>52.05</ele><time>2026-03-31T09:25:13Z</time></trkpt><trkpt lat="59.9572203029" lon="30.6435016450"><ele>52.05</ele><time>2026-03-31T09:25:32Z</time></trkpt><trkpt lat="59.9571537506" lon="30.6438287906"><ele>52.05</ele><time>2026-03-31T09:25:45Z</time></trkpt><trkpt lat="59.9570649862" lon="30.6439398509"><ele>52.05</ele><time>2026-03-31T09:26:00Z</time></trkpt><trkpt lat="59.9570280220" lon="30.6437850371"><ele>50.61</ele><time>2026-03-31T09:26:16Z</time></trkpt><trkpt lat="59.9570466299" lon="30.6436846219"><ele>50.13</ele><time>2026-03-31T09:26:33Z</time></trkpt><trkpt lat="59.9570566043" lon="30.6437063310"><ele>50.13</ele><time>2026-03-31T09:26:49Z</time></trkpt><trkpt lat="59.9570207298" lon="30.6439406890"><ele>50.13</ele><time>2026-03-31T09:27:02Z</time></trkpt><trkpt lat="59.9570348114" lon="30.6438418664"><ele>49.65</ele><time>2026-03-31T09:27:21Z</time></trkpt><trkpt lat="59.9570599571" lon="30.6435949355"><ele>49.65</ele><time>2026-03-31T09:27:41Z</time></trkpt><trkpt lat="59.9570673332" lon="30.6435381901"><ele>49.65</ele><time>2026-03-31T09:27:51Z</time></trkpt><trkpt lat="59.9571361486" lon="30.6434951909"><ele>49.65</ele><time>2026-03-31T09:27:58Z</time></trkpt><trkpt lat="59.9571674131" lon="30.6434307341"><ele>49.65</ele><time>2026-03-31T09:28:03Z</time></trkpt><trkpt lat="59.9572010245" lon="30.6430199370"><ele>50.61</ele><time>2026-03-31T09:28:20Z</time></trkpt><trkpt lat="59.9571334664" lon="30.6427166797"><ele>50.61</ele><time>2026-03-31T09:28:34Z</time></trkpt><trkpt lat="59.9570568558" lon="30.6424411666"><ele>50.61</ele><time>2026-03-31T09:28:50Z</time></trkpt><trkpt lat="59.9569613859" lon="30.6421278510"><ele>50.61</ele><time>2026-03-31T09:29:06Z</time></trkpt><trkpt lat="59.9569076579" lon="30.6418833509"><ele>50.13</ele><time>2026-03-31T09:29:17Z</time></trkpt><trkpt lat="59.9569014553" lon="30.6417336501"><ele>50.13</ele><time>2026-03-31T09:29:25Z</time></trkpt><trkpt lat="59.9568663351" lon="30.6415959354"><ele>50.13</ele><time>2026-03-31T09:29:31Z</time></trkpt><trkpt lat="59.9567209929" lon="30.6413459871"><ele>50.13</ele><time>2026-03-31T09:29:46Z</time></trkpt><trkpt lat="59.9566519260" lon="30.6411534548"><ele>50.61</ele><time>2026-03-31T09:29:57Z</time></trkpt><trkpt lat="59.9566596374" lon="30.6410297379"><ele>51.09</ele><time>2026-03-31T09:30:04Z</time></trkpt><trkpt lat="59.9566660915" lon="30.6409610063"><ele>51.09</ele><time>2026-03-31T09:30:07Z</time></trkpt><trkpt lat="59.9566358328" lon="30.6408576574"><ele>51.57</ele><time>2026-03-31T09:30:12Z</time></trkpt><trkpt lat="59.9565881398" lon="30.6405921187"><ele>52.05</ele><time>2026-03-31T09:30:26Z</time></trkpt><trkpt lat="59.9565430451" lon="30.6403870136"><ele>52.05</ele><time>2026-03-31T09:30:37Z</time></trkpt><trkpt lat="59.9565279577" lon="30.6400867738"><ele>53.01</ele><time>2026-03-31T09:30:48Z</time></trkpt><trkpt lat="59.9564856291" lon="30.6398649048"><ele>53.49</ele><time>2026-03-31T09:31:03Z</time></trkpt><trkpt lat="59.9564527720" lon="30.6395837758"><ele>54.45</ele><time>2026-03-31T09:31:14Z</time></trkpt><trkpt lat="59.9563576374" lon="30.6394815166"><ele>56.37</ele><time>2026-03-31T09:31:26Z</time></trkpt><trkpt lat="59.9563380238" lon="30.6394726317"><ele>56.37</ele><time>2026-03-31T09:31:28Z</time></trkpt><trkpt lat="59.9562356807" lon="30.6393555366"><ele>56.86</ele><time>2026-03-31T09:31:38Z</time></trkpt><trkpt lat="59.9561750796" lon="30.6391181611"><ele>56.37</ele><time>2026-03-31T09:31:51Z</time></trkpt><trkpt lat="59.9561605789" lon="30.6389445718"><ele>56.86</ele><time>2026-03-31T09:32:01Z</time></trkpt><trkpt lat="59.9561568908" lon="30.6388450786"><ele>56.86</ele><time>2026-03-31T09:32:08Z</time></trkpt><trkpt lat="59.9560199305" lon="30.6385603454"><ele>56.86</ele><time>2026-03-31T09:32:24Z</time></trkpt><trkpt lat="59.9559689686" lon="30.6386414822"><ele>54.93</ele><time>2026-03-31T09:32:37Z</time></trkpt><trkpt lat="59.9559382908" lon="30.6387781072"><ele>53.49</ele><time>2026-03-31T09:33:01Z</time></trkpt><trkpt lat="59.9559192639" lon="30.6388255488"><ele>53.49</ele><time>2026-03-31T09:33:07Z</time></trkpt><trkpt lat="59.9559666216" lon="30.6386644486"><ele>52.53</ele><time>2026-03-31T09:33:27Z</time></trkpt><trkpt lat="59.9559413083" lon="30.6385763548"><ele>53.97</ele><time>2026-03-31T09:33:51Z</time></trkpt><trkpt lat="59.9559866544" lon="30.6384481955"><ele>53.97</ele><time>2026-03-31T09:34:01Z</time></trkpt><trkpt lat="59.9558857363" lon="30.6380789727"><ele>53.97</ele><time>2026-03-31T09:34:18Z</time></trkpt><trkpt lat="59.9557533022" lon="30.6378226541"><ele>54.45</ele><time>2026-03-31T09:34:35Z</time></trkpt><trkpt lat="59.9556709919" lon="30.6376819219"><ele>54.45</ele><time>2026-03-31T09:34:44Z</time></trkpt><trkpt lat="59.9556471873" lon="30.6375911459"><ele>54.45</ele><time>2026-03-31T09:34:48Z</time></trkpt><trkpt lat="59.9555817246" lon="30.6374177244"><ele>54.93</ele><time>2026-03-31T09:35:09Z</time></trkpt><trkpt lat="59.9555251468" lon="30.6374225020"><ele>54.93</ele><time>2026-03-31T09:35:26Z</time></trkpt><trkpt lat="59.9554711673" lon="30.6373556145"><ele>54.45</ele><time>2026-03-31T09:35:40Z</time></trkpt><trkpt lat="59.9554468598" lon="30.6372630782"><ele>54.45</ele><time>2026-03-31T09:36:08Z</time></trkpt><trkpt lat="59.9553991668" lon="30.6373194046"><ele>54.45</ele><time>2026-03-31T09:36:32Z</time></trkpt><trkpt lat="59.9552943092" lon="30.6374494080"><ele>54.93</ele><time>2026-03-31T09:36:45Z</time></trkpt><trkpt lat="59.9552228115" lon="30.6375218276"><ele>55.41</ele><time>2026-03-31T09:36:53Z</time></trkpt><trkpt lat="59.9551605340" lon="30.6375141162"><ele>55.89</ele><time>2026-03-31T09:36:58Z</time></trkpt><trkpt lat="59.9550923053" lon="30.6374603044"><ele>56.37</ele><time>2026-03-31T09:37:03Z</time></trkpt><trkpt lat="59.9549965840" lon="30.6373142079"><ele>56.37</ele><time>2026-03-31T09:37:12Z</time></trkpt><trkpt lat="59.9549236614" lon="30.6371101085"><ele>56.86</ele><time>2026-03-31T09:37:22Z</time></trkpt><trkpt lat="59.9548488110" lon="30.6366869900"><ele>57.34</ele><time>2026-03-31T09:37:40Z</time></trkpt><trkpt lat="59.9547273573" lon="30.6363440026"><ele>57.34</ele><time>2026-03-31T09:37:58Z</time></trkpt><trkpt lat="59.9546904769" lon="30.6360354647"><ele>54.45</ele><time>2026-03-31T09:38:11Z</time></trkpt><trkpt lat="59.9546158779" lon="30.6357168686"><ele>53.01</ele><time>2026-03-31T09:38:24Z</time></trkpt><trkpt lat="59.9545276165" lon="30.6354030501"><ele>53.01</ele><time>2026-03-31T09:38:39Z</time></trkpt><trkpt lat="59.9544672668" lon="30.6349789258"><ele>52.05</ele><time>2026-03-31T09:38:57Z</time></trkpt><trkpt lat="59.9544492457" lon="30.6347448193"><ele>51.09</ele><time>2026-03-31T09:39:06Z</time></trkpt><trkpt lat="59.9544541072" lon="30.6346264668"><ele>50.61</ele><time>2026-03-31T09:39:11Z</time></trkpt><trkpt lat="59.9544540234" lon="30.6345508620"><ele>50.61</ele><time>2026-03-31T09:39:14Z</time></trkpt><trkpt lat="59.9543429632" lon="30.6343061943"><ele>50.61</ele><time>2026-03-31T09:39:28Z</time></trkpt><trkpt lat="59.9542795122" lon="30.6341873389"><ele>51.57</ele><time>2026-03-31T09:39:35Z</time></trkpt><trkpt lat="59.9542304780" lon="30.6340661366"><ele>51.57</ele><time>2026-03-31T09:39:41Z</time></trkpt><trkpt lat="59.9541167356" lon="30.6337728538"><ele>54.45</ele><time>2026-03-31T09:39:55Z</time></trkpt><trkpt lat="59.9540418852" lon="30.6335328799"><ele>55.89</ele><time>2026-03-31T09:40:06Z</time></trkpt><trkpt lat="59.9540325813" lon="30.6334949099"><ele>55.89</ele><time>2026-03-31T09:40:08Z</time></trkpt><trkpt lat="59.9539437331" lon="30.6333843525"><ele>56.37</ele><time>2026-03-31T09:40:16Z</time></trkpt><trkpt lat="59.9538105447" lon="30.6331333145"><ele>55.89</ele><time>2026-03-31T09:40:29Z</time></trkpt><trkpt lat="59.9537094589" lon="30.6327959429"><ele>54.45</ele><time>2026-03-31T09:40:45Z</time></trkpt><trkpt lat="59.9535785336" lon="30.6326606590"><ele>53.97</ele><time>2026-03-31T09:40:57Z</time></trkpt><trkpt lat="59.9534330238" lon="30.6324291509"><ele>52.53</ele><time>2026-03-31T09:41:10Z</time></trkpt><trkpt lat="59.9533182755" lon="30.6323074456"><ele>51.57</ele><time>2026-03-31T09:41:20Z</time></trkpt><trkpt lat="59.9531544931" lon="30.6323771831"><ele>51.57</ele><time>2026-03-31T09:41:34Z</time></trkpt><trkpt lat="59.9529545847" lon="30.6324520335"><ele>51.57</ele><time>2026-03-31T09:41:49Z</time></trkpt><trkpt lat="59.9527407624" lon="30.6324344315"><ele>51.57</ele><time>2026-03-31T09:42:04Z</time></trkpt><trkpt lat="59.9525550194" lon="30.6323487684"><ele>51.57</ele><time>2026-03-31T09:42:18Z</time></trkpt><trkpt lat="59.9523792509" lon="30.6323880795"><ele>52.53</ele><time>2026-03-31T09:42:30Z</time></trkpt><trkpt lat="59.9523402750" lon="30.6323902588"><ele>52.53</ele><time>2026-03-31T09:42:33Z</time></trkpt><trkpt lat="59.9521050788" lon="30.6324314140"><ele>52.53</ele><time>2026-03-31T09:42:49Z</time></trkpt><trkpt lat="59.9518747441" lon="30.6324596610"><ele>52.53</ele><time>2026-03-31T09:43:05Z</time></trkpt><trkpt lat="59.9517286476" lon="30.6324704736"><ele>53.01</ele><time>2026-03-31T09:43:17Z</time></trkpt><trkpt lat="59.9515828025" lon="30.6324751675"><ele>54.45</ele><time>2026-03-31T09:43:28Z</time></trkpt><trkpt lat="59.9514290784" lon="30.6324490998"><ele>55.41</ele><time>2026-03-31T09:43:40Z</time></trkpt><trkpt lat="59.9513323512" lon="30.6324701384"><ele>56.86</ele><time>2026-03-31T09:43:48Z</time></trkpt><trkpt lat="59.9511135835" lon="30.6325621717"><ele>59.26</ele><time>2026-03-31T09:44:06Z</time></trkpt><trkpt lat="59.9510521442" lon="30.6326249521"><ele>61.18</ele><time>2026-03-31T09:44:13Z</time></trkpt><trkpt lat="59.9509633798" lon="30.6326753274"><ele>60.70</ele><time>2026-03-31T09:44:18Z</time></trkpt><trkpt lat="59.9509405810" lon="30.6326944381"><ele>60.70</ele><time>2026-03-31T09:44:19Z</time></trkpt><trkpt lat="59.9509240687" lon="30.6327039935"><ele>60.70</ele><time>2026-03-31T09:44:20Z</time></trkpt><trkpt lat="59.9509135075" lon="30.6327082682"><ele>60.70</ele><time>2026-03-31T09:44:21Z</time></trkpt><trkpt lat="59.9509007670" lon="30.6327149738"><ele>60.70</ele><time>2026-03-31T09:44:22Z</time></trkpt><trkpt lat="59.9508746155" lon="30.6327267922"><ele>60.70</ele><time>2026-03-31T09:44:24Z</time></trkpt><trkpt lat="59.9507900421" lon="30.6328137964"><ele>59.74</ele><time>2026-03-31T09:44:31Z</time></trkpt><trkpt lat="59.9507795647" lon="30.6328188255"><ele>59.74</ele><time>2026-03-31T09:44:32Z</time></trkpt><trkpt lat="59.9507665727" lon="30.6328239385"><ele>59.26</ele><time>2026-03-31T09:44:33Z</time></trkpt><trkpt lat="59.9507549219" lon="30.6328288000"><ele>59.26</ele><time>2026-03-31T09:44:34Z</time></trkpt><trkpt lat="59.9507471267" lon="30.6328427140"><ele>59.26</ele><time>2026-03-31T09:44:35Z</time></trkpt><trkpt lat="59.9507357273" lon="30.6328647584"><ele>59.26</ele><time>2026-03-31T09:44:36Z</time></trkpt><trkpt lat="59.9507232383" lon="30.6328885630"><ele>59.26</ele><time>2026-03-31T09:44:37Z</time></trkpt><trkpt lat="59.9507099949" lon="30.6329060812"><ele>59.26</ele><time>2026-03-31T09:44:38Z</time></trkpt><trkpt lat="59.9505934864" lon="30.6330533512"><ele>58.30</ele><time>2026-03-31T09:44:49Z</time></trkpt><trkpt lat="59.9505769741" lon="30.6330572069"><ele>58.30</ele><time>2026-03-31T09:44:50Z</time></trkpt><trkpt lat="59.9505608808" lon="30.6330663431"><ele>58.30</ele><time>2026-03-31T09:44:51Z</time></trkpt><trkpt lat="59.9505466316" lon="30.6330841128"><ele>57.34</ele><time>2026-03-31T09:44:52Z</time></trkpt><trkpt lat="59.9505364895" lon="30.6331092585"><ele>57.34</ele><time>2026-03-31T09:44:53Z</time></trkpt><trkpt lat="59.9505307898" lon="30.6331335660"><ele>57.34</ele><time>2026-03-31T09:44:54Z</time></trkpt><trkpt lat="59.9505208991" lon="30.6331510004"><ele>57.34</ele><time>2026-03-31T09:44:55Z</time></trkpt><trkpt lat="59.9505065661" lon="30.6331630703"><ele>56.86</ele><time>2026-03-31T09:44:56Z</time></trkpt><trkpt lat="59.9502536841" lon="30.6333899684"><ele>55.41</ele><time>2026-03-31T09:45:17Z</time></trkpt><trkpt lat="59.9501298834" lon="30.6336208060"><ele>53.97</ele><time>2026-03-31T09:45:30Z</time></trkpt><trkpt lat="59.9500782508" lon="30.6337317824"><ele>53.49</ele><time>2026-03-31T09:45:37Z</time></trkpt><trkpt lat="59.9500655942" lon="30.6337564252"><ele>53.49</ele><time>2026-03-31T09:45:38Z</time></trkpt><trkpt lat="59.9500585534" lon="30.6337875221"><ele>53.49</ele><time>2026-03-31T09:45:39Z</time></trkpt><trkpt lat="59.9500564579" lon="30.6338163558"><ele>53.49</ele><time>2026-03-31T09:45:40Z</time></trkpt><trkpt lat="59.9500529375" lon="30.6338454410"><ele>53.01</ele><time>2026-03-31T09:45:41Z</time></trkpt><trkpt lat="59.9500460643" lon="30.6338715926"><ele>53.01</ele><time>2026-03-31T09:45:42Z</time></trkpt><trkpt lat="59.9500244390" lon="30.6339121610"><ele>53.01</ele><time>2026-03-31T09:45:44Z</time></trkpt><trkpt lat="59.9500152189" lon="30.6339405756"><ele>53.01</ele><time>2026-03-31T09:45:45Z</time></trkpt><trkpt lat="59.9499828648" lon="30.6342605967"><ele>53.01</ele><time>2026-03-31T09:46:00Z</time></trkpt><trkpt lat="59.9499185756" lon="30.6344850641"><ele>53.01</ele><time>2026-03-31T09:46:11Z</time></trkpt><trkpt lat="59.9499096908" lon="30.6345033366"><ele>53.01</ele><time>2026-03-31T09:46:12Z</time></trkpt><trkpt lat="59.9498070963" lon="30.6347754970"><ele>55.41</ele><time>2026-03-31T09:46:26Z</time></trkpt><trkpt lat="59.9497956969" lon="30.6349168997"><ele>56.37</ele><time>2026-03-31T09:46:43Z</time></trkpt><trkpt lat="59.9497975409" lon="30.6352069974"><ele>56.37</ele><time>2026-03-31T09:47:06Z</time></trkpt><trkpt lat="59.9497629236" lon="30.6355883740"><ele>54.93</ele><time>2026-03-31T09:47:23Z</time></trkpt><trkpt lat="59.9496361054" lon="30.6355913077"><ele>53.97</ele><time>2026-03-31T09:47:36Z</time></trkpt><trkpt lat="59.9496240355" lon="30.6354215741"><ele>53.49</ele><time>2026-03-31T09:47:55Z</time></trkpt><trkpt lat="59.9496042542" lon="30.6355176307"><ele>53.49</ele><time>2026-03-31T09:48:18Z</time></trkpt><trkpt lat="59.9496040866" lon="30.6355168764"><ele>53.49</ele><time>2026-03-31T09:48:19Z</time></trkpt></trkseg><trkseg><trkpt lat="60.1016131695" lon="30.1223805360"><ele>-46.97</ele><time>2026-04-01T09:23:06Z</time></trkpt><trkpt lat="60.1015950646" lon="30.1222319249"><ele>-46.49</ele><time>2026-04-01T09:23:24Z</time></trkpt><trkpt lat="60.1014869381" lon="30.1222460065"><ele>-45.53</ele><time>2026-04-01T09:23:49Z</time></trkpt><trkpt lat="60.1014829148" lon="30.1219703257"><ele>-43.60</ele><time>2026-04-01T09:24:16Z</time></trkpt><trkpt lat="60.1014177036" lon="30.1221368741"><ele>-41.68</ele><time>2026-04-01T09:24:56Z</time></trkpt><trkpt lat="60.1013534144" lon="30.1222045999"><ele>-40.72</ele><time>2026-04-01T09:25:19Z</time></trkpt><trkpt lat="60.1012749597" lon="30.1220690645"><ele>-40.24</ele><time>2026-04-01T09:25:40Z</time></trkpt><trkpt lat="60.1011885423" lon="30.1215037052"><ele>-39.28</ele><time>2026-04-01T09:26:07Z</time></trkpt><trkpt lat="60.1011053100" lon="30.1211819239"><ele>-38.32</ele><time>2026-04-01T09:26:26Z</time></trkpt><trkpt lat="60.1009612251" lon="30.1209979411"><ele>-36.87</ele><time>2026-04-01T09:26:42Z</time></trkpt><trkpt lat="60.1006884780" lon="30.1208336558"><ele>-35.43</ele><time>2026-04-01T09:27:09Z</time></trkpt><trkpt lat="60.1005917508" lon="30.1207986195"><ele>-33.99</ele><time>2026-04-01T09:27:30Z</time></trkpt><trkpt lat="60.1005184092" lon="30.1207343303"><ele>-33.03</ele><time>2026-04-01T09:27:59Z</time></trkpt><trkpt lat="60.1006095205" lon="30.1206981204"><ele>-32.07</ele><time>2026-04-01T09:28:28Z</time></trkpt><trkpt lat="60.1006122865" lon="30.1202257164"><ele>-31.11</ele><time>2026-04-01T09:28:49Z</time></trkpt><trkpt lat="60.1006974466" lon="30.1202733256"><ele>-30.14</ele><time>2026-04-01T09:29:17Z</time></trkpt><trkpt lat="60.1006390247" lon="30.1203293167"><ele>-29.66</ele><time>2026-04-01T09:29:42Z</time></trkpt><trkpt lat="60.1006344147" lon="30.1200156659"><ele>-28.70</ele><time>2026-04-01T09:30:05Z</time></trkpt><trkpt lat="60.1007334050" lon="30.1196564175"><ele>-28.22</ele><time>2026-04-01T09:30:26Z</time></trkpt><trkpt lat="60.1006702054" lon="30.1195956487"><ele>-27.26</ele><time>2026-04-01T09:30:48Z</time></trkpt><trkpt lat="60.1006381866" lon="30.1196156815"><ele>-26.78</ele><time>2026-04-01T09:31:09Z</time></trkpt><trkpt lat="60.1007643342" lon="30.1194224786"><ele>-26.30</ele><time>2026-04-01T09:31:27Z</time></trkpt><trkpt lat="60.1008050703" lon="30.1189657487"><ele>-25.34</ele><time>2026-04-01T09:31:46Z</time></trkpt><trkpt lat="60.1007888094" lon="30.1188872103"><ele>-24.86</ele><time>2026-04-01T09:32:01Z</time></trkpt><trkpt lat="60.1008437946" lon="30.1189220790"><ele>-24.86</ele><time>2026-04-01T09:32:36Z</time></trkpt><trkpt lat="60.1008429565" lon="30.1188591309"><ele>-24.38</ele><time>2026-04-01T09:32:58Z</time></trkpt><trkpt lat="60.1007748116" lon="30.1185986213"><ele>-23.90</ele><time>2026-04-01T09:33:19Z</time></trkpt><trkpt lat="60.1007677708" lon="30.1184538659"><ele>-22.93</ele><time>2026-04-01T09:33:42Z</time></trkpt><trkpt lat="60.1007129531" lon="30.1185686979"><ele>-22.45</ele><time>2026-04-01T09:34:01Z</time></trkpt><trkpt lat="60.1007557008" lon="30.1184839569"><ele>-22.45</ele><time>2026-04-01T09:34:21Z</time></trkpt><trkpt lat="60.1007700339" lon="30.1184350904"><ele>-21.01</ele><time>2026-04-01T09:34:55Z</time></trkpt><trkpt lat="60.1008381788" lon="30.1184754912"><ele>-20.53</ele><time>2026-04-01T09:35:18Z</time></trkpt><trkpt lat="60.1008702815" lon="30.1183492597"><ele>-20.05</ele><time>2026-04-01T09:35:35Z</time></trkpt><trkpt lat="60.1008099318" lon="30.1183789317"><ele>-18.61</ele><time>2026-04-01T09:36:17Z</time></trkpt><trkpt lat="60.1007441338" lon="30.1184163988"><ele>-18.13</ele><time>2026-04-01T09:36:34Z</time></trkpt><trkpt lat="60.1007698663" lon="30.1185305603"><ele>-18.13</ele><time>2026-04-01T09:36:39Z</time></trkpt><trkpt lat="60.1007298846" lon="30.1186256949"><ele>-17.65</ele><time>2026-04-01T09:36:51Z</time></trkpt><trkpt lat="60.1008075848" lon="30.1184957754"><ele>-17.17</ele><time>2026-04-01T09:37:11Z</time></trkpt><trkpt lat="60.1008396875" lon="30.1185811870"><ele>-17.17</ele><time>2026-04-01T09:37:14Z</time></trkpt><trkpt lat="60.1008164696" lon="30.1188116893"><ele>-17.17</ele><time>2026-04-01T09:37:21Z</time></trkpt><trkpt lat="60.1008241810" lon="30.1190768927"><ele>-16.69</ele><time>2026-04-01T09:37:32Z</time></trkpt><trkpt lat="60.1007802598" lon="30.1194038708"><ele>-16.21</ele><time>2026-04-01T09:37:49Z</time></trkpt><trkpt lat="60.1006913278" lon="30.1198639534"><ele>-16.21</ele><time>2026-04-01T09:38:05Z</time></trkpt><trkpt lat="60.1006730553" lon="30.1199521311"><ele>-15.72</ele><time>2026-04-01T09:38:09Z</time></trkpt><trkpt lat="60.1006111968" lon="30.1203879900"><ele>-15.72</ele><time>2026-04-01T09:38:23Z</time></trkpt><trkpt lat="60.1006429642" lon="30.1207225118"><ele>-15.24</ele><time>2026-04-01T09:38:37Z</time></trkpt><trkpt lat="60.1006671041" lon="30.1209188160"><ele>-14.28</ele><time>2026-04-01T09:38:52Z</time></trkpt><trkpt lat="60.1006552018" lon="30.1209031418"><ele>-13.80</ele><time>2026-04-01T09:39:05Z</time></trkpt><trkpt lat="60.1008688565" lon="30.1209170558"><ele>-13.80</ele><time>2026-04-01T09:39:22Z</time></trkpt><trkpt lat="60.1009083353" lon="30.1209744718"><ele>-13.32</ele><time>2026-04-01T09:39:27Z</time></trkpt><trkpt lat="60.1010920666" lon="30.1212913916"><ele>-13.32</ele><time>2026-04-01T09:39:43Z</time></trkpt><trkpt lat="60.1011928171" lon="30.1215662342"><ele>-14.28</ele><time>2026-04-01T09:39:54Z</time></trkpt><trkpt lat="60.1012153644" lon="30.1216519810"><ele>-14.28</ele><time>2026-04-01T09:39:57Z</time></trkpt><trkpt lat="60.1012351457" lon="30.1217443496"><ele>-14.28</ele><time>2026-04-01T09:40:01Z</time></trkpt><trkpt lat="60.1013249997" lon="30.1220717467"><ele>-14.28</ele><time>2026-04-01T09:40:16Z</time></trkpt><trkpt lat="60.1014064718" lon="30.1219731756"><ele>-13.80</ele><time>2026-04-01T09:40:30Z</time></trkpt><trkpt lat="60.1014036220" lon="30.1218646299"><ele>-13.80</ele><time>2026-04-01T09:40:35Z</time></trkpt><trkpt lat="60.1014166139" lon="30.1217985805"><ele>-13.80</ele><time>2026-04-01T09:40:40Z</time></trkpt><trkpt lat="60.1014516503" lon="30.1217986643"><ele>-14.28</ele><time>2026-04-01T09:40:59Z</time></trkpt><trkpt lat="60.1014350541" lon="30.1218242291"><ele>-13.80</ele><time>2026-04-01T09:41:27Z</time></trkpt><trkpt lat="60.1014897879" lon="30.1217842475"><ele>-13.32</ele><time>2026-04-01T09:41:47Z</time></trkpt><trkpt lat="60.1014441065" lon="30.1219678111"><ele>-13.32</ele><time>2026-04-01T09:41:56Z</time></trkpt><trkpt lat="60.1017178595" lon="30.1220222097"><ele>-45.53</ele><time>2026-04-01T10:12:50Z</time></trkpt><trkpt lat="60.1015784685" lon="30.1219582558"><ele>-45.53</ele><time>2026-04-01T10:12:51Z</time></trkpt><trkpt lat="60.1015283447" lon="30.1218670607"><ele>-43.60</ele><time>2026-04-01T10:12:56Z</time></trkpt><trkpt lat="60.1015293505" lon="30.1218670607"><ele>-39.28</ele><time>2026-04-01T10:12:57Z</time></trkpt><trkpt lat="60.1015368942" lon="30.1218721736"><ele>-35.43</ele><time>2026-04-01T10:12:59Z</time></trkpt><trkpt lat="60.1015447732" lon="30.1218710840"><ele>-31.11</ele><time>2026-04-01T10:13:01Z</time></trkpt><trkpt lat="60.1015604474" lon="30.1218680665"><ele>-26.78</ele><time>2026-04-01T10:13:03Z</time></trkpt><trkpt lat="60.1015577652" lon="30.1218555775"><ele>-22.93</ele><time>2026-04-01T10:13:05Z</time></trkpt><trkpt lat="60.1015566755" lon="30.1218583435"><ele>-19.09</ele><time>2026-04-01T10:13:07Z</time></trkpt><trkpt lat="60.1015347987" lon="30.1218460221"><ele>-15.72</ele><time>2026-04-01T10:13:09Z</time></trkpt><trkpt lat="60.1015156042" lon="30.1218378078"><ele>-12.84</ele><time>2026-04-01T10:13:11Z</time></trkpt><trkpt lat="60.1015088148" lon="30.1218419988"><ele>-8.51</ele><time>2026-04-01T10:13:14Z</time></trkpt><trkpt lat="60.1015152689" lon="30.1218585111"><ele>-4.19</ele><time>2026-04-01T10:13:17Z</time></trkpt><trkpt lat="60.1015180349" lon="30.1218560804"><ele>-0.82</ele><time>2026-04-01T10:13:20Z</time></trkpt><trkpt lat="60.1015228126" lon="30.1218595169"><ele>2.06</ele><time>2026-04-01T10:13:23Z</time></trkpt><trkpt lat="60.1015252434" lon="30.1218442619"><ele>5.91</ele><time>2026-04-01T10:13:27Z</time></trkpt><trkpt lat="60.1015268359" lon="30.1218996663"><ele>9.27</ele><time>2026-04-01T10:13:31Z</time></trkpt><trkpt lat="60.1015013549" lon="30.1219755225"><ele>12.63</ele><time>2026-04-01T10:13:36Z</time></trkpt><trkpt lat="60.1014993433" lon="30.1220119838"><ele>16.00</ele><time>2026-04-01T10:13:43Z</time></trkpt><trkpt lat="60.1015239023" lon="30.1220321842"><ele>18.88</ele><time>2026-04-01T10:13:50Z</time></trkpt><trkpt lat="60.1015108265" lon="30.1220249757"><ele>22.25</ele><time>2026-04-01T10:13:57Z</time></trkpt><trkpt lat="60.1014521532" lon="30.1219686493"><ele>25.61</ele><time>2026-04-01T10:14:08Z</time></trkpt><trkpt lat="60.1014478784" lon="30.1219414081"><ele>28.50</ele><time>2026-04-01T10:14:18Z</time></trkpt><trkpt lat="60.1014715154" lon="30.1219080482"><ele>31.86</ele><time>2026-04-01T10:14:32Z</time></trkpt><trkpt lat="60.1014236547" lon="30.1218974032"><ele>33.30</ele><time>2026-04-01T10:14:53Z</time></trkpt><trkpt lat="60.1014689170" lon="30.1219870895"><ele>33.78</ele><time>2026-04-01T10:15:14Z</time></trkpt><trkpt lat="60.1014960743" lon="30.1220259815"><ele>33.78</ele><time>2026-04-01T10:15:34Z</time></trkpt><trkpt lat="60.1014297735" lon="30.1221315935"><ele>33.78</ele><time>2026-04-01T10:15:57Z</time></trkpt><trkpt lat="60.1012989320" lon="30.1218998339"><ele>33.78</ele><time>2026-04-01T10:16:17Z</time></trkpt><trkpt lat="60.1012946572" lon="30.1218371373"><ele>33.78</ele><time>2026-04-01T10:16:24Z</time></trkpt><trkpt lat="60.1011709403" lon="30.1216500532"><ele>33.30</ele><time>2026-04-01T10:16:42Z</time></trkpt><trkpt lat="60.1010415237" lon="30.1213396713"><ele>33.30</ele><time>2026-04-01T10:17:04Z</time></trkpt><trkpt lat="60.1010276098" lon="30.1213260926"><ele>33.30</ele><time>2026-04-01T10:17:09Z</time></trkpt><trkpt lat="60.1009394322" lon="30.1210367493"><ele>32.82</ele><time>2026-04-01T10:17:23Z</time></trkpt><trkpt lat="60.1008086745" lon="30.1209260244"><ele>33.78</ele><time>2026-04-01T10:17:34Z</time></trkpt><trkpt lat="60.1007384341" lon="30.1208769064"><ele>33.78</ele><time>2026-04-01T10:17:52Z</time></trkpt><trkpt lat="60.1008213311" lon="30.1210713666"><ele>33.30</ele><time>2026-04-01T10:18:19Z</time></trkpt><trkpt lat="60.1008633245" lon="30.1210783236"><ele>33.30</ele><time>2026-04-01T10:18:42Z</time></trkpt><trkpt lat="60.1008024719" lon="30.1210089214"><ele>32.82</ele><time>2026-04-01T10:19:09Z</time></trkpt><trkpt lat="60.1008258574" lon="30.1209976058"><ele>32.82</ele><time>2026-04-01T10:19:32Z</time></trkpt><trkpt lat="60.1008410286" lon="30.1211394276"><ele>32.82</ele><time>2026-04-01T10:19:53Z</time></trkpt><trkpt lat="60.1008683536" lon="30.1210764796"><ele>32.82</ele><time>2026-04-01T10:20:12Z</time></trkpt><trkpt lat="60.1008266117" lon="30.1209817640"><ele>32.82</ele><time>2026-04-01T10:20:36Z</time></trkpt><trkpt lat="60.1008178946" lon="30.1210054010"><ele>32.82</ele><time>2026-04-01T10:20:59Z</time></trkpt><trkpt lat="60.1008230075" lon="30.1210051496"><ele>32.82</ele><time>2026-04-01T10:21:01Z</time></trkpt><trkpt lat="60.1007588860" lon="30.1210327260"><ele>32.82</ele><time>2026-04-01T10:21:28Z</time></trkpt><trkpt lat="60.1009183098" lon="30.1209773216"><ele>32.82</ele><time>2026-04-01T10:21:48Z</time></trkpt><trkpt lat="60.1008805074" lon="30.1210367493"><ele>32.82</ele><time>2026-04-01T10:22:14Z</time></trkpt><trkpt lat="60.1008329820" lon="30.1210352406"><ele>32.82</ele><time>2026-04-01T10:22:35Z</time></trkpt><trkpt lat="60.1007607300" lon="30.1210103463"><ele>33.30</ele><time>2026-04-01T10:23:03Z</time></trkpt><trkpt lat="60.1007151324" lon="30.1210816763"><ele>33.30</ele><time>2026-04-01T10:23:13Z</time></trkpt><trkpt lat="60.1007588021" lon="30.1208981127"><ele>33.30</ele><time>2026-04-01T10:23:31Z</time></trkpt><trkpt lat="60.1007308066" lon="30.1210315526"><ele>33.30</ele><time>2026-04-01T10:23:45Z</time></trkpt><trkpt lat="60.1008145418" lon="30.1210358273"><ele>33.30</ele><time>2026-04-01T10:24:02Z</time></trkpt><trkpt lat="60.1007941738" lon="30.1210419461"><ele>33.30</ele><time>2026-04-01T10:24:17Z</time></trkpt><trkpt lat="60.1007132884" lon="30.1209703647"><ele>32.82</ele><time>2026-04-01T10:24:46Z</time></trkpt><trkpt lat="60.1007194910" lon="30.1210552733"><ele>32.82</ele><time>2026-04-01T10:25:04Z</time></trkpt><trkpt lat="60.1007350814" lon="30.1210556086"><ele>32.34</ele><time>2026-04-01T10:25:23Z</time></trkpt><trkpt lat="60.1005531102" lon="30.1210317202"><ele>32.34</ele><time>2026-04-01T10:25:38Z</time></trkpt><trkpt lat="60.1005777530" lon="30.1209232584"><ele>32.34</ele><time>2026-04-01T10:26:01Z</time></trkpt><trkpt lat="60.1005418785" lon="30.1210108493"><ele>32.34</ele><time>2026-04-01T10:26:18Z</time></trkpt><trkpt lat="60.1005963609" lon="30.1208782475"><ele>31.86</ele><time>2026-04-01T10:26:41Z</time></trkpt><trkpt lat="60.1005936787" lon="30.1208697818"><ele>31.86</ele><time>2026-04-01T10:26:42Z</time></trkpt><trkpt lat="60.1005163975" lon="30.1208215859"><ele>31.86</ele><time>2026-04-01T10:27:09Z</time></trkpt><trkpt lat="60.1005784236" lon="30.1208067499"><ele>31.86</ele><time>2026-04-01T10:27:39Z</time></trkpt><trkpt lat="60.1005821116" lon="30.1207620744"><ele>31.86</ele><time>2026-04-01T10:28:24Z</time></trkpt><trkpt lat="60.1006029826" lon="30.1207002159"><ele>31.38</ele><time>2026-04-01T10:28:32Z</time></trkpt><trkpt lat="60.1005864702" lon="30.1203832123"><ele>31.38</ele><time>2026-04-01T10:28:46Z</time></trkpt><trkpt lat="60.1005872246" lon="30.1201735809"><ele>31.38</ele><time>2026-04-01T10:29:03Z</time></trkpt><trkpt lat="60.1006412879" lon="30.1199496165"><ele>31.38</ele><time>2026-04-01T10:29:18Z</time></trkpt><trkpt lat="60.1006682776" lon="30.1199443359"><ele>30.90</ele><time>2026-04-01T10:29:23Z</time></trkpt><trkpt lat="60.1006449759" lon="30.1199341938"><ele>30.90</ele><time>2026-04-01T10:29:44Z</time></trkpt><trkpt lat="60.1006941777" lon="30.1200029254"><ele>30.90</ele><time>2026-04-01T10:29:54Z</time></trkpt><trkpt lat="60.1008654200" lon="30.1200829726"><ele>30.90</ele><time>2026-04-01T10:30:07Z</time></trkpt><trkpt lat="60.1008800045" lon="30.1200827211"><ele>30.90</ele><time>2026-04-01T10:30:09Z</time></trkpt><trkpt lat="60.1008296292" lon="30.1201891713"><ele>30.42</ele><time>2026-04-01T10:30:28Z</time></trkpt><trkpt lat="60.1006596442" lon="30.1201177575"><ele>30.42</ele><time>2026-04-01T10:30:44Z</time></trkpt><trkpt lat="60.1006070059" lon="30.1200529654"><ele>30.42</ele><time>2026-04-01T10:30:51Z</time></trkpt><trkpt lat="60.1006979495" lon="30.1196150109"><ele>30.42</ele><time>2026-04-01T10:31:06Z</time></trkpt><trkpt lat="60.1006449759" lon="30.1198675577"><ele>29.94</ele><time>2026-04-01T10:31:24Z</time></trkpt><trkpt lat="60.1006102748" lon="30.1195816509"><ele>29.94</ele><time>2026-04-01T10:31:40Z</time></trkpt><trkpt lat="60.1005702931" lon="30.1195960678"><ele>29.94</ele><time>2026-04-01T10:32:02Z</time></trkpt><trkpt lat="60.1006598957" lon="30.1196397375"><ele>29.94</ele><time>2026-04-01T10:32:10Z</time></trkpt><trkpt lat="60.1007298008" lon="30.1196419168"><ele>29.94</ele><time>2026-04-01T10:32:23Z</time></trkpt><trkpt lat="60.1007939223" lon="30.1195005141"><ele>29.94</ele><time>2026-04-01T10:32:29Z</time></trkpt><trkpt lat="60.1008515898" lon="30.1190849394"><ele>29.94</ele><time>2026-04-01T10:32:45Z</time></trkpt><trkpt lat="60.1008609775" lon="30.1189945824"><ele>29.94</ele><time>2026-04-01T10:32:50Z</time></trkpt><trkpt lat="60.1007922459" lon="30.1187496632"><ele>29.94</ele><time>2026-04-01T10:33:05Z</time></trkpt><trkpt lat="60.1008763164" lon="30.1188240945"><ele>29.94</ele><time>2026-04-01T10:33:24Z</time></trkpt><trkpt lat="60.1009637397" lon="30.1187997032"><ele>29.94</ele><time>2026-04-01T10:33:29Z</time></trkpt><trkpt lat="60.1010529231" lon="30.1189040579"><ele>29.94</ele><time>2026-04-01T10:33:42Z</time></trkpt><trkpt lat="60.1009949204" lon="30.1189038903"><ele>29.94</ele><time>2026-04-01T10:34:01Z</time></trkpt><trkpt lat="60.1009906456" lon="30.1188903116"><ele>29.94</ele><time>2026-04-01T10:34:02Z</time></trkpt><trkpt lat="60.1009315532" lon="30.1188404392"><ele>29.94</ele><time>2026-04-01T10:34:06Z</time></trkpt><trkpt lat="60.1008996181" lon="30.1188420318"><ele>29.94</ele><time>2026-04-01T10:34:09Z</time></trkpt><trkpt lat="60.1008197386" lon="30.1188719552"><ele>29.94</ele><time>2026-04-01T10:34:14Z</time></trkpt><trkpt lat="60.1008081716" lon="30.1187901478"><ele>29.94</ele><time>2026-04-01T10:34:23Z</time></trkpt><trkpt lat="60.1007293817" lon="30.1184837893"><ele>29.94</ele><time>2026-04-01T10:34:37Z</time></trkpt><trkpt lat="60.1007659268" lon="30.1184687018"><ele>29.94</ele><time>2026-04-01T10:34:58Z</time></trkpt><trkpt lat="60.1007560361" lon="30.1185298059"><ele>29.94</ele><time>2026-04-01T10:35:24Z</time></trkpt><trkpt lat="60.1007616520" lon="30.1184685342"><ele>29.94</ele><time>2026-04-01T10:35:42Z</time></trkpt><trkpt lat="60.1007458102" lon="30.1184397005"><ele>29.94</ele><time>2026-04-01T10:35:56Z</time></trkpt><trkpt lat="60.1007427089" lon="30.1183753274"><ele>29.94</ele><time>2026-04-01T10:35:58Z</time></trkpt><trkpt lat="60.1007657591" lon="30.1182881556"><ele>29.94</ele><time>2026-04-01T10:36:02Z</time></trkpt><trkpt lat="60.1007380150" lon="30.1180805359"><ele>29.94</ele><time>2026-04-01T10:36:10Z</time></trkpt><trkpt lat="60.1007552817" lon="30.1177743450"><ele>29.94</ele><time>2026-04-01T10:36:22Z</time></trkpt><trkpt lat="60.1007490791" lon="30.1176435035"><ele>29.94</ele><time>2026-04-01T10:36:26Z</time></trkpt><trkpt lat="60.1008169726" lon="30.1174311899"><ele>29.94</ele><time>2026-04-01T10:36:36Z</time></trkpt><trkpt lat="60.1008876320" lon="30.1173891127"><ele>29.94</ele><time>2026-04-01T10:37:03Z</time></trkpt><trkpt lat="60.1008699462" lon="30.1173472870"><ele>29.94</ele><time>2026-04-01T10:37:10Z</time></trkpt><trkpt lat="60.1008377597" lon="30.1173882745"><ele>29.94</ele><time>2026-04-01T10:37:31Z</time></trkpt><trkpt lat="60.1009026356" lon="30.1178083755"><ele>28.98</ele><time>2026-04-01T10:37:47Z</time></trkpt><trkpt lat="60.1009064075" lon="30.1181131415"><ele>28.98</ele><time>2026-04-01T10:38:01Z</time></trkpt><trkpt lat="60.1009003725" lon="30.1182595734"><ele>28.98</ele><time>2026-04-01T10:38:07Z</time></trkpt><trkpt lat="60.1008947566" lon="30.1183393691"><ele>28.98</ele><time>2026-04-01T10:38:10Z</time></trkpt><trkpt lat="60.1007946767" lon="30.1186608151"><ele>28.98</ele><time>2026-04-01T10:38:26Z</time></trkpt><trkpt lat="60.1007836126" lon="30.1186890621"><ele>28.98</ele><time>2026-04-01T10:38:28Z</time></trkpt><trkpt lat="60.1007958502" lon="30.1190194767"><ele>28.98</ele><time>2026-04-01T10:38:41Z</time></trkpt><trkpt lat="60.1007961854" lon="30.1191030443"><ele>28.98</ele><time>2026-04-01T10:38:44Z</time></trkpt><trkpt lat="60.1007888094" lon="30.1195380650"><ele>28.98</ele><time>2026-04-01T10:39:00Z</time></trkpt><trkpt lat="60.1007805113" lon="30.1195853390"><ele>28.98</ele><time>2026-04-01T10:39:02Z</time></trkpt><trkpt lat="60.1007214189" lon="30.1198869199"><ele>28.98</ele><time>2026-04-01T10:39:15Z</time></trkpt><trkpt lat="60.1006728876" lon="30.1200403087"><ele>28.98</ele><time>2026-04-01T10:39:21Z</time></trkpt><trkpt lat="60.1006388571" lon="30.1204127166"><ele>28.50</ele><time>2026-04-01T10:39:35Z</time></trkpt><trkpt lat="60.1006417908" lon="30.1204362698"><ele>28.50</ele><time>2026-04-01T10:39:36Z</time></trkpt><trkpt lat="60.1006528549" lon="30.1207175665"><ele>28.50</ele><time>2026-04-01T10:39:50Z</time></trkpt><trkpt lat="60.1006311458" lon="30.1206445601"><ele>28.50</ele><time>2026-04-01T10:40:07Z</time></trkpt><trkpt lat="60.1006515138" lon="30.1208265312"><ele>28.50</ele><time>2026-04-01T10:40:18Z</time></trkpt><trkpt lat="60.1009073295" lon="30.1208546106"><ele>28.50</ele><time>2026-04-01T10:40:35Z</time></trkpt><trkpt lat="60.1009538490" lon="30.1208873000"><ele>28.50</ele><time>2026-04-01T10:40:39Z</time></trkpt><trkpt lat="60.1011145301" lon="30.1212177984"><ele>28.02</ele><time>2026-04-01T10:40:54Z</time></trkpt><trkpt lat="60.1011501532" lon="30.1213108376"><ele>28.02</ele><time>2026-04-01T10:40:58Z</time></trkpt><trkpt lat="60.1011634804" lon="30.1213636436"><ele>28.02</ele><time>2026-04-01T10:41:00Z</time></trkpt><trkpt lat="60.1012415998" lon="30.1218188647"><ele>27.05</ele><time>2026-04-01T10:41:17Z</time></trkpt><trkpt lat="60.1012169570" lon="30.1219588425"><ele>26.57</ele><time>2026-04-01T10:41:30Z</time></trkpt><trkpt lat="60.1013695914" lon="30.1221331861"><ele>26.57</ele><time>2026-04-01T10:41:42Z</time></trkpt><trkpt lat="60.1015018579" lon="30.1220836490"><ele>26.57</ele><time>2026-04-01T10:41:51Z</time></trkpt><trkpt lat="60.1014838368" lon="30.1219890174"><ele>26.57</ele><time>2026-04-01T10:42:00Z</time></trkpt><trkpt lat="60.1014687493" lon="30.1219994109"><ele>26.57</ele><time>2026-04-01T10:42:02Z</time></trkpt><trkpt lat="60.1020554826" lon="30.1240735129"><ele>25.61</ele><time>2026-04-01T12:08:09Z</time></trkpt><trkpt lat="60.1018765289" lon="30.1242543105"><ele>26.09</ele><time>2026-04-01T12:10:10Z</time></trkpt><trkpt lat="60.1018808037" lon="30.1241376344"><ele>26.09</ele><time>2026-04-01T12:10:37Z</time></trkpt><trkpt lat="60.1018812228" lon="30.1242688112"><ele>26.09</ele><time>2026-04-01T12:10:54Z</time></trkpt><trkpt lat="60.1019202825" lon="30.1242744271"><ele>26.09</ele><time>2026-04-01T12:11:23Z</time></trkpt><trkpt lat="60.1019300055" lon="30.1244037598"><ele>26.09</ele><time>2026-04-01T12:11:40Z</time></trkpt><trkpt lat="60.1020196080" lon="30.1244449988"><ele>26.09</ele><time>2026-04-01T12:11:59Z</time></trkpt><trkpt lat="60.1019490324" lon="30.1244760957"><ele>26.09</ele><time>2026-04-01T12:12:13Z</time></trkpt><trkpt lat="60.1019915286" lon="30.1245651953"><ele>26.09</ele><time>2026-04-01T12:12:29Z</time></trkpt><trkpt lat="60.1019466016" lon="30.1247174945"><ele>26.09</ele><time>2026-04-01T12:12:47Z</time></trkpt><trkpt lat="60.1019381359" lon="30.1245662011"><ele>26.09</ele><time>2026-04-01T12:13:02Z</time></trkpt><trkpt lat="60.1019942109" lon="30.1245606691"><ele>25.61</ele><time>2026-04-01T12:13:21Z</time></trkpt><trkpt lat="60.1020062808" lon="30.1246057637"><ele>25.61</ele><time>2026-04-01T12:13:28Z</time></trkpt><trkpt lat="60.1019415725" lon="30.1247269660"><ele>25.61</ele><time>2026-04-01T12:13:52Z</time></trkpt><trkpt lat="60.1018956397" lon="30.1246651914"><ele>25.61</ele><time>2026-04-01T12:14:10Z</time></trkpt><trkpt lat="60.1018995792" lon="30.1245219447"><ele>25.61</ele><time>2026-04-01T12:14:21Z</time></trkpt><trkpt lat="60.1018878445" lon="30.1243275683"><ele>25.61</ele><time>2026-04-01T12:14:38Z</time></trkpt><trkpt lat="60.1019313466" lon="30.1243226230"><ele>25.61</ele><time>2026-04-01T12:14:58Z</time></trkpt><trkpt lat="60.1019761059" lon="30.1243209466"><ele>25.61</ele><time>2026-04-01T12:15:18Z</time></trkpt><trkpt lat="60.1019884273" lon="30.1243515406"><ele>25.61</ele><time>2026-04-01T12:15:25Z</time></trkpt><trkpt lat="60.1020171773" lon="30.1243035123"><ele>25.61</ele><time>2026-04-01T12:15:29Z</time></trkpt><trkpt lat="60.1020510402" lon="30.1240451820"><ele>25.61</ele><time>2026-04-01T12:15:45Z</time></trkpt><trkpt lat="60.1020877529" lon="30.1237659808"><ele>25.61</ele><time>2026-04-01T12:16:01Z</time></trkpt><trkpt lat="60.1021372061" lon="30.1236414257"><ele>25.13</ele><time>2026-04-01T12:16:25Z</time></trkpt><trkpt lat="60.1021266449" lon="30.1236472931"><ele>25.13</ele><time>2026-04-01T12:16:32Z</time></trkpt><trkpt lat="60.1022360288" lon="30.1234574430"><ele>25.13</ele><time>2026-04-01T12:16:47Z</time></trkpt><trkpt lat="60.1022869907" lon="30.1232048962"><ele>25.13</ele><time>2026-04-01T12:17:02Z</time></trkpt><trkpt lat="60.1022559777" lon="30.1229521818"><ele>25.13</ele><time>2026-04-01T12:17:15Z</time></trkpt><trkpt lat="60.1022109669" lon="30.1228854619"><ele>25.13</ele><time>2026-04-01T12:17:19Z</time></trkpt><trkpt lat="60.1021064445" lon="30.1229360886"><ele>26.09</ele><time>2026-04-01T12:17:35Z</time></trkpt><trkpt lat="60.1020715758" lon="30.1229127869"><ele>26.09</ele><time>2026-04-01T12:17:50Z</time></trkpt><trkpt lat="60.1020774432" lon="30.1228321530"><ele>26.09</ele><time>2026-04-01T12:17:54Z</time></trkpt><trkpt lat="60.1020371262" lon="30.1226281375"><ele>26.09</ele><time>2026-04-01T12:18:10Z</time></trkpt><trkpt lat="60.1020059455" lon="30.1225569751"><ele>26.09</ele><time>2026-04-01T12:18:16Z</time></trkpt><trkpt lat="60.1019101404" lon="30.1223364472"><ele>27.53</ele><time>2026-04-01T12:18:29Z</time></trkpt><trkpt lat="60.1016972400" lon="30.1222284883"><ele>28.50</ele><time>2026-04-01T12:18:44Z</time></trkpt><trkpt lat="60.1015990879" lon="30.1221488602"><ele>28.98</ele><time>2026-04-01T12:18:54Z</time></trkpt><trkpt lat="60.1015038695" lon="30.1220746804"><ele>29.94</ele><time>2026-04-01T12:19:03Z</time></trkpt><trkpt lat="60.1014862675" lon="30.1220145822"><ele>29.94</ele><time>2026-04-01T12:19:07Z</time></trkpt><trkpt lat="60.1014396641" lon="30.1218611095"><ele>30.90</ele><time>2026-04-01T12:19:21Z</time></trkpt><trkpt lat="60.1014524046" lon="30.1219078805"><ele>31.86</ele><time>2026-04-01T12:22:05Z</time></trkpt><trkpt lat="60.1014276780" lon="30.1219064556"><ele>31.86</ele><time>2026-04-01T12:26:18Z</time></trkpt><trkpt lat="60.1014102437" lon="30.1219250634"><ele>30.90</ele><time>2026-04-01T12:30:40Z</time></trkpt><trkpt lat="60.1014385745" lon="30.1219494548"><ele>31.38</ele><time>2026-04-01T12:33:48Z</time></trkpt><trkpt lat="60.1014487166" lon="30.1219643746"><ele>31.38</ele><time>2026-04-01T12:34:39Z</time></trkpt><trkpt lat="60.1014633011" lon="30.1219678950"><ele>31.86</ele><time>2026-04-01T12:36:19Z</time></trkpt><trkpt lat="60.1014196314" lon="30.1219809707"><ele>31.86</ele><time>2026-04-01T12:36:31Z</time></trkpt><trkpt lat="60.1014077291" lon="30.1220059488"><ele>31.86</ele><time>2026-04-01T12:36:34Z</time></trkpt><trkpt lat="60.1014814060" lon="30.1221272349"><ele>31.86</ele><time>2026-04-01T12:36:48Z</time></trkpt><trkpt lat="60.1015055459" lon="30.1222210284"><ele>31.86</ele><time>2026-04-01T12:37:14Z</time></trkpt><trkpt lat="60.1015379839" lon="30.1222821325"><ele>31.86</ele><time>2026-04-01T12:37:31Z</time></trkpt><trkpt lat="60.1016435958" lon="30.1221752632"><ele>31.86</ele><time>2026-04-01T12:37:44Z</time></trkpt><trkpt lat="60.1017604396" lon="30.1221681386"><ele>30.42</ele><time>2026-04-01T12:38:00Z</time></trkpt><trkpt lat="60.1018444262" lon="30.1221372094"><ele>29.46</ele><time>2026-04-01T12:38:18Z</time></trkpt><trkpt lat="60.1018716674" lon="30.1223018300"><ele>28.98</ele><time>2026-04-01T12:38:28Z</time></trkpt><trkpt lat="60.1019989885" lon="30.1224905066"><ele>28.02</ele><time>2026-04-01T12:38:42Z</time></trkpt><trkpt lat="60.1022086199" lon="30.1225208491"><ele>26.57</ele><time>2026-04-01T12:39:03Z</time></trkpt><trkpt lat="60.1024156529" lon="30.1225762535"><ele>25.61</ele><time>2026-04-01T12:39:20Z</time></trkpt><trkpt lat="60.1025782619" lon="30.1221695635"><ele>25.13</ele><time>2026-04-01T12:39:43Z</time></trkpt><trkpt lat="60.1026518550" lon="30.1219590101"><ele>25.13</ele><time>2026-04-01T12:39:55Z</time></trkpt><trkpt lat="60.1025873981" lon="30.1220923662"><ele>24.65</ele><time>2026-04-01T12:40:10Z</time></trkpt><trkpt lat="60.1024639327" lon="30.1223931089"><ele>24.65</ele><time>2026-04-01T12:40:26Z</time></trkpt><trkpt lat="60.1023879927" lon="30.1226403750"><ele>24.17</ele><time>2026-04-01T12:40:42Z</time></trkpt><trkpt lat="60.1022681314" lon="30.1230352465"><ele>24.17</ele><time>2026-04-01T12:41:00Z</time></trkpt><trkpt lat="60.1021854021" lon="30.1232960913"><ele>23.69</ele><time>2026-04-01T12:41:27Z</time></trkpt><trkpt lat="60.1021473482" lon="30.1233284455"><ele>23.69</ele><time>2026-04-01T12:41:56Z</time></trkpt><trkpt lat="60.1020968053" lon="30.1235332992"><ele>23.69</ele><time>2026-04-01T12:42:13Z</time></trkpt><trkpt lat="60.1020507049" lon="30.1239694934"><ele>23.69</ele><time>2026-04-01T12:42:39Z</time></trkpt><trkpt lat="60.1021110546" lon="30.1240742672"><ele>23.69</ele><time>2026-04-01T12:43:13Z</time></trkpt><trkpt lat="60.1021626871" lon="30.1241204515"><ele>23.69</ele><time>2026-04-01T12:43:35Z</time></trkpt><trkpt lat="60.1022126433" lon="30.1241900213"><ele>23.69</ele><time>2026-04-01T12:43:43Z</time></trkpt><trkpt lat="60.1023313310" lon="30.1244071964"><ele>23.69</ele><time>2026-04-01T12:43:58Z</time></trkpt><trkpt lat="60.1023560576" lon="30.1244165841"><ele>23.69</ele><time>2026-04-01T12:44:21Z</time></trkpt><trkpt lat="60.1023190096" lon="30.1245833840"><ele>23.21</ele><time>2026-04-01T12:44:40Z</time></trkpt><trkpt lat="60.1022556424" lon="30.1244803704"><ele>23.21</ele><time>2026-04-01T12:45:01Z</time></trkpt><trkpt lat="60.1022062730" lon="30.1243692264"><ele>23.21</ele><time>2026-04-01T12:45:07Z</time></trkpt><trkpt lat="60.1020753477" lon="30.1243450027"><ele>23.21</ele><time>2026-04-01T12:45:19Z</time></trkpt><trkpt lat="60.1019242220" lon="30.1243824698"><ele>23.21</ele><time>2026-04-01T12:45:33Z</time></trkpt><trkpt lat="60.1018871740" lon="30.1244449150"><ele>23.21</ele><time>2026-04-01T12:46:13Z</time></trkpt><trkpt lat="60.1018310152" lon="30.1244222838"><ele>23.21</ele><time>2026-04-01T12:46:20Z</time></trkpt><trkpt lat="60.1018150896" lon="30.1244275644"><ele>24.17</ele><time>2026-04-01T12:46:22Z</time></trkpt><trkpt lat="60.1017871778" lon="30.1244371198"><ele>24.17</ele><time>2026-04-01T12:46:25Z</time></trkpt><trkpt lat="60.1017272472" lon="30.1244385447"><ele>24.17</ele><time>2026-04-01T12:46:29Z</time></trkpt><trkpt lat="60.1015707571" lon="30.1245424803"><ele>24.17</ele><time>2026-04-01T12:46:43Z</time></trkpt><trkpt lat="60.1015868504" lon="30.1245426480"><ele>24.17</ele><time>2026-04-01T12:46:47Z</time></trkpt><trkpt lat="60.1016257424" lon="30.1246309094"><ele>24.17</ele><time>2026-04-01T12:47:17Z</time></trkpt><trkpt lat="60.1016650535" lon="30.1246251259"><ele>24.17</ele><time>2026-04-01T12:47:33Z</time></trkpt><trkpt lat="60.1017212123" lon="30.1246859785"><ele>24.17</ele><time>2026-04-01T12:47:40Z</time></trkpt><trkpt lat="60.1018228848" lon="30.1248296443"><ele>24.17</ele><time>2026-04-01T12:47:52Z</time></trkpt><trkpt lat="60.1018998306" lon="30.1248404570"><ele>24.17</ele><time>2026-04-01T12:48:06Z</time></trkpt><trkpt lat="60.1019046921" lon="30.1248244476"><ele>24.17</ele><time>2026-04-01T12:48:07Z</time></trkpt><trkpt lat="60.1019242220" lon="30.1248322427"><ele>24.17</ele><time>2026-04-01T12:48:23Z</time></trkpt><trkpt lat="60.1019735076" lon="30.1249137148"><ele>24.17</ele><time>2026-04-01T12:48:43Z</time></trkpt><trkpt lat="60.1020131540" lon="30.1249945164"><ele>23.69</ele><time>2026-04-01T12:48:55Z</time></trkpt><trkpt lat="60.1022033393" lon="30.1252477337"><ele>22.73</ele><time>2026-04-01T12:49:12Z</time></trkpt><trkpt lat="60.1022179238" lon="30.1252780762"><ele>22.25</ele><time>2026-04-01T12:49:32Z</time></trkpt><trkpt lat="60.1022441592" lon="30.1251751464"><ele>21.29</ele><time>2026-04-01T12:49:59Z</time></trkpt><trkpt lat="60.1022158284" lon="30.1252313051"><ele>21.29</ele><time>2026-04-01T12:50:23Z</time></trkpt><trkpt lat="60.1022011600" lon="30.1252658386"><ele>21.29</ele><time>2026-04-01T12:50:32Z</time></trkpt><trkpt lat="60.1021871623" lon="30.1251277886"><ele>21.29</ele><time>2026-04-01T12:50:47Z</time></trkpt><trkpt lat="60.1021815464" lon="30.1248722244"><ele>21.29</ele><time>2026-04-01T12:50:59Z</time></trkpt><trkpt lat="60.1021724101" lon="30.1248268783"><ele>21.29</ele><time>2026-04-01T12:51:01Z</time></trkpt><trkpt lat="60.1021546405" lon="30.1247783471"><ele>21.29</ele><time>2026-04-01T12:51:04Z</time></trkpt><trkpt lat="60.1021013316" lon="30.1244392153"><ele>22.25</ele><time>2026-04-01T12:51:17Z</time></trkpt><trkpt lat="60.1019956358" lon="30.1242258120"><ele>22.25</ele><time>2026-04-01T12:51:30Z</time></trkpt><trkpt lat="60.1020755153" lon="30.1238553319"><ele>22.73</ele><time>2026-04-01T12:51:46Z</time></trkpt><trkpt lat="60.1021514554" lon="30.1235030405"><ele>22.73</ele><time>2026-04-01T12:52:02Z</time></trkpt><trkpt lat="60.1021984778" lon="30.1232636534"><ele>22.73</ele><time>2026-04-01T12:52:14Z</time></trkpt><trkpt lat="60.1022292394" lon="30.1231386792"><ele>22.25</ele><time>2026-04-01T12:52:30Z</time></trkpt><trkpt lat="60.1022206899" lon="30.1231482346"><ele>22.25</ele><time>2026-04-01T12:52:31Z</time></trkpt><trkpt lat="60.1021493599" lon="30.1231303811"><ele>22.25</ele><time>2026-04-01T12:52:38Z</time></trkpt><trkpt lat="60.1020882558" lon="30.1231240947"><ele>22.73</ele><time>2026-04-01T12:52:43Z</time></trkpt><trkpt lat="60.1020386349" lon="30.1230632421"><ele>22.73</ele><time>2026-04-01T12:52:51Z</time></trkpt><trkpt lat="60.1019989047" lon="30.1229500864"><ele>23.21</ele><time>2026-04-01T12:52:57Z</time></trkpt><trkpt lat="60.1019030996" lon="30.1226365194"><ele>23.69</ele><time>2026-04-01T12:53:14Z</time></trkpt><trkpt lat="60.1018264052" lon="30.1225956157"><ele>24.17</ele><time>2026-04-01T12:53:23Z</time></trkpt><trkpt lat="60.1017581765" lon="30.1224278100"><ele>24.65</ele><time>2026-04-01T12:53:40Z</time></trkpt><trkpt lat="60.1016586833" lon="30.1223423146"><ele>25.13</ele><time>2026-04-01T12:53:56Z</time></trkpt><trkpt lat="60.1016108226" lon="30.1222721580"><ele>25.61</ele><time>2026-04-01T12:54:02Z</time></trkpt><trkpt lat="60.1014807355" lon="30.1221354492"><ele>26.09</ele><time>2026-04-01T12:54:15Z</time></trkpt><trkpt lat="60.1014239900" lon="30.1222445816"><ele>27.53</ele><time>2026-04-01T12:54:48Z</time></trkpt><trkpt lat="60.1014534943" lon="30.1222507842"><ele>27.53</ele><time>2026-04-01T12:54:59Z</time></trkpt><trkpt lat="60.1013793144" lon="30.1219485328"><ele>27.05</ele><time>2026-04-01T12:55:17Z</time></trkpt><trkpt lat="60.1014081482" lon="30.1220018417"><ele>27.05</ele><time>2026-04-01T12:55:36Z</time></trkpt><trkpt lat="60.1014246605" lon="30.1220647059"><ele>27.05</ele><time>2026-04-01T12:55:46Z</time></trkpt><trkpt lat="60.1014316175" lon="30.1219942980"><ele>27.05</ele><time>2026-04-01T12:55:49Z</time></trkpt></trkseg><trkseg><trkpt lat="57.8905924223" lon="33.8907562103"><ele>292.38</ele><time>2026-04-06T16:38:05Z</time></trkpt><trkpt lat="57.8905945178" lon="33.8907557912"><ele>288.53</ele><time>2026-04-06T16:38:06Z</time></trkpt><trkpt lat="57.8905962780" lon="33.8907553721"><ele>285.17</ele><time>2026-04-06T16:38:07Z</time></trkpt><trkpt lat="57.8905980382" lon="33.8907567132"><ele>277.96</ele><time>2026-04-06T16:38:08Z</time></trkpt><trkpt lat="57.8905989602" lon="33.8907567132"><ele>277.96</ele><time>2026-04-06T16:38:09Z</time></trkpt><trkpt lat="57.8905994631" lon="33.8907570485"><ele>274.59</ele><time>2026-04-06T16:38:10Z</time></trkpt><trkpt lat="57.8905987088" lon="33.8907577191"><ele>271.71</ele><time>2026-04-06T16:38:11Z</time></trkpt><trkpt lat="57.8905972000" lon="33.8907588925"><ele>268.83</ele><time>2026-04-06T16:38:12Z</time></trkpt><trkpt lat="57.8905935120" lon="33.8907605689"><ele>263.06</ele><time>2026-04-06T16:38:14Z</time></trkpt><trkpt lat="57.8905896563" lon="33.8907625806"><ele>257.77</ele><time>2026-04-06T16:38:16Z</time></trkpt><trkpt lat="57.8905837052" lon="33.8907645922"><ele>252.48</ele><time>2026-04-06T16:38:18Z</time></trkpt><trkpt lat="57.8905765805" lon="33.8907707110"><ele>248.16</ele><time>2026-04-06T16:38:21Z</time></trkpt><trkpt lat="57.8905741498" lon="33.8907731418"><ele>248.16</ele><time>2026-04-06T16:38:22Z</time></trkpt><trkpt lat="57.8905657679" lon="33.8907770813"><ele>243.83</ele><time>2026-04-06T16:38:25Z</time></trkpt><trkpt lat="57.8905626666" lon="33.8907780871"><ele>239.51</ele><time>2026-04-06T16:38:27Z</time></trkpt><trkpt lat="57.8905598167" lon="33.8907790091"><ele>235.66</ele><time>2026-04-06T16:38:29Z</time></trkpt><trkpt lat="57.8905569669" lon="33.8907811884"><ele>232.30</ele><time>2026-04-06T16:38:31Z</time></trkpt><trkpt lat="57.8905546200" lon="33.8907835353"><ele>228.93</ele><time>2026-04-06T16:38:33Z</time></trkpt><trkpt lat="57.8905531112" lon="33.8907868043"><ele>225.57</ele><time>2026-04-06T16:38:35Z</time></trkpt><trkpt lat="57.8905515186" lon="33.8907895703"><ele>222.68</ele><time>2026-04-06T16:38:37Z</time></trkpt><trkpt lat="57.8905493394" lon="33.8907911628"><ele>218.36</ele><time>2026-04-06T16:38:40Z</time></trkpt><trkpt lat="57.8905397002" lon="33.8907920010"><ele>214.51</ele><time>2026-04-06T16:38:43Z</time></trkpt><trkpt lat="57.8905371018" lon="33.8907921687"><ele>211.15</ele><time>2026-04-06T16:38:46Z</time></trkpt><trkpt lat="57.8905364312" lon="33.8907924201"><ele>211.15</ele><time>2026-04-06T16:38:47Z</time></trkpt><trkpt lat="57.8905344196" lon="33.8907965273"><ele>208.26</ele><time>2026-04-06T16:38:51Z</time></trkpt><trkpt lat="57.8905322403" lon="33.8907981198"><ele>206.82</ele><time>2026-04-06T16:38:54Z</time></trkpt><trkpt lat="57.8905287199" lon="33.8907996286"><ele>203.46</ele><time>2026-04-06T16:38:58Z</time></trkpt><trkpt lat="57.8905270435" lon="33.8908009697"><ele>202.49</ele><time>2026-04-06T16:39:00Z</time></trkpt><trkpt lat="57.8905264568" lon="33.8907998800"><ele>199.61</ele><time>2026-04-06T16:39:04Z</time></trkpt><trkpt lat="57.8905258700" lon="33.8908001315"><ele>199.61</ele><time>2026-04-06T16:39:05Z</time></trkpt><trkpt lat="57.8905246966" lon="33.8907946832"><ele>196.25</ele><time>2026-04-06T16:39:12Z</time></trkpt><trkpt lat="57.8905303963" lon="33.8907809369"><ele>192.88</ele><time>2026-04-06T16:39:18Z</time></trkpt><trkpt lat="57.8905385267" lon="33.8907605689"><ele>190.00</ele><time>2026-04-06T16:39:26Z</time></trkpt><trkpt lat="57.8905440588" lon="33.8907438889"><ele>186.63</ele><time>2026-04-06T16:39:40Z</time></trkpt><trkpt lat="57.8905875608" lon="33.8907445595"><ele>183.75</ele><time>2026-04-06T16:40:16Z</time></trkpt><trkpt lat="57.8905860521" lon="33.8906588126"><ele>183.75</ele><time>2026-04-06T16:40:37Z</time></trkpt><trkpt lat="57.8905568831" lon="33.8906190824"><ele>183.75</ele><time>2026-04-06T16:40:42Z</time></trkpt><trkpt lat="57.8904288914" lon="33.8904381171"><ele>183.75</ele><time>2026-04-06T16:41:00Z</time></trkpt><trkpt lat="57.8904218506" lon="33.8904589880"><ele>183.75</ele><time>2026-04-06T16:41:21Z</time></trkpt><trkpt lat="57.8903856408" lon="33.8904156536"><ele>183.75</ele><time>2026-04-06T16:41:31Z</time></trkpt><trkpt lat="57.8903208487" lon="33.8902772684"><ele>183.75</ele><time>2026-04-06T16:41:48Z</time></trkpt><trkpt lat="57.8901921026" lon="33.8901939522"><ele>183.75</ele><time>2026-04-06T16:42:00Z</time></trkpt><trkpt lat="57.8897790425" lon="33.8897535671"><ele>183.75</ele><time>2026-04-06T16:42:49Z</time></trkpt><trkpt lat="57.8897046112" lon="33.8895808998"><ele>184.71</ele><time>2026-04-06T16:43:04Z</time></trkpt><trkpt lat="57.8896529786" lon="33.8894072268"><ele>184.71</ele><time>2026-04-06T16:43:14Z</time></trkpt><trkpt lat="57.8896459378" lon="33.8890739623"><ele>184.71</ele><time>2026-04-06T16:43:32Z</time></trkpt><trkpt lat="57.8895803913" lon="33.8887884747"><ele>184.71</ele><time>2026-04-06T16:43:46Z</time></trkpt><trkpt lat="57.8895544074" lon="33.8884741534"><ele>184.71</ele><time>2026-04-06T16:44:02Z</time></trkpt><trkpt lat="57.8895335365" lon="33.8883951120"><ele>184.71</ele><time>2026-04-06T16:44:06Z</time></trkpt><trkpt lat="57.8895037808" lon="33.8882585708"><ele>184.71</ele><time>2026-04-06T16:44:14Z</time></trkpt><trkpt lat="57.8894839995" lon="33.8882218581"><ele>184.71</ele><time>2026-04-06T16:44:27Z</time></trkpt><trkpt lat="57.8894104902" lon="33.8880854845"><ele>184.71</ele><time>2026-04-06T16:44:54Z</time></trkpt><trkpt lat="57.8893841710" lon="33.8880424853"><ele>184.71</ele><time>2026-04-06T16:44:58Z</time></trkpt><trkpt lat="57.8893752024" lon="33.8880157471"><ele>184.71</ele><time>2026-04-06T16:45:00Z</time></trkpt><trkpt lat="57.8893337119" lon="33.8878821395"><ele>184.71</ele><time>2026-04-06T16:45:10Z</time></trkpt><trkpt lat="57.8893034533" lon="33.8877526391"><ele>184.71</ele><time>2026-04-06T16:45:18Z</time></trkpt><trkpt lat="57.8893006872" lon="33.8876884338"><ele>184.71</ele><time>2026-04-06T16:45:21Z</time></trkpt><trkpt lat="57.8893793933" lon="33.8874204643"><ele>183.75</ele><time>2026-04-06T16:45:37Z</time></trkpt><trkpt lat="57.8894077241" lon="33.8873520680"><ele>183.75</ele><time>2026-04-06T16:45:42Z</time></trkpt><trkpt lat="57.8895281721" lon="33.8871741202"><ele>183.75</ele><time>2026-04-06T16:45:56Z</time></trkpt><trkpt lat="57.8896228876" lon="33.8869577833"><ele>183.75</ele><time>2026-04-06T16:46:09Z</time></trkpt><trkpt lat="57.8895595204" lon="33.8867259398"><ele>183.75</ele><time>2026-04-06T16:46:25Z</time></trkpt><trkpt lat="57.8895246517" lon="33.8866129518"><ele>183.27</ele><time>2026-04-06T16:46:33Z</time></trkpt><trkpt lat="57.8894348815" lon="33.8864422124"><ele>183.27</ele><time>2026-04-06T16:46:44Z</time></trkpt><trkpt lat="57.8893928044" lon="33.8863506820"><ele>183.27</ele><time>2026-04-06T16:46:52Z</time></trkpt><trkpt lat="57.8893747833" lon="33.8862589840"><ele>183.27</ele><time>2026-04-06T16:46:57Z</time></trkpt><trkpt lat="57.8893296886" lon="33.8860939443"><ele>182.31</ele><time>2026-04-06T16:47:10Z</time></trkpt><trkpt lat="57.8892526589" lon="33.8858854864"><ele>182.31</ele><time>2026-04-06T16:47:25Z</time></trkpt><trkpt lat="57.8891912196" lon="33.8856383041"><ele>182.31</ele><time>2026-04-06T16:47:41Z</time></trkpt><trkpt lat="57.8891223203" lon="33.8853970729"><ele>182.31</ele><time>2026-04-06T16:47:57Z</time></trkpt><trkpt lat="57.8890492301" lon="33.8851532433"><ele>182.31</ele><time>2026-04-06T16:48:11Z</time></trkpt><trkpt lat="57.8889295366" lon="33.8848323002"><ele>181.83</ele><time>2026-04-06T16:48:29Z</time></trkpt><trkpt lat="57.8888261877" lon="33.8846622314"><ele>181.83</ele><time>2026-04-06T16:48:42Z</time></trkpt><trkpt lat="57.8887642454" lon="33.8845338207"><ele>181.83</ele><time>2026-04-06T16:48:56Z</time></trkpt><trkpt lat="57.8887132835" lon="33.8844140433"><ele>181.83</ele><time>2026-04-06T16:49:05Z</time></trkpt><trkpt lat="57.8887012135" lon="33.8843293861"><ele>181.83</ele><time>2026-04-06T16:49:09Z</time></trkpt><trkpt lat="57.8886594716" lon="33.8841450680"><ele>181.83</ele><time>2026-04-06T16:49:22Z</time></trkpt><trkpt lat="57.8886748943" lon="33.8841420505"><ele>181.83</ele><time>2026-04-06T16:49:32Z</time></trkpt><trkpt lat="57.8886755649" lon="33.8841554616"><ele>181.83</ele><time>2026-04-06T16:49:46Z</time></trkpt><trkpt lat="57.8886670992" lon="33.8841291424"><ele>181.83</ele><time>2026-04-06T16:49:49Z</time></trkpt><trkpt lat="57.8886424564" lon="33.8840475865"><ele>181.35</ele><time>2026-04-06T16:49:53Z</time></trkpt><trkpt lat="57.8885210026" lon="33.8838321716"><ele>181.35</ele><time>2026-04-06T16:50:08Z</time></trkpt><trkpt lat="57.8884561267" lon="33.8837239612"><ele>181.35</ele><time>2026-04-06T16:50:15Z</time></trkpt><trkpt lat="57.8883445635" lon="33.8837174233"><ele>181.35</ele><time>2026-04-06T16:50:26Z</time></trkpt><trkpt lat="57.8883165680" lon="33.8836595882"><ele>181.35</ele><time>2026-04-06T16:50:30Z</time></trkpt><trkpt lat="57.8882608283" lon="33.8836129848"><ele>181.35</ele><time>2026-04-06T16:50:35Z</time></trkpt><trkpt lat="57.8881444875" lon="33.8835973945"><ele>181.35</ele><time>2026-04-06T16:50:46Z</time></trkpt><trkpt lat="57.8880465031" lon="33.8836468477"><ele>181.35</ele><time>2026-04-06T16:50:54Z</time></trkpt><trkpt lat="57.8879375383" lon="33.8837206922"><ele>181.35</ele><time>2026-04-06T16:51:05Z</time></trkpt><trkpt lat="57.8878113069" lon="33.8837607577"><ele>181.35</ele><time>2026-04-06T16:51:18Z</time></trkpt><trkpt lat="57.8876675572" lon="33.8837749232"><ele>180.87</ele><time>2026-04-06T16:51:33Z</time></trkpt><trkpt lat="57.8876233008" lon="33.8838726562"><ele>180.87</ele><time>2026-04-06T16:51:40Z</time></trkpt><trkpt lat="57.8874944709" lon="33.8841601554"><ele>181.83</ele><time>2026-04-06T16:52:01Z</time></trkpt><trkpt lat="57.8873705026" lon="33.8844396919"><ele>181.83</ele><time>2026-04-06T16:52:22Z</time></trkpt><trkpt lat="57.8872741107" lon="33.8845087588"><ele>181.83</ele><time>2026-04-06T16:52:34Z</time></trkpt><trkpt lat="57.8872298542" lon="33.8845126983"><ele>181.83</ele><time>2026-04-06T16:52:45Z</time></trkpt><trkpt lat="57.8872102406" lon="33.8843046594"><ele>181.35</ele><time>2026-04-06T16:52:55Z</time></trkpt><trkpt lat="57.8872128390" lon="33.8842431363"><ele>181.35</ele><time>2026-04-06T16:52:59Z</time></trkpt><trkpt lat="57.8872270882" lon="33.8842175715"><ele>181.35</ele><time>2026-04-06T16:53:01Z</time></trkpt><trkpt lat="57.8872419242" lon="33.8840091974"><ele>181.35</ele><time>2026-04-06T16:53:12Z</time></trkpt><trkpt lat="57.8872128390" lon="33.8839218579"><ele>181.35</ele><time>2026-04-06T16:53:15Z</time></trkpt><trkpt lat="57.8871182911" lon="33.8836631924"><ele>181.35</ele><time>2026-04-06T16:53:32Z</time></trkpt><trkpt lat="57.8870845959" lon="33.8835817203"><ele>181.35</ele><time>2026-04-06T16:53:36Z</time></trkpt><trkpt lat="57.8870613780" lon="33.8833573367"><ele>181.35</ele><time>2026-04-06T16:53:50Z</time></trkpt><trkpt lat="57.8869908024" lon="33.8831190392"><ele>181.35</ele><time>2026-04-06T16:54:04Z</time></trkpt><trkpt lat="57.8869760502" lon="33.8829949871"><ele>181.35</ele><time>2026-04-06T16:54:10Z</time></trkpt><trkpt lat="57.8869412653" lon="33.8827431947"><ele>181.35</ele><time>2026-04-06T16:54:26Z</time></trkpt><trkpt lat="57.8868659120" lon="33.8824859541"><ele>181.35</ele><time>2026-04-06T16:54:41Z</time></trkpt><trkpt lat="57.8867706098" lon="33.8822918292"><ele>181.35</ele><time>2026-04-06T16:54:54Z</time></trkpt><trkpt lat="57.8866751399" lon="33.8821453974"><ele>181.35</ele><time>2026-04-06T16:55:08Z</time></trkpt><trkpt lat="57.8866123594" lon="33.8821360096"><ele>180.87</ele><time>2026-04-06T16:55:24Z</time></trkpt><trkpt lat="57.8864715435" lon="33.8819645997"><ele>181.35</ele><time>2026-04-06T16:55:38Z</time></trkpt><trkpt lat="57.8863324039" lon="33.8817785215"><ele>181.35</ele><time>2026-04-06T16:55:57Z</time></trkpt><trkpt lat="57.8862206731" lon="33.8816126436"><ele>181.35</ele><time>2026-04-06T16:56:09Z</time></trkpt><trkpt lat="57.8861199226" lon="33.8814652059"><ele>181.35</ele><time>2026-04-06T16:56:25Z</time></trkpt><trkpt lat="57.8860644344" lon="33.8813751843"><ele>179.90</ele><time>2026-04-06T16:56:33Z</time></trkpt><trkpt lat="57.8859200142" lon="33.8811761141"><ele>179.90</ele><time>2026-04-06T16:56:47Z</time></trkpt><trkpt lat="57.8857805394" lon="33.8809782173"><ele>179.90</ele><time>2026-04-06T16:57:03Z</time></trkpt><trkpt lat="57.8856834769" lon="33.8807935640"><ele>179.90</ele><time>2026-04-06T16:57:20Z</time></trkpt><trkpt lat="57.8855810501" lon="33.8806503173"><ele>179.90</ele><time>2026-04-06T16:57:35Z</time></trkpt><trkpt lat="57.8855530545" lon="33.8806274347"><ele>179.90</ele><time>2026-04-06T16:57:38Z</time></trkpt><trkpt lat="57.8854474425" lon="33.8805125188"><ele>179.90</ele><time>2026-04-06T16:57:50Z</time></trkpt><trkpt lat="57.8853661381" lon="33.8804311305"><ele>179.90</ele><time>2026-04-06T16:58:00Z</time></trkpt><trkpt lat="57.8852593526" lon="33.8803445455"><ele>179.90</ele><time>2026-04-06T16:58:09Z</time></trkpt><trkpt lat="57.8851949796" lon="33.8802534342"><ele>179.90</ele><time>2026-04-06T16:58:16Z</time></trkpt><trkpt lat="57.8851152677" lon="33.8800691999"><ele>179.90</ele><time>2026-04-06T16:58:30Z</time></trkpt><trkpt lat="57.8849928081" lon="33.8798701297"><ele>179.90</ele><time>2026-04-06T16:58:46Z</time></trkpt><trkpt lat="57.8848822508" lon="33.8796659466"><ele>179.90</ele><time>2026-04-06T16:59:01Z</time></trkpt><trkpt lat="57.8848252539" lon="33.8795626815"><ele>179.90</ele><time>2026-04-06T16:59:07Z</time></trkpt><trkpt lat="57.8847192228" lon="33.8793823030"><ele>179.90</ele><time>2026-04-06T16:59:22Z</time></trkpt><trkpt lat="57.8846464679" lon="33.8792062830"><ele>179.42</ele><time>2026-04-06T16:59:38Z</time></trkpt><trkpt lat="57.8845375031" lon="33.8790307660"><ele>179.42</ele><time>2026-04-06T16:59:53Z</time></trkpt><trkpt lat="57.8845183086" lon="33.8789897785"><ele>180.38</ele><time>2026-04-06T16:59:58Z</time></trkpt><trkpt lat="57.8844942525" lon="33.8789534010"><ele>180.38</ele><time>2026-04-06T17:00:01Z</time></trkpt><trkpt lat="57.8843843658" lon="33.8786486350"><ele>181.35</ele><time>2026-04-06T17:00:16Z</time></trkpt><trkpt lat="57.8843670990" lon="33.8785951585"><ele>181.83</ele><time>2026-04-06T17:00:24Z</time></trkpt><trkpt lat="57.8843411151" lon="33.8785492256"><ele>181.83</ele><time>2026-04-06T17:00:27Z</time></trkpt><trkpt lat="57.8842468187" lon="33.8781846128"><ele>181.83</ele><time>2026-04-06T17:00:46Z</time></trkpt><trkpt lat="57.8842003830" lon="33.8779756520"><ele>182.31</ele><time>2026-04-06T17:01:02Z</time></trkpt><trkpt lat="57.8840885684" lon="33.8777283020"><ele>182.31</ele><time>2026-04-06T17:01:17Z</time></trkpt><trkpt lat="57.8839899134" lon="33.8775047567"><ele>183.27</ele><time>2026-04-06T17:01:31Z</time></trkpt><trkpt lat="57.8839644324" lon="33.8773701433"><ele>183.75</ele><time>2026-04-06T17:01:41Z</time></trkpt><trkpt lat="57.8839524463" lon="33.8772841450"><ele>183.75</ele><time>2026-04-06T17:01:46Z</time></trkpt><trkpt lat="57.8838666994" lon="33.8769784570"><ele>183.75</ele><time>2026-04-06T17:02:03Z</time></trkpt><trkpt lat="57.8837637696" lon="33.8768595178"><ele>183.75</ele><time>2026-04-06T17:02:15Z</time></trkpt><trkpt lat="57.8836589959" lon="33.8767200429"><ele>183.75</ele><time>2026-04-06T17:02:23Z</time></trkpt><trkpt lat="57.8835728299" lon="33.8765815739"><ele>183.75</ele><time>2026-04-06T17:02:38Z</time></trkpt><trkpt lat="57.8834014200" lon="33.8763208129"><ele>183.75</ele><time>2026-04-06T17:02:57Z</time></trkpt><trkpt lat="57.8833576664" lon="33.8763638958"><ele>183.75</ele><time>2026-04-06T17:03:05Z</time></trkpt><trkpt lat="57.8832902759" lon="33.8766453601"><ele>183.75</ele><time>2026-04-06T17:03:21Z</time></trkpt><trkpt lat="57.8831794672" lon="33.8768822327"><ele>182.31</ele><time>2026-04-06T17:03:37Z</time></trkpt><trkpt lat="57.8831248172" lon="33.8769920357"><ele>182.31</ele><time>2026-04-06T17:03:45Z</time></trkpt><trkpt lat="57.8830105718" lon="33.8772373740"><ele>181.35</ele><time>2026-04-06T17:04:02Z</time></trkpt><trkpt lat="57.8829315305" lon="33.8774191774"><ele>180.87</ele><time>2026-04-06T17:04:15Z</time></trkpt><trkpt lat="57.8828622121" lon="33.8775672019"><ele>180.87</ele><time>2026-04-06T17:04:28Z</time></trkpt><trkpt lat="57.8827233240" lon="33.8777355943"><ele>180.38</ele><time>2026-04-06T17:04:42Z</time></trkpt><trkpt lat="57.8826458752" lon="33.8779538590"><ele>180.38</ele><time>2026-04-06T17:04:56Z</time></trkpt><trkpt lat="57.8826191369" lon="33.8782085013"><ele>180.38</ele><time>2026-04-06T17:05:11Z</time></trkpt><trkpt lat="57.8826090787" lon="33.8784693461"><ele>179.90</ele><time>2026-04-06T17:05:24Z</time></trkpt><trkpt lat="57.8826204780" lon="33.8784876186"><ele>179.90</ele><time>2026-04-06T17:05:25Z</time></trkpt><trkpt lat="57.8825996071" lon="33.8787433505"><ele>179.90</ele><time>2026-04-06T17:05:40Z</time></trkpt><trkpt lat="57.8825370781" lon="33.8789452706"><ele>179.90</ele><time>2026-04-06T17:05:54Z</time></trkpt><trkpt lat="57.8824481461" lon="33.8791736774"><ele>179.90</ele><time>2026-04-06T17:06:10Z</time></trkpt><trkpt lat="57.8823251836" lon="33.8793735858"><ele>180.87</ele><time>2026-04-06T17:06:27Z</time></trkpt><trkpt lat="57.8823106829" lon="33.8794030901"><ele>180.87</ele><time>2026-04-06T17:06:29Z</time></trkpt><trkpt lat="57.8822392691" lon="33.8796082791"><ele>181.83</ele><time>2026-04-06T17:06:43Z</time></trkpt><trkpt lat="57.8821449727" lon="33.8798142225"><ele>181.83</ele><time>2026-04-06T17:06:58Z</time></trkpt><trkpt lat="57.8821153846" lon="33.8798788469"><ele>182.31</ele><time>2026-04-06T17:07:04Z</time></trkpt><trkpt lat="57.8820956871" lon="33.8798970357"><ele>182.31</ele><time>2026-04-06T17:07:06Z</time></trkpt><trkpt lat="57.8820196632" lon="33.8800539449"><ele>182.31</ele><time>2026-04-06T17:07:17Z</time></trkpt><trkpt lat="57.8819945175" lon="33.8801117800"><ele>182.31</ele><time>2026-04-06T17:07:21Z</time></trkpt><trkpt lat="57.8819704615" lon="33.8801721297"><ele>182.31</ele><time>2026-04-06T17:07:25Z</time></trkpt><trkpt lat="57.8818921745" lon="33.8803435396"><ele>182.79</ele><time>2026-04-06T17:07:37Z</time></trkpt><trkpt lat="57.8818809427" lon="33.8803747203"><ele>182.79</ele><time>2026-04-06T17:07:39Z</time></trkpt><trkpt lat="57.8818366025" lon="33.8804642390"><ele>182.79</ele><time>2026-04-06T17:07:45Z</time></trkpt><trkpt lat="57.8817957826" lon="33.8805667497"><ele>182.79</ele><time>2026-04-06T17:07:52Z</time></trkpt><trkpt lat="57.8817843832" lon="33.8806204777"><ele>182.79</ele><time>2026-04-06T17:07:55Z</time></trkpt><trkpt lat="57.8817676194" lon="33.8807638083"><ele>182.31</ele><time>2026-04-06T17:08:07Z</time></trkpt><trkpt lat="57.8817724809" lon="33.8807594497"><ele>182.31</ele><time>2026-04-06T17:08:08Z</time></trkpt><trkpt lat="57.8817543760" lon="33.8808104116"><ele>182.31</ele><time>2026-04-06T17:08:19Z</time></trkpt><trkpt lat="57.8816936072" lon="33.8809427619"><ele>182.31</ele><time>2026-04-06T17:08:26Z</time></trkpt><trkpt lat="57.8815914318" lon="33.8811707497"><ele>182.31</ele><time>2026-04-06T17:08:41Z</time></trkpt><trkpt lat="57.8815022483" lon="33.8813976478"><ele>180.87</ele><time>2026-04-06T17:08:55Z</time></trkpt><trkpt lat="57.8813965525" lon="33.8816553075"><ele>180.38</ele><time>2026-04-06T17:09:11Z</time></trkpt><trkpt lat="57.8812799603" lon="33.8819661085"><ele>178.94</ele><time>2026-04-06T17:09:30Z</time></trkpt><trkpt lat="57.8812365420" lon="33.8821651787"><ele>178.46</ele><time>2026-04-06T17:09:39Z</time></trkpt><trkpt lat="57.8813312575" lon="33.8823945075"><ele>177.98</ele><time>2026-04-06T17:09:54Z</time></trkpt><trkpt lat="57.8814672120" lon="33.8825967629"><ele>177.50</ele><time>2026-04-06T17:10:09Z</time></trkpt><trkpt lat="57.8815408889" lon="33.8826695178"><ele>177.50</ele><time>2026-04-06T17:10:17Z</time></trkpt><trkpt lat="57.8816543799" lon="33.8829123415"><ele>177.50</ele><time>2026-04-06T17:10:33Z</time></trkpt><trkpt lat="57.8817698825" lon="33.8831286784"><ele>177.02</ele><time>2026-04-06T17:10:50Z</time></trkpt><trkpt lat="57.8818835411" lon="33.8833357114"><ele>177.02</ele><time>2026-04-06T17:11:05Z</time></trkpt><trkpt lat="57.8819730598" lon="33.8834872562"><ele>177.02</ele><time>2026-04-06T17:11:16Z</time></trkpt><trkpt lat="57.8821066674" lon="33.8836917747"><ele>177.02</ele><time>2026-04-06T17:11:32Z</time></trkpt><trkpt lat="57.8822307196" lon="33.8838780206"><ele>177.02</ele><time>2026-04-06T17:11:48Z</time></trkpt><trkpt lat="57.8823538497" lon="33.8841410447"><ele>177.02</ele><time>2026-04-06T17:12:07Z</time></trkpt><trkpt lat="57.8824903071" lon="33.8843536098"><ele>177.02</ele><time>2026-04-06T17:12:24Z</time></trkpt><trkpt lat="57.8825400956" lon="33.8844274543"><ele>177.02</ele><time>2026-04-06T17:12:29Z</time></trkpt><trkpt lat="57.8825108428" lon="33.8845543563"><ele>177.98</ele><time>2026-04-06T17:12:47Z</time></trkpt><trkpt lat="57.8824868705" lon="33.8845350780"><ele>177.98</ele><time>2026-04-06T17:12:51Z</time></trkpt><trkpt lat="57.8825837653" lon="33.8845788315"><ele>177.98</ele><time>2026-04-06T17:13:03Z</time></trkpt><trkpt lat="57.8827218991" lon="33.8847959228"><ele>177.98</ele><time>2026-04-06T17:13:19Z</time></trkpt><trkpt lat="57.8828681633" lon="33.8850248326"><ele>178.46</ele><time>2026-04-06T17:13:39Z</time></trkpt><trkpt lat="57.8829807322" lon="33.8852452766"><ele>178.94</ele><time>2026-04-06T17:13:55Z</time></trkpt><trkpt lat="57.8830707539" lon="33.8853692450"><ele>179.42</ele><time>2026-04-06T17:14:06Z</time></trkpt><trkpt lat="57.8831884358" lon="33.8855498750"><ele>179.42</ele><time>2026-04-06T17:14:21Z</time></trkpt><trkpt lat="57.8832860850" lon="33.8857838977"><ele>179.42</ele><time>2026-04-06T17:14:35Z</time></trkpt><trkpt lat="57.8834542260" lon="33.8860226981"><ele>179.90</ele><time>2026-04-06T17:14:54Z</time></trkpt><trkpt lat="57.8836066090" lon="33.8861905877"><ele>179.90</ele><time>2026-04-06T17:15:10Z</time></trkpt><trkpt lat="57.8836439922" lon="33.8862327486"><ele>179.90</ele><time>2026-04-06T17:15:14Z</time></trkpt><trkpt lat="57.8837745823" lon="33.8864295557"><ele>179.90</ele><time>2026-04-06T17:15:31Z</time></trkpt><trkpt lat="57.8838992212" lon="33.8866767380"><ele>179.90</ele><time>2026-04-06T17:15:49Z</time></trkpt><trkpt lat="57.8840998840" lon="33.8869172987"><ele>179.90</ele><time>2026-04-06T17:16:10Z</time></trkpt><trkpt lat="57.8842267022" lon="33.8870552648"><ele>179.90</ele><time>2026-04-06T17:16:25Z</time></trkpt><trkpt lat="57.8842494171" lon="33.8870893791"><ele>179.90</ele><time>2026-04-06T17:16:28Z</time></trkpt><trkpt lat="57.8844165523" lon="33.8872973341"><ele>179.90</ele><time>2026-04-06T17:16:47Z</time></trkpt><trkpt lat="57.8844828531" lon="33.8873633835"><ele>179.90</ele><time>2026-04-06T17:16:54Z</time></trkpt><trkpt lat="57.8846357390" lon="33.8875000924"><ele>179.90</ele><time>2026-04-06T17:17:10Z</time></trkpt><trkpt lat="57.8848252539" lon="33.8876718376"><ele>178.94</ele><time>2026-04-06T17:17:29Z</time></trkpt><trkpt lat="57.8849650640" lon="33.8878203649"><ele>178.94</ele><time>2026-04-06T17:17:46Z</time></trkpt><trkpt lat="57.8849778883" lon="33.8878502883"><ele>178.94</ele><time>2026-04-06T17:17:48Z</time></trkpt><trkpt lat="57.8851488791" lon="33.8880399708"><ele>178.94</ele><time>2026-04-06T17:18:07Z</time></trkpt><trkpt lat="57.8853022680" lon="33.8881912641"><ele>178.94</ele><time>2026-04-06T17:18:22Z</time></trkpt><trkpt lat="57.8854108974" lon="33.8883475028"><ele>178.46</ele><time>2026-04-06T17:18:35Z</time></trkpt><trkpt lat="57.8856136557" lon="33.8884619996"><ele>177.98</ele><time>2026-04-06T17:18:53Z</time></trkpt><trkpt lat="57.8857632726" lon="33.8885982055"><ele>177.98</ele><time>2026-04-06T17:19:08Z</time></trkpt><trkpt lat="57.8859102912" lon="33.8887624908"><ele>177.98</ele><time>2026-04-06T17:19:25Z</time></trkpt><trkpt lat="57.8860815335" lon="33.8889509998"><ele>177.98</ele><time>2026-04-06T17:19:43Z</time></trkpt><trkpt lat="57.8862381075" lon="33.8890812546"><ele>177.50</ele><time>2026-04-06T17:19:58Z</time></trkpt><trkpt lat="57.8862639237" lon="33.8891121000"><ele>177.50</ele><time>2026-04-06T17:20:01Z</time></trkpt><trkpt lat="57.8864394408" lon="33.8892455399"><ele>177.50</ele><time>2026-04-06T17:20:20Z</time></trkpt><trkpt lat="57.8865966015" lon="33.8893592823"><ele>177.50</ele><time>2026-04-06T17:20:37Z</time></trkpt><trkpt lat="57.8867919836" lon="33.8894983381"><ele>177.50</ele><time>2026-04-06T17:20:58Z</time></trkpt><trkpt lat="57.8869833425" lon="33.8895958196"><ele>177.50</ele><time>2026-04-06T17:21:15Z</time></trkpt><trkpt lat="57.8871800657" lon="33.8897427544"><ele>177.02</ele><time>2026-04-06T17:21:36Z</time></trkpt><trkpt lat="57.8873409145" lon="33.8898499589"><ele>177.02</ele><time>2026-04-06T17:21:52Z</time></trkpt><trkpt lat="57.8875338659" lon="33.8898867555"><ele>176.54</ele><time>2026-04-06T17:22:10Z</time></trkpt><trkpt lat="57.8876871709" lon="33.8899947144"><ele>176.54</ele><time>2026-04-06T17:22:27Z</time></trkpt><trkpt lat="57.8878922760" lon="33.8900721632"><ele>176.06</ele><time>2026-04-06T17:22:47Z</time></trkpt><trkpt lat="57.8880734928" lon="33.8901323453"><ele>175.58</ele><time>2026-04-06T17:23:06Z</time></trkpt><trkpt lat="57.8882276360" lon="33.8901829720"><ele>175.58</ele><time>2026-04-06T17:23:18Z</time></trkpt><trkpt lat="57.8884303104" lon="33.8902406394"><ele>175.10</ele><time>2026-04-06T17:23:37Z</time></trkpt><trkpt lat="57.8885914106" lon="33.8903055154"><ele>174.62</ele><time>2026-04-06T17:23:52Z</time></trkpt><trkpt lat="57.8887255210" lon="33.8903836347"><ele>174.62</ele><time>2026-04-06T17:24:07Z</time></trkpt><trkpt lat="57.8888688516" lon="33.8903900888"><ele>174.62</ele><time>2026-04-06T17:24:23Z</time></trkpt><trkpt lat="57.8890752979" lon="33.8904478401"><ele>174.14</ele><time>2026-04-06T17:24:43Z</time></trkpt><trkpt lat="57.8892659023" lon="33.8905049209"><ele>174.14</ele><time>2026-04-06T17:25:01Z</time></trkpt><trkpt lat="57.8892838396" lon="33.8905157335"><ele>174.14</ele><time>2026-04-06T17:25:03Z</time></trkpt><trkpt lat="57.8893933911" lon="33.8905609120"><ele>173.66</ele><time>2026-04-06T17:25:13Z</time></trkpt><trkpt lat="57.8895710036" lon="33.8906046655"><ele>173.66</ele><time>2026-04-06T17:25:31Z</time></trkpt><trkpt lat="57.8897423297" lon="33.8905899134"><ele>173.66</ele><time>2026-04-06T17:25:47Z</time></trkpt><trkpt lat="57.8899248037" lon="33.8906382769"><ele>173.66</ele><time>2026-04-06T17:26:04Z</time></trkpt><trkpt lat="57.8900937829" lon="33.8906973694"><ele>172.69</ele><time>2026-04-06T17:26:21Z</time></trkpt><trkpt lat="57.8902646061" lon="33.8907353394"><ele>172.21</ele><time>2026-04-06T17:26:37Z</time></trkpt><trkpt lat="57.8904390335" lon="33.8907547016"><ele>171.25</ele><time>2026-04-06T17:26:54Z</time></trkpt><trkpt lat="57.8906005528" lon="33.8907362614"><ele>171.25</ele><time>2026-04-06T17:27:11Z</time></trkpt><trkpt lat="57.8906079289" lon="33.8905751612"><ele>170.77</ele><time>2026-04-06T17:27:22Z</time></trkpt><trkpt lat="57.8906417917" lon="33.8904870674"><ele>170.29</ele><time>2026-04-06T17:27:36Z</time></trkpt><trkpt lat="57.8906350024" lon="33.8904916774"><ele>169.81</ele><time>2026-04-06T17:27:59Z</time></trkpt><trkpt lat="57.8906021453" lon="33.8905993011"><ele>169.81</ele><time>2026-04-06T17:28:44Z</time></trkpt><trkpt lat="57.8905967809" lon="33.8907281309"><ele>169.81</ele><time>2026-04-06T17:29:03Z</time></trkpt><trkpt lat="57.8906116169" lon="33.8907464873"><ele>169.81</ele><time>2026-04-06T17:29:31Z</time></trkpt><trkpt lat="57.8906008881" lon="33.8906691223"><ele>169.81</ele><time>2026-04-06T17:29:59Z</time></trkpt><trkpt lat="57.8906122036" lon="33.8906711340"><ele>169.81</ele><time>2026-04-06T17:30:03Z</time></trkpt></trkseg><trkseg><trkpt lat="57.8901843913" lon="33.8905847166"><ele>126.55</ele><time>2026-04-08T17:54:54Z</time></trkpt><trkpt lat="57.8902797773" lon="33.8909540232"><ele>129.92</ele><time>2026-04-08T17:55:05Z</time></trkpt><trkpt lat="57.8905888181" lon="33.8908255287"><ele>129.92</ele><time>2026-04-08T17:55:51Z</time></trkpt><trkpt lat="57.8905812744" lon="33.8907077629"><ele>129.92</ele><time>2026-04-08T17:56:07Z</time></trkpt><trkpt lat="57.8904020693" lon="33.8905851357"><ele>129.92</ele><time>2026-04-08T17:56:24Z</time></trkpt><trkpt lat="57.8903314099" lon="33.8903278951"><ele>130.40</ele><time>2026-04-08T17:56:39Z</time></trkpt><trkpt lat="57.8901514504" lon="33.8901836425"><ele>130.88</ele><time>2026-04-08T17:56:59Z</time></trkpt><trkpt lat="57.8899756819" lon="33.8900527172"><ele>131.84</ele><time>2026-04-08T17:57:16Z</time></trkpt><trkpt lat="57.8897936270" lon="33.8899243064"><ele>132.80</ele><time>2026-04-08T17:57:37Z</time></trkpt><trkpt lat="57.8896225523" lon="33.8896667305"><ele>133.76</ele><time>2026-04-08T17:57:55Z</time></trkpt><trkpt lat="57.8896642942" lon="33.8892139401"><ele>134.72</ele><time>2026-04-08T17:58:13Z</time></trkpt><trkpt lat="57.8896292578" lon="33.8889808394"><ele>134.72</ele><time>2026-04-08T17:58:25Z</time></trkpt><trkpt lat="57.8895351291" lon="33.8886461500"><ele>135.20</ele><time>2026-04-08T17:58:48Z</time></trkpt><trkpt lat="57.8894753661" lon="33.8882480934"><ele>135.68</ele><time>2026-04-08T17:59:09Z</time></trkpt><trkpt lat="57.8893298563" lon="33.8879076205"><ele>136.16</ele><time>2026-04-08T17:59:32Z</time></trkpt><trkpt lat="57.8892874438" lon="33.8877578359"><ele>136.16</ele><time>2026-04-08T17:59:40Z</time></trkpt><trkpt lat="57.8893337958" lon="33.8875078876"><ele>136.64</ele><time>2026-04-08T17:59:52Z</time></trkpt><trkpt lat="57.8894397430" lon="33.8872182928"><ele>137.13</ele><time>2026-04-08T18:00:13Z</time></trkpt><trkpt lat="57.8896204568" lon="33.8869304582"><ele>137.61</ele><time>2026-04-08T18:00:38Z</time></trkpt><trkpt lat="57.8895424213" lon="33.8866880536"><ele>136.64</ele><time>2026-04-08T18:00:54Z</time></trkpt><trkpt lat="57.8894547466" lon="33.8864891510"><ele>136.64</ele><time>2026-04-08T18:01:08Z</time></trkpt><trkpt lat="57.8893776331" lon="33.8863473292"><ele>136.64</ele><time>2026-04-08T18:01:20Z</time></trkpt><trkpt lat="57.8893327899" lon="33.8861377817"><ele>137.13</ele><time>2026-04-08T18:01:36Z</time></trkpt><trkpt lat="57.8892395832" lon="33.8858793676"><ele>137.13</ele><time>2026-04-08T18:01:56Z</time></trkpt><trkpt lat="57.8891970869" lon="33.8856405672"><ele>137.13</ele><time>2026-04-08T18:02:14Z</time></trkpt><trkpt lat="57.8891317081" lon="33.8854096457"><ele>137.61</ele><time>2026-04-08T18:02:31Z</time></trkpt><trkpt lat="57.8889211547" lon="33.8849145267"><ele>138.09</ele><time>2026-04-08T18:03:11Z</time></trkpt><trkpt lat="57.8888118546" lon="33.8846504129"><ele>140.01</ele><time>2026-04-08T18:03:36Z</time></trkpt><trkpt lat="57.8887348250" lon="33.8844605628"><ele>140.49</ele><time>2026-04-08T18:03:50Z</time></trkpt><trkpt lat="57.8886689432" lon="33.8842792623"><ele>140.49</ele><time>2026-04-08T18:04:03Z</time></trkpt><trkpt lat="57.8886086773" lon="33.8840710558"><ele>140.97</ele><time>2026-04-08T18:04:14Z</time></trkpt><trkpt lat="57.8885869682" lon="33.8840139750"><ele>140.97</ele><time>2026-04-08T18:04:18Z</time></trkpt><trkpt lat="57.8885270376" lon="33.8839294016"><ele>140.97</ele><time>2026-04-08T18:04:28Z</time></trkpt><trkpt lat="57.8885944281" lon="33.8839974627"><ele>141.45</ele><time>2026-04-08T18:04:41Z</time></trkpt><trkpt lat="57.8885096870" lon="33.8837361988"><ele>141.45</ele><time>2026-04-08T18:04:55Z</time></trkpt><trkpt lat="57.8885035682" lon="33.8837088738"><ele>141.45</ele><time>2026-04-08T18:04:58Z</time></trkpt><trkpt lat="57.8883568849" lon="33.8837496936"><ele>141.93</ele><time>2026-04-08T18:05:10Z</time></trkpt><trkpt lat="57.8882220201" lon="33.8837062754"><ele>141.93</ele><time>2026-04-08T18:05:21Z</time></trkpt><trkpt lat="57.8881117143" lon="33.8837549742"><ele>141.93</ele><time>2026-04-08T18:05:32Z</time></trkpt><trkpt lat="57.8880043421" lon="33.8838309143"><ele>142.41</ele><time>2026-04-08T18:05:44Z</time></trkpt><trkpt lat="57.8878557310" lon="33.8839256298"><ele>142.41</ele><time>2026-04-08T18:06:00Z</time></trkpt><trkpt lat="57.8877230454" lon="33.8839704730"><ele>143.37</ele><time>2026-04-08T18:06:15Z</time></trkpt><trkpt lat="57.8877025098" lon="33.8839873206"><ele>143.37</ele><time>2026-04-08T18:06:17Z</time></trkpt><trkpt lat="57.8876682278" lon="33.8841221854"><ele>144.34</ele><time>2026-04-08T18:06:32Z</time></trkpt><trkpt lat="57.8875432536" lon="33.8843616564"><ele>144.34</ele><time>2026-04-08T18:06:48Z</time></trkpt><trkpt lat="57.8874674812" lon="33.8844852056"><ele>144.82</ele><time>2026-04-08T18:07:05Z</time></trkpt><trkpt lat="57.8873720113" lon="33.8846273627"><ele>145.30</ele><time>2026-04-08T18:07:16Z</time></trkpt><trkpt lat="57.8872416727" lon="33.8846804202"><ele>145.30</ele><time>2026-04-08T18:07:30Z</time></trkpt><trkpt lat="57.8872213885" lon="33.8845958468"><ele>145.78</ele><time>2026-04-08T18:07:33Z</time></trkpt><trkpt lat="57.8872060496" lon="33.8842628337"><ele>145.78</ele><time>2026-04-08T18:07:47Z</time></trkpt><trkpt lat="57.8872057144" lon="33.8842191640"><ele>145.78</ele><time>2026-04-08T18:07:49Z</time></trkpt><trkpt lat="57.8872248251" lon="33.8839390408"><ele>146.26</ele><time>2026-04-08T18:08:02Z</time></trkpt><trkpt lat="57.8871933930" lon="33.8837755099"><ele>146.74</ele><time>2026-04-08T18:08:15Z</time></trkpt><trkpt lat="57.8870970849" lon="33.8837750070"><ele>146.74</ele><time>2026-04-08T18:08:29Z</time></trkpt><trkpt lat="57.8870084882" lon="33.8836436626"><ele>147.22</ele><time>2026-04-08T18:08:44Z</time></trkpt><trkpt lat="57.8869416844" lon="33.8833495416"><ele>147.70</ele><time>2026-04-08T18:08:59Z</time></trkpt><trkpt lat="57.8869240824" lon="33.8830228988"><ele>146.74</ele><time>2026-04-08T18:09:14Z</time></trkpt><trkpt lat="57.8868761379" lon="33.8828231581"><ele>147.22</ele><time>2026-04-08T18:09:29Z</time></trkpt><trkpt lat="57.8867917322" lon="33.8825712819"><ele>147.70</ele><time>2026-04-08T18:09:45Z</time></trkpt><trkpt lat="57.8866981063" lon="33.8823546935"><ele>148.18</ele><time>2026-04-08T18:10:01Z</time></trkpt><trkpt lat="57.8865188174" lon="33.8822158054"><ele>148.66</ele><time>2026-04-08T18:10:19Z</time></trkpt><trkpt lat="57.8863929212" lon="33.8820914179"><ele>148.66</ele><time>2026-04-08T18:10:35Z</time></trkpt><trkpt lat="57.8862891532" lon="33.8819358498"><ele>149.14</ele><time>2026-04-08T18:10:49Z</time></trkpt><trkpt lat="57.8861880675" lon="33.8816496078"><ele>149.14</ele><time>2026-04-08T18:11:07Z</time></trkpt><trkpt lat="57.8860713076" lon="33.8815837260"><ele>149.14</ele><time>2026-04-08T18:11:23Z</time></trkpt><trkpt lat="57.8859182540" lon="33.8813911099"><ele>149.62</ele><time>2026-04-08T18:11:41Z</time></trkpt><trkpt lat="57.8858730756" lon="33.8812869228"><ele>149.62</ele><time>2026-04-08T18:11:51Z</time></trkpt><trkpt lat="57.8857491072" lon="33.8811026048"><ele>150.10</ele><time>2026-04-08T18:12:08Z</time></trkpt><trkpt lat="57.8857473470" lon="33.8810881041"><ele>150.10</ele><time>2026-04-08T18:12:10Z</time></trkpt><trkpt lat="57.8856954630" lon="33.8809819054"><ele>150.10</ele><time>2026-04-08T18:12:19Z</time></trkpt><trkpt lat="57.8856753465" lon="33.8809606154"><ele>150.10</ele><time>2026-04-08T18:12:21Z</time></trkpt><trkpt lat="57.8855287470" lon="33.8808288518"><ele>150.58</ele><time>2026-04-08T18:12:36Z</time></trkpt><trkpt lat="57.8854397312" lon="33.8806962501"><ele>150.58</ele><time>2026-04-08T18:12:51Z</time></trkpt><trkpt lat="57.8852990828" lon="33.8806128502"><ele>151.06</ele><time>2026-04-08T18:13:06Z</time></trkpt><trkpt lat="57.8852239810" lon="33.8805102557"><ele>151.06</ele><time>2026-04-08T18:13:19Z</time></trkpt><trkpt lat="57.8851238173" lon="33.8803294580"><ele>151.54</ele><time>2026-04-08T18:13:33Z</time></trkpt><trkpt lat="57.8850044589" lon="33.8801501691"><ele>152.51</ele><time>2026-04-08T18:13:49Z</time></trkpt><trkpt lat="57.8848592844" lon="33.8799602352"><ele>152.99</ele><time>2026-04-08T18:14:05Z</time></trkpt><trkpt lat="57.8848517407" lon="33.8798931800"><ele>152.99</ele><time>2026-04-08T18:14:08Z</time></trkpt><trkpt lat="57.8847705200" lon="33.8797011506"><ele>152.99</ele><time>2026-04-08T18:14:24Z</time></trkpt><trkpt lat="57.8846320510" lon="33.8793056086"><ele>153.47</ele><time>2026-04-08T18:14:56Z</time></trkpt><trkpt lat="57.8845309652" lon="33.8791552372"><ele>153.95</ele><time>2026-04-08T18:15:13Z</time></trkpt><trkpt lat="57.8843946755" lon="33.8787796441"><ele>155.87</ele><time>2026-04-08T18:15:38Z</time></trkpt><trkpt lat="57.8843027260" lon="33.8785981759"><ele>156.83</ele><time>2026-04-08T18:15:54Z</time></trkpt><trkpt lat="57.8842164762" lon="33.8782195654"><ele>156.83</ele><time>2026-04-08T18:16:17Z</time></trkpt><trkpt lat="57.8841544501" lon="33.8780173101"><ele>157.79</ele><time>2026-04-08T18:16:35Z</time></trkpt><trkpt lat="57.8840346728" lon="33.8776687905"><ele>159.24</ele><time>2026-04-08T18:16:57Z</time></trkpt><trkpt lat="57.8839352634" lon="33.8773640245"><ele>160.68</ele><time>2026-04-08T18:17:20Z</time></trkpt><trkpt lat="57.8838532884" lon="33.8771676365"><ele>160.68</ele><time>2026-04-08T18:17:37Z</time></trkpt><trkpt lat="57.8837350197" lon="33.8769767806"><ele>161.16</ele><time>2026-04-08T18:17:57Z</time></trkpt><trkpt lat="57.8836015798" lon="33.8767953124"><ele>161.64</ele><time>2026-04-08T18:18:17Z</time></trkpt><trkpt lat="57.8835124802" lon="33.8766386546"><ele>161.64</ele><time>2026-04-08T18:18:35Z</time></trkpt><trkpt lat="57.8834175970" lon="33.8765465375"><ele>162.12</ele><time>2026-04-08T18:18:50Z</time></trkpt><trkpt lat="57.8833756875" lon="33.8766170293"><ele>162.12</ele><time>2026-04-08T18:19:06Z</time></trkpt><trkpt lat="57.8833813034" lon="33.8766394928"><ele>162.60</ele><time>2026-04-08T18:19:08Z</time></trkpt><trkpt lat="57.8833314311" lon="33.8767924625"><ele>162.60</ele><time>2026-04-08T18:19:20Z</time></trkpt><trkpt lat="57.8832757752" lon="33.8769671414"><ele>161.64</ele><time>2026-04-08T18:19:35Z</time></trkpt><trkpt lat="57.8831389826" lon="33.8771956321"><ele>161.64</ele><time>2026-04-08T18:19:51Z</time></trkpt><trkpt lat="57.8830763698" lon="33.8773831353"><ele>161.64</ele><time>2026-04-08T18:20:05Z</time></trkpt><trkpt lat="57.8830044530" lon="33.8775530364"><ele>162.12</ele><time>2026-04-08T18:20:18Z</time></trkpt><trkpt lat="57.8829392418" lon="33.8776393700"><ele>162.12</ele><time>2026-04-08T18:20:31Z</time></trkpt><trkpt lat="57.8828928061" lon="33.8778217603"><ele>162.12</ele><time>2026-04-08T18:20:45Z</time></trkpt><trkpt lat="57.8828277625" lon="33.8779831119"><ele>162.60</ele><time>2026-04-08T18:20:58Z</time></trkpt><trkpt lat="57.8827665746" lon="33.8782143686"><ele>162.60</ele><time>2026-04-08T18:21:12Z</time></trkpt><trkpt lat="57.8827104997" lon="33.8783932384"><ele>162.60</ele><time>2026-04-08T18:21:24Z</time></trkpt><trkpt lat="57.8827099130" lon="33.8784100860"><ele>162.60</ele><time>2026-04-08T18:21:25Z</time></trkpt><trkpt lat="57.8826978430" lon="33.8785317913"><ele>163.08</ele><time>2026-04-08T18:21:31Z</time></trkpt><trkpt lat="57.8826863598" lon="33.8785757124"><ele>163.08</ele><time>2026-04-08T18:21:34Z</time></trkpt><trkpt lat="57.8826791514" lon="33.8786518201"><ele>162.60</ele><time>2026-04-08T18:21:38Z</time></trkpt><trkpt lat="57.8826199751" lon="33.8788676541"><ele>162.60</ele><time>2026-04-08T18:21:49Z</time></trkpt><trkpt lat="57.8825243376" lon="33.8791265711"><ele>162.60</ele><time>2026-04-08T18:22:07Z</time></trkpt><trkpt lat="57.8824784886" lon="33.8792230468"><ele>162.60</ele><time>2026-04-08T18:22:13Z</time></trkpt><trkpt lat="57.8823578730" lon="33.8794491906"><ele>164.04</ele><time>2026-04-08T18:22:30Z</time></trkpt><trkpt lat="57.8822898120" lon="33.8795860671"><ele>165.00</ele><time>2026-04-08T18:22:43Z</time></trkpt><trkpt lat="57.8822209127" lon="33.8797158189"><ele>165.48</ele><time>2026-04-08T18:22:54Z</time></trkpt><trkpt lat="57.8821549471" lon="33.8798397034"><ele>165.48</ele><time>2026-04-08T18:23:03Z</time></trkpt><trkpt lat="57.8820805997" lon="33.8800024800"><ele>165.48</ele><time>2026-04-08T18:23:16Z</time></trkpt><trkpt lat="57.8820106108" lon="33.8801541924"><ele>165.96</ele><time>2026-04-08T18:23:29Z</time></trkpt><trkpt lat="57.8819198348" lon="33.8803484011"><ele>166.45</ele><time>2026-04-08T18:23:43Z</time></trkpt><trkpt lat="57.8817981295" lon="33.8805799093"><ele>166.45</ele><time>2026-04-08T18:24:01Z</time></trkpt><trkpt lat="57.8817281406" lon="33.8808057178"><ele>166.93</ele><time>2026-04-08T18:24:16Z</time></trkpt><trkpt lat="57.8817001451" lon="33.8809858449"><ele>167.41</ele><time>2026-04-08T18:24:28Z</time></trkpt><trkpt lat="57.8816634323" lon="33.8810436800"><ele>167.89</ele><time>2026-04-08T18:24:33Z</time></trkpt><trkpt lat="57.8816545475" lon="33.8810786325"><ele>167.89</ele><time>2026-04-08T18:24:35Z</time></trkpt><trkpt lat="57.8816281445" lon="33.8811579254"><ele>167.89</ele><time>2026-04-08T18:24:40Z</time></trkpt><trkpt lat="57.8815714829" lon="33.8813498709"><ele>167.89</ele><time>2026-04-08T18:24:51Z</time></trkpt><trkpt lat="57.8815035895" lon="33.8816053513"><ele>166.45</ele><time>2026-04-08T18:25:07Z</time></trkpt><trkpt lat="57.8814125620" lon="33.8818627596"><ele>165.48</ele><time>2026-04-08T18:25:25Z</time></trkpt><trkpt lat="57.8813028429" lon="33.8820729777"><ele>165.48</ele><time>2026-04-08T18:25:41Z</time></trkpt><trkpt lat="57.8812935390" lon="33.8821796793"><ele>165.00</ele><time>2026-04-08T18:25:47Z</time></trkpt><trkpt lat="57.8813414834" lon="33.8823612314"><ele>164.52</ele><time>2026-04-08T18:26:00Z</time></trkpt><trkpt lat="57.8814418148" lon="33.8825531770"><ele>164.04</ele><time>2026-04-08T18:26:15Z</time></trkpt><trkpt lat="57.8816124704" lon="33.8828493096"><ele>164.52</ele><time>2026-04-08T18:26:36Z</time></trkpt><trkpt lat="57.8816212714" lon="33.8829019479"><ele>164.52</ele><time>2026-04-08T18:26:39Z</time></trkpt><trkpt lat="57.8816651925" lon="33.8829607889"><ele>164.52</ele><time>2026-04-08T18:26:45Z</time></trkpt><trkpt lat="57.8817506880" lon="33.8831085619"><ele>164.52</ele><time>2026-04-08T18:26:57Z</time></trkpt><trkpt lat="57.8818796854" lon="33.8833212946"><ele>164.52</ele><time>2026-04-08T18:27:14Z</time></trkpt><trkpt lat="57.8819873091" lon="33.8835068699"><ele>164.52</ele><time>2026-04-08T18:27:28Z</time></trkpt><trkpt lat="57.8820522688" lon="33.8836221211"><ele>165.00</ele><time>2026-04-08T18:27:36Z</time></trkpt><trkpt lat="57.8821357526" lon="33.8837917708"><ele>165.00</ele><time>2026-04-08T18:27:45Z</time></trkpt><trkpt lat="57.8822338209" lon="33.8839504402"><ele>165.00</ele><time>2026-04-08T18:27:59Z</time></trkpt><trkpt lat="57.8823119402" lon="33.8840784319"><ele>165.00</ele><time>2026-04-08T18:28:10Z</time></trkpt><trkpt lat="57.8823286202" lon="33.8840760011"><ele>165.00</ele><time>2026-04-08T18:28:12Z</time></trkpt><trkpt lat="57.8824576177" lon="33.8843091018"><ele>165.00</ele><time>2026-04-08T18:28:30Z</time></trkpt><trkpt lat="57.8825793229" lon="33.8845774066"><ele>166.45</ele><time>2026-04-08T18:28:47Z</time></trkpt><trkpt lat="57.8826901317" lon="33.8847918157"><ele>166.45</ele><time>2026-04-08T18:29:03Z</time></trkpt><trkpt lat="57.8827851824" lon="33.8849517424"><ele>166.93</ele><time>2026-04-08T18:29:16Z</time></trkpt><trkpt lat="57.8829120845" lon="33.8851753715"><ele>166.93</ele><time>2026-04-08T18:29:33Z</time></trkpt><trkpt lat="57.8830265813" lon="33.8853776269"><ele>167.89</ele><time>2026-04-08T18:29:49Z</time></trkpt><trkpt lat="57.8831726778" lon="33.8855897728"><ele>168.85</ele><time>2026-04-08T18:30:08Z</time></trkpt><trkpt lat="57.8833138291" lon="33.8857952133"><ele>169.33</ele><time>2026-04-08T18:30:25Z</time></trkpt><trkpt lat="57.8834038507" lon="33.8859353587"><ele>169.33</ele><time>2026-04-08T18:30:36Z</time></trkpt><trkpt lat="57.8835313395" lon="33.8861294836"><ele>169.81</ele><time>2026-04-08T18:30:52Z</time></trkpt><trkpt lat="57.8836307488" lon="33.8862836268"><ele>169.81</ele><time>2026-04-08T18:31:05Z</time></trkpt><trkpt lat="57.8837639373" lon="33.8865134586"><ele>170.29</ele><time>2026-04-08T18:31:21Z</time></trkpt><trkpt lat="57.8839033283" lon="33.8866730500"><ele>170.29</ele><time>2026-04-08T18:31:38Z</time></trkpt><trkpt lat="57.8840469103" lon="33.8868807536"><ele>170.77</ele><time>2026-04-08T18:31:54Z</time></trkpt><trkpt lat="57.8842054121" lon="33.8870457932"><ele>170.77</ele><time>2026-04-08T18:32:11Z</time></trkpt><trkpt lat="57.8843313921" lon="33.8871946558"><ele>170.77</ele><time>2026-04-08T18:32:25Z</time></trkpt><trkpt lat="57.8844849486" lon="33.8873489667"><ele>169.81</ele><time>2026-04-08T18:32:42Z</time></trkpt><trkpt lat="57.8846530896" lon="33.8875456899"><ele>169.33</ele><time>2026-04-08T18:32:59Z</time></trkpt><trkpt lat="57.8847903851" lon="33.8876900263"><ele>169.33</ele><time>2026-04-08T18:33:15Z</time></trkpt><trkpt lat="57.8849556763" lon="33.8878703211"><ele>168.85</ele><time>2026-04-08T18:33:32Z</time></trkpt><trkpt lat="57.8851194587" lon="33.8880325109"><ele>168.37</ele><time>2026-04-08T18:33:49Z</time></trkpt><trkpt lat="57.8852751944" lon="33.8881998975"><ele>168.37</ele><time>2026-04-08T18:34:05Z</time></trkpt><trkpt lat="57.8853072971" lon="33.8882423937"><ele>168.37</ele><time>2026-04-08T18:34:09Z</time></trkpt><trkpt lat="57.8854797967" lon="33.8883826230"><ele>168.85</ele><time>2026-04-08T18:34:26Z</time></trkpt><trkpt lat="57.8856719099" lon="33.8886102755"><ele>168.37</ele><time>2026-04-08T18:34:47Z</time></trkpt><trkpt lat="57.8857860714" lon="33.8887188211"><ele>168.37</ele><time>2026-04-08T18:34:59Z</time></trkpt><trkpt lat="57.8858747520" lon="33.8888283726"><ele>168.37</ele><time>2026-04-08T18:35:17Z</time></trkpt><trkpt lat="57.8860569745" lon="33.8889839407"><ele>168.37</ele><time>2026-04-08T18:35:35Z</time></trkpt><trkpt lat="57.8862241935" lon="33.8891255111"><ele>168.37</ele><time>2026-04-08T18:35:53Z</time></trkpt><trkpt lat="57.8863118682" lon="33.8891763054"><ele>168.37</ele><time>2026-04-08T18:36:03Z</time></trkpt><trkpt lat="57.8863546997" lon="33.8892118447"><ele>168.37</ele><time>2026-04-08T18:36:07Z</time></trkpt><trkpt lat="57.8864320647" lon="33.8892866112"><ele>168.37</ele><time>2026-04-08T18:36:16Z</time></trkpt><trkpt lat="57.8865859564" lon="33.8894180395"><ele>168.37</ele><time>2026-04-08T18:36:32Z</time></trkpt><trkpt lat="57.8867543489" lon="33.8895390742"><ele>168.37</ele><time>2026-04-08T18:36:48Z</time></trkpt><trkpt lat="57.8869515751" lon="33.8896880206"><ele>168.85</ele><time>2026-04-08T18:37:08Z</time></trkpt><trkpt lat="57.8870952409" lon="33.8897883520"><ele>168.85</ele><time>2026-04-08T18:37:23Z</time></trkpt><trkpt lat="57.8871256672" lon="33.8898021821"><ele>168.85</ele><time>2026-04-08T18:37:26Z</time></trkpt><trkpt lat="57.8873259109" lon="33.8898709137"><ele>168.85</ele><time>2026-04-08T18:37:44Z</time></trkpt><trkpt lat="57.8874814790" lon="33.8899288327"><ele>168.85</ele><time>2026-04-08T18:38:00Z</time></trkpt><trkpt lat="57.8876479436" lon="33.8899893500"><ele>169.33</ele><time>2026-04-08T18:38:17Z</time></trkpt><trkpt lat="57.8878139891" lon="33.8900715765"><ele>169.33</ele><time>2026-04-08T18:38:34Z</time></trkpt><trkpt lat="57.8879162483" lon="33.8901051041"><ele>169.33</ele><time>2026-04-08T18:38:43Z</time></trkpt><trkpt lat="57.8880641051" lon="33.8901341055"><ele>169.33</ele><time>2026-04-08T18:38:57Z</time></trkpt><trkpt lat="57.8882338386" lon="33.8902982231"><ele>168.85</ele><time>2026-04-08T18:39:13Z</time></trkpt><trkpt lat="57.8882528655" lon="33.8904203475"><ele>168.85</ele><time>2026-04-08T18:39:28Z</time></trkpt><trkpt lat="57.8882704675" lon="33.8903611712"><ele>168.85</ele><time>2026-04-08T18:39:39Z</time></trkpt><trkpt lat="57.8883519396" lon="33.8903787732"><ele>168.85</ele><time>2026-04-08T18:39:47Z</time></trkpt><trkpt lat="57.8883941006" lon="33.8903730735"><ele>168.85</ele><time>2026-04-08T18:39:52Z</time></trkpt><trkpt lat="57.8884823620" lon="33.8903638534"><ele>168.85</ele><time>2026-04-08T18:40:00Z</time></trkpt><trkpt lat="57.8885596432" lon="33.8903907593"><ele>168.85</ele><time>2026-04-08T18:40:07Z</time></trkpt><trkpt lat="57.8887007106" lon="33.8904400449"><ele>168.85</ele><time>2026-04-08T18:40:20Z</time></trkpt><trkpt lat="57.8887335677" lon="33.8904502708"><ele>168.85</ele><time>2026-04-08T18:40:23Z</time></trkpt><trkpt lat="57.8887945879" lon="33.8904604129"><ele>168.85</ele><time>2026-04-08T18:40:28Z</time></trkpt><trkpt lat="57.8889458813" lon="33.8905563019"><ele>168.37</ele><time>2026-04-08T18:40:43Z</time></trkpt><trkpt lat="57.8890908882" lon="33.8905623369"><ele>168.85</ele><time>2026-04-08T18:40:57Z</time></trkpt><trkpt lat="57.8892471269" lon="33.8905651867"><ele>168.85</ele><time>2026-04-08T18:41:12Z</time></trkpt><trkpt lat="57.8893749509" lon="33.8906070963"><ele>168.85</ele><time>2026-04-08T18:41:24Z</time></trkpt><trkpt lat="57.8895348776" lon="33.8906405400"><ele>168.85</ele><time>2026-04-08T18:41:38Z</time></trkpt><trkpt lat="57.8897275776" lon="33.8906840421"><ele>168.85</ele><time>2026-04-08T18:41:55Z</time></trkpt><trkpt lat="57.8898979817" lon="33.8907231018"><ele>169.33</ele><time>2026-04-08T18:42:11Z</time></trkpt><trkpt lat="57.8900956269" lon="33.8907852117"><ele>168.85</ele><time>2026-04-08T18:42:29Z</time></trkpt><trkpt lat="57.8902827948" lon="33.8907873910"><ele>168.37</ele><time>2026-04-08T18:42:46Z</time></trkpt><trkpt lat="57.8904496785" lon="33.8908020593"><ele>167.89</ele><time>2026-04-08T18:43:01Z</time></trkpt><trkpt lat="57.8905843757" lon="33.8907313161"><ele>167.41</ele><time>2026-04-08T18:43:17Z</time></trkpt><trkpt lat="57.8905977029" lon="33.8907274604"><ele>166.93</ele><time>2026-04-08T18:43:36Z</time></trkpt><trkpt lat="57.8906034864" lon="33.8907303941"><ele>166.93</ele><time>2026-04-08T18:43:59Z</time></trkpt><trkpt lat="57.8906187415" lon="33.8907405362"><ele>166.45</ele><time>2026-04-08T18:44:14Z</time></trkpt></trkseg><trkseg><trkpt lat="57.8962976485" lon="33.9219570067"><ele>130.40</ele><time>2026-04-10T13:32:26Z</time></trkpt><trkpt lat="57.8963179328" lon="33.9219436795"><ele>130.40</ele><time>2026-04-10T13:32:27Z</time></trkpt><trkpt lat="57.8963592555" lon="33.9219104033"><ele>133.76</ele><time>2026-04-10T13:32:29Z</time></trkpt><trkpt lat="57.8963985667" lon="33.9219096489"><ele>137.61</ele><time>2026-04-10T13:32:32Z</time></trkpt><trkpt lat="57.8964142408" lon="33.9219264966"><ele>141.45</ele><time>2026-04-10T13:32:35Z</time></trkpt><trkpt lat="57.8964298312" lon="33.9219333697"><ele>144.34</ele><time>2026-04-10T13:32:39Z</time></trkpt><trkpt lat="57.8964973055" lon="33.9219316095"><ele>147.70</ele><time>2026-04-10T13:32:43Z</time></trkpt><trkpt lat="57.8965149075" lon="33.9219317771"><ele>147.70</ele><time>2026-04-10T13:32:44Z</time></trkpt><trkpt lat="57.8965548892" lon="33.9219587669"><ele>151.06</ele><time>2026-04-10T13:32:49Z</time></trkpt><trkpt lat="57.8965956252" lon="33.9219268318"><ele>154.43</ele><time>2026-04-10T13:32:56Z</time></trkpt><trkpt lat="57.8967133909" lon="33.9218851738"><ele>157.31</ele><time>2026-04-10T13:33:04Z</time></trkpt><trkpt lat="57.8967123013" lon="33.9219070505"><ele>158.27</ele><time>2026-04-10T13:33:06Z</time></trkpt><trkpt lat="57.8968187515" lon="33.9219451882"><ele>161.16</ele><time>2026-04-10T13:33:16Z</time></trkpt><trkpt lat="57.8969061747" lon="33.9220243134"><ele>164.04</ele><time>2026-04-10T13:33:29Z</time></trkpt><trkpt lat="57.8969856352" lon="33.9220679831"><ele>165.96</ele><time>2026-04-10T13:33:37Z</time></trkpt><trkpt lat="57.8970889840" lon="33.9221140835"><ele>167.89</ele><time>2026-04-10T13:33:45Z</time></trkpt><trkpt lat="57.8971918300" lon="33.9221549034"><ele>170.77</ele><time>2026-04-10T13:33:54Z</time></trkpt><trkpt lat="57.8972492460" lon="33.9221922029"><ele>171.73</ele><time>2026-04-10T13:33:58Z</time></trkpt><trkpt lat="57.8973814286" lon="33.9222398959"><ele>173.66</ele><time>2026-04-10T13:34:09Z</time></trkpt><trkpt lat="57.8974575363" lon="33.9223392215"><ele>175.58</ele><time>2026-04-10T13:34:19Z</time></trkpt><trkpt lat="57.8975358233" lon="33.9223916922"><ele>176.54</ele><time>2026-04-10T13:34:26Z</time></trkpt><trkpt lat="57.8976571932" lon="33.9224053547"><ele>176.54</ele><time>2026-04-10T13:34:35Z</time></trkpt><trkpt lat="57.8978705965" lon="33.9224501979"><ele>176.54</ele><time>2026-04-10T13:34:51Z</time></trkpt><trkpt lat="57.8979741968" lon="33.9224968012"><ele>176.54</ele><time>2026-04-10T13:34:59Z</time></trkpt><trkpt lat="57.8979985043" lon="33.9225345198"><ele>176.54</ele><time>2026-04-10T13:35:02Z</time></trkpt><trkpt lat="57.8980780486" lon="33.9226268884"><ele>176.54</ele><time>2026-04-10T13:35:12Z</time></trkpt><trkpt lat="57.8981751110" lon="33.9227131382"><ele>176.54</ele><time>2026-04-10T13:35:22Z</time></trkpt><trkpt lat="57.8982564155" lon="33.9227428939"><ele>176.54</ele><time>2026-04-10T13:35:28Z</time></trkpt><trkpt lat="57.8984335251" lon="33.9227480907"><ele>176.54</ele><time>2026-04-10T13:35:40Z</time></trkpt><trkpt lat="57.8985341918" lon="33.9228160679"><ele>176.54</ele><time>2026-04-10T13:35:49Z</time></trkpt><trkpt lat="57.8986253869" lon="33.9228447340"><ele>176.54</ele><time>2026-04-10T13:35:59Z</time></trkpt><trkpt lat="57.8987429850" lon="33.9229650144"><ele>176.54</ele><time>2026-04-10T13:36:11Z</time></trkpt><trkpt lat="57.8988054302" lon="33.9230220113"><ele>176.54</ele><time>2026-04-10T13:36:18Z</time></trkpt><trkpt lat="57.8989715595" lon="33.9230936766"><ele>176.54</ele><time>2026-04-10T13:36:31Z</time></trkpt><trkpt lat="57.8990697116" lon="33.9231324848"><ele>176.54</ele><time>2026-04-10T13:36:39Z</time></trkpt><trkpt lat="57.8991774190" lon="33.9231827762"><ele>176.54</ele><time>2026-04-10T13:36:49Z</time></trkpt><trkpt lat="57.8992376011" lon="33.9231796749"><ele>176.54</ele><time>2026-04-10T13:36:52Z</time></trkpt><trkpt lat="57.8993569594" lon="33.9232908189"><ele>175.58</ele><time>2026-04-10T13:37:02Z</time></trkpt><trkpt lat="57.8994500823" lon="33.9233878814"><ele>175.58</ele><time>2026-04-10T13:37:10Z</time></trkpt><trkpt lat="57.8995309677" lon="33.9234285336"><ele>175.58</ele><time>2026-04-10T13:37:16Z</time></trkpt><trkpt lat="57.8995974362" lon="33.9236890431"><ele>175.58</ele><time>2026-04-10T13:37:31Z</time></trkpt><trkpt lat="57.8995857853" lon="33.9238275960"><ele>175.58</ele><time>2026-04-10T13:37:35Z</time></trkpt><trkpt lat="57.8996697720" lon="33.9240496326"><ele>175.10</ele><time>2026-04-10T13:37:46Z</time></trkpt><trkpt lat="57.8996227495" lon="33.9241963997"><ele>175.10</ele><time>2026-04-10T13:37:56Z</time></trkpt><trkpt lat="57.8997022938" lon="33.9242823981"><ele>175.10</ele><time>2026-04-10T13:38:04Z</time></trkpt><trkpt lat="57.8998042177" lon="33.9244358707"><ele>175.10</ele><time>2026-04-10T13:38:15Z</time></trkpt><trkpt lat="57.8998276033" lon="33.9246209431"><ele>175.10</ele><time>2026-04-10T13:38:22Z</time></trkpt><trkpt lat="57.8998412658" lon="33.9246988948"><ele>175.10</ele><time>2026-04-10T13:38:25Z</time></trkpt><trkpt lat="57.8998823371" lon="33.9249313250"><ele>175.10</ele><time>2026-04-10T13:38:37Z</time></trkpt><trkpt lat="57.8999518231" lon="33.9250381105"><ele>175.10</ele><time>2026-04-10T13:38:45Z</time></trkpt><trkpt lat="57.8999879491" lon="33.9251720533"><ele>175.10</ele><time>2026-04-10T13:38:51Z</time></trkpt><trkpt lat="57.8999532480" lon="33.9253472351"><ele>175.10</ele><time>2026-04-10T13:38:55Z</time></trkpt><trkpt lat="57.8999636415" lon="33.9253816009"><ele>175.10</ele><time>2026-04-10T13:38:57Z</time></trkpt><trkpt lat="57.9000247456" lon="33.9254312217"><ele>175.10</ele><time>2026-04-10T13:39:03Z</time></trkpt><trkpt lat="57.9001478758" lon="33.9256912284"><ele>175.10</ele><time>2026-04-10T13:39:17Z</time></trkpt><trkpt lat="57.9002757836" lon="33.9259076491"><ele>175.10</ele><time>2026-04-10T13:39:30Z</time></trkpt><trkpt lat="57.9003186151" lon="33.9260108303"><ele>175.10</ele><time>2026-04-10T13:39:35Z</time></trkpt><trkpt lat="57.9003951419" lon="33.9261298534"><ele>175.10</ele><time>2026-04-10T13:39:43Z</time></trkpt><trkpt lat="57.9004341178" lon="33.9263348747"><ele>176.06</ele><time>2026-04-10T13:39:51Z</time></trkpt><trkpt lat="57.9004869238" lon="33.9264278300"><ele>176.06</ele><time>2026-04-10T13:39:56Z</time></trkpt><trkpt lat="57.9005259834" lon="33.9264963102"><ele>176.06</ele><time>2026-04-10T13:40:00Z</time></trkpt><trkpt lat="57.9005980678" lon="33.9265894331"><ele>176.06</ele><time>2026-04-10T13:40:06Z</time></trkpt><trkpt lat="57.9007211141" lon="33.9268044289"><ele>176.06</ele><time>2026-04-10T13:40:18Z</time></trkpt><trkpt lat="57.9008692224" lon="33.9270807803"><ele>176.06</ele><time>2026-04-10T13:40:33Z</time></trkpt><trkpt lat="57.9009565618" lon="33.9271366876"><ele>176.06</ele><time>2026-04-10T13:40:40Z</time></trkpt><trkpt lat="57.9010602459" lon="33.9272060897"><ele>176.06</ele><time>2026-04-10T13:40:50Z</time></trkpt><trkpt lat="57.9011714738" lon="33.9271956123"><ele>176.06</ele><time>2026-04-10T13:40:59Z</time></trkpt><trkpt lat="57.9012814444" lon="33.9271651860"><ele>176.06</ele><time>2026-04-10T13:41:08Z</time></trkpt><trkpt lat="57.9012914188" lon="33.9271783456"><ele>176.06</ele><time>2026-04-10T13:41:09Z</time></trkpt><trkpt lat="57.9014829453" lon="33.9272376895"><ele>176.06</ele><time>2026-04-10T13:41:26Z</time></trkpt><trkpt lat="57.9017192312" lon="33.9271625876"><ele>176.06</ele><time>2026-04-10T13:41:42Z</time></trkpt><trkpt lat="57.9018189758" lon="33.9271852188"><ele>176.06</ele><time>2026-04-10T13:41:50Z</time></trkpt><trkpt lat="57.9019958340" lon="33.9271739032"><ele>176.06</ele><time>2026-04-10T13:42:02Z</time></trkpt><trkpt lat="57.9020923097" lon="33.9271814469"><ele>176.06</ele><time>2026-04-10T13:42:11Z</time></trkpt><trkpt lat="57.9022213910" lon="33.9273128752"><ele>176.06</ele><time>2026-04-10T13:42:21Z</time></trkpt><trkpt lat="57.9023216385" lon="33.9273433853"><ele>176.06</ele><time>2026-04-10T13:42:29Z</time></trkpt><trkpt lat="57.9024756141" lon="33.9275451377"><ele>176.06</ele><time>2026-04-10T13:42:44Z</time></trkpt><trkpt lat="57.9025271628" lon="33.9276962634"><ele>176.06</ele><time>2026-04-10T13:42:54Z</time></trkpt><trkpt lat="57.9025389813" lon="33.9279876184"><ele>176.06</ele><time>2026-04-10T13:43:05Z</time></trkpt><trkpt lat="57.9025486205" lon="33.9281662367"><ele>176.06</ele><time>2026-04-10T13:43:13Z</time></trkpt><trkpt lat="57.9025669768" lon="33.9283032808"><ele>176.06</ele><time>2026-04-10T13:43:18Z</time></trkpt><trkpt lat="57.9025754426" lon="33.9286206197"><ele>176.06</ele><time>2026-04-10T13:43:30Z</time></trkpt><trkpt lat="57.9025779571" lon="33.9287126530"><ele>176.06</ele><time>2026-04-10T13:43:34Z</time></trkpt><trkpt lat="57.9025784601" lon="33.9288322628"><ele>176.06</ele><time>2026-04-10T13:43:40Z</time></trkpt><trkpt lat="57.9025825672" lon="33.9289153274"><ele>176.06</ele><time>2026-04-10T13:43:44Z</time></trkpt><trkpt lat="57.9026114009" lon="33.9293412119"><ele>176.06</ele><time>2026-04-10T13:44:00Z</time></trkpt><trkpt lat="57.9026069585" lon="33.9293714706"><ele>176.06</ele><time>2026-04-10T13:44:02Z</time></trkpt><trkpt lat="57.9026114009" lon="33.9296988677"><ele>176.06</ele><time>2026-04-10T13:44:16Z</time></trkpt><trkpt lat="57.9026066232" lon="33.9301280212"><ele>176.06</ele><time>2026-04-10T13:44:32Z</time></trkpt><trkpt lat="57.9025950562" lon="33.9304282609"><ele>176.06</ele><time>2026-04-10T13:44:44Z</time></trkpt><trkpt lat="57.9024852533" lon="33.9306337852"><ele>175.58</ele><time>2026-04-10T13:44:54Z</time></trkpt><trkpt lat="57.9023522325" lon="33.9309553988"><ele>174.62</ele><time>2026-04-10T13:45:10Z</time></trkpt><trkpt lat="57.9023721814" lon="33.9311735798"><ele>174.62</ele><time>2026-04-10T13:45:21Z</time></trkpt><trkpt lat="57.9023662303" lon="33.9312624279"><ele>174.62</ele><time>2026-04-10T13:45:23Z</time></trkpt><trkpt lat="57.9024558328" lon="33.9315132983"><ele>174.62</ele><time>2026-04-10T13:45:37Z</time></trkpt><trkpt lat="57.9024551623" lon="33.9315071795"><ele>174.62</ele><time>2026-04-10T13:45:53Z</time></trkpt><trkpt lat="57.9024450202" lon="33.9315201715"><ele>174.62</ele><time>2026-04-10T13:46:07Z</time></trkpt><trkpt lat="57.9024785478" lon="33.9314666949"><ele>173.66</ele><time>2026-04-10T13:46:27Z</time></trkpt><trkpt lat="57.9023932200" lon="33.9314467460"><ele>173.66</ele><time>2026-04-10T13:46:42Z</time></trkpt><trkpt lat="57.9024819005" lon="33.9314332511"><ele>173.66</ele><time>2026-04-10T13:47:07Z</time></trkpt><trkpt lat="57.9024039488" lon="33.9314755797"><ele>174.14</ele><time>2026-04-10T13:47:29Z</time></trkpt><trkpt lat="57.9024299327" lon="33.9314898290"><ele>174.14</ele><time>2026-04-10T13:47:44Z</time></trkpt><trkpt lat="57.9024245683" lon="33.9314245339"><ele>174.14</ele><time>2026-04-10T13:48:03Z</time></trkpt><trkpt lat="57.9024545755" lon="33.9314758312"><ele>174.14</ele><time>2026-04-10T13:48:19Z</time></trkpt><trkpt lat="57.9024581797" lon="33.9315029886"><ele>174.14</ele><time>2026-04-10T13:48:20Z</time></trkpt><trkpt lat="57.9025005922" lon="33.9317141287"><ele>173.66</ele><time>2026-04-10T13:48:31Z</time></trkpt><trkpt lat="57.9025848303" lon="33.9319935814"><ele>173.66</ele><time>2026-04-10T13:48:45Z</time></trkpt><trkpt lat="57.9025975708" lon="33.9319836069"><ele>173.66</ele><time>2026-04-10T13:48:57Z</time></trkpt><trkpt lat="57.9026910290" lon="33.9322238322"><ele>173.66</ele><time>2026-04-10T13:49:09Z</time></trkpt><trkpt lat="57.9027844872" lon="33.9325674064"><ele>173.66</ele><time>2026-04-10T13:49:24Z</time></trkpt><trkpt lat="57.9027868342" lon="33.9326236490"><ele>173.66</ele><time>2026-04-10T13:49:26Z</time></trkpt><trkpt lat="57.9028612655" lon="33.9329560753"><ele>173.17</ele><time>2026-04-10T13:49:42Z</time></trkpt><trkpt lat="57.9028768558" lon="33.9329973981"><ele>173.17</ele><time>2026-04-10T13:49:44Z</time></trkpt><trkpt lat="57.9028868303" lon="33.9331002440"><ele>173.17</ele><time>2026-04-10T13:49:48Z</time></trkpt><trkpt lat="57.9029521253" lon="33.9334343467"><ele>173.17</ele><time>2026-04-10T13:50:02Z</time></trkpt><trkpt lat="57.9030330107" lon="33.9337196667"><ele>173.17</ele><time>2026-04-10T13:50:16Z</time></trkpt><trkpt lat="57.9030544683" lon="33.9338115323"><ele>173.17</ele><time>2026-04-10T13:50:20Z</time></trkpt><trkpt lat="57.9030806199" lon="33.9339132048"><ele>174.14</ele><time>2026-04-10T13:50:24Z</time></trkpt><trkpt lat="57.9031115491" lon="33.9343057293"><ele>174.14</ele><time>2026-04-10T13:50:38Z</time></trkpt><trkpt lat="57.9031295702" lon="33.9346055500"><ele>174.14</ele><time>2026-04-10T13:50:52Z</time></trkpt><trkpt lat="57.9031673726" lon="33.9349124115"><ele>174.14</ele><time>2026-04-10T13:51:03Z</time></trkpt><trkpt lat="57.9031791072" lon="33.9350133296"><ele>174.14</ele><time>2026-04-10T13:51:07Z</time></trkpt><trkpt lat="57.9031931050" lon="33.9352701511"><ele>174.14</ele><time>2026-04-10T13:51:22Z</time></trkpt><trkpt lat="57.9031772632" lon="33.9353845641"><ele>174.14</ele><time>2026-04-10T13:51:47Z</time></trkpt><trkpt lat="57.9031858128" lon="33.9354854822"><ele>174.14</ele><time>2026-04-10T13:52:07Z</time></trkpt><trkpt lat="57.9032111261" lon="33.9355454128"><ele>173.66</ele><time>2026-04-10T13:52:27Z</time></trkpt><trkpt lat="57.9032257944" lon="33.9354947861"><ele>173.66</ele><time>2026-04-10T13:52:43Z</time></trkpt><trkpt lat="57.9032032471" lon="33.9354526252"><ele>173.66</ele><time>2026-04-10T13:52:58Z</time></trkpt><trkpt lat="57.9032002296" lon="33.9353787806"><ele>172.69</ele><time>2026-04-10T13:53:17Z</time></trkpt><trkpt lat="57.9031929374" lon="33.9353794511"><ele>172.69</ele><time>2026-04-10T13:53:39Z</time></trkpt><trkpt lat="57.9032050911" lon="33.9354407229"><ele>172.69</ele><time>2026-04-10T13:53:59Z</time></trkpt><trkpt lat="57.9031916801" lon="33.9354862366"><ele>172.21</ele><time>2026-04-10T13:54:15Z</time></trkpt><trkpt lat="57.9031993914" lon="33.9354434889"><ele>172.21</ele><time>2026-04-10T13:54:31Z</time></trkpt><trkpt lat="57.9031681269" lon="33.9354658686"><ele>172.21</ele><time>2026-04-10T13:54:47Z</time></trkpt><trkpt lat="57.9030164145" lon="33.9357444830"><ele>172.21</ele><time>2026-04-10T13:55:05Z</time></trkpt><trkpt lat="57.9029412288" lon="33.9360229298"><ele>171.25</ele><time>2026-04-10T13:55:18Z</time></trkpt><trkpt lat="57.9029289074" lon="33.9360528532"><ele>171.25</ele><time>2026-04-10T13:55:35Z</time></trkpt><trkpt lat="57.9029092100" lon="33.9361541905"><ele>171.25</ele><time>2026-04-10T13:55:49Z</time></trkpt><trkpt lat="57.9028502014" lon="33.9363611396"><ele>171.25</ele><time>2026-04-10T13:55:59Z</time></trkpt><trkpt lat="57.9027260654" lon="33.9366018679"><ele>171.25</ele><time>2026-04-10T13:56:13Z</time></trkpt><trkpt lat="57.9026416596" lon="33.9368585218"><ele>171.25</ele><time>2026-04-10T13:56:28Z</time></trkpt><trkpt lat="57.9025825672" lon="33.9370444324"><ele>171.25</ele><time>2026-04-10T13:56:40Z</time></trkpt><trkpt lat="57.9025113210" lon="33.9370736852"><ele>171.25</ele><time>2026-04-10T13:56:44Z</time></trkpt><trkpt lat="57.9024006799" lon="33.9373781998"><ele>171.25</ele><time>2026-04-10T13:57:00Z</time></trkpt><trkpt lat="57.9023443535" lon="33.9375017490"><ele>171.25</ele><time>2026-04-10T13:57:07Z</time></trkpt><trkpt lat="57.9022421781" lon="33.9377223607"><ele>171.25</ele><time>2026-04-10T13:57:19Z</time></trkpt><trkpt lat="57.9020828381" lon="33.9379558805"><ele>171.25</ele><time>2026-04-10T13:57:33Z</time></trkpt><trkpt lat="57.9018512461" lon="33.9381683618"><ele>171.25</ele><time>2026-04-10T13:57:51Z</time></trkpt><trkpt lat="57.9016916547" lon="33.9383114409"><ele>171.25</ele><time>2026-04-10T13:58:05Z</time></trkpt><trkpt lat="57.9016695265" lon="33.9383458905"><ele>171.25</ele><time>2026-04-10T13:58:07Z</time></trkpt><trkpt lat="57.9015221726" lon="33.9385618921"><ele>171.25</ele><time>2026-04-10T13:58:19Z</time></trkpt><trkpt lat="57.9014152195" lon="33.9387569390"><ele>171.25</ele><time>2026-04-10T13:58:33Z</time></trkpt><trkpt lat="57.9013509303" lon="33.9388967492"><ele>171.73</ele><time>2026-04-10T13:58:42Z</time></trkpt><trkpt lat="57.9011925124" lon="33.9391821530"><ele>171.73</ele><time>2026-04-10T13:58:58Z</time></trkpt><trkpt lat="57.9009750020" lon="33.9393481985"><ele>171.73</ele><time>2026-04-10T13:59:16Z</time></trkpt><trkpt lat="57.9007979762" lon="33.9394547325"><ele>171.73</ele><time>2026-04-10T13:59:30Z</time></trkpt><trkpt lat="57.9006716609" lon="33.9396212809"><ele>171.73</ele><time>2026-04-10T13:59:44Z</time></trkpt><trkpt lat="57.9006937891" lon="33.9397395495"><ele>171.73</ele><time>2026-04-10T13:59:49Z</time></trkpt><trkpt lat="57.9006746784" lon="33.9398555551"><ele>171.73</ele><time>2026-04-10T13:59:54Z</time></trkpt><trkpt lat="57.9006634466" lon="33.9399001468"><ele>171.25</ele><time>2026-04-10T13:59:57Z</time></trkpt><trkpt lat="57.9006522987" lon="33.9401423000"><ele>171.25</ele><time>2026-04-10T14:00:06Z</time></trkpt><trkpt lat="57.9006033484" lon="33.9403063338"><ele>171.25</ele><time>2026-04-10T14:00:13Z</time></trkpt><trkpt lat="57.9006020911" lon="33.9403536916"><ele>171.25</ele><time>2026-04-10T14:00:15Z</time></trkpt><trkpt lat="57.9005915299" lon="33.9404547773"><ele>171.25</ele><time>2026-04-10T14:00:19Z</time></trkpt><trkpt lat="57.9005834833" lon="33.9406299591"><ele>170.77</ele><time>2026-04-10T14:00:25Z</time></trkpt><trkpt lat="57.9005069565" lon="33.9410499763"><ele>170.77</ele><time>2026-04-10T14:00:42Z</time></trkpt><trkpt lat="57.9004166834" lon="33.9412494656"><ele>170.77</ele><time>2026-04-10T14:00:53Z</time></trkpt><trkpt lat="57.9002556670" lon="33.9414902776"><ele>170.77</ele><time>2026-04-10T14:01:06Z</time></trkpt><trkpt lat="57.9001829959" lon="33.9415476937"><ele>170.77</ele><time>2026-04-10T14:01:12Z</time></trkpt><trkpt lat="57.9000462033" lon="33.9417786989"><ele>170.77</ele><time>2026-04-10T14:01:25Z</time></trkpt><trkpt lat="57.8999913856" lon="33.9420765080"><ele>170.77</ele><time>2026-04-10T14:01:39Z</time></trkpt><trkpt lat="57.9001016915" lon="33.9425048232"><ele>170.77</ele><time>2026-04-10T14:01:55Z</time></trkpt><trkpt lat="57.9001323693" lon="33.9428250957"><ele>171.73</ele><time>2026-04-10T14:02:09Z</time></trkpt><trkpt lat="57.9001278430" lon="33.9428626467"><ele>171.73</ele><time>2026-04-10T14:02:11Z</time></trkpt><trkpt lat="57.8999786451" lon="33.9430804085"><ele>171.73</ele><time>2026-04-10T14:02:25Z</time></trkpt><trkpt lat="57.8998971730" lon="33.9432072267"><ele>171.73</ele><time>2026-04-10T14:02:33Z</time></trkpt><trkpt lat="57.8998917248" lon="33.9432980865"><ele>171.73</ele><time>2026-04-10T14:02:37Z</time></trkpt><trkpt lat="57.8998783138" lon="33.9436820615"><ele>171.73</ele><time>2026-04-10T14:02:53Z</time></trkpt><trkpt lat="57.8998586163" lon="33.9437818062"><ele>172.21</ele><time>2026-04-10T14:02:58Z</time></trkpt><trkpt lat="57.8998500668" lon="33.9437991567"><ele>172.21</ele><time>2026-04-10T14:03:12Z</time></trkpt><trkpt lat="57.8999198880" lon="33.9435433410"><ele>172.21</ele><time>2026-04-10T14:03:24Z</time></trkpt><trkpt lat="57.9000245780" lon="33.9432123397"><ele>172.21</ele><time>2026-04-10T14:03:37Z</time></trkpt><trkpt lat="57.9000514001" lon="33.9431694243"><ele>172.21</ele><time>2026-04-10T14:03:42Z</time></trkpt><trkpt lat="57.9001000989" lon="33.9430982620"><ele>172.21</ele><time>2026-04-10T14:03:51Z</time></trkpt><trkpt lat="57.9002392385" lon="33.9429357368"><ele>172.21</ele><time>2026-04-10T14:04:06Z</time></trkpt><trkpt lat="57.9003726784" lon="33.9427616447"><ele>172.21</ele><time>2026-04-10T14:04:18Z</time></trkpt><trkpt lat="57.9003920406" lon="33.9426893927"><ele>172.21</ele><time>2026-04-10T14:04:22Z</time></trkpt><trkpt lat="57.9004382249" lon="33.9425726328"><ele>172.21</ele><time>2026-04-10T14:04:26Z</time></trkpt><trkpt lat="57.9004623648" lon="33.9425277058"><ele>171.25</ele><time>2026-04-10T14:04:29Z</time></trkpt><trkpt lat="57.9005106445" lon="33.9423904102"><ele>171.25</ele><time>2026-04-10T14:04:35Z</time></trkpt><trkpt lat="57.9005400650" lon="33.9423441421"><ele>171.25</ele><time>2026-04-10T14:04:40Z</time></trkpt><trkpt lat="57.9005916137" lon="33.9421751630"><ele>171.25</ele><time>2026-04-10T14:04:45Z</time></trkpt><trkpt lat="57.9006569088" lon="33.9419083670"><ele>171.25</ele><time>2026-04-10T14:04:57Z</time></trkpt><trkpt lat="57.9007588327" lon="33.9415948838"><ele>171.25</ele><time>2026-04-10T14:05:11Z</time></trkpt><trkpt lat="57.9008087888" lon="33.9415212069"><ele>172.69</ele><time>2026-04-10T14:05:14Z</time></trkpt><trkpt lat="57.9008210264" lon="33.9414950553"><ele>172.69</ele><time>2026-04-10T14:05:16Z</time></trkpt><trkpt lat="57.9009346012" lon="33.9412580151"><ele>172.69</ele><time>2026-04-10T14:05:30Z</time></trkpt><trkpt lat="57.9009415582" lon="33.9412239008"><ele>172.69</ele><time>2026-04-10T14:05:31Z</time></trkpt><trkpt lat="57.9010385368" lon="33.9410158619"><ele>172.69</ele><time>2026-04-10T14:05:41Z</time></trkpt><trkpt lat="57.9011120461" lon="33.9408461284"><ele>172.69</ele><time>2026-04-10T14:05:50Z</time></trkpt><trkpt lat="57.9011521954" lon="33.9406957570"><ele>173.17</ele><time>2026-04-10T14:05:57Z</time></trkpt><trkpt lat="57.9013016447" lon="33.9404981118"><ele>173.17</ele><time>2026-04-10T14:06:13Z</time></trkpt><trkpt lat="57.9013821110" lon="33.9404411986"><ele>173.17</ele><time>2026-04-10T14:06:19Z</time></trkpt><trkpt lat="57.9014845379" lon="33.9403509255"><ele>173.17</ele><time>2026-04-10T14:06:27Z</time></trkpt><trkpt lat="57.9016271140" lon="33.9402158093"><ele>173.17</ele><time>2026-04-10T14:06:39Z</time></trkpt><trkpt lat="57.9016364180" lon="33.9402077626"><ele>173.17</ele><time>2026-04-10T14:06:40Z</time></trkpt><trkpt lat="57.9017637391" lon="33.9401238598"><ele>172.21</ele><time>2026-04-10T14:06:52Z</time></trkpt><trkpt lat="57.9018539283" lon="33.9400174934"><ele>172.21</ele><time>2026-04-10T14:07:02Z</time></trkpt><trkpt lat="57.9019222409" lon="33.9398648590"><ele>172.69</ele><time>2026-04-10T14:07:15Z</time></trkpt><trkpt lat="57.9019299522" lon="33.9398559742"><ele>172.69</ele><time>2026-04-10T14:07:16Z</time></trkpt><trkpt lat="57.9020399228" lon="33.9396994840"><ele>172.69</ele><time>2026-04-10T14:07:26Z</time></trkpt><trkpt lat="57.9021329619" lon="33.9394833148"><ele>172.21</ele><time>2026-04-10T14:07:39Z</time></trkpt><trkpt lat="57.9022437707" lon="33.9392704144"><ele>171.73</ele><time>2026-04-10T14:07:52Z</time></trkpt><trkpt lat="57.9023915436" lon="33.9389564283"><ele>171.25</ele><time>2026-04-10T14:08:12Z</time></trkpt><trkpt lat="57.9024039488" lon="33.9389280975"><ele>171.25</ele><time>2026-04-10T14:08:15Z</time></trkpt><trkpt lat="57.9024306871" lon="33.9388236590"><ele>171.25</ele><time>2026-04-10T14:08:20Z</time></trkpt><trkpt lat="57.9025236424" lon="33.9387312066"><ele>171.25</ele><time>2026-04-10T14:08:33Z</time></trkpt><trkpt lat="57.9025853332" lon="33.9386007003"><ele>171.25</ele><time>2026-04-10T14:08:45Z</time></trkpt><trkpt lat="57.9025971517" lon="33.9385666698"><ele>171.25</ele><time>2026-04-10T14:08:49Z</time></trkpt><trkpt lat="57.9025897756" lon="33.9385017939"><ele>171.25</ele><time>2026-04-10T14:09:05Z</time></trkpt><trkpt lat="57.9026423302" lon="33.9384140354"><ele>171.25</ele><time>2026-04-10T14:09:16Z</time></trkpt><trkpt lat="57.9027186055" lon="33.9382572100"><ele>171.25</ele><time>2026-04-10T14:09:27Z</time></trkpt><trkpt lat="57.9029046837" lon="33.9379244484"><ele>171.25</ele><time>2026-04-10T14:09:49Z</time></trkpt><trkpt lat="57.9031718988" lon="33.9372841548"><ele>171.25</ele><time>2026-04-10T14:10:23Z</time></trkpt><trkpt lat="57.9032309074" lon="33.9372001681"><ele>171.25</ele><time>2026-04-10T14:10:28Z</time></trkpt><trkpt lat="57.9032642674" lon="33.9370917063"><ele>171.25</ele><time>2026-04-10T14:10:32Z</time></trkpt><trkpt lat="57.9032925982" lon="33.9370305184"><ele>171.25</ele><time>2026-04-10T14:10:36Z</time></trkpt><trkpt lat="57.9033795185" lon="33.9368581865"><ele>171.25</ele><time>2026-04-10T14:10:45Z</time></trkpt><trkpt lat="57.9034863878" lon="33.9366425201"><ele>171.25</ele><time>2026-04-10T14:10:54Z</time></trkpt><trkpt lat="57.9035781696" lon="33.9363819268"><ele>171.73</ele><time>2026-04-10T14:11:02Z</time></trkpt><trkpt lat="57.9036076739" lon="33.9362498280"><ele>171.73</ele><time>2026-04-10T14:11:06Z</time></trkpt><trkpt lat="57.9037065804" lon="33.9360812679"><ele>171.73</ele><time>2026-04-10T14:11:15Z</time></trkpt><trkpt lat="57.9038532637" lon="33.9358704630"><ele>172.69</ele><time>2026-04-10T14:11:29Z</time></trkpt><trkpt lat="57.9039416928" lon="33.9357366040"><ele>172.69</ele><time>2026-04-10T14:11:40Z</time></trkpt><trkpt lat="57.9039524216" lon="33.9356937725"><ele>172.69</ele><time>2026-04-10T14:11:43Z</time></trkpt><trkpt lat="57.9040823411" lon="33.9354219474"><ele>172.69</ele><time>2026-04-10T14:11:55Z</time></trkpt><trkpt lat="57.9041152820" lon="33.9353285730"><ele>172.69</ele><time>2026-04-10T14:12:00Z</time></trkpt><trkpt lat="57.9041934013" lon="33.9351666346"><ele>172.69</ele><time>2026-04-10T14:12:09Z</time></trkpt><trkpt lat="57.9042617977" lon="33.9349680673"><ele>172.69</ele><time>2026-04-10T14:12:19Z</time></trkpt><trkpt lat="57.9043722712" lon="33.9347529039"><ele>172.69</ele><time>2026-04-10T14:12:32Z</time></trkpt><trkpt lat="57.9044830799" lon="33.9345303643"><ele>173.17</ele><time>2026-04-10T14:12:45Z</time></trkpt><trkpt lat="57.9045951460" lon="33.9343363233"><ele>173.66</ele><time>2026-04-10T14:12:57Z</time></trkpt><trkpt lat="57.9046630394" lon="33.9340809267"><ele>173.17</ele><time>2026-04-10T14:13:08Z</time></trkpt><trkpt lat="57.9046896938" lon="33.9338865504"><ele>173.17</ele><time>2026-04-10T14:13:15Z</time></trkpt><trkpt lat="57.9048461001" lon="33.9337987918"><ele>173.66</ele><time>2026-04-10T14:13:29Z</time></trkpt><trkpt lat="57.9048802983" lon="33.9338127896"><ele>173.66</ele><time>2026-04-10T14:13:32Z</time></trkpt><trkpt lat="57.9049604293" lon="33.9339002967"><ele>173.66</ele><time>2026-04-10T14:13:40Z</time></trkpt><trkpt lat="57.9050146602" lon="33.9339795895"><ele>173.66</ele><time>2026-04-10T14:13:45Z</time></trkpt><trkpt lat="57.9050571565" lon="33.9342157077"><ele>173.66</ele><time>2026-04-10T14:13:56Z</time></trkpt><trkpt lat="57.9051311687" lon="33.9345609583"><ele>173.66</ele><time>2026-04-10T14:14:09Z</time></trkpt><trkpt lat="57.9052827973" lon="33.9348206297"><ele>173.66</ele><time>2026-04-10T14:14:24Z</time></trkpt><trkpt lat="57.9054509383" lon="33.9350036066"><ele>173.66</ele><time>2026-04-10T14:14:39Z</time></trkpt><trkpt lat="57.9055314045" lon="33.9352699835"><ele>173.66</ele><time>2026-04-10T14:14:50Z</time></trkpt><trkpt lat="57.9056051653" lon="33.9354181755"><ele>173.66</ele><time>2026-04-10T14:14:59Z</time></trkpt><trkpt lat="57.9057358392" lon="33.9355071913"><ele>173.66</ele><time>2026-04-10T14:15:14Z</time></trkpt><trkpt lat="57.9058432952" lon="33.9356087800"><ele>173.66</ele><time>2026-04-10T14:15:28Z</time></trkpt><trkpt lat="57.9060154594" lon="33.9357738197"><ele>173.66</ele><time>2026-04-10T14:15:43Z</time></trkpt><trkpt lat="57.9061056487" lon="33.9358794317"><ele>173.66</ele><time>2026-04-10T14:15:54Z</time></trkpt><trkpt lat="57.9061343148" lon="33.9358709659"><ele>173.66</ele><time>2026-04-10T14:15:56Z</time></trkpt><trkpt lat="57.9063161183" lon="33.9359242748"><ele>173.66</ele><time>2026-04-10T14:16:08Z</time></trkpt><trkpt lat="57.9063909687" lon="33.9359645918"><ele>173.66</ele><time>2026-04-10T14:16:13Z</time></trkpt><trkpt lat="57.9064563476" lon="33.9360373467"><ele>173.17</ele><time>2026-04-10T14:16:21Z</time></trkpt><trkpt lat="57.9064902943" lon="33.9360701200"><ele>173.17</ele><time>2026-04-10T14:16:24Z</time></trkpt><trkpt lat="57.9066196270" lon="33.9359390270"><ele>173.17</ele><time>2026-04-10T14:16:36Z</time></trkpt><trkpt lat="57.9067112412" lon="33.9357164875"><ele>173.17</ele><time>2026-04-10T14:16:46Z</time></trkpt><trkpt lat="57.9068006761" lon="33.9355071913"><ele>173.17</ele><time>2026-04-10T14:16:55Z</time></trkpt><trkpt lat="57.9068984929" lon="33.9353175089"><ele>173.17</ele><time>2026-04-10T14:17:05Z</time></trkpt><trkpt lat="57.9069846589" lon="33.9351580013"><ele>173.17</ele><time>2026-04-10T14:17:15Z</time></trkpt><trkpt lat="57.9071212001" lon="33.9351409860"><ele>173.17</ele><time>2026-04-10T14:17:25Z</time></trkpt><trkpt lat="57.9072061088" lon="33.9351822250"><ele>173.17</ele><time>2026-04-10T14:17:33Z</time></trkpt><trkpt lat="57.9073592462" lon="33.9350535627"><ele>173.17</ele><time>2026-04-10T14:17:44Z</time></trkpt><trkpt lat="57.9074981343" lon="33.9349844120"><ele>173.17</ele><time>2026-04-10T14:17:55Z</time></trkpt><trkpt lat="57.9076359328" lon="33.9348326996"><ele>173.66</ele><time>2026-04-10T14:18:06Z</time></trkpt><trkpt lat="57.9077774193" lon="33.9346409217"><ele>173.66</ele><time>2026-04-10T14:18:16Z</time></trkpt><trkpt lat="57.9078587238" lon="33.9345935639"><ele>173.66</ele><time>2026-04-10T14:18:24Z</time></trkpt><trkpt lat="57.9080378450" lon="33.9344929811"><ele>173.66</ele><time>2026-04-10T14:18:36Z</time></trkpt><trkpt lat="57.9080881365" lon="33.9344726130"><ele>173.66</ele><time>2026-04-10T14:18:41Z</time></trkpt><trkpt lat="57.9082815908" lon="33.9346278459"><ele>173.66</ele><time>2026-04-10T14:18:58Z</time></trkpt><trkpt lat="57.9082965944" lon="33.9346362278"><ele>173.66</ele><time>2026-04-10T14:19:00Z</time></trkpt><trkpt lat="57.9083454609" lon="33.9347078931"><ele>173.66</ele><time>2026-04-10T14:19:05Z</time></trkpt><trkpt lat="57.9084069841" lon="33.9349423349"><ele>173.66</ele><time>2026-04-10T14:19:19Z</time></trkpt><trkpt lat="57.9084065650" lon="33.9349737670"><ele>173.66</ele><time>2026-04-10T14:19:21Z</time></trkpt><trkpt lat="57.9084120970" lon="33.9350850787"><ele>173.66</ele><time>2026-04-10T14:19:31Z</time></trkpt><trkpt lat="57.9084413499" lon="33.9349676482"><ele>172.21</ele><time>2026-04-10T14:19:38Z</time></trkpt><trkpt lat="57.9084065650" lon="33.9347162750"><ele>172.21</ele><time>2026-04-10T14:19:48Z</time></trkpt><trkpt lat="57.9083739594" lon="33.9345891215"><ele>172.21</ele><time>2026-04-10T14:19:54Z</time></trkpt><trkpt lat="57.9083462991" lon="33.9345436916"><ele>172.21</ele><time>2026-04-10T14:19:57Z</time></trkpt><trkpt lat="57.9082982708" lon="33.9345172048"><ele>172.21</ele><time>2026-04-10T14:20:01Z</time></trkpt><trkpt lat="57.9081838578" lon="33.9342869539"><ele>172.21</ele><time>2026-04-10T14:20:14Z</time></trkpt><trkpt lat="57.9081283696" lon="33.9342893846"><ele>172.21</ele><time>2026-04-10T14:20:16Z</time></trkpt><trkpt lat="57.9079674371" lon="33.9343774784"><ele>172.21</ele><time>2026-04-10T14:20:26Z</time></trkpt><trkpt lat="57.9077604041" lon="33.9344755467"><ele>172.21</ele><time>2026-04-10T14:20:36Z</time></trkpt><trkpt lat="57.9076995514" lon="33.9345306996"><ele>172.21</ele><time>2026-04-10T14:20:41Z</time></trkpt><trkpt lat="57.9075822048" lon="33.9346801490"><ele>172.21</ele><time>2026-04-10T14:20:52Z</time></trkpt><trkpt lat="57.9075060133" lon="33.9347808994"><ele>172.21</ele><time>2026-04-10T14:21:01Z</time></trkpt><trkpt lat="57.9073621798" lon="33.9348430932"><ele>172.21</ele><time>2026-04-10T14:21:12Z</time></trkpt><trkpt lat="57.9072587471" lon="33.9348930493"><ele>172.21</ele><time>2026-04-10T14:21:21Z</time></trkpt><trkpt lat="57.9071500339" lon="33.9349340368"><ele>172.21</ele><time>2026-04-10T14:21:30Z</time></trkpt><trkpt lat="57.9070953000" lon="33.9349855017"><ele>172.21</ele><time>2026-04-10T14:21:34Z</time></trkpt><trkpt lat="57.9068943858" lon="33.9351130743"><ele>172.21</ele><time>2026-04-10T14:21:47Z</time></trkpt><trkpt lat="57.9067930486" lon="33.9352070354"><ele>172.21</ele><time>2026-04-10T14:21:56Z</time></trkpt><trkpt lat="57.9066791385" lon="33.9354567323"><ele>172.21</ele><time>2026-04-10T14:22:08Z</time></trkpt><trkpt lat="57.9066011868" lon="33.9356721472"><ele>172.21</ele><time>2026-04-10T14:22:18Z</time></trkpt><trkpt lat="57.9064997658" lon="33.9359062538"><ele>172.21</ele><time>2026-04-10T14:22:34Z</time></trkpt><trkpt lat="57.9064377397" lon="33.9358738158"><ele>172.21</ele><time>2026-04-10T14:22:41Z</time></trkpt><trkpt lat="57.9063896276" lon="33.9358604047"><ele>172.21</ele><time>2026-04-10T14:22:47Z</time></trkpt><trkpt lat="57.9061685968" lon="33.9357356820"><ele>172.21</ele><time>2026-04-10T14:23:02Z</time></trkpt><trkpt lat="57.9060436226" lon="33.9357184991"><ele>172.21</ele><time>2026-04-10T14:23:11Z</time></trkpt><trkpt lat="57.9060069099" lon="33.9357107040"><ele>172.21</ele><time>2026-04-10T14:23:13Z</time></trkpt><trkpt lat="57.9059013817" lon="33.9355067722"><ele>172.21</ele><time>2026-04-10T14:23:26Z</time></trkpt><trkpt lat="57.9057809338" lon="33.9354312513"><ele>172.21</ele><time>2026-04-10T14:23:34Z</time></trkpt><trkpt lat="57.9056969471" lon="33.9353901800"><ele>171.73</ele><time>2026-04-10T14:23:41Z</time></trkpt><trkpt lat="57.9055869766" lon="33.9352289960"><ele>171.73</ele><time>2026-04-10T14:23:54Z</time></trkpt><trkpt lat="57.9055672791" lon="33.9351531398"><ele>171.73</ele><time>2026-04-10T14:23:59Z</time></trkpt><trkpt lat="57.9054791015" lon="33.9348270837"><ele>171.73</ele><time>2026-04-10T14:24:13Z</time></trkpt><trkpt lat="57.9053553008" lon="33.9347091503"><ele>171.73</ele><time>2026-04-10T14:24:21Z</time></trkpt><trkpt lat="57.9052439891" lon="33.9346133452"><ele>171.73</ele><time>2026-04-10T14:24:30Z</time></trkpt><trkpt lat="57.9051672108" lon="33.9343380835"><ele>171.73</ele><time>2026-04-10T14:24:44Z</time></trkpt><trkpt lat="57.9051472619" lon="33.9342723694"><ele>171.73</ele><time>2026-04-10T14:24:47Z</time></trkpt><trkpt lat="57.9051460885" lon="33.9340319764"><ele>171.73</ele><time>2026-04-10T14:24:56Z</time></trkpt><trkpt lat="57.9051238764" lon="33.9338876400"><ele>171.73</ele><time>2026-04-10T14:25:01Z</time></trkpt><trkpt lat="57.9050170910" lon="33.9337656833"><ele>173.17</ele><time>2026-04-10T14:25:09Z</time></trkpt><trkpt lat="57.9049106408" lon="33.9337301441"><ele>173.17</ele><time>2026-04-10T14:25:15Z</time></trkpt><trkpt lat="57.9048145004" lon="33.9336686209"><ele>173.17</ele><time>2026-04-10T14:25:21Z</time></trkpt><trkpt lat="57.9048118182" lon="33.9336388651"><ele>173.17</ele><time>2026-04-10T14:25:23Z</time></trkpt><trkpt lat="57.9048736766" lon="33.9335666969"><ele>173.17</ele><time>2026-04-10T14:25:31Z</time></trkpt><trkpt lat="57.9049969744" lon="33.9333525393"><ele>173.17</ele><time>2026-04-10T14:25:45Z</time></trkpt><trkpt lat="57.9050957970" lon="33.9332111366"><ele>173.66</ele><time>2026-04-10T14:25:53Z</time></trkpt><trkpt lat="57.9051672108" lon="33.9330504555"><ele>173.66</ele><time>2026-04-10T14:26:01Z</time></trkpt><trkpt lat="57.9052644409" lon="33.9327774569"><ele>173.66</ele><time>2026-04-10T14:26:14Z</time></trkpt><trkpt lat="57.9054093640" lon="33.9324194659"><ele>174.14</ele><time>2026-04-10T14:26:27Z</time></trkpt><trkpt lat="57.9054498486" lon="33.9323638100"><ele>174.14</ele><time>2026-04-10T14:26:32Z</time></trkpt><trkpt lat="57.9055197537" lon="33.9321235009"><ele>172.69</ele><time>2026-04-10T14:26:44Z</time></trkpt><trkpt lat="57.9056769144" lon="33.9319874626"><ele>172.69</ele><time>2026-04-10T14:27:01Z</time></trkpt><trkpt lat="57.9058055766" lon="33.9317370113"><ele>172.69</ele><time>2026-04-10T14:27:12Z</time></trkpt><trkpt lat="57.9058987834" lon="33.9315153938"><ele>172.69</ele><time>2026-04-10T14:27:22Z</time></trkpt><trkpt lat="57.9059303831" lon="33.9314249530"><ele>172.69</ele><time>2026-04-10T14:27:27Z</time></trkpt><trkpt lat="57.9059217498" lon="33.9312137291"><ele>171.73</ele><time>2026-04-10T14:27:35Z</time></trkpt><trkpt lat="57.9059341550" lon="33.9310513716"><ele>171.25</ele><time>2026-04-10T14:27:43Z</time></trkpt><trkpt lat="57.9059054889" lon="33.9307870902"><ele>170.77</ele><time>2026-04-10T14:27:54Z</time></trkpt><trkpt lat="57.9058717936" lon="33.9306972362"><ele>170.77</ele><time>2026-04-10T14:27:59Z</time></trkpt><trkpt lat="57.9058095999" lon="33.9305975754"><ele>170.77</ele><time>2026-04-10T14:28:13Z</time></trkpt><trkpt lat="57.9056933429" lon="33.9303591941"><ele>170.77</ele><time>2026-04-10T14:28:26Z</time></trkpt><trkpt lat="57.9056647606" lon="33.9301206451"><ele>170.77</ele><time>2026-04-10T14:28:37Z</time></trkpt><trkpt lat="57.9056661017" lon="33.9300672524"><ele>170.77</ele><time>2026-04-10T14:28:40Z</time></trkpt><trkpt lat="57.9056798480" lon="33.9299241733"><ele>170.77</ele><time>2026-04-10T14:28:52Z</time></trkpt><trkpt lat="57.9057278764" lon="33.9296660945"><ele>170.77</ele><time>2026-04-10T14:29:05Z</time></trkpt><trkpt lat="57.9057480767" lon="33.9295577165"><ele>170.77</ele><time>2026-04-10T14:29:12Z</time></trkpt><trkpt lat="57.9058500845" lon="33.9295142144"><ele>170.77</ele><time>2026-04-10T14:29:26Z</time></trkpt><trkpt lat="57.9059955105" lon="33.9291902538"><ele>170.77</ele><time>2026-04-10T14:29:42Z</time></trkpt><trkpt lat="57.9060427006" lon="33.9289325941"><ele>170.77</ele><time>2026-04-10T14:29:58Z</time></trkpt><trkpt lat="57.9060545191" lon="33.9287738409"><ele>171.73</ele><time>2026-04-10T14:30:10Z</time></trkpt><trkpt lat="57.9060996976" lon="33.9287175983"><ele>171.73</ele><time>2026-04-10T14:30:26Z</time></trkpt><trkpt lat="57.9061311297" lon="33.9286668878"><ele>171.73</ele><time>2026-04-10T14:30:29Z</time></trkpt><trkpt lat="57.9061924852" lon="33.9284815639"><ele>171.73</ele><time>2026-04-10T14:30:37Z</time></trkpt><trkpt lat="57.9060765635" lon="33.9282348007"><ele>171.73</ele><time>2026-04-10T14:30:54Z</time></trkpt><trkpt lat="57.9060313012" lon="33.9281525742"><ele>171.73</ele><time>2026-04-10T14:31:00Z</time></trkpt><trkpt lat="57.9059916548" lon="33.9281119220"><ele>171.73</ele><time>2026-04-10T14:31:28Z</time></trkpt><trkpt lat="57.9059823509" lon="33.9280705154"><ele>171.73</ele><time>2026-04-10T14:31:33Z</time></trkpt><trkpt lat="57.9059955943" lon="33.9280029573"><ele>171.73</ele><time>2026-04-10T14:31:36Z</time></trkpt><trkpt lat="57.9059501644" lon="33.9278934058"><ele>172.21</ele><time>2026-04-10T14:31:51Z</time></trkpt><trkpt lat="57.9058406129" lon="33.9278204832"><ele>172.21</ele><time>2026-04-10T14:32:03Z</time></trkpt><trkpt lat="57.9057780001" lon="33.9276343212"><ele>172.21</ele><time>2026-04-10T14:32:19Z</time></trkpt><trkpt lat="57.9057811014" lon="33.9275649190"><ele>172.21</ele><time>2026-04-10T14:32:23Z</time></trkpt><trkpt lat="57.9057666846" lon="33.9274684433"><ele>172.21</ele><time>2026-04-10T14:32:30Z</time></trkpt><trkpt lat="57.9057303909" lon="33.9273547847"><ele>172.21</ele><time>2026-04-10T14:32:37Z</time></trkpt><trkpt lat="57.9057504237" lon="33.9271765016"><ele>172.21</ele><time>2026-04-10T14:32:50Z</time></trkpt><trkpt lat="57.9057474900" lon="33.9271508530"><ele>172.21</ele><time>2026-04-10T14:32:51Z</time></trkpt><trkpt lat="57.9056704603" lon="33.9270233642"><ele>172.21</ele><time>2026-04-10T14:32:59Z</time></trkpt><trkpt lat="57.9057691991" lon="33.9267856535"><ele>172.21</ele><time>2026-04-10T14:33:13Z</time></trkpt><trkpt lat="57.9057733063" lon="33.9267466776"><ele>172.21</ele><time>2026-04-10T14:33:15Z</time></trkpt><trkpt lat="57.9057802632" lon="33.9266160876"><ele>172.21</ele><time>2026-04-10T14:33:21Z</time></trkpt><trkpt lat="57.9057603143" lon="33.9265859127"><ele>172.21</ele><time>2026-04-10T14:33:39Z</time></trkpt><trkpt lat="57.9057310615" lon="33.9265533909"><ele>172.21</ele><time>2026-04-10T14:33:41Z</time></trkpt><trkpt lat="57.9056011420" lon="33.9263829030"><ele>172.21</ele><time>2026-04-10T14:33:55Z</time></trkpt><trkpt lat="57.9055197537" lon="33.9262840804"><ele>172.21</ele><time>2026-04-10T14:34:04Z</time></trkpt><trkpt lat="57.9053202644" lon="33.9261883590"><ele>172.21</ele><time>2026-04-10T14:34:21Z</time></trkpt><trkpt lat="57.9052299075" lon="33.9261703379"><ele>172.21</ele><time>2026-04-10T14:34:33Z</time></trkpt><trkpt lat="57.9051771015" lon="33.9261154365"><ele>172.21</ele><time>2026-04-10T14:34:39Z</time></trkpt><trkpt lat="57.9051494412" lon="33.9261285122"><ele>172.21</ele><time>2026-04-10T14:34:43Z</time></trkpt><trkpt lat="57.9050781112" lon="33.9260521531"><ele>172.21</ele><time>2026-04-10T14:34:50Z</time></trkpt><trkpt lat="57.9050512891" lon="33.9260612894"><ele>172.21</ele><time>2026-04-10T14:34:52Z</time></trkpt><trkpt lat="57.9049749300" lon="33.9259537496"><ele>172.21</ele><time>2026-04-10T14:35:05Z</time></trkpt><trkpt lat="57.9049730860" lon="33.9259409253"><ele>172.21</ele><time>2026-04-10T14:35:06Z</time></trkpt><trkpt lat="57.9049590882" lon="33.9259147737"><ele>172.21</ele><time>2026-04-10T14:35:08Z</time></trkpt><trkpt lat="57.9048630316" lon="33.9257975947"><ele>172.21</ele><time>2026-04-10T14:35:24Z</time></trkpt><trkpt lat="57.9047160130" lon="33.9258957468"><ele>171.73</ele><time>2026-04-10T14:35:39Z</time></trkpt><trkpt lat="57.9045960680" lon="33.9259002730"><ele>171.73</ele><time>2026-04-10T14:35:54Z</time></trkpt><trkpt lat="57.9044940602" lon="33.9257324673"><ele>171.73</ele><time>2026-04-10T14:36:13Z</time></trkpt><trkpt lat="57.9043722712" lon="33.9258098323"><ele>172.21</ele><time>2026-04-10T14:36:31Z</time></trkpt><trkpt lat="57.9042469617" lon="33.9260028675"><ele>172.21</ele><time>2026-04-10T14:36:49Z</time></trkpt><trkpt lat="57.9041399248" lon="33.9262933005"><ele>172.21</ele><time>2026-04-10T14:37:06Z</time></trkpt><trkpt lat="57.9039788246" lon="33.9265041891"><ele>172.21</ele><time>2026-04-10T14:37:25Z</time></trkpt><trkpt lat="57.9038154613" lon="33.9267268125"><ele>172.21</ele><time>2026-04-10T14:37:44Z</time></trkpt><trkpt lat="57.9036069196" lon="33.9270523656"><ele>172.21</ele><time>2026-04-10T14:38:06Z</time></trkpt><trkpt lat="57.9034985416" lon="33.9272685349"><ele>172.21</ele><time>2026-04-10T14:38:25Z</time></trkpt><trkpt lat="57.9034377728" lon="33.9275331516"><ele>172.69</ele><time>2026-04-10T14:38:41Z</time></trkpt><trkpt lat="57.9032753315" lon="33.9277447946"><ele>172.69</ele><time>2026-04-10T14:38:58Z</time></trkpt><trkpt lat="57.9031448252" lon="33.9278775640"><ele>172.69</ele><time>2026-04-10T14:39:13Z</time></trkpt><trkpt lat="57.9030348547" lon="33.9278585371"><ele>172.69</ele><time>2026-04-10T14:39:34Z</time></trkpt><trkpt lat="57.9028892610" lon="33.9277555235"><ele>172.69</ele><time>2026-04-10T14:39:55Z</time></trkpt><trkpt lat="57.9027989879" lon="33.9277100936"><ele>172.69</ele><time>2026-04-10T14:40:05Z</time></trkpt><trkpt lat="57.9027553182" lon="33.9275980275"><ele>173.17</ele><time>2026-04-10T14:40:13Z</time></trkpt><trkpt lat="57.9026463535" lon="33.9275360852"><ele>173.17</ele><time>2026-04-10T14:40:19Z</time></trkpt><trkpt lat="57.9026025999" lon="33.9274949301"><ele>173.17</ele><time>2026-04-10T14:40:22Z</time></trkpt><trkpt lat="57.9025696591" lon="33.9273102768"><ele>173.17</ele><time>2026-04-10T14:40:31Z</time></trkpt><trkpt lat="57.9024335369" lon="33.9271877334"><ele>173.17</ele><time>2026-04-10T14:40:41Z</time></trkpt><trkpt lat="57.9023265000" lon="33.9272009768"><ele>172.21</ele><time>2026-04-10T14:41:20Z</time></trkpt><trkpt lat="57.9023343790" lon="33.9271798544"><ele>172.21</ele><time>2026-04-10T14:41:24Z</time></trkpt><trkpt lat="57.9022626299" lon="33.9271105360"><ele>172.21</ele><time>2026-04-10T14:41:32Z</time></trkpt><trkpt lat="57.9020399228" lon="33.9270404633"><ele>171.73</ele><time>2026-04-10T14:41:49Z</time></trkpt><trkpt lat="57.9018438701" lon="33.9270531200"><ele>171.73</ele><time>2026-04-10T14:42:02Z</time></trkpt><trkpt lat="57.9016676825" lon="33.9270827919"><ele>171.73</ele><time>2026-04-10T14:42:14Z</time></trkpt><trkpt lat="57.9015838634" lon="33.9270728175"><ele>171.73</ele><time>2026-04-10T14:42:20Z</time></trkpt><trkpt lat="57.9013823625" lon="33.9270554669"><ele>171.25</ele><time>2026-04-10T14:42:34Z</time></trkpt><trkpt lat="57.9011568055" lon="33.9270507731"><ele>171.25</ele><time>2026-04-10T14:42:51Z</time></trkpt><trkpt lat="57.9011436459" lon="33.9270541258"><ele>171.25</ele><time>2026-04-10T14:42:52Z</time></trkpt><trkpt lat="57.9010863137" lon="33.9270480908"><ele>171.25</ele><time>2026-04-10T14:42:56Z</time></trkpt><trkpt lat="57.9010570608" lon="33.9270421397"><ele>171.25</ele><time>2026-04-10T14:42:58Z</time></trkpt><trkpt lat="57.9009758402" lon="33.9270099532"><ele>171.25</ele><time>2026-04-10T14:43:04Z</time></trkpt><trkpt lat="57.9008003231" lon="33.9267905150"><ele>171.25</ele><time>2026-04-10T14:43:21Z</time></trkpt><trkpt lat="57.9007928632" lon="33.9267609268"><ele>170.77</ele><time>2026-04-10T14:43:23Z</time></trkpt><trkpt lat="57.9007677175" lon="33.9266218711"><ele>170.77</ele><time>2026-04-10T14:43:30Z</time></trkpt><trkpt lat="57.9006186035" lon="33.9263887703"><ele>170.77</ele><time>2026-04-10T14:43:46Z</time></trkpt><trkpt lat="57.9005838186" lon="33.9263329469"><ele>170.77</ele><time>2026-04-10T14:43:49Z</time></trkpt><trkpt lat="57.9005583376" lon="33.9262238983"><ele>170.77</ele><time>2026-04-10T14:43:54Z</time></trkpt><trkpt lat="57.9004778713" lon="33.9260636363"><ele>171.25</ele><time>2026-04-10T14:44:02Z</time></trkpt><trkpt lat="57.9003093112" lon="33.9257320482"><ele>171.25</ele><time>2026-04-10T14:44:18Z</time></trkpt><trkpt lat="57.9002527334" lon="33.9256450441"><ele>171.25</ele><time>2026-04-10T14:44:23Z</time></trkpt><trkpt lat="57.9001085646" lon="33.9254774060"><ele>171.25</ele><time>2026-04-10T14:44:37Z</time></trkpt><trkpt lat="57.9000833351" lon="33.9252116159"><ele>170.77</ele><time>2026-04-10T14:44:51Z</time></trkpt><trkpt lat="57.9000966623" lon="33.9251237735"><ele>170.77</ele><time>2026-04-10T14:44:55Z</time></trkpt><trkpt lat="57.9000646435" lon="33.9250016492"><ele>170.77</ele><time>2026-04-10T14:45:00Z</time></trkpt><trkpt lat="57.9000313673" lon="33.9246240444"><ele>170.77</ele><time>2026-04-10T14:45:13Z</time></trkpt><trkpt lat="57.9000056349" lon="33.9245778602"><ele>170.77</ele><time>2026-04-10T14:45:16Z</time></trkpt><trkpt lat="57.8999722749" lon="33.9244727511"><ele>170.77</ele><time>2026-04-10T14:45:22Z</time></trkpt><trkpt lat="57.8999662399" lon="33.9244227950"><ele>170.77</ele><time>2026-04-10T14:45:24Z</time></trkpt><trkpt lat="57.8999589477" lon="33.9240804780"><ele>170.77</ele><time>2026-04-10T14:45:35Z</time></trkpt><trkpt lat="57.8999070637" lon="33.9239897020"><ele>170.77</ele><time>2026-04-10T14:45:40Z</time></trkpt><trkpt lat="57.8998364042" lon="33.9236833435"><ele>170.77</ele><time>2026-04-10T14:45:53Z</time></trkpt><trkpt lat="57.8998281062" lon="33.9235447068"><ele>170.77</ele><time>2026-04-10T14:45:59Z</time></trkpt><trkpt lat="57.8998107556" lon="33.9233665913"><ele>170.77</ele><time>2026-04-10T14:46:05Z</time></trkpt><trkpt lat="57.8997695167" lon="33.9231484104"><ele>171.25</ele><time>2026-04-10T14:46:14Z</time></trkpt><trkpt lat="57.8995642439" lon="33.9229577221"><ele>171.25</ele><time>2026-04-10T14:46:27Z</time></trkpt><trkpt lat="57.8993308078" lon="33.9228652697"><ele>171.25</ele><time>2026-04-10T14:46:39Z</time></trkpt><trkpt lat="57.8992126230" lon="33.9227348473"><ele>171.25</ele><time>2026-04-10T14:46:54Z</time></trkpt><trkpt lat="57.8990826197" lon="33.9226814546"><ele>172.21</ele><time>2026-04-10T14:47:02Z</time></trkpt><trkpt lat="57.8990534507" lon="33.9226566441"><ele>172.21</ele><time>2026-04-10T14:47:04Z</time></trkpt><trkpt lat="57.8988181707" lon="33.9225782733"><ele>172.21</ele><time>2026-04-10T14:47:19Z</time></trkpt><trkpt lat="57.8987745009" lon="33.9225406386"><ele>172.21</ele><time>2026-04-10T14:47:22Z</time></trkpt><trkpt lat="57.8986272309" lon="33.9224543888"><ele>172.21</ele><time>2026-04-10T14:47:37Z</time></trkpt><trkpt lat="57.8984538093" lon="33.9223953802"><ele>171.73</ele><time>2026-04-10T14:47:53Z</time></trkpt><trkpt lat="57.8982469440" lon="33.9222802129"><ele>171.73</ele><time>2026-04-10T14:48:08Z</time></trkpt><trkpt lat="57.8981507197" lon="33.9222383872"><ele>171.73</ele><time>2026-04-10T14:48:13Z</time></trkpt><trkpt lat="57.8980104905" lon="33.9222008362"><ele>172.21</ele><time>2026-04-10T14:48:27Z</time></trkpt><trkpt lat="57.8977966681" lon="33.9220895246"><ele>172.21</ele><time>2026-04-10T14:48:40Z</time></trkpt><trkpt lat="57.8977692593" lon="33.9220602717"><ele>172.21</ele><time>2026-04-10T14:48:42Z</time></trkpt><trkpt lat="57.8976029623" lon="33.9219848346"><ele>172.21</ele><time>2026-04-10T14:48:57Z</time></trkpt><trkpt lat="57.8974430356" lon="33.9218964893"><ele>172.21</ele><time>2026-04-10T14:49:11Z</time></trkpt><trkpt lat="57.8974334802" lon="33.9218777977"><ele>172.21</ele><time>2026-04-10T14:49:12Z</time></trkpt><trkpt lat="57.8973941691" lon="33.9218484610"><ele>172.21</ele><time>2026-04-10T14:49:17Z</time></trkpt><trkpt lat="57.8971946798" lon="33.9217263367"><ele>172.21</ele><time>2026-04-10T14:49:31Z</time></trkpt><trkpt lat="57.8970205877" lon="33.9216472954"><ele>172.21</ele><time>2026-04-10T14:49:44Z</time></trkpt><trkpt lat="57.8968528658" lon="33.9216441941"><ele>170.77</ele><time>2026-04-10T14:49:56Z</time></trkpt><trkpt lat="57.8968095314" lon="33.9216413442"><ele>170.77</ele><time>2026-04-10T14:49:59Z</time></trkpt><trkpt lat="57.8966598306" lon="33.9216534980"><ele>169.81</ele><time>2026-04-10T14:50:13Z</time></trkpt><trkpt lat="57.8965439089" lon="33.9215690084"><ele>169.33</ele><time>2026-04-10T14:50:26Z</time></trkpt><trkpt lat="57.8963620216" lon="33.9215730317"><ele>170.77</ele><time>2026-04-10T14:50:40Z</time></trkpt><trkpt lat="57.8962716646" lon="33.9214970917"><ele>170.77</ele><time>2026-04-10T14:50:46Z</time></trkpt><trkpt lat="57.8960947227" lon="33.9215232432"><ele>170.29</ele><time>2026-04-10T14:51:00Z</time></trkpt><trkpt lat="57.8958853427" lon="33.9215807430"><ele>171.25</ele><time>2026-04-10T14:51:16Z</time></trkpt><trkpt lat="57.8957404196" lon="33.9216022007"><ele>171.25</ele><time>2026-04-10T14:51:30Z</time></trkpt><trkpt lat="57.8955522459" lon="33.9216376562"><ele>171.73</ele><time>2026-04-10T14:51:45Z</time></trkpt><trkpt lat="57.8953970969" lon="33.9218347147"><ele>171.73</ele><time>2026-04-10T14:52:01Z</time></trkpt><trkpt lat="57.8953474760" lon="33.9218938071"><ele>172.69</ele><time>2026-04-10T14:52:27Z</time></trkpt><trkpt lat="57.8953389265" lon="33.9218228124"><ele>172.69</ele><time>2026-04-10T14:52:31Z</time></trkpt><trkpt lat="57.8952328116" lon="33.9216397516"><ele>173.17</ele><time>2026-04-10T14:52:48Z</time></trkpt><trkpt lat="57.8950681910" lon="33.9217032026"><ele>173.66</ele><time>2026-04-10T14:53:02Z</time></trkpt><trkpt lat="57.8949044086" lon="33.9216632210"><ele>173.66</ele><time>2026-04-10T14:53:14Z</time></trkpt><trkpt lat="57.8948577214" lon="33.9216426015"><ele>173.66</ele><time>2026-04-10T14:53:16Z</time></trkpt><trkpt lat="57.8946941067" lon="33.9216709323"><ele>173.66</ele><time>2026-04-10T14:53:24Z</time></trkpt><trkpt lat="57.8945206851" lon="33.9217507280"><ele>174.14</ele><time>2026-04-10T14:53:38Z</time></trkpt><trkpt lat="57.8944087867" lon="33.9217288513"><ele>174.14</ele><time>2026-04-10T14:53:52Z</time></trkpt><trkpt lat="57.8941944614" lon="33.9215173759"><ele>174.14</ele><time>2026-04-10T14:54:09Z</time></trkpt><trkpt lat="57.8941511270" lon="33.9215059765"><ele>174.14</ele><time>2026-04-10T14:54:13Z</time></trkpt><trkpt lat="57.8941305913" lon="33.9214948285"><ele>174.14</ele><time>2026-04-10T14:54:15Z</time></trkpt><trkpt lat="57.8939975705" lon="33.9214441180"><ele>174.62</ele><time>2026-04-10T14:54:27Z</time></trkpt><trkpt lat="57.8937270865" lon="33.9213193953"><ele>174.62</ele><time>2026-04-10T14:54:47Z</time></trkpt><trkpt lat="57.8935561795" lon="33.9211624023"><ele>174.62</ele><time>2026-04-10T14:55:02Z</time></trkpt><trkpt lat="57.8933975939" lon="33.9210289624"><ele>174.62</ele><time>2026-04-10T14:55:15Z</time></trkpt><trkpt lat="57.8931628168" lon="33.9209515974"><ele>174.14</ele><time>2026-04-10T14:55:30Z</time></trkpt><trkpt lat="57.8929608967" lon="33.9209194947"><ele>174.14</ele><time>2026-04-10T14:55:43Z</time></trkpt><trkpt lat="57.8929176461" lon="33.9209433831"><ele>174.14</ele><time>2026-04-10T14:55:47Z</time></trkpt><trkpt lat="57.8928641696" lon="33.9210803434"><ele>174.14</ele><time>2026-04-10T14:56:07Z</time></trkpt><trkpt lat="57.8928697016" lon="33.9211295452"><ele>174.14</ele><time>2026-04-10T14:56:22Z</time></trkpt><trkpt lat="57.8928514291" lon="33.9210952632"><ele>174.14</ele><time>2026-04-10T14:56:24Z</time></trkpt><trkpt lat="57.8928857110" lon="33.9210892282"><ele>174.14</ele><time>2026-04-10T14:56:31Z</time></trkpt></trkseg><trkseg><trkpt lat="57.8480652440" lon="34.0642408188"><ele>36.67</ele><time>2026-04-13T10:40:48Z</time></trkpt><trkpt lat="57.8480625618" lon="34.0642672218"><ele>48.68</ele><time>2026-04-13T10:41:02Z</time></trkpt><trkpt lat="57.8480634838" lon="34.0642557386"><ele>60.22</ele><time>2026-04-13T10:41:03Z</time></trkpt><trkpt lat="57.8480616398" lon="34.0642507933"><ele>71.27</ele><time>2026-04-13T10:41:04Z</time></trkpt><trkpt lat="57.8480595443" lon="34.0642398130"><ele>82.33</ele><time>2026-04-13T10:41:05Z</time></trkpt><trkpt lat="57.8480592091" lon="34.0642260667"><ele>92.42</ele><time>2026-04-13T10:41:06Z</time></trkpt><trkpt lat="57.8480582871" lon="34.0642277431"><ele>102.52</ele><time>2026-04-13T10:41:07Z</time></trkpt><trkpt lat="57.8480639867" lon="34.0642167628"><ele>112.13</ele><time>2026-04-13T10:41:08Z</time></trkpt><trkpt lat="57.8480705246" lon="34.0642025974"><ele>121.74</ele><time>2026-04-13T10:41:09Z</time></trkpt><trkpt lat="57.8480706923" lon="34.0641929582"><ele>130.40</ele><time>2026-04-13T10:41:10Z</time></trkpt><trkpt lat="57.8480662499" lon="34.0641912818"><ele>139.53</ele><time>2026-04-13T10:41:11Z</time></trkpt><trkpt lat="57.8480804991" lon="34.0641767811"><ele>147.70</ele><time>2026-04-13T10:41:12Z</time></trkpt><trkpt lat="57.8480857797" lon="34.0641792957"><ele>155.87</ele><time>2026-04-13T10:41:13Z</time></trkpt><trkpt lat="57.8480905574" lon="34.0641778708"><ele>164.04</ele><time>2026-04-13T10:41:14Z</time></trkpt><trkpt lat="57.8480932396" lon="34.0641752724"><ele>171.73</ele><time>2026-04-13T10:41:15Z</time></trkpt><trkpt lat="57.8481015377" lon="34.0641875099"><ele>178.94</ele><time>2026-04-13T10:41:16Z</time></trkpt><trkpt lat="57.8481050581" lon="34.0641944669"><ele>186.15</ele><time>2026-04-13T10:41:17Z</time></trkpt><trkpt lat="57.8481095843" lon="34.0641895216"><ele>192.88</ele><time>2026-04-13T10:41:18Z</time></trkpt><trkpt lat="57.8481053095" lon="34.0642212890"><ele>199.61</ele><time>2026-04-13T10:41:19Z</time></trkpt><trkpt lat="57.8481067345" lon="34.0642326046"><ele>206.34</ele><time>2026-04-13T10:41:20Z</time></trkpt><trkpt lat="57.8481027111" lon="34.0642286651"><ele>212.59</ele><time>2026-04-13T10:41:21Z</time></trkpt><trkpt lat="57.8481040522" lon="34.0642208699"><ele>218.84</ele><time>2026-04-13T10:41:22Z</time></trkpt><trkpt lat="57.8481027950" lon="34.0642112307"><ele>224.61</ele><time>2026-04-13T10:41:23Z</time></trkpt><trkpt lat="57.8481056448" lon="34.0642098896"><ele>230.37</ele><time>2026-04-13T10:41:24Z</time></trkpt><trkpt lat="57.8481079079" lon="34.0642109793"><ele>241.43</ele><time>2026-04-13T10:41:25Z</time></trkpt><trkpt lat="57.8481102549" lon="34.0642152540"><ele>241.43</ele><time>2026-04-13T10:41:26Z</time></trkpt><trkpt lat="57.8481096681" lon="34.0642191097"><ele>246.72</ele><time>2026-04-13T10:41:27Z</time></trkpt><trkpt lat="57.8481060639" lon="34.0642292518"><ele>251.52</ele><time>2026-04-13T10:41:28Z</time></trkpt><trkpt lat="57.8481043037" lon="34.0642371308"><ele>256.33</ele><time>2026-04-13T10:41:29Z</time></trkpt><trkpt lat="57.8481017891" lon="34.0642481111"><ele>260.65</ele><time>2026-04-13T10:41:30Z</time></trkpt><trkpt lat="57.8480986040" lon="34.0642552357"><ele>265.46</ele><time>2026-04-13T10:41:31Z</time></trkpt><trkpt lat="57.8480929881" lon="34.0642590076"><ele>269.31</ele><time>2026-04-13T10:41:32Z</time></trkpt><trkpt lat="57.8480920661" lon="34.0642657131"><ele>273.63</ele><time>2026-04-13T10:41:33Z</time></trkpt><trkpt lat="57.8480869532" lon="34.0642735083"><ele>277.48</ele><time>2026-04-13T10:41:34Z</time></trkpt><trkpt lat="57.8480856959" lon="34.0642782021"><ele>281.32</ele><time>2026-04-13T10:41:35Z</time></trkpt><trkpt lat="57.8480877914" lon="34.0642831475"><ele>284.69</ele><time>2026-04-13T10:41:36Z</time></trkpt><trkpt lat="57.8480906412" lon="34.0642810520"><ele>288.53</ele><time>2026-04-13T10:41:37Z</time></trkpt><trkpt lat="57.8480970953" lon="34.0642795432"><ele>291.90</ele><time>2026-04-13T10:41:38Z</time></trkpt><trkpt lat="57.8481027950" lon="34.0642513800"><ele>295.26</ele><time>2026-04-13T10:41:39Z</time></trkpt><trkpt lat="57.8481063992" lon="34.0642304253"><ele>298.15</ele><time>2026-04-13T10:41:40Z</time></trkpt><trkpt lat="57.8481031302" lon="34.0642082132"><ele>303.91</ele><time>2026-04-13T10:41:42Z</time></trkpt><trkpt lat="57.8481048066" lon="34.0641775355"><ele>309.20</ele><time>2026-04-13T10:41:44Z</time></trkpt><trkpt lat="57.8481087461" lon="34.0641549882"><ele>313.53</ele><time>2026-04-13T10:41:46Z</time></trkpt><trkpt lat="57.8481075726" lon="34.0641349554"><ele>317.85</ele><time>2026-04-13T10:41:48Z</time></trkpt><trkpt lat="57.8481088299" lon="34.0641114023"><ele>321.70</ele><time>2026-04-13T10:41:50Z</time></trkpt><trkpt lat="57.8481094167" lon="34.0640903637"><ele>325.06</ele><time>2026-04-13T10:41:52Z</time></trkpt><trkpt lat="57.8481097519" lon="34.0640659723"><ele>328.43</ele><time>2026-04-13T10:41:54Z</time></trkpt><trkpt lat="57.8480986040" lon="34.0640418325"><ele>332.27</ele><time>2026-04-13T10:41:57Z</time></trkpt><trkpt lat="57.8480893839" lon="34.0639962349"><ele>335.16</ele><time>2026-04-13T10:42:00Z</time></trkpt><trkpt lat="57.8480718657" lon="34.0638954844"><ele>338.04</ele><time>2026-04-13T10:42:06Z</time></trkpt><trkpt lat="57.8480433673" lon="34.0638451092"><ele>338.52</ele><time>2026-04-13T10:42:41Z</time></trkpt><trkpt lat="57.8480409365" lon="34.0637881961"><ele>338.04</ele><time>2026-04-13T10:43:08Z</time></trkpt><trkpt lat="57.8479819279" lon="34.0632214956"><ele>336.60</ele><time>2026-04-13T10:43:37Z</time></trkpt><trkpt lat="57.8479555249" lon="34.0633182228"><ele>334.68</ele><time>2026-04-13T10:43:59Z</time></trkpt><trkpt lat="57.8479008749" lon="34.0634951647"><ele>334.20</ele><time>2026-04-13T10:44:06Z</time></trkpt><trkpt lat="57.8478381783" lon="34.0637207218"><ele>333.23</ele><time>2026-04-13T10:44:19Z</time></trkpt><trkpt lat="57.8478206601" lon="34.0637771320"><ele>332.75</ele><time>2026-04-13T10:44:23Z</time></trkpt><trkpt lat="57.8477996215" lon="34.0639712568"><ele>331.79</ele><time>2026-04-13T10:44:33Z</time></trkpt><trkpt lat="57.8478071652" lon="34.0639859252"><ele>331.79</ele><time>2026-04-13T10:44:36Z</time></trkpt><trkpt lat="57.8478608932" lon="34.0641555749"><ele>330.83</ele><time>2026-04-13T10:44:47Z</time></trkpt><trkpt lat="57.8479435388" lon="34.0644396376"><ele>329.39</ele><time>2026-04-13T10:45:03Z</time></trkpt><trkpt lat="57.8479976859" lon="34.0646306612"><ele>328.43</ele><time>2026-04-13T10:45:15Z</time></trkpt><trkpt lat="57.8480225801" lon="34.0647154022"><ele>327.95</ele><time>2026-04-13T10:45:21Z</time></trkpt><trkpt lat="57.8479784075" lon="34.0650174022"><ele>326.50</ele><time>2026-04-13T10:45:35Z</time></trkpt><trkpt lat="57.8478865419" lon="34.0652082581"><ele>326.50</ele><time>2026-04-13T10:45:48Z</time></trkpt><trkpt lat="57.8478368372" lon="34.0653852839"><ele>325.54</ele><time>2026-04-13T10:46:02Z</time></trkpt><trkpt lat="57.8477436304" lon="34.0657162853"><ele>324.58</ele><time>2026-04-13T10:46:20Z</time></trkpt><trkpt lat="57.8476259485" lon="34.0660172794"><ele>323.14</ele><time>2026-04-13T10:46:39Z</time></trkpt><trkpt lat="57.8475365974" lon="34.0663161781"><ele>322.18</ele><time>2026-04-13T10:46:56Z</time></trkpt><trkpt lat="57.8474400379" lon="34.0666599199"><ele>320.74</ele><time>2026-04-13T10:47:15Z</time></trkpt><trkpt lat="57.8474674467" lon="34.0669812821"><ele>319.30</ele><time>2026-04-13T10:47:33Z</time></trkpt><trkpt lat="57.8474701289" lon="34.0671941824"><ele>318.33</ele><time>2026-04-13T10:47:43Z</time></trkpt><trkpt lat="57.8474434745" lon="34.0672431327"><ele>318.33</ele><time>2026-04-13T10:47:46Z</time></trkpt><trkpt lat="57.8472819552" lon="34.0674035624"><ele>316.89</ele><time>2026-04-13T10:48:02Z</time></trkpt><trkpt lat="57.8472181689" lon="34.0676072426"><ele>315.93</ele><time>2026-04-13T10:48:14Z</time></trkpt><trkpt lat="57.8472008184" lon="34.0676888824"><ele>315.45</ele><time>2026-04-13T10:48:18Z</time></trkpt><trkpt lat="57.8471765947" lon="34.0677327197"><ele>315.45</ele><time>2026-04-13T10:48:21Z</time></trkpt><trkpt lat="57.8470528778" lon="34.0678538382"><ele>314.49</ele><time>2026-04-13T10:48:34Z</time></trkpt><trkpt lat="57.8470286541" lon="34.0678782295"><ele>314.01</ele><time>2026-04-13T10:48:37Z</time></trkpt><trkpt lat="57.8469274845" lon="34.0680690855"><ele>313.05</ele><time>2026-04-13T10:48:50Z</time></trkpt><trkpt lat="57.8468511254" lon="34.0683647990"><ele>311.60</ele><time>2026-04-13T10:49:08Z</time></trkpt><trkpt lat="57.8468300030" lon="34.0684065409"><ele>311.60</ele><time>2026-04-13T10:49:11Z</time></trkpt><trkpt lat="57.8468179330" lon="34.0684556589"><ele>311.12</ele><time>2026-04-13T10:49:14Z</time></trkpt><trkpt lat="57.8467658814" lon="34.0686512087"><ele>310.64</ele><time>2026-04-13T10:49:26Z</time></trkpt><trkpt lat="57.8467551526" lon="34.0686812159"><ele>310.16</ele><time>2026-04-13T10:49:28Z</time></trkpt><trkpt lat="57.8467421606" lon="34.0687318426"><ele>310.16</ele><time>2026-04-13T10:49:31Z</time></trkpt><trkpt lat="57.8466535639" lon="34.0690346807"><ele>308.72</ele><time>2026-04-13T10:49:48Z</time></trkpt><trkpt lat="57.8465945553" lon="34.0693367645"><ele>307.76</ele><time>2026-04-13T10:50:05Z</time></trkpt><trkpt lat="57.8465237282" lon="34.0696211625"><ele>306.32</ele><time>2026-04-13T10:50:20Z</time></trkpt><trkpt lat="57.8464846686" lon="34.0697902255"><ele>305.36</ele><time>2026-04-13T10:50:34Z</time></trkpt><trkpt lat="57.8463745303" lon="34.0700212307"><ele>304.39</ele><time>2026-04-13T10:50:50Z</time></trkpt><trkpt lat="57.8463560902" lon="34.0700517409"><ele>304.39</ele><time>2026-04-13T10:50:52Z</time></trkpt><trkpt lat="57.8463182040" lon="34.0701948199"><ele>303.91</ele><time>2026-04-13T10:50:56Z</time></trkpt><trkpt lat="57.8463276755" lon="34.0702269226"><ele>303.43</ele><time>2026-04-13T10:51:02Z</time></trkpt><trkpt lat="57.8463327046" lon="34.0705989115"><ele>301.99</ele><time>2026-04-13T10:51:23Z</time></trkpt><trkpt lat="57.8463140130" lon="34.0707444213"><ele>301.51</ele><time>2026-04-13T10:51:32Z</time></trkpt><trkpt lat="57.8463012725" lon="34.0707749315"><ele>301.51</ele><time>2026-04-13T10:51:34Z</time></trkpt><trkpt lat="57.8462505620" lon="34.0709021688"><ele>300.55</ele><time>2026-04-13T10:51:42Z</time></trkpt><trkpt lat="57.8461645637" lon="34.0710384585"><ele>300.07</ele><time>2026-04-13T10:51:52Z</time></trkpt><trkpt lat="57.8461321257" lon="34.0710941982"><ele>299.59</ele><time>2026-04-13T10:51:56Z</time></trkpt><trkpt lat="57.8461026214" lon="34.0712283924"><ele>299.11</ele><time>2026-04-13T10:52:03Z</time></trkpt><trkpt lat="57.8461282700" lon="34.0714935120"><ele>298.63</ele><time>2026-04-13T10:52:16Z</time></trkpt><trkpt lat="57.8461037111" lon="34.0715878084"><ele>298.15</ele><time>2026-04-13T10:52:21Z</time></trkpt><trkpt lat="57.8459872864" lon="34.0718681831"><ele>297.18</ele><time>2026-04-13T10:52:37Z</time></trkpt><trkpt lat="57.8459636495" lon="34.0719647426"><ele>296.70</ele><time>2026-04-13T10:52:42Z</time></trkpt><trkpt lat="57.8459382523" lon="34.0721963346"><ele>295.74</ele><time>2026-04-13T10:52:54Z</time></trkpt><trkpt lat="57.8459041379" lon="34.0725114103"><ele>294.78</ele><time>2026-04-13T10:53:11Z</time></trkpt><trkpt lat="57.8458388429" lon="34.0728047770"><ele>292.38</ele><time>2026-04-13T10:53:29Z</time></trkpt><trkpt lat="57.8458116855" lon="34.0730040148"><ele>290.94</ele><time>2026-04-13T10:53:42Z</time></trkpt><trkpt lat="57.8457504138" lon="34.0731994808"><ele>289.97</ele><time>2026-04-13T10:53:56Z</time></trkpt><trkpt lat="57.8456517588" lon="34.0734687075"><ele>289.01</ele><time>2026-04-13T10:54:13Z</time></trkpt><trkpt lat="57.8455872182" lon="34.0736199170"><ele>288.53</ele><time>2026-04-13T10:54:24Z</time></trkpt><trkpt lat="57.8455572948" lon="34.0737115312"><ele>288.05</ele><time>2026-04-13T10:54:29Z</time></trkpt><trkpt lat="57.8455879726" lon="34.0740191471"><ele>287.09</ele><time>2026-04-13T10:54:46Z</time></trkpt><trkpt lat="57.8456136212" lon="34.0742273536"><ele>287.57</ele><time>2026-04-13T10:54:57Z</time></trkpt><trkpt lat="57.8456189018" lon="34.0744615439"><ele>287.09</ele><time>2026-04-13T10:55:11Z</time></trkpt><trkpt lat="57.8455712926" lon="34.0746272542"><ele>286.13</ele><time>2026-04-13T10:55:25Z</time></trkpt><trkpt lat="57.8455709573" lon="34.0746401623"><ele>286.13</ele><time>2026-04-13T10:55:26Z</time></trkpt><trkpt lat="57.8454990406" lon="34.0748397354"><ele>285.17</ele><time>2026-04-13T10:55:43Z</time></trkpt><trkpt lat="57.8454821929" lon="34.0750217903"><ele>284.21</ele><time>2026-04-13T10:56:01Z</time></trkpt><trkpt lat="57.8454701230" lon="34.0750695672"><ele>283.25</ele><time>2026-04-13T10:56:20Z</time></trkpt><trkpt lat="57.8453769162" lon="34.0752541367"><ele>281.80</ele><time>2026-04-13T10:56:40Z</time></trkpt><trkpt lat="57.8453174885" lon="34.0754259657"><ele>279.88</ele><time>2026-04-13T10:56:56Z</time></trkpt><trkpt lat="57.8452360164" lon="34.0756034106"><ele>277.96</ele><time>2026-04-13T10:57:13Z</time></trkpt><trkpt lat="57.8451435640" lon="34.0757360961"><ele>276.04</ele><time>2026-04-13T10:57:29Z</time></trkpt><trkpt lat="57.8451433964" lon="34.0757607389"><ele>275.56</ele><time>2026-04-13T10:57:32Z</time></trkpt><trkpt lat="57.8451312426" lon="34.0760594700"><ele>273.63</ele><time>2026-04-13T10:57:49Z</time></trkpt><trkpt lat="57.8451329190" lon="34.0762787405"><ele>273.15</ele><time>2026-04-13T10:58:03Z</time></trkpt><trkpt lat="57.8451147303" lon="34.0763769764"><ele>272.67</ele><time>2026-04-13T10:58:11Z</time></trkpt><trkpt lat="57.8451067675" lon="34.0764311235"><ele>272.67</ele><time>2026-04-13T10:58:14Z</time></trkpt><trkpt lat="57.8450087830" lon="34.0766214766"><ele>271.71</ele><time>2026-04-13T10:58:26Z</time></trkpt><trkpt lat="57.8449491877" lon="34.0767819900"><ele>271.23</ele><time>2026-04-13T10:58:36Z</time></trkpt><trkpt lat="57.8448857367" lon="34.0771246422"><ele>270.27</ele><time>2026-04-13T10:58:56Z</time></trkpt><trkpt lat="57.8447974753" lon="34.0774541348"><ele>268.83</ele><time>2026-04-13T10:59:15Z</time></trkpt><trkpt lat="57.8447193559" lon="34.0777480043"><ele>267.86</ele><time>2026-04-13T10:59:34Z</time></trkpt><trkpt lat="57.8446331900" lon="34.0779628325"><ele>266.42</ele><time>2026-04-13T10:59:53Z</time></trkpt><trkpt lat="57.8446221258" lon="34.0779325739"><ele>264.02</ele><time>2026-04-13T11:00:27Z</time></trkpt><trkpt lat="57.8446973953" lon="34.0779108647"><ele>263.54</ele><time>2026-04-13T11:00:43Z</time></trkpt><trkpt lat="57.8448899277" lon="34.0778239444"><ele>263.54</ele><time>2026-04-13T11:01:06Z</time></trkpt><trkpt lat="57.8450618405" lon="34.0780795924"><ele>262.58</ele><time>2026-04-13T11:01:26Z</time></trkpt><trkpt lat="57.8451635130" lon="34.0783254337"><ele>261.62</ele><time>2026-04-13T11:01:49Z</time></trkpt><trkpt lat="57.8453103639" lon="34.0785182174"><ele>260.65</ele><time>2026-04-13T11:02:10Z</time></trkpt><trkpt lat="57.8454506770" lon="34.0786572732"><ele>259.69</ele><time>2026-04-13T11:02:32Z</time></trkpt><trkpt lat="57.8455904871" lon="34.0786939859"><ele>258.73</ele><time>2026-04-13T11:02:53Z</time></trkpt><trkpt lat="57.8457054030" lon="34.0787189640"><ele>258.25</ele><time>2026-04-13T11:03:06Z</time></trkpt><trkpt lat="57.8458566125" lon="34.0789341275"><ele>257.29</ele><time>2026-04-13T11:03:21Z</time></trkpt><trkpt lat="57.8458654974" lon="34.0789475385"><ele>257.29</ele><time>2026-04-13T11:03:22Z</time></trkpt><trkpt lat="57.8459220752" lon="34.0791129973"><ele>256.81</ele><time>2026-04-13T11:03:37Z</time></trkpt><trkpt lat="57.8459970932" lon="34.0792978182"><ele>256.33</ele><time>2026-04-13T11:03:50Z</time></trkpt><trkpt lat="57.8460150305" lon="34.0793384705"><ele>255.85</ele><time>2026-04-13T11:03:53Z</time></trkpt><trkpt lat="57.8460919764" lon="34.0795586631"><ele>255.37</ele><time>2026-04-13T11:04:11Z</time></trkpt><trkpt lat="57.8461136855" lon="34.0795587469"><ele>254.89</ele><time>2026-04-13T11:04:15Z</time></trkpt><trkpt lat="57.8461901285" lon="34.0796217788"><ele>254.41</ele><time>2026-04-13T11:04:26Z</time></trkpt><trkpt lat="57.8462979198" lon="34.0796848107"><ele>253.93</ele><time>2026-04-13T11:04:37Z</time></trkpt><trkpt lat="57.8464295156" lon="34.0797698032"><ele>253.44</ele><time>2026-04-13T11:04:52Z</time></trkpt><trkpt lat="57.8465226386" lon="34.0798773430"><ele>252.48</ele><time>2026-04-13T11:05:09Z</time></trkpt><trkpt lat="57.8466145042" lon="34.0801299736"><ele>252.00</ele><time>2026-04-13T11:05:27Z</time></trkpt><trkpt lat="57.8466870915" lon="34.0803137049"><ele>251.04</ele><time>2026-04-13T11:05:43Z</time></trkpt><trkpt lat="57.8467821423" lon="34.0804988611"><ele>250.56</ele><time>2026-04-13T11:05:57Z</time></trkpt><trkpt lat="57.8468828090" lon="34.0806434490"><ele>249.12</ele><time>2026-04-13T11:06:13Z</time></trkpt><trkpt lat="57.8469466791" lon="34.0806021262"><ele>248.64</ele><time>2026-04-13T11:06:23Z</time></trkpt><trkpt lat="57.8469541389" lon="34.0806048922"><ele>248.64</ele><time>2026-04-13T11:06:24Z</time></trkpt><trkpt lat="57.8469777759" lon="34.0806235000"><ele>248.64</ele><time>2026-04-13T11:06:26Z</time></trkpt><trkpt lat="57.8470942006" lon="34.0806905553"><ele>247.68</ele><time>2026-04-13T11:06:41Z</time></trkpt><trkpt lat="57.8472408839" lon="34.0806946624"><ele>247.20</ele><time>2026-04-13T11:06:58Z</time></trkpt><trkpt lat="57.8473113757" lon="34.0807697643"><ele>246.72</ele><time>2026-04-13T11:07:09Z</time></trkpt><trkpt lat="57.8474434745" lon="34.0808301140"><ele>245.75</ele><time>2026-04-13T11:07:25Z</time></trkpt><trkpt lat="57.8474393673" lon="34.0808156971"><ele>245.75</ele><time>2026-04-13T11:07:28Z</time></trkpt><trkpt lat="57.8472892474" lon="34.0807308722"><ele>245.27</ele><time>2026-04-13T11:07:44Z</time></trkpt><trkpt lat="57.8471512813" lon="34.0807380807"><ele>244.79</ele><time>2026-04-13T11:07:58Z</time></trkpt><trkpt lat="57.8470892552" lon="34.0806739591"><ele>243.83</ele><time>2026-04-13T11:08:13Z</time></trkpt><trkpt lat="57.8470862377" lon="34.0806452092"><ele>243.35</ele><time>2026-04-13T11:08:27Z</time></trkpt><trkpt lat="57.8470844775" lon="34.0806579497"><ele>243.35</ele><time>2026-04-13T11:08:28Z</time></trkpt><trkpt lat="57.8470864054" lon="34.0807991009"><ele>242.39</ele><time>2026-04-13T11:08:53Z</time></trkpt><trkpt lat="57.8471192624" lon="34.0807124320"><ele>241.91</ele><time>2026-04-13T11:09:14Z</time></trkpt><trkpt lat="57.8470767662" lon="34.0807550121"><ele>241.43</ele><time>2026-04-13T11:09:19Z</time></trkpt><trkpt lat="57.8470081184" lon="34.0808082372"><ele>240.95</ele><time>2026-04-13T11:09:33Z</time></trkpt><trkpt lat="57.8469699807" lon="34.0807882044"><ele>240.47</ele><time>2026-04-13T11:09:38Z</time></trkpt><trkpt lat="57.8468463477" lon="34.0806729533"><ele>239.99</ele><time>2026-04-13T11:09:53Z</time></trkpt><trkpt lat="57.8467607684" lon="34.0805836022"><ele>239.51</ele><time>2026-04-13T11:10:10Z</time></trkpt><trkpt lat="57.8466822300" lon="34.0804514196"><ele>238.54</ele><time>2026-04-13T11:10:27Z</time></trkpt><trkpt lat="57.8466201201" lon="34.0803067479"><ele>238.06</ele><time>2026-04-13T11:10:42Z</time></trkpt><trkpt lat="57.8465647995" lon="34.0801175684"><ele>237.58</ele><time>2026-04-13T11:10:57Z</time></trkpt><trkpt lat="57.8464815672" lon="34.0799113736"><ele>237.10</ele><time>2026-04-13T11:11:13Z</time></trkpt><trkpt lat="57.8463658132" lon="34.0797637682"><ele>236.14</ele><time>2026-04-13T11:11:29Z</time></trkpt><trkpt lat="57.8462426830" lon="34.0797532070"><ele>236.14</ele><time>2026-04-13T11:11:41Z</time></trkpt><trkpt lat="57.8461916372" lon="34.0797149856"><ele>235.66</ele><time>2026-04-13T11:11:48Z</time></trkpt><trkpt lat="57.8460843489" lon="34.0796146542"><ele>235.18</ele><time>2026-04-13T11:12:01Z</time></trkpt><trkpt lat="57.8460267652" lon="34.0795593336"><ele>235.18</ele><time>2026-04-13T11:12:07Z</time></trkpt><trkpt lat="57.8459500708" lon="34.0793669689"><ele>234.70</ele><time>2026-04-13T11:12:21Z</time></trkpt><trkpt lat="57.8459134419" lon="34.0790881030"><ele>234.70</ele><time>2026-04-13T11:12:36Z</time></trkpt><trkpt lat="57.8458715323" lon="34.0790135879"><ele>235.18</ele><time>2026-04-13T11:12:41Z</time></trkpt><trkpt lat="57.8457624000" lon="34.0788369812"><ele>234.70</ele><time>2026-04-13T11:12:57Z</time></trkpt><trkpt lat="57.8457402717" lon="34.0787761286"><ele>234.22</ele><time>2026-04-13T11:13:04Z</time></trkpt><trkpt lat="57.8455621563" lon="34.0787937306"><ele>233.74</ele><time>2026-04-13T11:13:19Z</time></trkpt><trkpt lat="57.8455246054" lon="34.0786681697"><ele>233.26</ele><time>2026-04-13T11:13:39Z</time></trkpt><trkpt lat="57.8454913292" lon="34.0786680859"><ele>232.30</ele><time>2026-04-13T11:14:01Z</time></trkpt><trkpt lat="57.8453715518" lon="34.0786661580"><ele>231.81</ele><time>2026-04-13T11:14:15Z</time></trkpt><trkpt lat="57.8453039937" lon="34.0785632282"><ele>231.81</ele><time>2026-04-13T11:14:30Z</time></trkpt><trkpt lat="57.8451736551" lon="34.0784429479"><ele>231.33</ele><time>2026-04-13T11:14:44Z</time></trkpt><trkpt lat="57.8451578133" lon="34.0784318838"><ele>231.33</ele><time>2026-04-13T11:14:45Z</time></trkpt><trkpt lat="57.8450361919" lon="34.0782235935"><ele>230.85</ele><time>2026-04-13T11:15:02Z</time></trkpt><trkpt lat="57.8449240420" lon="34.0779914986"><ele>229.89</ele><time>2026-04-13T11:15:20Z</time></trkpt><trkpt lat="57.8448324278" lon="34.0777634270"><ele>229.41</ele><time>2026-04-13T11:15:37Z</time></trkpt><trkpt lat="57.8448098805" lon="34.0775850601"><ele>228.93</ele><time>2026-04-13T11:15:51Z</time></trkpt><trkpt lat="57.8448253032" lon="34.0772601776"><ele>228.45</ele><time>2026-04-13T11:16:09Z</time></trkpt><trkpt lat="57.8448724095" lon="34.0770260710"><ele>227.97</ele><time>2026-04-13T11:16:22Z</time></trkpt><trkpt lat="57.8449089546" lon="34.0767512284"><ele>227.49</ele><time>2026-04-13T11:16:37Z</time></trkpt><trkpt lat="57.8449529596" lon="34.0764655732"><ele>227.01</ele><time>2026-04-13T11:16:55Z</time></trkpt><trkpt lat="57.8449789435" lon="34.0764221549"><ele>226.53</ele><time>2026-04-13T11:17:14Z</time></trkpt><trkpt lat="57.8449859843" lon="34.0763167106"><ele>226.05</ele><time>2026-04-13T11:17:38Z</time></trkpt><trkpt lat="57.8450596612" lon="34.0760463942"><ele>225.57</ele><time>2026-04-13T11:17:55Z</time></trkpt><trkpt lat="57.8451251239" lon="34.0758768283"><ele>225.09</ele><time>2026-04-13T11:18:09Z</time></trkpt><trkpt lat="57.8451243695" lon="34.0758460667"><ele>225.09</ele><time>2026-04-13T11:18:11Z</time></trkpt><trkpt lat="57.8451248724" lon="34.0755985491"><ele>224.61</ele><time>2026-04-13T11:18:27Z</time></trkpt><trkpt lat="57.8451400436" lon="34.0755928494"><ele>224.61</ele><time>2026-04-13T11:18:30Z</time></trkpt><trkpt lat="57.8452562168" lon="34.0754430648"><ele>224.61</ele><time>2026-04-13T11:18:48Z</time></trkpt><trkpt lat="57.8453185782" lon="34.0752801206"><ele>225.57</ele><time>2026-04-13T11:19:02Z</time></trkpt><trkpt lat="57.8454177361" lon="34.0750492830"><ele>226.05</ele><time>2026-04-13T11:19:19Z</time></trkpt><trkpt lat="57.8454928380" lon="34.0747907851"><ele>226.53</ele><time>2026-04-13T11:19:36Z</time></trkpt><trkpt lat="57.8455434646" lon="34.0745837521"><ele>226.53</ele><time>2026-04-13T11:19:52Z</time></trkpt><trkpt lat="57.8455836978" lon="34.0743254218"><ele>226.05</ele><time>2026-04-13T11:20:08Z</time></trkpt><trkpt lat="57.8456033114" lon="34.0740662534"><ele>225.57</ele><time>2026-04-13T11:20:26Z</time></trkpt><trkpt lat="57.8455722146" lon="34.0738108568"><ele>225.09</ele><time>2026-04-13T11:20:41Z</time></trkpt><trkpt lat="57.8455621563" lon="34.0736448951"><ele>225.09</ele><time>2026-04-13T11:20:48Z</time></trkpt><trkpt lat="57.8456425387" lon="34.0734263789"><ele>224.61</ele><time>2026-04-13T11:21:03Z</time></trkpt><trkpt lat="57.8456984460" lon="34.0731465071"><ele>223.16</ele><time>2026-04-13T11:21:19Z</time></trkpt><trkpt lat="57.8457344044" lon="34.0729323495"><ele>223.16</ele><time>2026-04-13T11:21:34Z</time></trkpt><trkpt lat="57.8458046447" lon="34.0727381408"><ele>222.20</ele><time>2026-04-13T11:21:50Z</time></trkpt><trkpt lat="57.8458431177" lon="34.0725124162"><ele>222.20</ele><time>2026-04-13T11:22:05Z</time></trkpt><trkpt lat="57.8459037188" lon="34.0723063052"><ele>221.72</ele><time>2026-04-13T11:22:21Z</time></trkpt><trkpt lat="57.8459410183" lon="34.0720751323"><ele>222.20</ele><time>2026-04-13T11:22:36Z</time></trkpt><trkpt lat="57.8459852748" lon="34.0718050674"><ele>222.20</ele><time>2026-04-13T11:22:52Z</time></trkpt><trkpt lat="57.8460235801" lon="34.0716918278"><ele>222.20</ele><time>2026-04-13T11:22:58Z</time></trkpt><trkpt lat="57.8461224027" lon="34.0714502614"><ele>222.20</ele><time>2026-04-13T11:23:14Z</time></trkpt><trkpt lat="57.8461012803" lon="34.0712050907"><ele>221.72</ele><time>2026-04-13T11:23:29Z</time></trkpt><trkpt lat="57.8461164515" lon="34.0710863192"><ele>221.72</ele><time>2026-04-13T11:23:36Z</time></trkpt><trkpt lat="57.8462086525" lon="34.0709095448"><ele>221.24</ele><time>2026-04-13T11:23:51Z</time></trkpt><trkpt lat="57.8463083133" lon="34.0707179345"><ele>220.76</ele><time>2026-04-13T11:24:06Z</time></trkpt><trkpt lat="57.8463149350" lon="34.0707021765"><ele>220.76</ele><time>2026-04-13T11:24:07Z</time></trkpt><trkpt lat="57.8463376500" lon="34.0706268232"><ele>220.76</ele><time>2026-04-13T11:24:12Z</time></trkpt><trkpt lat="57.8463472892" lon="34.0703426767"><ele>220.28</ele><time>2026-04-13T11:24:27Z</time></trkpt><trkpt lat="57.8463477083" lon="34.0700753778"><ele>220.76</ele><time>2026-04-13T11:24:41Z</time></trkpt><trkpt lat="57.8463549167" lon="34.0700405929"><ele>220.28</ele><time>2026-04-13T11:24:43Z</time></trkpt><trkpt lat="57.8464026935" lon="34.0699021239"><ele>220.28</ele><time>2026-04-13T11:24:52Z</time></trkpt><trkpt lat="57.8464143444" lon="34.0698557720"><ele>220.28</ele><time>2026-04-13T11:24:55Z</time></trkpt><trkpt lat="57.8464845009" lon="34.0696755610"><ele>219.80</ele><time>2026-04-13T11:25:11Z</time></trkpt><trkpt lat="57.8464910388" lon="34.0696337353"><ele>219.80</ele><time>2026-04-13T11:25:14Z</time></trkpt><trkpt lat="57.8465207946" lon="34.0694357548"><ele>219.32</ele><time>2026-04-13T11:25:31Z</time></trkpt><trkpt lat="57.8465294279" lon="34.0693561267"><ele>218.84</ele><time>2026-04-13T11:25:44Z</time></trkpt><trkpt lat="57.8465635423" lon="34.0691894945"><ele>218.36</ele><time>2026-04-13T11:26:02Z</time></trkpt><trkpt lat="57.8465751931" lon="34.0691375267"><ele>218.36</ele><time>2026-04-13T11:26:13Z</time></trkpt><trkpt lat="57.8465897776" lon="34.0690641850"><ele>217.88</ele><time>2026-04-13T11:26:28Z</time></trkpt><trkpt lat="57.8466081340" lon="34.0689994767"><ele>217.88</ele><time>2026-04-13T11:26:36Z</time></trkpt><trkpt lat="57.8466852475" lon="34.0688045137"><ele>217.40</ele><time>2026-04-13T11:26:50Z</time></trkpt><trkpt lat="57.8467439208" lon="34.0686523821"><ele>216.91</ele><time>2026-04-13T11:27:05Z</time></trkpt><trkpt lat="57.8467530571" lon="34.0685691498"><ele>216.43</ele><time>2026-04-13T11:27:21Z</time></trkpt><trkpt lat="57.8468124848" lon="34.0683962312"><ele>216.43</ele><time>2026-04-13T11:27:34Z</time></trkpt><trkpt lat="57.8468746785" lon="34.0682002623"><ele>215.95</ele><time>2026-04-13T11:27:48Z</time></trkpt><trkpt lat="57.8469441645" lon="34.0679970011"><ele>215.47</ele><time>2026-04-13T11:28:03Z</time></trkpt><trkpt lat="57.8469914384" lon="34.0678983461"><ele>215.47</ele><time>2026-04-13T11:28:16Z</time></trkpt><trkpt lat="57.8470530454" lon="34.0677972604"><ele>214.99</ele><time>2026-04-13T11:28:28Z</time></trkpt><trkpt lat="57.8471974656" lon="34.0676425304"><ele>214.51</ele><time>2026-04-13T11:28:47Z</time></trkpt><trkpt lat="57.8472032491" lon="34.0675267763"><ele>214.51</ele><time>2026-04-13T11:29:03Z</time></trkpt><trkpt lat="57.8472154029" lon="34.0674796700"><ele>214.03</ele><time>2026-04-13T11:29:11Z</time></trkpt><trkpt lat="57.8473536205" lon="34.0672779176"><ele>213.55</ele><time>2026-04-13T11:29:29Z</time></trkpt><trkpt lat="57.8474080190" lon="34.0672329068"><ele>213.55</ele><time>2026-04-13T11:29:35Z</time></trkpt><trkpt lat="57.8474612441" lon="34.0670581441"><ele>213.07</ele><time>2026-04-13T11:29:50Z</time></trkpt><trkpt lat="57.8474411275" lon="34.0668998100"><ele>213.07</ele><time>2026-04-13T11:30:00Z</time></trkpt><trkpt lat="57.8474328294" lon="34.0668486804"><ele>213.07</ele><time>2026-04-13T11:30:03Z</time></trkpt><trkpt lat="57.8474130481" lon="34.0667942818"><ele>212.59</ele><time>2026-04-13T11:30:17Z</time></trkpt><trkpt lat="57.8474086896" lon="34.0667822957"><ele>212.59</ele><time>2026-04-13T11:30:21Z</time></trkpt><trkpt lat="57.8474053368" lon="34.0667681303"><ele>212.11</ele><time>2026-04-13T11:30:31Z</time></trkpt><trkpt lat="57.8474193346" lon="34.0665978938"><ele>211.63</ele><time>2026-04-13T11:31:00Z</time></trkpt><trkpt lat="57.8474583104" lon="34.0664956346"><ele>211.63</ele><time>2026-04-13T11:31:13Z</time></trkpt><trkpt lat="57.8474946041" lon="34.0663761087"><ele>211.15</ele><time>2026-04-13T11:31:29Z</time></trkpt><trkpt lat="57.8475070093" lon="34.0663373843"><ele>211.15</ele><time>2026-04-13T11:31:32Z</time></trkpt><trkpt lat="57.8475191630" lon="34.0663067065"><ele>211.15</ele><time>2026-04-13T11:31:34Z</time></trkpt><trkpt lat="57.8475894034" lon="34.0660668164"><ele>210.67</ele><time>2026-04-13T11:31:51Z</time></trkpt><trkpt lat="57.8476474900" lon="34.0658914670"><ele>210.19</ele><time>2026-04-13T11:32:05Z</time></trkpt><trkpt lat="57.8476895671" lon="34.0657965839"><ele>210.19</ele><time>2026-04-13T11:32:13Z</time></trkpt><trkpt lat="57.8477029782" lon="34.0657679178"><ele>210.19</ele><time>2026-04-13T11:32:24Z</time></trkpt><trkpt lat="57.8477003798" lon="34.0657610446"><ele>210.19</ele><time>2026-04-13T11:32:25Z</time></trkpt><trkpt lat="57.8477121983" lon="34.0657445323"><ele>209.70</ele><time>2026-04-13T11:32:27Z</time></trkpt><trkpt lat="57.8477363382" lon="34.0656768903"><ele>209.70</ele><time>2026-04-13T11:32:32Z</time></trkpt><trkpt lat="57.8477616515" lon="34.0655722003"><ele>209.70</ele><time>2026-04-13T11:32:38Z</time></trkpt><trkpt lat="57.8477806784" lon="34.0655432828"><ele>209.70</ele><time>2026-04-13T11:32:41Z</time></trkpt><trkpt lat="57.8477835283" lon="34.0655101743"><ele>209.70</ele><time>2026-04-13T11:32:43Z</time></trkpt><trkpt lat="57.8478147928" lon="34.0653915703"><ele>209.22</ele><time>2026-04-13T11:32:53Z</time></trkpt><trkpt lat="57.8478182293" lon="34.0653504152"><ele>209.22</ele><time>2026-04-13T11:33:09Z</time></trkpt><trkpt lat="57.8478233423" lon="34.0653712023"><ele>208.74</ele><time>2026-04-13T11:33:32Z</time></trkpt><trkpt lat="57.8478313889" lon="34.0653038118"><ele>208.26</ele><time>2026-04-13T11:33:47Z</time></trkpt><trkpt lat="57.8478387650" lon="34.0652389359"><ele>208.26</ele><time>2026-04-13T11:33:56Z</time></trkpt><trkpt lat="57.8479162976" lon="34.0650567971"><ele>206.82</ele><time>2026-04-13T11:34:09Z</time></trkpt><trkpt lat="57.8479453828" lon="34.0649844613"><ele>206.82</ele><time>2026-04-13T11:34:14Z</time></trkpt><trkpt lat="57.8479595482" lon="34.0649039112"><ele>206.82</ele><time>2026-04-13T11:34:21Z</time></trkpt><trkpt lat="57.8479710314" lon="34.0648662765"><ele>206.82</ele><time>2026-04-13T11:34:23Z</time></trkpt><trkpt lat="57.8479767311" lon="34.0646814555"><ele>206.34</ele><time>2026-04-13T11:34:33Z</time></trkpt><trkpt lat="57.8479507472" lon="34.0646388754"><ele>206.34</ele><time>2026-04-13T11:34:37Z</time></trkpt><trkpt lat="57.8479285352" lon="34.0644988976"><ele>205.38</ele><time>2026-04-13T11:34:47Z</time></trkpt><trkpt lat="57.8479214944" lon="34.0644559823"><ele>205.38</ele><time>2026-04-13T11:34:51Z</time></trkpt><trkpt lat="57.8479030542" lon="34.0643515438"><ele>205.38</ele><time>2026-04-13T11:34:58Z</time></trkpt><trkpt lat="57.8478820156" lon="34.0642539784"><ele>204.90</ele><time>2026-04-13T11:35:04Z</time></trkpt><trkpt lat="57.8478363343" lon="34.0640557464"><ele>204.90</ele><time>2026-04-13T11:35:18Z</time></trkpt><trkpt lat="57.8478144575" lon="34.0639215522"><ele>204.90</ele><time>2026-04-13T11:35:26Z</time></trkpt><trkpt lat="57.8478233423" lon="34.0638575144"><ele>204.90</ele><time>2026-04-13T11:35:29Z</time></trkpt><trkpt lat="57.8478836082" lon="34.0636958275"><ele>204.42</ele><time>2026-04-13T11:35:42Z</time></trkpt><trkpt lat="57.8479131125" lon="34.0636300296"><ele>204.42</ele><time>2026-04-13T11:35:48Z</time></trkpt><trkpt lat="57.8479330614" lon="34.0636013635"><ele>204.42</ele><time>2026-04-13T11:35:51Z</time></trkpt><trkpt lat="57.8480175510" lon="34.0634348989"><ele>203.94</ele><time>2026-04-13T11:36:08Z</time></trkpt><trkpt lat="57.8480350692" lon="34.0634569433"><ele>203.94</ele><time>2026-04-13T11:36:26Z</time></trkpt><trkpt lat="57.8480173834" lon="34.0634436999"><ele>202.98</ele><time>2026-04-13T11:37:03Z</time></trkpt><trkpt lat="57.8481177986" lon="34.0634829272"><ele>202.49</ele><time>2026-04-13T11:37:51Z</time></trkpt><trkpt lat="57.8480447084" lon="34.0634296183"><ele>202.49</ele><time>2026-04-13T11:38:14Z</time></trkpt><trkpt lat="57.8480422776" lon="34.0634271875"><ele>202.49</ele><time>2026-04-13T11:38:16Z</time></trkpt></trkseg><trkseg><trkpt lat="57.8972690273" lon="33.9186298102"><ele>186.15</ele><time>2026-04-14T11:45:03Z</time></trkpt><trkpt lat="57.8972721286" lon="33.9184834622"><ele>181.83</ele><time>2026-04-14T11:45:09Z</time></trkpt><trkpt lat="57.8972625732" lon="33.9184645191"><ele>178.46</ele><time>2026-04-14T11:45:12Z</time></trkpt><trkpt lat="57.8972616512" lon="33.9184394572"><ele>175.10</ele><time>2026-04-14T11:45:15Z</time></trkpt><trkpt lat="57.8972657584" lon="33.9184029121"><ele>171.73</ele><time>2026-04-14T11:45:18Z</time></trkpt><trkpt lat="57.8973423690" lon="33.9184272196"><ele>168.37</ele><time>2026-04-14T11:45:21Z</time></trkpt><trkpt lat="57.8973846976" lon="33.9182350226"><ele>165.00</ele><time>2026-04-14T11:45:25Z</time></trkpt><trkpt lat="57.8974415269" lon="33.9181189332"><ele>163.56</ele><time>2026-04-14T11:45:28Z</time></trkpt><trkpt lat="57.8975448757" lon="33.9180335216"><ele>166.45</ele><time>2026-04-14T11:45:55Z</time></trkpt><trkpt lat="57.8975765593" lon="33.9180029277"><ele>169.81</ele><time>2026-04-14T11:46:13Z</time></trkpt><trkpt lat="57.8976025432" lon="33.9180076215"><ele>173.17</ele><time>2026-04-14T11:46:27Z</time></trkpt><trkpt lat="57.8976238333" lon="33.9180416521"><ele>176.06</ele><time>2026-04-14T11:46:45Z</time></trkpt><trkpt lat="57.8976356518" lon="33.9180797897"><ele>179.42</ele><time>2026-04-14T11:47:06Z</time></trkpt><trkpt lat="57.8976623062" lon="33.9180828072"><ele>179.90</ele><time>2026-04-14T11:47:55Z</time></trkpt><trkpt lat="57.8976567741" lon="33.9180925302"><ele>179.90</ele><time>2026-04-14T11:48:21Z</time></trkpt></trkseg><trkseg><trkpt lat="57.9001035355" lon="34.0067872312"><ele>172.21</ele><time>2026-04-17T13:59:52Z</time></trkpt><trkpt lat="57.9000980873" lon="34.0067827888"><ele>168.85</ele><time>2026-04-17T14:00:09Z</time></trkpt><trkpt lat="57.9001082294" lon="34.0068008937"><ele>167.41</ele><time>2026-04-17T14:00:20Z</time></trkpt><trkpt lat="57.9001202993" lon="34.0067380294"><ele>166.93</ele><time>2026-04-17T14:00:31Z</time></trkpt><trkpt lat="57.9001291003" lon="34.0067067649"><ele>166.93</ele><time>2026-04-17T14:00:33Z</time></trkpt><trkpt lat="57.9001415055" lon="34.0066267177"><ele>166.93</ele><time>2026-04-17T14:00:37Z</time></trkpt><trkpt lat="57.9001649749" lon="34.0065527894"><ele>165.96</ele><time>2026-04-17T14:00:42Z</time></trkpt><trkpt lat="57.9001558386" lon="34.0064694732"><ele>165.96</ele><time>2026-04-17T14:00:46Z</time></trkpt><trkpt lat="57.9001669865" lon="34.0064216126"><ele>165.96</ele><time>2026-04-17T14:00:49Z</time></trkpt><trkpt lat="57.9001826607" lon="34.0062991530"><ele>165.96</ele><time>2026-04-17T14:01:01Z</time></trkpt><trkpt lat="57.9002378974" lon="34.0060734283"><ele>165.96</ele><time>2026-04-17T14:01:17Z</time></trkpt><trkpt lat="57.9002680723" lon="34.0059557464"><ele>165.96</ele><time>2026-04-17T14:01:24Z</time></trkpt><trkpt lat="57.9003265779" lon="34.0058058780"><ele>165.96</ele><time>2026-04-17T14:01:36Z</time></trkpt><trkpt lat="57.9004635382" lon="34.0057003498"><ele>165.96</ele><time>2026-04-17T14:01:48Z</time></trkpt><trkpt lat="57.9004740994" lon="34.0056714322"><ele>165.96</ele><time>2026-04-17T14:02:00Z</time></trkpt><trkpt lat="57.9004821461" lon="34.0056845080"><ele>165.96</ele><time>2026-04-17T14:02:20Z</time></trkpt><trkpt lat="57.9005273245" lon="34.0056072269"><ele>165.96</ele><time>2026-04-17T14:02:31Z</time></trkpt><trkpt lat="57.9006104730" lon="34.0052624792"><ele>165.96</ele><time>2026-04-17T14:02:46Z</time></trkpt><trkpt lat="57.9006555676" lon="34.0049691126"><ele>165.96</ele><time>2026-04-17T14:03:01Z</time></trkpt><trkpt lat="57.9006167594" lon="34.0048367623"><ele>165.96</ele><time>2026-04-17T14:03:07Z</time></trkpt><trkpt lat="57.9005437531" lon="34.0045199264"><ele>165.96</ele><time>2026-04-17T14:03:23Z</time></trkpt><trkpt lat="57.9005461838" lon="34.0044968762"><ele>165.96</ele><time>2026-04-17T14:03:24Z</time></trkpt><trkpt lat="57.9005578347" lon="34.0040771104"><ele>165.48</ele><time>2026-04-17T14:03:42Z</time></trkpt><trkpt lat="57.9005585890" lon="34.0037884377"><ele>165.48</ele><time>2026-04-17T14:03:57Z</time></trkpt><trkpt lat="57.9004780389" lon="34.0034607053"><ele>165.48</ele><time>2026-04-17T14:04:13Z</time></trkpt><trkpt lat="57.9004418291" lon="34.0032014530"><ele>165.48</ele><time>2026-04-17T14:04:27Z</time></trkpt><trkpt lat="57.9004873428" lon="34.0031939093"><ele>165.48</ele><time>2026-04-17T14:04:46Z</time></trkpt><trkpt lat="57.9004639573" lon="34.0031852759"><ele>165.48</ele><time>2026-04-17T14:05:13Z</time></trkpt><trkpt lat="57.9004610237" lon="34.0031789057"><ele>165.48</ele><time>2026-04-17T14:05:39Z</time></trkpt><trkpt lat="57.9004536476" lon="34.0031693503"><ele>165.48</ele><time>2026-04-17T14:06:06Z</time></trkpt><trkpt lat="57.9004438408" lon="34.0031853598"><ele>165.48</ele><time>2026-04-17T14:06:30Z</time></trkpt><trkpt lat="57.9004645441" lon="34.0031808335"><ele>165.48</ele><time>2026-04-17T14:06:49Z</time></trkpt><trkpt lat="57.9004524741" lon="34.0031804983"><ele>165.48</ele><time>2026-04-17T14:07:14Z</time></trkpt><trkpt lat="57.9004583415" lon="34.0031431150"><ele>165.48</ele><time>2026-04-17T14:07:37Z</time></trkpt><trkpt lat="57.9004575871" lon="34.0031539276"><ele>165.48</ele><time>2026-04-17T14:07:53Z</time></trkpt><trkpt lat="57.9004533123" lon="34.0031587891"><ele>165.48</ele><time>2026-04-17T14:08:18Z</time></trkpt><trkpt lat="57.9004628677" lon="34.0031729545"><ele>165.48</ele><time>2026-04-17T14:08:41Z</time></trkpt><trkpt lat="57.9004411586" lon="34.0031695180"><ele>165.48</ele><time>2026-04-17T14:08:55Z</time></trkpt><trkpt lat="57.9004317708" lon="34.0031725354"><ele>165.48</ele><time>2026-04-17T14:08:56Z</time></trkpt><trkpt lat="57.9003742710" lon="34.0031905565"><ele>165.48</ele><time>2026-04-17T14:09:02Z</time></trkpt><trkpt lat="57.9002852552" lon="34.0031692665"><ele>165.48</ele><time>2026-04-17T14:09:14Z</time></trkpt><trkpt lat="57.9002091475" lon="34.0031842701"><ele>165.48</ele><time>2026-04-17T14:09:31Z</time></trkpt><trkpt lat="57.9000941478" lon="34.0032452904"><ele>165.48</ele><time>2026-04-17T14:09:46Z</time></trkpt><trkpt lat="57.9000203032" lon="34.0032830928"><ele>165.48</ele><time>2026-04-17T14:09:52Z</time></trkpt><trkpt lat="57.8999015316" lon="34.0033486392"><ele>165.48</ele><time>2026-04-17T14:10:03Z</time></trkpt><trkpt lat="57.8997671697" lon="34.0033977572"><ele>165.48</ele><time>2026-04-17T14:10:16Z</time></trkpt><trkpt lat="57.8997582849" lon="34.0033989307"><ele>165.48</ele><time>2026-04-17T14:10:19Z</time></trkpt><trkpt lat="57.8996647429" lon="34.0034835879"><ele>165.48</ele><time>2026-04-17T14:10:30Z</time></trkpt><trkpt lat="57.8996419441" lon="34.0035161935"><ele>165.48</ele><time>2026-04-17T14:10:34Z</time></trkpt><trkpt lat="57.8996181395" lon="34.0035431832"><ele>165.48</ele><time>2026-04-17T14:10:36Z</time></trkpt><trkpt lat="57.8995891381" lon="34.0035428479"><ele>165.48</ele><time>2026-04-17T14:10:48Z</time></trkpt><trkpt lat="57.8996391781" lon="34.0035228990"><ele>165.48</ele><time>2026-04-17T14:10:53Z</time></trkpt><trkpt lat="57.8996614739" lon="34.0034834202"><ele>165.48</ele><time>2026-04-17T14:11:04Z</time></trkpt><trkpt lat="57.8996894695" lon="34.0034671593"><ele>165.48</ele><time>2026-04-17T14:11:22Z</time></trkpt><trkpt lat="57.8997470532" lon="34.0034228191"><ele>165.48</ele><time>2026-04-17T14:11:30Z</time></trkpt><trkpt lat="57.8996266052" lon="34.0035125893"><ele>165.48</ele><time>2026-04-17T14:11:43Z</time></trkpt><trkpt lat="57.8995344881" lon="34.0036119148"><ele>165.48</ele><time>2026-04-17T14:11:52Z</time></trkpt><trkpt lat="57.8994700313" lon="34.0036306065"><ele>165.48</ele><time>2026-04-17T14:11:58Z</time></trkpt><trkpt lat="57.8994380962" lon="34.0035983361"><ele>165.48</ele><time>2026-04-17T14:12:02Z</time></trkpt><trkpt lat="57.8994282056" lon="34.0035265032"><ele>165.48</ele><time>2026-04-17T14:12:06Z</time></trkpt><trkpt lat="57.8993412014" lon="34.0033057239"><ele>165.48</ele><time>2026-04-17T14:12:18Z</time></trkpt><trkpt lat="57.8992212564" lon="34.0031368285"><ele>165.48</ele><time>2026-04-17T14:12:33Z</time></trkpt><trkpt lat="57.8991733119" lon="34.0031364094"><ele>165.48</ele><time>2026-04-17T14:12:37Z</time></trkpt><trkpt lat="57.8990043327" lon="34.0031596273"><ele>166.45</ele><time>2026-04-17T14:12:54Z</time></trkpt><trkpt lat="57.8988511954" lon="34.0031685121"><ele>166.45</ele><time>2026-04-17T14:13:10Z</time></trkpt><trkpt lat="57.8988375328" lon="34.0031602979"><ele>166.45</ele><time>2026-04-17T14:13:11Z</time></trkpt><trkpt lat="57.8987032548" lon="34.0030548535"><ele>166.45</ele><time>2026-04-17T14:13:26Z</time></trkpt><trkpt lat="57.8986949567" lon="34.0030438732"><ele>166.45</ele><time>2026-04-17T14:13:27Z</time></trkpt><trkpt lat="57.8986755107" lon="34.0029998682"><ele>166.45</ele><time>2026-04-17T14:13:29Z</time></trkpt><trkpt lat="57.8985739220" lon="34.0028185677"><ele>166.93</ele><time>2026-04-17T14:13:44Z</time></trkpt><trkpt lat="57.8985031787" lon="34.0028428752"><ele>166.93</ele><time>2026-04-17T14:14:02Z</time></trkpt><trkpt lat="57.8984988201" lon="34.0028033964"><ele>166.93</ele><time>2026-04-17T14:14:05Z</time></trkpt><trkpt lat="57.8983394802" lon="34.0028309729"><ele>167.41</ele><time>2026-04-17T14:14:21Z</time></trkpt><trkpt lat="57.8982057888" lon="34.0027675219"><ele>167.41</ele><time>2026-04-17T14:14:32Z</time></trkpt><trkpt lat="57.8980692476" lon="34.0027457289"><ele>167.41</ele><time>2026-04-17T14:14:49Z</time></trkpt><trkpt lat="57.8979933076" lon="34.0026873071"><ele>167.41</ele><time>2026-04-17T14:15:04Z</time></trkpt><trkpt lat="57.8979084827" lon="34.0027530212"><ele>167.41</ele><time>2026-04-17T14:15:19Z</time></trkpt><trkpt lat="57.8977504000" lon="34.0027214214"><ele>167.41</ele><time>2026-04-17T14:15:37Z</time></trkpt><trkpt lat="57.8975869529" lon="34.0026595630"><ele>166.45</ele><time>2026-04-17T14:15:53Z</time></trkpt><trkpt lat="57.8974674270" lon="34.0025846288"><ele>166.45</ele><time>2026-04-17T14:16:07Z</time></trkpt><trkpt lat="57.8973394353" lon="34.0024745744"><ele>166.45</ele><time>2026-04-17T14:16:22Z</time></trkpt><trkpt lat="57.8972083423" lon="34.0023864806"><ele>166.45</ele><time>2026-04-17T14:16:36Z</time></trkpt><trkpt lat="57.8971053287" lon="34.0022118017"><ele>166.45</ele><time>2026-04-17T14:16:51Z</time></trkpt><trkpt lat="57.8970034886" lon="34.0020580776"><ele>166.93</ele><time>2026-04-17T14:17:08Z</time></trkpt><trkpt lat="57.8968564700" lon="34.0019474365"><ele>166.93</ele><time>2026-04-17T14:17:24Z</time></trkpt><trkpt lat="57.8966838028" lon="34.0018659644"><ele>166.93</ele><time>2026-04-17T14:17:39Z</time></trkpt><trkpt lat="57.8965457529" lon="34.0018709097"><ele>167.41</ele><time>2026-04-17T14:17:54Z</time></trkpt><trkpt lat="57.8965040948" lon="34.0016984101"><ele>167.41</ele><time>2026-04-17T14:18:09Z</time></trkpt><trkpt lat="57.8964754287" lon="34.0016009286"><ele>167.41</ele><time>2026-04-17T14:18:14Z</time></trkpt><trkpt lat="57.8964561503" lon="34.0014703386"><ele>167.41</ele><time>2026-04-17T14:18:24Z</time></trkpt><trkpt lat="57.8963725828" lon="34.0012006089"><ele>167.89</ele><time>2026-04-17T14:18:40Z</time></trkpt><trkpt lat="57.8963657096" lon="34.0011939872"><ele>167.89</ele><time>2026-04-17T14:18:41Z</time></trkpt><trkpt lat="57.8962916974" lon="34.0010557696"><ele>167.89</ele><time>2026-04-17T14:18:57Z</time></trkpt><trkpt lat="57.8962098062" lon="34.0009711962"><ele>167.89</ele><time>2026-04-17T14:19:10Z</time></trkpt><trkpt lat="57.8961145040" lon="34.0008733794"><ele>168.37</ele><time>2026-04-17T14:19:24Z</time></trkpt><trkpt lat="57.8960233089" lon="34.0007119440"><ele>168.37</ele><time>2026-04-17T14:19:39Z</time></trkpt><trkpt lat="57.8959531523" lon="34.0006086789"><ele>168.37</ele><time>2026-04-17T14:19:50Z</time></trkpt><trkpt lat="57.8959277552" lon="34.0005655959"><ele>168.37</ele><time>2026-04-17T14:19:54Z</time></trkpt><trkpt lat="57.8959197085" lon="34.0004702937"><ele>168.85</ele><time>2026-04-17T14:20:00Z</time></trkpt><trkpt lat="57.8958837502" lon="34.0002752468"><ele>169.81</ele><time>2026-04-17T14:20:13Z</time></trkpt><trkpt lat="57.8958278429" lon="34.0000698902"><ele>169.81</ele><time>2026-04-17T14:20:25Z</time></trkpt><trkpt lat="57.8958003502" lon="33.9999745041"><ele>169.81</ele><time>2026-04-17T14:20:28Z</time></trkpt><trkpt lat="57.8957942314" lon="33.9999176748"><ele>170.29</ele><time>2026-04-17T14:20:30Z</time></trkpt><trkpt lat="57.8957120050" lon="33.9997368772"><ele>170.29</ele><time>2026-04-17T14:20:47Z</time></trkpt><trkpt lat="57.8956564330" lon="33.9997067023"><ele>170.29</ele><time>2026-04-17T14:21:00Z</time></trkpt><trkpt lat="57.8956842609" lon="33.9997502882"><ele>170.29</ele><time>2026-04-17T14:21:16Z</time></trkpt><trkpt lat="57.8956310358" lon="33.9996909443"><ele>170.77</ele><time>2026-04-17T14:21:37Z</time></trkpt><trkpt lat="57.8956073988" lon="33.9997243881"><ele>171.25</ele><time>2026-04-17T14:22:03Z</time></trkpt><trkpt lat="57.8955939040" lon="33.9995155949"><ele>171.25</ele><time>2026-04-17T14:22:20Z</time></trkpt><trkpt lat="57.8954944108" lon="33.9994727634"><ele>171.73</ele><time>2026-04-17T14:22:35Z</time></trkpt><trkpt lat="57.8953851946" lon="33.9993492980"><ele>171.73</ele><time>2026-04-17T14:22:49Z</time></trkpt><trkpt lat="57.8952824324" lon="33.9992048778"><ele>172.21</ele><time>2026-04-17T14:23:03Z</time></trkpt><trkpt lat="57.8951304685" lon="33.9990843460"><ele>172.21</ele><time>2026-04-17T14:23:19Z</time></trkpt><trkpt lat="57.8950153012" lon="33.9991388284"><ele>172.21</ele><time>2026-04-17T14:23:29Z</time></trkpt><trkpt lat="57.8949611541" lon="33.9991037920"><ele>172.21</ele><time>2026-04-17T14:23:34Z</time></trkpt><trkpt lat="57.8948133811" lon="33.9989492297"><ele>172.21</ele><time>2026-04-17T14:23:51Z</time></trkpt><trkpt lat="57.8946646024" lon="33.9988548495"><ele>172.69</ele><time>2026-04-17T14:24:07Z</time></trkpt><trkpt lat="57.8945227806" lon="33.9988343976"><ele>172.69</ele><time>2026-04-17T14:24:21Z</time></trkpt><trkpt lat="57.8943683859" lon="33.9987277798"><ele>172.69</ele><time>2026-04-17T14:24:36Z</time></trkpt><trkpt lat="57.8942217026" lon="33.9985658415"><ele>172.69</ele><time>2026-04-17T14:24:53Z</time></trkpt><trkpt lat="57.8941124864" lon="33.9984158054"><ele>172.69</ele><time>2026-04-17T14:25:10Z</time></trkpt><trkpt lat="57.8939233907" lon="33.9981904998"><ele>173.17</ele><time>2026-04-17T14:25:28Z</time></trkpt><trkpt lat="57.8937454429" lon="33.9980748296"><ele>173.17</ele><time>2026-04-17T14:25:45Z</time></trkpt><trkpt lat="57.8936822433" lon="33.9980060980"><ele>173.17</ele><time>2026-04-17T14:25:53Z</time></trkpt><trkpt lat="57.8936270904" lon="33.9978562295"><ele>173.17</ele><time>2026-04-17T14:26:04Z</time></trkpt><trkpt lat="57.8935438581" lon="33.9976007491"><ele>173.66</ele><time>2026-04-17T14:26:22Z</time></trkpt><trkpt lat="57.8934996855" lon="33.9976766892"><ele>174.14</ele><time>2026-04-17T14:26:43Z</time></trkpt><trkpt lat="57.8934646491" lon="33.9973930456"><ele>174.14</ele><time>2026-04-17T14:26:57Z</time></trkpt><trkpt lat="57.8934505675" lon="33.9971734397"><ele>174.14</ele><time>2026-04-17T14:27:09Z</time></trkpt><trkpt lat="57.8933484759" lon="33.9968827553"><ele>174.14</ele><time>2026-04-17T14:27:26Z</time></trkpt><trkpt lat="57.8932255972" lon="33.9967272710"><ele>174.14</ele><time>2026-04-17T14:27:37Z</time></trkpt><trkpt lat="57.8931614757" lon="33.9966007043"><ele>175.10</ele><time>2026-04-17T14:27:47Z</time></trkpt><trkpt lat="57.8930318914" lon="33.9964352455"><ele>175.58</ele><time>2026-04-17T14:28:03Z</time></trkpt><trkpt lat="57.8929058276" lon="33.9962587226"><ele>175.58</ele><time>2026-04-17T14:28:20Z</time></trkpt><trkpt lat="57.8928820230" lon="33.9962498378"><ele>175.58</ele><time>2026-04-17T14:28:22Z</time></trkpt><trkpt lat="57.8927707113" lon="33.9960580599"><ele>176.54</ele><time>2026-04-17T14:28:49Z</time></trkpt><trkpt lat="57.8927533608" lon="33.9961091056"><ele>176.54</ele><time>2026-04-17T14:28:53Z</time></trkpt><trkpt lat="57.8926535323" lon="33.9962445572"><ele>176.54</ele><time>2026-04-17T14:29:04Z</time></trkpt><trkpt lat="57.8924904205" lon="33.9961868897"><ele>176.54</ele><time>2026-04-17T14:29:20Z</time></trkpt><trkpt lat="57.8923580702" lon="33.9960801043"><ele>176.54</ele><time>2026-04-17T14:29:35Z</time></trkpt><trkpt lat="57.8922034241" lon="33.9959842991"><ele>175.58</ele><time>2026-04-17T14:29:48Z</time></trkpt><trkpt lat="57.8921916895" lon="33.9960079361"><ele>175.58</ele><time>2026-04-17T14:29:50Z</time></trkpt><trkpt lat="57.8921552282" lon="33.9961297251"><ele>175.58</ele><time>2026-04-17T14:29:57Z</time></trkpt><trkpt lat="57.8920648713" lon="33.9963272028"><ele>175.58</ele><time>2026-04-17T14:30:18Z</time></trkpt><trkpt lat="57.8919545654" lon="33.9965124428"><ele>175.58</ele><time>2026-04-17T14:30:33Z</time></trkpt><trkpt lat="57.8919075429" lon="33.9965576213"><ele>175.58</ele><time>2026-04-17T14:30:37Z</time></trkpt><trkpt lat="57.8918163478" lon="33.9965210762"><ele>175.58</ele><time>2026-04-17T14:30:47Z</time></trkpt><trkpt lat="57.8917150944" lon="33.9963759016"><ele>175.58</ele><time>2026-04-17T14:31:02Z</time></trkpt><trkpt lat="57.8915546648" lon="33.9962092694"><ele>175.58</ele><time>2026-04-17T14:31:18Z</time></trkpt><trkpt lat="57.8914468735" lon="33.9961086866"><ele>175.58</ele><time>2026-04-17T14:31:33Z</time></trkpt><trkpt lat="57.8913096618" lon="33.9959702175"><ele>175.58</ele><time>2026-04-17T14:31:49Z</time></trkpt><trkpt lat="57.8912821691" lon="33.9959770069"><ele>175.58</ele><time>2026-04-17T14:31:52Z</time></trkpt><trkpt lat="57.8912249207" lon="33.9959926810"><ele>175.58</ele><time>2026-04-17T14:31:58Z</time></trkpt><trkpt lat="57.8910193965" lon="33.9960309025"><ele>175.58</ele><time>2026-04-17T14:32:21Z</time></trkpt><trkpt lat="57.8909132816" lon="33.9961363468"><ele>175.58</ele><time>2026-04-17T14:32:42Z</time></trkpt><trkpt lat="57.8908865433" lon="33.9960987959"><ele>175.58</ele><time>2026-04-17T14:33:08Z</time></trkpt><trkpt lat="57.8908950090" lon="33.9961104468"><ele>175.58</ele><time>2026-04-17T14:33:35Z</time></trkpt><trkpt lat="57.8909018822" lon="33.9961322397"><ele>175.58</ele><time>2026-04-17T14:33:57Z</time></trkpt><trkpt lat="57.8909027204" lon="33.9961112011"><ele>175.58</ele><time>2026-04-17T14:34:18Z</time></trkpt><trkpt lat="57.8909232561" lon="33.9960771706"><ele>175.10</ele><time>2026-04-17T14:34:49Z</time></trkpt><trkpt lat="57.8909554426" lon="33.9959510230"><ele>175.10</ele><time>2026-04-17T14:35:11Z</time></trkpt><trkpt lat="57.8910172172" lon="33.9959626738"><ele>175.10</ele><time>2026-04-17T14:35:49Z</time></trkpt><trkpt lat="57.8911444545" lon="33.9959635120"><ele>175.10</ele><time>2026-04-17T14:36:04Z</time></trkpt><trkpt lat="57.8913528286" lon="33.9959545434"><ele>175.10</ele><time>2026-04-17T14:36:23Z</time></trkpt><trkpt lat="57.8914472088" lon="33.9960624184"><ele>175.10</ele><time>2026-04-17T14:36:36Z</time></trkpt><trkpt lat="57.8915406670" lon="33.9962599799"><ele>175.10</ele><time>2026-04-17T14:36:51Z</time></trkpt><trkpt lat="57.8916323651" lon="33.9963693637"><ele>175.10</ele><time>2026-04-17T14:37:02Z</time></trkpt><trkpt lat="57.8916524816" lon="33.9963934198"><ele>175.10</ele><time>2026-04-17T14:37:07Z</time></trkpt><trkpt lat="57.8918019310" lon="33.9965691045"><ele>175.10</ele><time>2026-04-17T14:37:23Z</time></trkpt><trkpt lat="57.8919054475" lon="33.9966291189"><ele>175.10</ele><time>2026-04-17T14:37:36Z</time></trkpt><trkpt lat="57.8920384683" lon="33.9964715391"><ele>175.10</ele><time>2026-04-17T14:37:50Z</time></trkpt><trkpt lat="57.8920988180" lon="33.9963776618"><ele>175.10</ele><time>2026-04-17T14:37:57Z</time></trkpt><trkpt lat="57.8921594191" lon="33.9961551223"><ele>175.10</ele><time>2026-04-17T14:38:09Z</time></trkpt><trkpt lat="57.8922398016" lon="33.9960122108"><ele>174.62</ele><time>2026-04-17T14:38:21Z</time></trkpt><trkpt lat="57.8923064377" lon="33.9961088542"><ele>174.62</ele><time>2026-04-17T14:38:30Z</time></trkpt><trkpt lat="57.8923231177" lon="33.9961080998"><ele>174.62</ele><time>2026-04-17T14:38:32Z</time></trkpt><trkpt lat="57.8924517799" lon="33.9962288830"><ele>174.62</ele><time>2026-04-17T14:38:46Z</time></trkpt><trkpt lat="57.8924562223" lon="33.9962360915"><ele>174.62</ele><time>2026-04-17T14:38:47Z</time></trkpt><trkpt lat="57.8925219364" lon="33.9963168930"><ele>174.62</ele><time>2026-04-17T14:39:15Z</time></trkpt><trkpt lat="57.8926262073" lon="33.9963304717"><ele>174.62</ele><time>2026-04-17T14:39:27Z</time></trkpt><trkpt lat="57.8928476572" lon="33.9963288791"><ele>175.10</ele><time>2026-04-17T14:39:45Z</time></trkpt><trkpt lat="57.8929312248" lon="33.9963477384"><ele>175.10</ele><time>2026-04-17T14:39:54Z</time></trkpt><trkpt lat="57.8930105176" lon="33.9965111017"><ele>175.10</ele><time>2026-04-17T14:40:07Z</time></trkpt><trkpt lat="57.8930300474" lon="33.9965390135"><ele>175.10</ele><time>2026-04-17T14:40:10Z</time></trkpt><trkpt lat="57.8931191470" lon="33.9966358244"><ele>175.10</ele><time>2026-04-17T14:40:28Z</time></trkpt><trkpt lat="57.8931758087" lon="33.9967279416"><ele>175.10</ele><time>2026-04-17T14:40:33Z</time></trkpt><trkpt lat="57.8933211509" lon="33.9969133493"><ele>175.10</ele><time>2026-04-17T14:40:49Z</time></trkpt><trkpt lat="57.8933778964" lon="33.9971016906"><ele>175.10</ele><time>2026-04-17T14:41:03Z</time></trkpt><trkpt lat="57.8934013657" lon="33.9972165227"><ele>175.10</ele><time>2026-04-17T14:41:09Z</time></trkpt><trkpt lat="57.8934428561" lon="33.9974030200"><ele>175.10</ele><time>2026-04-17T14:41:20Z</time></trkpt><trkpt lat="57.8934800718" lon="33.9977061935"><ele>175.10</ele><time>2026-04-17T14:41:37Z</time></trkpt><trkpt lat="57.8935879469" lon="33.9979687985"><ele>174.62</ele><time>2026-04-17T14:41:53Z</time></trkpt><trkpt lat="57.8936526552" lon="33.9980784338"><ele>174.62</ele><time>2026-04-17T14:42:00Z</time></trkpt><trkpt lat="57.8938497137" lon="33.9982079342"><ele>174.62</ele><time>2026-04-17T14:42:18Z</time></trkpt><trkpt lat="57.8939912841" lon="33.9982835390"><ele>174.62</ele><time>2026-04-17T14:42:34Z</time></trkpt><trkpt lat="57.8940998297" lon="33.9984541107"><ele>174.14</ele><time>2026-04-17T14:42:49Z</time></trkpt><trkpt lat="57.8941115644" lon="33.9985481557"><ele>174.14</ele><time>2026-04-17T14:42:54Z</time></trkpt><trkpt lat="57.8942330182" lon="33.9986953419"><ele>174.62</ele><time>2026-04-17T14:43:06Z</time></trkpt><trkpt lat="57.8942816332" lon="33.9987742994"><ele>174.62</ele><time>2026-04-17T14:43:11Z</time></trkpt><trkpt lat="57.8943501133" lon="33.9988417737"><ele>174.62</ele><time>2026-04-17T14:43:17Z</time></trkpt><trkpt lat="57.8945028316" lon="33.9988982677"><ele>174.62</ele><time>2026-04-17T14:43:30Z</time></trkpt><trkpt lat="57.8945996426" lon="33.9988929033"><ele>174.62</ele><time>2026-04-17T14:43:39Z</time></trkpt><trkpt lat="57.8947801050" lon="33.9989269339"><ele>174.62</ele><time>2026-04-17T14:43:54Z</time></trkpt><trkpt lat="57.8949535266" lon="33.9990869444"><ele>173.66</ele><time>2026-04-17T14:44:10Z</time></trkpt><trkpt lat="57.8950968571" lon="33.9991130959"><ele>173.66</ele><time>2026-04-17T14:44:25Z</time></trkpt><trkpt lat="57.8951963503" lon="33.9991480485"><ele>174.14</ele><time>2026-04-17T14:44:37Z</time></trkpt><trkpt lat="57.8953097574" lon="33.9992633834"><ele>174.14</ele><time>2026-04-17T14:44:51Z</time></trkpt><trkpt lat="57.8954436164" lon="33.9994532336"><ele>174.14</ele><time>2026-04-17T14:45:05Z</time></trkpt><trkpt lat="57.8954985179" lon="33.9996008389"><ele>174.14</ele><time>2026-04-17T14:45:18Z</time></trkpt><trkpt lat="57.8955063969" lon="33.9996093884"><ele>174.14</ele><time>2026-04-17T14:45:19Z</time></trkpt><trkpt lat="57.8956794832" lon="33.9997372124"><ele>174.14</ele><time>2026-04-17T14:45:36Z</time></trkpt><trkpt lat="57.8957037069" lon="33.9998171758"><ele>174.14</ele><time>2026-04-17T14:45:42Z</time></trkpt><trkpt lat="57.8957722709" lon="33.9999316726"><ele>174.62</ele><time>2026-04-17T14:45:53Z</time></trkpt><trkpt lat="57.8958853427" lon="34.0001900867"><ele>174.62</ele><time>2026-04-17T14:46:10Z</time></trkpt><trkpt lat="57.8958859295" lon="34.0002055932"><ele>174.62</ele><time>2026-04-17T14:46:11Z</time></trkpt><trkpt lat="57.8958897851" lon="34.0002365224"><ele>174.62</ele><time>2026-04-17T14:46:13Z</time></trkpt><trkpt lat="57.8959776275" lon="34.0004832018"><ele>174.62</ele><time>2026-04-17T14:46:29Z</time></trkpt><trkpt lat="57.8960191179" lon="34.0005873889"><ele>174.62</ele><time>2026-04-17T14:46:36Z</time></trkpt><trkpt lat="57.8960578423" lon="34.0007546078"><ele>175.10</ele><time>2026-04-17T14:46:44Z</time></trkpt><trkpt lat="57.8961380571" lon="34.0009447932"><ele>174.62</ele><time>2026-04-17T14:47:02Z</time></trkpt><trkpt lat="57.8962526377" lon="34.0010396764"><ele>174.14</ele><time>2026-04-17T14:47:14Z</time></trkpt><trkpt lat="57.8963367082" lon="34.0011226572"><ele>174.14</ele><time>2026-04-17T14:47:30Z</time></trkpt><trkpt lat="57.8963522147" lon="34.0011340566"><ele>174.14</ele><time>2026-04-17T14:47:33Z</time></trkpt><trkpt lat="57.8964035120" lon="34.0012477990"><ele>174.62</ele><time>2026-04-17T14:47:42Z</time></trkpt><trkpt lat="57.8964303341" lon="34.0013964102"><ele>174.62</ele><time>2026-04-17T14:47:55Z</time></trkpt><trkpt lat="57.8964371234" lon="34.0014667343"><ele>174.62</ele><time>2026-04-17T14:48:08Z</time></trkpt><trkpt lat="57.8964553960" lon="34.0015014354"><ele>174.62</ele><time>2026-04-17T14:48:10Z</time></trkpt><trkpt lat="57.8965113871" lon="34.0016798861"><ele>174.62</ele><time>2026-04-17T14:48:21Z</time></trkpt><trkpt lat="57.8965852316" lon="34.0018360410"><ele>175.10</ele><time>2026-04-17T14:48:32Z</time></trkpt><trkpt lat="57.8966748342" lon="34.0018164273"><ele>175.10</ele><time>2026-04-17T14:48:41Z</time></trkpt><trkpt lat="57.8967317473" lon="34.0019248053"><ele>175.10</ele><time>2026-04-17T14:48:53Z</time></trkpt><trkpt lat="57.8967553005" lon="34.0019898489"><ele>175.10</ele><time>2026-04-17T14:49:07Z</time></trkpt><trkpt lat="57.8968028259" lon="34.0020108037"><ele>175.58</ele><time>2026-04-17T14:49:12Z</time></trkpt><trkpt lat="57.8969559632" lon="34.0020384640"><ele>175.58</ele><time>2026-04-17T14:49:24Z</time></trkpt><trkpt lat="57.8970719688" lon="34.0022259671"><ele>175.58</ele><time>2026-04-17T14:49:39Z</time></trkpt><trkpt lat="57.8971686959" lon="34.0023812000"><ele>175.58</ele><time>2026-04-17T14:49:53Z</time></trkpt><trkpt lat="57.8972737212" lon="34.0024609119"><ele>176.06</ele><time>2026-04-17T14:50:07Z</time></trkpt><trkpt lat="57.8972875513" lon="34.0024780110"><ele>176.06</ele><time>2026-04-17T14:50:11Z</time></trkpt><trkpt lat="57.8973573726" lon="34.0025398694"><ele>176.06</ele><time>2026-04-17T14:50:21Z</time></trkpt><trkpt lat="57.8974159621" lon="34.0025442280"><ele>176.06</ele><time>2026-04-17T14:50:31Z</time></trkpt><trkpt lat="57.8975585382" lon="34.0026932582"><ele>176.06</ele><time>2026-04-17T14:50:46Z</time></trkpt><trkpt lat="57.8976768907" lon="34.0026721358"><ele>176.06</ele><time>2026-04-17T14:50:54Z</time></trkpt><trkpt lat="57.8977389168" lon="34.0026709624"><ele>176.06</ele><time>2026-04-17T14:50:58Z</time></trkpt><trkpt lat="57.8977781441" lon="34.0027317312"><ele>176.06</ele><time>2026-04-17T14:51:08Z</time></trkpt><trkpt lat="57.8979152720" lon="34.0028016362"><ele>176.54</ele><time>2026-04-17T14:51:26Z</time></trkpt><trkpt lat="57.8981192876" lon="34.0026821103"><ele>176.54</ele><time>2026-04-17T14:51:44Z</time></trkpt><trkpt lat="57.8981444333" lon="34.0026764106"><ele>177.50</ele><time>2026-04-17T14:51:47Z</time></trkpt><trkpt lat="57.8982601874" lon="34.0027788375"><ele>177.50</ele><time>2026-04-17T14:51:58Z</time></trkpt><trkpt lat="57.8983950522" lon="34.0027449746"><ele>177.50</ele><time>2026-04-17T14:52:13Z</time></trkpt><trkpt lat="57.8985181823" lon="34.0027551167"><ele>177.98</ele><time>2026-04-17T14:52:27Z</time></trkpt><trkpt lat="57.8986368701" lon="34.0029323101"><ele>177.98</ele><time>2026-04-17T14:52:43Z</time></trkpt><trkpt lat="57.8987568989" lon="34.0030899737"><ele>177.98</ele><time>2026-04-17T14:52:58Z</time></trkpt><trkpt lat="57.8989269678" lon="34.0031697694"><ele>177.02</ele><time>2026-04-17T14:53:14Z</time></trkpt><trkpt lat="57.8990122117" lon="34.0031136945"><ele>177.02</ele><time>2026-04-17T14:53:24Z</time></trkpt><trkpt lat="57.8990801051" lon="34.0031003673"><ele>177.02</ele><time>2026-04-17T14:53:37Z</time></trkpt><trkpt lat="57.8992307279" lon="34.0031205676"><ele>177.02</ele><time>2026-04-17T14:53:55Z</time></trkpt><trkpt lat="57.8993165586" lon="34.0032330528"><ele>177.02</ele><time>2026-04-17T14:54:07Z</time></trkpt><trkpt lat="57.8994086757" lon="34.0035401657"><ele>176.54</ele><time>2026-04-17T14:54:24Z</time></trkpt><trkpt lat="57.8994222544" lon="34.0035646409"><ele>176.54</ele><time>2026-04-17T14:54:26Z</time></trkpt><trkpt lat="57.8994396050" lon="34.0035905410"><ele>176.54</ele><time>2026-04-17T14:54:28Z</time></trkpt><trkpt lat="57.8995073307" lon="34.0035766270"><ele>176.54</ele><time>2026-04-17T14:54:42Z</time></trkpt><trkpt lat="57.8995809238" lon="34.0035871882"><ele>176.06</ele><time>2026-04-17T14:54:59Z</time></trkpt><trkpt lat="57.8995894734" lon="34.0035791416"><ele>176.06</ele><time>2026-04-17T14:55:00Z</time></trkpt><trkpt lat="57.8997458797" lon="34.0033646487"><ele>176.06</ele><time>2026-04-17T14:55:19Z</time></trkpt><trkpt lat="57.8998943232" lon="34.0033114236"><ele>175.58</ele><time>2026-04-17T14:55:33Z</time></trkpt><trkpt lat="57.9000926390" lon="34.0032068174"><ele>175.58</ele><time>2026-04-17T14:55:53Z</time></trkpt><trkpt lat="57.9002470337" lon="34.0031474736"><ele>175.58</ele><time>2026-04-17T14:56:08Z</time></trkpt><trkpt lat="57.9003383964" lon="34.0031571127"><ele>175.58</ele><time>2026-04-17T14:56:16Z</time></trkpt><trkpt lat="57.9004496243" lon="34.0032988507"><ele>175.58</ele><time>2026-04-17T14:56:28Z</time></trkpt><trkpt lat="57.9005357902" lon="34.0034839232"><ele>175.58</ele><time>2026-04-17T14:56:41Z</time></trkpt><trkpt lat="57.9005363770" lon="34.0035014413"><ele>175.58</ele><time>2026-04-17T14:56:42Z</time></trkpt><trkpt lat="57.9005790409" lon="34.0037660580"><ele>175.58</ele><time>2026-04-17T14:56:58Z</time></trkpt><trkpt lat="57.9005731735" lon="34.0040611848"><ele>175.58</ele><time>2026-04-17T14:57:14Z</time></trkpt><trkpt lat="57.9005596787" lon="34.0043112170"><ele>175.58</ele><time>2026-04-17T14:57:28Z</time></trkpt><trkpt lat="57.9005710781" lon="34.0045602433"><ele>175.58</ele><time>2026-04-17T14:57:42Z</time></trkpt><trkpt lat="57.9006352834" lon="34.0049040690"><ele>175.58</ele><time>2026-04-17T14:57:56Z</time></trkpt><trkpt lat="57.9006372951" lon="34.0051394328"><ele>175.10</ele><time>2026-04-17T14:58:09Z</time></trkpt><trkpt lat="57.9005599301" lon="34.0054697637"><ele>175.10</ele><time>2026-04-17T14:58:26Z</time></trkpt><trkpt lat="57.9005061183" lon="34.0056183748"><ele>175.10</ele><time>2026-04-17T14:58:39Z</time></trkpt><trkpt lat="57.9003325291" lon="34.0058078058"><ele>175.10</ele><time>2026-04-17T14:58:56Z</time></trkpt><trkpt lat="57.9002963193" lon="34.0059088916"><ele>175.10</ele><time>2026-04-17T14:59:02Z</time></trkpt><trkpt lat="57.9002346285" lon="34.0061620250"><ele>175.10</ele><time>2026-04-17T14:59:17Z</time></trkpt><trkpt lat="57.9001737759" lon="34.0064947028"><ele>175.10</ele><time>2026-04-17T14:59:32Z</time></trkpt><trkpt lat="57.9001326207" lon="34.0067226905"><ele>176.06</ele><time>2026-04-17T14:59:46Z</time></trkpt><trkpt lat="57.9001220595" lon="34.0068106167"><ele>175.58</ele><time>2026-04-17T15:00:02Z</time></trkpt><trkpt lat="57.9001192097" lon="34.0068249498"><ele>176.06</ele><time>2026-04-17T15:00:20Z</time></trkpt><trkpt lat="57.9001084808" lon="34.0068254527"><ele>176.06</ele><time>2026-04-17T15:00:25Z</time></trkpt></trkseg><trkseg><trkpt lat="59.2522088718" lon="29.9321871065"><ele>150.58</ele><time>2026-04-22T07:23:45Z</time></trkpt><trkpt lat="59.2510874569" lon="29.9319580290"><ele>151.06</ele><time>2026-04-22T07:23:53Z</time></trkpt><trkpt lat="59.2487982754" lon="29.9315032270"><ele>150.58</ele><time>2026-04-22T07:24:09Z</time></trkpt><trkpt lat="59.2467803322" lon="29.9310921784"><ele>150.10</ele><time>2026-04-22T07:24:24Z</time></trkpt><trkpt lat="59.2448478006" lon="29.9307088740"><ele>150.10</ele><time>2026-04-22T07:24:38Z</time></trkpt><trkpt lat="59.2425397597" lon="29.9302717578"><ele>152.99</ele><time>2026-04-22T07:24:52Z</time></trkpt><trkpt lat="59.2415869888" lon="29.9300885294"><ele>156.35</ele><time>2026-04-22T07:24:57Z</time></trkpt><trkpt lat="59.2382245045" lon="29.9294444639"><ele>158.75</ele><time>2026-04-22T07:25:14Z</time></trkpt><trkpt lat="59.2346729245" lon="29.9287147354"><ele>160.68</ele><time>2026-04-22T07:25:32Z</time></trkpt><trkpt lat="59.2319441959" lon="29.9282528087"><ele>161.64</ele><time>2026-04-22T07:25:47Z</time></trkpt><trkpt lat="59.2283738405" lon="29.9275224097"><ele>161.64</ele><time>2026-04-22T07:26:06Z</time></trkpt><trkpt lat="59.2254374083" lon="29.9269713834"><ele>161.16</ele><time>2026-04-22T07:26:21Z</time></trkpt><trkpt lat="59.2220584117" lon="29.9262986518"><ele>160.68</ele><time>2026-04-22T07:26:36Z</time></trkpt><trkpt lat="59.2169225682" lon="29.9252513330"><ele>165.00</ele><time>2026-04-22T07:26:58Z</time></trkpt><trkpt lat="59.2166973464" lon="29.9252701923"><ele>165.00</ele><time>2026-04-22T07:26:59Z</time></trkpt><trkpt lat="59.2140318174" lon="29.9247631710"><ele>163.08</ele><time>2026-04-22T07:27:12Z</time></trkpt><trkpt lat="59.2135868222" lon="29.9246306531"><ele>161.64</ele><time>2026-04-22T07:27:15Z</time></trkpt><trkpt lat="59.2134613451" lon="29.9245578982"><ele>160.68</ele><time>2026-04-22T07:27:16Z</time></trkpt><trkpt lat="59.2133527994" lon="29.9244479276"><ele>159.72</ele><time>2026-04-22T07:27:17Z</time></trkpt><trkpt lat="59.2131529748" lon="29.9242323451"><ele>157.31</ele><time>2026-04-22T07:27:19Z</time></trkpt><trkpt lat="59.2130485363" lon="29.9241434969"><ele>156.83</ele><time>2026-04-22T07:27:20Z</time></trkpt><trkpt lat="59.2129388172" lon="29.9240953848"><ele>155.87</ele><time>2026-04-22T07:27:21Z</time></trkpt><trkpt lat="59.2128228117" lon="29.9240698200"><ele>155.39</ele><time>2026-04-22T07:27:22Z</time></trkpt><trkpt lat="59.2126997653" lon="29.9240537267"><ele>155.87</ele><time>2026-04-22T07:27:23Z</time></trkpt><trkpt lat="59.2124643177" lon="29.9240460154"><ele>154.91</ele><time>2026-04-22T07:27:25Z</time></trkpt><trkpt lat="59.2123464681" lon="29.9240740109"><ele>155.39</ele><time>2026-04-22T07:27:26Z</time></trkpt><trkpt lat="59.2122299597" lon="29.9241332710"><ele>155.39</ele><time>2026-04-22T07:27:27Z</time></trkpt><trkpt lat="59.2121067457" lon="29.9241984822"><ele>154.91</ele><time>2026-04-22T07:27:28Z</time></trkpt><trkpt lat="59.2119807657" lon="29.9242282379"><ele>154.91</ele><time>2026-04-22T07:27:29Z</time></trkpt><trkpt lat="59.2118501756" lon="29.9242291600"><ele>154.91</ele><time>2026-04-22T07:27:30Z</time></trkpt><trkpt lat="59.2117098626" lon="29.9242009968"><ele>154.91</ele><time>2026-04-22T07:27:31Z</time></trkpt><trkpt lat="59.2103369907" lon="29.9239002541"><ele>156.83</ele><time>2026-04-22T07:27:39Z</time></trkpt><trkpt lat="59.2077857908" lon="29.9231562763"><ele>159.24</ele><time>2026-04-22T07:27:52Z</time></trkpt><trkpt lat="59.2053671088" lon="29.9229405262"><ele>159.24</ele><time>2026-04-22T07:28:04Z</time></trkpt><trkpt lat="59.2035507504" lon="29.9227048270"><ele>159.24</ele><time>2026-04-22T07:28:14Z</time></trkpt><trkpt lat="59.2010687012" lon="29.9222201016"><ele>158.75</ele><time>2026-04-22T07:28:29Z</time></trkpt><trkpt lat="59.1981994919" lon="29.9216667283"><ele>157.31</ele><time>2026-04-22T07:28:48Z</time></trkpt><trkpt lat="59.1956538241" lon="29.9212449510"><ele>155.39</ele><time>2026-04-22T07:29:05Z</time></trkpt><trkpt lat="59.1942742467" lon="29.9209974334"><ele>154.43</ele><time>2026-04-22T07:29:13Z</time></trkpt><trkpt lat="59.1915145051" lon="29.9203973729"><ele>154.91</ele><time>2026-04-22T07:29:26Z</time></trkpt><trkpt lat="59.1888541728" lon="29.9198687263"><ele>157.79</ele><time>2026-04-22T07:29:37Z</time></trkpt><trkpt lat="59.1789674666" lon="29.9178962130"><ele>159.72</ele><time>2026-04-22T07:30:18Z</time></trkpt><trkpt lat="59.1779331397" lon="29.9177456740"><ele>156.35</ele><time>2026-04-22T07:30:23Z</time></trkpt><trkpt lat="59.1775741428" lon="29.9177122302"><ele>155.39</ele><time>2026-04-22T07:30:25Z</time></trkpt><trkpt lat="59.1765896045" lon="29.9176466838"><ele>152.03</ele><time>2026-04-22T07:30:31Z</time></trkpt><trkpt lat="59.1653493047" lon="29.9151755311"><ele>149.62</ele><time>2026-04-22T07:31:38Z</time></trkpt><trkpt lat="59.1652907152" lon="29.9152635410"><ele>149.62</ele><time>2026-04-22T07:31:39Z</time></trkpt><trkpt lat="59.1550357919" lon="29.9131686520"><ele>146.74</ele><time>2026-04-22T07:32:40Z</time></trkpt><trkpt lat="59.1543985996" lon="29.9130753614"><ele>146.74</ele><time>2026-04-22T07:32:44Z</time></trkpt><trkpt lat="59.1460047942" lon="29.9124202318"><ele>148.18</ele><time>2026-04-22T07:33:32Z</time></trkpt><trkpt lat="59.1427043360" lon="29.9124872033"><ele>148.66</ele><time>2026-04-22T07:33:47Z</time></trkpt><trkpt lat="59.1424405575" lon="29.9124923162"><ele>148.66</ele><time>2026-04-22T07:33:48Z</time></trkpt><trkpt lat="59.1347765643" lon="29.9125820026"><ele>150.10</ele><time>2026-04-22T07:34:20Z</time></trkpt><trkpt lat="59.1320612468" lon="29.9125437811"><ele>147.70</ele><time>2026-04-22T07:34:31Z</time></trkpt><trkpt lat="59.1182212997" lon="29.9145530071"><ele>141.45</ele><time>2026-04-22T07:35:26Z</time></trkpt><trkpt lat="59.1177465487" lon="29.9145701900"><ele>141.45</ele><time>2026-04-22T07:35:28Z</time></trkpt><trkpt lat="59.1174785793" lon="29.9145993590"><ele>141.45</ele><time>2026-04-22T07:35:29Z</time></trkpt><trkpt lat="59.1158852633" lon="29.9148418475"><ele>140.97</ele><time>2026-04-22T07:35:36Z</time></trkpt><trkpt lat="59.1130165569" lon="29.9152151775"><ele>139.53</ele><time>2026-04-22T07:35:48Z</time></trkpt><trkpt lat="59.1122312564" lon="29.9153003376"><ele>138.57</ele><time>2026-04-22T07:35:52Z</time></trkpt><trkpt lat="59.0940696839" lon="29.9210285302"><ele>134.24</ele><time>2026-04-22T07:39:24Z</time></trkpt><trkpt lat="59.0942742862" lon="29.9216690753"><ele>134.24</ele><time>2026-04-22T07:39:31Z</time></trkpt><trkpt lat="59.0954298992" lon="29.9267335050"><ele>135.20</ele><time>2026-04-22T07:40:46Z</time></trkpt><trkpt lat="59.0964996815" lon="29.9343676586"><ele>135.68</ele><time>2026-04-22T07:42:48Z</time></trkpt><trkpt lat="59.0966233984" lon="29.9354058411"><ele>135.20</ele><time>2026-04-22T07:42:58Z</time></trkpt><trkpt lat="59.0966053773" lon="29.9361991044"><ele>134.72</ele><time>2026-04-22T07:43:14Z</time></trkpt><trkpt lat="59.0965653956" lon="29.9367993325"><ele>134.72</ele><time>2026-04-22T07:43:25Z</time></trkpt><trkpt lat="59.0965646412" lon="29.9370161723"><ele>134.72</ele><time>2026-04-22T07:43:27Z</time></trkpt><trkpt lat="59.0965073090" lon="29.9373367801"><ele>134.72</ele><time>2026-04-22T07:43:30Z</time></trkpt><trkpt lat="59.0963043831" lon="29.9387593567"><ele>134.24</ele><time>2026-04-22T07:43:43Z</time></trkpt><trkpt lat="59.0962440334" lon="29.9396763369"><ele>135.20</ele><time>2026-04-22T07:43:55Z</time></trkpt><trkpt lat="59.0962117631" lon="29.9404724501"><ele>134.24</ele><time>2026-04-22T07:44:07Z</time></trkpt><trkpt lat="59.0961659979" lon="29.9411922880"><ele>134.24</ele><time>2026-04-22T07:44:19Z</time></trkpt><trkpt lat="59.0960427839" lon="29.9420122895"><ele>133.76</ele><time>2026-04-22T07:44:32Z</time></trkpt><trkpt lat="59.0960244276" lon="29.9426294491"><ele>133.28</ele><time>2026-04-22T07:44:45Z</time></trkpt><trkpt lat="59.0959447157" lon="29.9432288390"><ele>132.80</ele><time>2026-04-22T07:44:56Z</time></trkpt><trkpt lat="59.0958921611" lon="29.9440255389"><ele>132.32</ele><time>2026-04-22T07:45:07Z</time></trkpt><trkpt lat="59.0958160535" lon="29.9447483942"><ele>131.84</ele><time>2026-04-22T07:45:20Z</time></trkpt><trkpt lat="59.0957826097" lon="29.9453285895"><ele>131.36</ele><time>2026-04-22T07:45:34Z</time></trkpt><trkpt lat="59.0956643410" lon="29.9464129563"><ele>131.36</ele><time>2026-04-22T07:45:47Z</time></trkpt><trkpt lat="59.0956246108" lon="29.9469425250"><ele>130.88</ele><time>2026-04-22T07:45:58Z</time></trkpt><trkpt lat="59.0955614112" lon="29.9479120597"><ele>130.40</ele><time>2026-04-22T07:46:13Z</time></trkpt><trkpt lat="59.0954857226" lon="29.9484645110"><ele>128.95</ele><time>2026-04-22T07:46:26Z</time></trkpt><trkpt lat="59.0954697970" lon="29.9491174612"><ele>128.47</ele><time>2026-04-22T07:46:40Z</time></trkpt><trkpt lat="59.0953662805" lon="29.9499357026"><ele>127.99</ele><time>2026-04-22T07:46:52Z</time></trkpt><trkpt lat="59.0953528695" lon="29.9500143249"><ele>127.99</ele><time>2026-04-22T07:46:53Z</time></trkpt><trkpt lat="59.0952677932" lon="29.9507396948"><ele>127.51</ele><time>2026-04-22T07:47:05Z</time></trkpt><trkpt lat="59.0951594990" lon="29.9518153444"><ele>127.03</ele><time>2026-04-22T07:47:19Z</time></trkpt><trkpt lat="59.0951066930" lon="29.9526481703"><ele>126.55</ele><time>2026-04-22T07:47:31Z</time></trkpt><trkpt lat="59.0950813796" lon="29.9529900681"><ele>126.55</ele><time>2026-04-22T07:47:35Z</time></trkpt><trkpt lat="59.0950728301" lon="29.9530701991"><ele>126.55</ele><time>2026-04-22T07:47:36Z</time></trkpt><trkpt lat="59.0950373746" lon="29.9537531566"><ele>125.59</ele><time>2026-04-22T07:47:48Z</time></trkpt><trkpt lat="59.0949517954" lon="29.9544937816"><ele>125.59</ele><time>2026-04-22T07:47:59Z</time></trkpt><trkpt lat="59.0948806331" lon="29.9553231709"><ele>124.15</ele><time>2026-04-22T07:48:11Z</time></trkpt><trkpt lat="59.0948700719" lon="29.9554177187"><ele>124.15</ele><time>2026-04-22T07:48:12Z</time></trkpt><trkpt lat="59.0947900247" lon="29.9563626945"><ele>123.67</ele><time>2026-04-22T07:48:24Z</time></trkpt><trkpt lat="59.0947026014" lon="29.9573411979"><ele>123.19</ele><time>2026-04-22T07:48:37Z</time></trkpt><trkpt lat="59.0946378093" lon="29.9580856785"><ele>122.22</ele><time>2026-04-22T07:48:49Z</time></trkpt><trkpt lat="59.0945166908" lon="29.9592770822"><ele>121.74</ele><time>2026-04-22T07:49:02Z</time></trkpt><trkpt lat="59.0944375657" lon="29.9600555934"><ele>121.26</ele><time>2026-04-22T07:49:13Z</time></trkpt><trkpt lat="59.0943785571" lon="29.9607495312"><ele>120.78</ele><time>2026-04-22T07:49:24Z</time></trkpt><trkpt lat="59.0943517350" lon="29.9614416249"><ele>120.78</ele><time>2026-04-22T07:49:35Z</time></trkpt><trkpt lat="59.0942415968" lon="29.9625577591"><ele>120.30</ele><time>2026-04-22T07:49:49Z</time></trkpt><trkpt lat="59.0942244139" lon="29.9628463481"><ele>120.30</ele><time>2026-04-22T07:49:52Z</time></trkpt><trkpt lat="59.0941224061" lon="29.9641219061"><ele>119.82</ele><time>2026-04-22T07:50:06Z</time></trkpt><trkpt lat="59.0941207297" lon="29.9642228242"><ele>119.82</ele><time>2026-04-22T07:50:07Z</time></trkpt><trkpt lat="59.0941207297" lon="29.9643300287"><ele>119.82</ele><time>2026-04-22T07:50:08Z</time></trkpt><trkpt lat="59.0941127669" lon="29.9644316174"><ele>119.82</ele><time>2026-04-22T07:50:09Z</time></trkpt><trkpt lat="59.0940486453" lon="29.9649939593"><ele>119.34</ele><time>2026-04-22T07:50:19Z</time></trkpt><trkpt lat="59.0939667542" lon="29.9657673575"><ele>118.86</ele><time>2026-04-22T07:50:32Z</time></trkpt><trkpt lat="59.0938689373" lon="29.9667796399"><ele>118.86</ele><time>2026-04-22T07:50:44Z</time></trkpt><trkpt lat="59.0937510040" lon="29.9679719657"><ele>118.38</ele><time>2026-04-22T07:50:58Z</time></trkpt><trkpt lat="59.0937076695" lon="29.9685498141"><ele>117.42</ele><time>2026-04-22T07:51:07Z</time></trkpt><trkpt lat="59.0936595574" lon="29.9692063686"><ele>116.94</ele><time>2026-04-22T07:51:21Z</time></trkpt><trkpt lat="59.0935643390" lon="29.9700861331"><ele>116.46</ele><time>2026-04-22T07:51:32Z</time></trkpt><trkpt lat="59.0934076812" lon="29.9720125459"><ele>115.98</ele><time>2026-04-22T07:51:49Z</time></trkpt><trkpt lat="59.0932603274" lon="29.9739223626"><ele>115.50</ele><time>2026-04-22T07:52:05Z</time></trkpt><trkpt lat="59.0932174958" lon="29.9746940844"><ele>115.01</ele><time>2026-04-22T07:52:18Z</time></trkpt><trkpt lat="59.0931511950" lon="29.9755795486"><ele>114.05</ele><time>2026-04-22T07:52:33Z</time></trkpt><trkpt lat="59.0930681303" lon="29.9769291189"><ele>113.57</ele><time>2026-04-22T07:52:45Z</time></trkpt><trkpt lat="59.0929325111" lon="29.9782428984"><ele>112.61</ele><time>2026-04-22T07:52:58Z</time></trkpt><trkpt lat="59.0928574093" lon="29.9789625686"><ele>111.65</ele><time>2026-04-22T07:53:12Z</time></trkpt><trkpt lat="59.0927845705" lon="29.9796563387"><ele>111.17</ele><time>2026-04-22T07:53:24Z</time></trkpt><trkpt lat="59.0927120671" lon="29.9804463331"><ele>111.17</ele><time>2026-04-22T07:53:36Z</time></trkpt><trkpt lat="59.0926777851" lon="29.9809461460"><ele>110.21</ele><time>2026-04-22T07:53:50Z</time></trkpt><trkpt lat="59.0926197823" lon="29.9814281892"><ele>109.73</ele><time>2026-04-22T07:54:04Z</time></trkpt><trkpt lat="59.0925564151" lon="29.9821051955"><ele>109.73</ele><time>2026-04-22T07:54:22Z</time></trkpt><trkpt lat="59.0924902819" lon="29.9827309046"><ele>109.25</ele><time>2026-04-22T07:54:38Z</time></trkpt><trkpt lat="59.0924331173" lon="29.9833650794"><ele>108.77</ele><time>2026-04-22T07:54:53Z</time></trkpt><trkpt lat="59.0923767909" lon="29.9839293491"><ele>108.77</ele><time>2026-04-22T07:55:06Z</time></trkpt><trkpt lat="59.0923378151" lon="29.9843086302"><ele>108.29</ele><time>2026-04-22T07:55:18Z</time></trkpt><trkpt lat="59.0923084784" lon="29.9849783443"><ele>107.32</ele><time>2026-04-22T07:55:35Z</time></trkpt><trkpt lat="59.0922326222" lon="29.9855515826"><ele>107.32</ele><time>2026-04-22T07:55:50Z</time></trkpt><trkpt lat="59.0921992622" lon="29.9861962348"><ele>106.84</ele><time>2026-04-22T07:56:06Z</time></trkpt><trkpt lat="59.0921903774" lon="29.9865214527"><ele>106.36</ele><time>2026-04-22T07:56:21Z</time></trkpt><trkpt lat="59.0921994299" lon="29.9865098018"><ele>104.92</ele><time>2026-04-22T07:57:09Z</time></trkpt><trkpt lat="59.0921980888" lon="29.9865027610"><ele>104.44</ele><time>2026-04-22T07:57:29Z</time></trkpt><trkpt lat="59.0922050457" lon="29.9865020905"><ele>102.04</ele><time>2026-04-22T08:01:39Z</time></trkpt><trkpt lat="59.0921681654" lon="29.9865582492"><ele>100.60</ele><time>2026-04-22T08:03:45Z</time></trkpt><trkpt lat="59.0921971668" lon="29.9865068682"><ele>98.67</ele><time>2026-04-22T08:06:02Z</time></trkpt><trkpt lat="59.0921916347" lon="29.9865223747"><ele>98.19</ele><time>2026-04-22T08:06:29Z</time></trkpt><trkpt lat="59.0922327060" lon="29.9865416531"><ele>96.27</ele><time>2026-04-22T08:10:58Z</time></trkpt><trkpt lat="59.0922094043" lon="29.9864912778"><ele>92.90</ele><time>2026-04-22T08:14:30Z</time></trkpt><trkpt lat="59.0921928920" lon="29.9864825606"><ele>92.90</ele><time>2026-04-22T08:14:43Z</time></trkpt><trkpt lat="59.0922048781" lon="29.9864557385"><ele>92.90</ele><time>2026-04-22T08:14:55Z</time></trkpt><trkpt lat="59.0922052972" lon="29.9864661321"><ele>92.42</ele><time>2026-04-22T08:15:08Z</time></trkpt><trkpt lat="59.0921961609" lon="29.9864166789"><ele>91.94</ele><time>2026-04-22T08:15:52Z</time></trkpt><trkpt lat="59.0921904612" lon="29.9864708260"><ele>92.42</ele><time>2026-04-22T08:16:06Z</time></trkpt><trkpt lat="59.0922015253" lon="29.9865288287"><ele>92.42</ele><time>2026-04-22T08:16:23Z</time></trkpt><trkpt lat="59.0922008548" lon="29.9865663797"><ele>91.94</ele><time>2026-04-22T08:16:43Z</time></trkpt><trkpt lat="59.0921931434" lon="29.9865146633"><ele>91.94</ele><time>2026-04-22T08:16:47Z</time></trkpt><trkpt lat="59.0921850130" lon="29.9864735920"><ele>91.94</ele><time>2026-04-22T08:17:00Z</time></trkpt><trkpt lat="59.0921803191" lon="29.9864618573"><ele>91.94</ele><time>2026-04-22T08:17:03Z</time></trkpt><trkpt lat="59.0921744518" lon="29.9864908587"><ele>91.94</ele><time>2026-04-22T08:17:18Z</time></trkpt></trkseg><trkseg><trkpt lat="59.0921575204" lon="29.9864273239"><ele>91.94</ele><time>2026-04-22T08:17:54Z</time></trkpt><trkpt lat="59.0921575204" lon="29.9864464346"><ele>91.94</ele><time>2026-04-22T08:18:00Z</time></trkpt><trkpt lat="59.0921735298" lon="29.9864724185"><ele>91.94</ele><time>2026-04-22T08:18:10Z</time></trkpt><trkpt lat="59.0921949036" lon="29.9865006655"><ele>91.94</ele><time>2026-04-22T08:18:24Z</time></trkpt><trkpt lat="59.0922072250" lon="29.9865015037"><ele>91.46</ele><time>2026-04-22T08:18:57Z</time></trkpt><trkpt lat="59.0921840910" lon="29.9865274038"><ele>90.98</ele><time>2026-04-22T08:19:26Z</time></trkpt><trkpt lat="59.0921861865" lon="29.9865255598"><ele>90.50</ele><time>2026-04-22T08:20:04Z</time></trkpt><trkpt lat="59.0921809897" lon="29.9864818901"><ele>90.02</ele><time>2026-04-22T08:20:24Z</time></trkpt><trkpt lat="59.0921758767" lon="29.9864718318"><ele>90.02</ele><time>2026-04-22T08:20:43Z</time></trkpt><trkpt lat="59.0921740327" lon="29.9864569120"><ele>90.02</ele><time>2026-04-22T08:20:59Z</time></trkpt><trkpt lat="59.0921875276" lon="29.9864651263"><ele>89.54</ele><time>2026-04-22T08:21:19Z</time></trkpt><trkpt lat="59.0921858512" lon="29.9864672218"><ele>90.02</ele><time>2026-04-22T08:21:39Z</time></trkpt><trkpt lat="59.0921934787" lon="29.9864777829"><ele>90.02</ele><time>2026-04-22T08:21:56Z</time></trkpt><trkpt lat="59.0922241565" lon="29.9864670541"><ele>90.02</ele><time>2026-04-22T08:22:11Z</time></trkpt><trkpt lat="59.0922161099" lon="29.9864763580"><ele>90.02</ele><time>2026-04-22T08:22:27Z</time></trkpt><trkpt lat="59.0921847615" lon="29.9864832312"><ele>89.54</ele><time>2026-04-22T08:22:43Z</time></trkpt><trkpt lat="59.0921838395" lon="29.9864595104"><ele>89.54</ele><time>2026-04-22T08:23:05Z</time></trkpt><trkpt lat="59.0921767987" lon="29.9864685629"><ele>89.06</ele><time>2026-04-22T08:23:23Z</time></trkpt><trkpt lat="59.0921978373" lon="29.9864978157"><ele>89.06</ele><time>2026-04-22T08:23:49Z</time></trkpt><trkpt lat="59.0922157746" lon="29.9864671379"><ele>88.58</ele><time>2026-04-22T08:24:18Z</time></trkpt><trkpt lat="59.0922658984" lon="29.9864990730"><ele>88.58</ele><time>2026-04-22T08:24:38Z</time></trkpt><trkpt lat="59.0922473744" lon="29.9865920283"><ele>88.58</ele><time>2026-04-22T08:24:59Z</time></trkpt><trkpt lat="59.0922638029" lon="29.9866985623"><ele>88.58</ele><time>2026-04-22T08:25:16Z</time></trkpt><trkpt lat="59.0923043713" lon="29.9868245423"><ele>88.58</ele><time>2026-04-22T08:25:23Z</time></trkpt><trkpt lat="59.0923084784" lon="29.9868528731"><ele>88.58</ele><time>2026-04-22T08:25:24Z</time></trkpt><trkpt lat="59.0923138428" lon="29.9868812878"><ele>88.58</ele><time>2026-04-22T08:25:25Z</time></trkpt><trkpt lat="59.0923176147" lon="29.9869078584"><ele>88.58</ele><time>2026-04-22T08:25:26Z</time></trkpt><trkpt lat="59.0923249908" lon="29.9870687071"><ele>88.10</ele><time>2026-04-22T08:25:37Z</time></trkpt><trkpt lat="59.0923935547" lon="29.9874954298"><ele>88.10</ele><time>2026-04-22T08:25:53Z</time></trkpt><trkpt lat="59.0924119111" lon="29.9874875508"><ele>88.10</ele><time>2026-04-22T08:26:05Z</time></trkpt><trkpt lat="59.0924210474" lon="29.9875209108"><ele>88.10</ele><time>2026-04-22T08:26:10Z</time></trkpt><trkpt lat="59.0924301837" lon="29.9876248464"><ele>88.10</ele><time>2026-04-22T08:26:14Z</time></trkpt><trkpt lat="59.0924737696" lon="29.9878631439"><ele>87.62</ele><time>2026-04-22T08:26:23Z</time></trkpt><trkpt lat="59.0925159305" lon="29.9880755413"><ele>87.62</ele><time>2026-04-22T08:26:31Z</time></trkpt><trkpt lat="59.0925351251" lon="29.9881451111"><ele>87.62</ele><time>2026-04-22T08:26:34Z</time></trkpt><trkpt lat="59.0925822314" lon="29.9883551616"><ele>87.62</ele><time>2026-04-22T08:26:49Z</time></trkpt><trkpt lat="59.0925932117" lon="29.9884084705"><ele>87.62</ele><time>2026-04-22T08:26:59Z</time></trkpt><trkpt lat="59.0926256496" lon="29.9885430839"><ele>87.62</ele><time>2026-04-22T08:27:04Z</time></trkpt><trkpt lat="59.0927322675" lon="29.9889815412"><ele>87.14</ele><time>2026-04-22T08:27:22Z</time></trkpt><trkpt lat="59.0927093010" lon="29.9890351016"><ele>87.14</ele><time>2026-04-22T08:27:35Z</time></trkpt><trkpt lat="59.0927545633" lon="29.9892771710"><ele>87.14</ele><time>2026-04-22T08:27:53Z</time></trkpt><trkpt lat="59.0927624423" lon="29.9893586431"><ele>87.14</ele><time>2026-04-22T08:27:56Z</time></trkpt><trkpt lat="59.0928186011" lon="29.9896041490"><ele>86.66</ele><time>2026-04-22T08:28:08Z</time></trkpt><trkpt lat="59.0928693116" lon="29.9899128545"><ele>86.66</ele><time>2026-04-22T08:28:21Z</time></trkpt><trkpt lat="59.0929352771" lon="29.9902502261"><ele>86.66</ele><time>2026-04-22T08:28:36Z</time></trkpt><trkpt lat="59.0929363668" lon="29.9902762100"><ele>86.66</ele><time>2026-04-22T08:28:37Z</time></trkpt><trkpt lat="59.0929975547" lon="29.9905980751"><ele>86.66</ele><time>2026-04-22T08:28:50Z</time></trkpt><trkpt lat="59.0930065233" lon="29.9907628633"><ele>86.18</ele><time>2026-04-22T08:28:56Z</time></trkpt><trkpt lat="59.0930622630" lon="29.9909565691"><ele>86.18</ele><time>2026-04-22T08:29:05Z</time></trkpt><trkpt lat="59.0931701381" lon="29.9914053362"><ele>86.18</ele><time>2026-04-22T08:29:23Z</time></trkpt><trkpt lat="59.0932335053" lon="29.9917607289"><ele>86.18</ele><time>2026-04-22T08:29:36Z</time></trkpt><trkpt lat="59.0932661947" lon="29.9921469670"><ele>86.18</ele><time>2026-04-22T08:29:51Z</time></trkpt><trkpt lat="59.0933626704" lon="29.9924894515"><ele>85.69</ele><time>2026-04-22T08:30:06Z</time></trkpt><trkpt lat="59.0934100281" lon="29.9929026794"><ele>85.69</ele><time>2026-04-22T08:30:21Z</time></trkpt><trkpt lat="59.0934915002" lon="29.9933320004"><ele>85.69</ele><time>2026-04-22T08:30:36Z</time></trkpt><trkpt lat="59.0935162269" lon="29.9934348464"><ele>85.21</ele><time>2026-04-22T08:30:40Z</time></trkpt><trkpt lat="59.0936233476" lon="29.9937657639"><ele>85.21</ele><time>2026-04-22T08:30:56Z</time></trkpt><trkpt lat="59.0936995391" lon="29.9941099249"><ele>85.21</ele><time>2026-04-22T08:31:11Z</time></trkpt><trkpt lat="59.0937027242" lon="29.9942201469"><ele>85.21</ele><time>2026-04-22T08:31:15Z</time></trkpt><trkpt lat="59.0936957672" lon="29.9946888629"><ele>85.21</ele><time>2026-04-22T08:31:33Z</time></trkpt><trkpt lat="59.0937528480" lon="29.9951399770"><ele>84.73</ele><time>2026-04-22T08:31:51Z</time></trkpt><trkpt lat="59.0938385110" lon="29.9955090322"><ele>84.73</ele><time>2026-04-22T08:32:09Z</time></trkpt><trkpt lat="59.0939318016" lon="29.9960392714"><ele>84.25</ele><time>2026-04-22T08:32:30Z</time></trkpt><trkpt lat="59.0939634014" lon="29.9962276965"><ele>84.25</ele><time>2026-04-22T08:32:37Z</time></trkpt><trkpt lat="59.0940846875" lon="29.9966075644"><ele>84.25</ele><time>2026-04-22T08:32:55Z</time></trkpt><trkpt lat="59.0941193886" lon="29.9971398991"><ele>84.25</ele><time>2026-04-22T08:33:14Z</time></trkpt><trkpt lat="59.0941955801" lon="29.9975547194"><ele>83.77</ele><time>2026-04-22T08:33:30Z</time></trkpt><trkpt lat="59.0943175368" lon="29.9980569631"><ele>84.25</ele><time>2026-04-22T08:33:49Z</time></trkpt><trkpt lat="59.0944274236" lon="29.9983934965"><ele>84.25</ele><time>2026-04-22T08:34:04Z</time></trkpt><trkpt lat="59.0944210533" lon="29.9988155253"><ele>84.25</ele><time>2026-04-22T08:34:19Z</time></trkpt><trkpt lat="59.0945031960" lon="29.9992628675"><ele>83.77</ele><time>2026-04-22T08:34:36Z</time></trkpt><trkpt lat="59.0946021024" lon="29.9998371955"><ele>84.25</ele><time>2026-04-22T08:34:56Z</time></trkpt><trkpt lat="59.0947096422" lon="30.0003116950"><ele>84.25</ele><time>2026-04-22T08:35:15Z</time></trkpt><trkpt lat="59.0947535634" lon="30.0008307863"><ele>83.77</ele><time>2026-04-22T08:35:33Z</time></trkpt><trkpt lat="59.0948324371" lon="30.0011501368"><ele>83.77</ele><time>2026-04-22T08:35:47Z</time></trkpt><trkpt lat="59.0948780347" lon="30.0015347824"><ele>82.81</ele><time>2026-04-22T08:36:01Z</time></trkpt><trkpt lat="59.0948782861" lon="30.0015996583"><ele>82.33</ele><time>2026-04-22T08:36:03Z</time></trkpt><trkpt lat="59.0948829800" lon="30.0017894246"><ele>82.33</ele><time>2026-04-22T08:36:09Z</time></trkpt><trkpt lat="59.0949782822" lon="30.0020223577"><ele>82.33</ele><time>2026-04-22T08:36:23Z</time></trkpt><trkpt lat="59.0950395539" lon="30.0023661833"><ele>81.37</ele><time>2026-04-22T08:36:36Z</time></trkpt><trkpt lat="59.0950670466" lon="30.0025732163"><ele>81.37</ele><time>2026-04-22T08:36:44Z</time></trkpt><trkpt lat="59.0951312520" lon="30.0028353184"><ele>81.37</ele><time>2026-04-22T08:36:54Z</time></trkpt><trkpt lat="59.0951159969" lon="30.0030046329"><ele>81.37</ele><time>2026-04-22T08:37:00Z</time></trkpt><trkpt lat="59.0951496921" lon="30.0031128433"><ele>81.37</ele><time>2026-04-22T08:37:05Z</time></trkpt><trkpt lat="59.0952304099" lon="30.0035097264"><ele>81.37</ele><time>2026-04-22T08:37:20Z</time></trkpt><trkpt lat="59.0953216888" lon="30.0038265623"><ele>81.37</ele><time>2026-04-22T08:37:33Z</time></trkpt><trkpt lat="59.0953748301" lon="30.0042519439"><ele>81.37</ele><time>2026-04-22T08:37:50Z</time></trkpt><trkpt lat="59.0954029933" lon="30.0044489186"><ele>80.89</ele><time>2026-04-22T08:37:58Z</time></trkpt><trkpt lat="59.0954602417" lon="30.0048824307"><ele>80.89</ele><time>2026-04-22T08:38:14Z</time></trkpt><trkpt lat="59.0955121256" lon="30.0051769707"><ele>80.89</ele><time>2026-04-22T08:38:26Z</time></trkpt><trkpt lat="59.0955517720" lon="30.0053256657"><ele>80.89</ele><time>2026-04-22T08:38:32Z</time></trkpt><trkpt lat="59.0956339985" lon="30.0057109818"><ele>80.89</ele><time>2026-04-22T08:38:45Z</time></trkpt><trkpt lat="59.0956355911" lon="30.0058599282"><ele>80.89</ele><time>2026-04-22T08:38:50Z</time></trkpt><trkpt lat="59.0956561267" lon="30.0059496984"><ele>80.89</ele><time>2026-04-22T08:38:54Z</time></trkpt><trkpt lat="59.0956582222" lon="30.0060193520"><ele>80.89</ele><time>2026-04-22T08:38:57Z</time></trkpt><trkpt lat="59.0956707951" lon="30.0061095413"><ele>80.89</ele><time>2026-04-22T08:39:01Z</time></trkpt><trkpt lat="59.0956858825" lon="30.0061069429"><ele>80.89</ele><time>2026-04-22T08:39:03Z</time></trkpt><trkpt lat="59.0957282111" lon="30.0060707331"><ele>80.41</ele><time>2026-04-22T08:39:07Z</time></trkpt><trkpt lat="59.0957973618" lon="30.0060206931"><ele>80.41</ele><time>2026-04-22T08:39:21Z</time></trkpt><trkpt lat="59.0958453901" lon="30.0061057694"><ele>80.41</ele><time>2026-04-22T08:39:38Z</time></trkpt><trkpt lat="59.0958447196" lon="30.0061334297"><ele>80.41</ele><time>2026-04-22T08:40:03Z</time></trkpt><trkpt lat="59.0958510898" lon="30.0061333459"><ele>79.93</ele><time>2026-04-22T08:40:49Z</time></trkpt><trkpt lat="59.0958682727" lon="30.0061427336"><ele>79.93</ele><time>2026-04-22T08:41:23Z</time></trkpt><trkpt lat="59.0959043987" lon="30.0061325077"><ele>80.89</ele><time>2026-04-22T08:41:29Z</time></trkpt><trkpt lat="59.0959847812" lon="30.0060016662"><ele>80.89</ele><time>2026-04-22T08:41:41Z</time></trkpt><trkpt lat="59.0960138664" lon="30.0059918594"><ele>80.89</ele><time>2026-04-22T08:41:44Z</time></trkpt><trkpt lat="59.0960959252" lon="30.0059188530"><ele>80.89</ele><time>2026-04-22T08:42:01Z</time></trkpt><trkpt lat="59.0962509066" lon="30.0059129018"><ele>80.89</ele><time>2026-04-22T08:42:15Z</time></trkpt><trkpt lat="59.0962947439" lon="30.0058495346"><ele>80.89</ele><time>2026-04-22T08:42:24Z</time></trkpt><trkpt lat="59.0963675827" lon="30.0057101436"><ele>80.41</ele><time>2026-04-22T08:42:39Z</time></trkpt><trkpt lat="59.0964503959" lon="30.0057247281"><ele>80.41</ele><time>2026-04-22T08:42:51Z</time></trkpt><trkpt lat="59.0964564309" lon="30.0057181064"><ele>80.41</ele><time>2026-04-22T08:42:52Z</time></trkpt><trkpt lat="59.0965809859" lon="30.0057251472"><ele>80.89</ele><time>2026-04-22T08:43:04Z</time></trkpt><trkpt lat="59.0966932196" lon="30.0057798810"><ele>80.89</ele><time>2026-04-22T08:43:18Z</time></trkpt><trkpt lat="59.0968784597" lon="30.0056551583"><ele>80.41</ele><time>2026-04-22T08:43:33Z</time></trkpt><trkpt lat="59.0969601832" lon="30.0056042802"><ele>80.41</ele><time>2026-04-22T08:43:40Z</time></trkpt><trkpt lat="59.0971230436" lon="30.0054584350"><ele>80.41</ele><time>2026-04-22T08:43:55Z</time></trkpt><trkpt lat="59.0972920228" lon="30.0054643862"><ele>80.41</ele><time>2026-04-22T08:44:10Z</time></trkpt><trkpt lat="59.0975012351" lon="30.0053068902"><ele>79.93</ele><time>2026-04-22T08:44:27Z</time></trkpt><trkpt lat="59.0976461582" lon="30.0053102430"><ele>79.93</ele><time>2026-04-22T08:44:40Z</time></trkpt><trkpt lat="59.0977362636" lon="30.0051944051"><ele>79.45</ele><time>2026-04-22T08:44:52Z</time></trkpt><trkpt lat="59.0978387743" lon="30.0050602946"><ele>80.89</ele><time>2026-04-22T08:45:09Z</time></trkpt><trkpt lat="59.0979462303" lon="30.0050449558"><ele>78.48</ele><time>2026-04-22T08:45:22Z</time></trkpt><trkpt lat="59.0979502536" lon="30.0049640704"><ele>78.48</ele><time>2026-04-22T08:45:27Z</time></trkpt><trkpt lat="59.0980780777" lon="30.0048013777"><ele>78.48</ele><time>2026-04-22T08:45:41Z</time></trkpt><trkpt lat="59.0982067399" lon="30.0047446322"><ele>78.48</ele><time>2026-04-22T08:45:54Z</time></trkpt><trkpt lat="59.0981922392" lon="30.0047585461"><ele>79.45</ele><time>2026-04-22T08:46:12Z</time></trkpt><trkpt lat="59.0982688498" lon="30.0048418622"><ele>79.45</ele><time>2026-04-22T08:46:37Z</time></trkpt><trkpt lat="59.0982535947" lon="30.0046953466"><ele>79.45</ele><time>2026-04-22T08:47:08Z</time></trkpt><trkpt lat="59.0982641559" lon="30.0046753138"><ele>79.45</ele><time>2026-04-22T08:47:10Z</time></trkpt><trkpt lat="59.0981545206" lon="30.0044252817"><ele>79.45</ele><time>2026-04-22T08:47:28Z</time></trkpt><trkpt lat="59.0981147066" lon="30.0044015609"><ele>79.45</ele><time>2026-04-22T08:47:32Z</time></trkpt><trkpt lat="59.0980743058" lon="30.0042775087"><ele>79.45</ele><time>2026-04-22T08:47:40Z</time></trkpt><trkpt lat="59.0980564523" lon="30.0039242953"><ele>79.45</ele><time>2026-04-22T08:47:55Z</time></trkpt><trkpt lat="59.0980821848" lon="30.0037173461"><ele>79.45</ele><time>2026-04-22T08:48:06Z</time></trkpt><trkpt lat="59.0980842803" lon="30.0035074633"><ele>79.45</ele><time>2026-04-22T08:48:21Z</time></trkpt><trkpt lat="59.0979847033" lon="30.0035595987"><ele>80.41</ele><time>2026-04-22T08:48:41Z</time></trkpt><trkpt lat="59.0978921670" lon="30.0037511252"><ele>80.41</ele><time>2026-04-22T08:48:54Z</time></trkpt><trkpt lat="59.0978011396" lon="30.0037311763"><ele>80.41</ele><time>2026-04-22T08:49:05Z</time></trkpt><trkpt lat="59.0977491718" lon="30.0037061144"><ele>80.41</ele><time>2026-04-22T08:49:28Z</time></trkpt><trkpt lat="59.0977148898" lon="30.0037976447"><ele>80.41</ele><time>2026-04-22T08:49:47Z</time></trkpt><trkpt lat="59.0977088548" lon="30.0038144086"><ele>80.41</ele><time>2026-04-22T08:49:51Z</time></trkpt><trkpt lat="59.0975910891" lon="30.0039626006"><ele>80.41</ele><time>2026-04-22T08:50:08Z</time></trkpt><trkpt lat="59.0975417197" lon="30.0040399656"><ele>80.41</ele><time>2026-04-22T08:50:20Z</time></trkpt><trkpt lat="59.0975078568" lon="30.0042317435"><ele>80.41</ele><time>2026-04-22T08:50:35Z</time></trkpt><trkpt lat="59.0974436514" lon="30.0044224318"><ele>79.45</ele><time>2026-04-22T08:50:48Z</time></trkpt><trkpt lat="59.0974527039" lon="30.0044052489"><ele>80.89</ele><time>2026-04-22T08:51:04Z</time></trkpt><trkpt lat="59.0974232834" lon="30.0042671990"><ele>80.89</ele><time>2026-04-22T08:51:24Z</time></trkpt><trkpt lat="59.0974196792" lon="30.0041298196"><ele>80.89</ele><time>2026-04-22T08:51:33Z</time></trkpt><trkpt lat="59.0974397119" lon="30.0039186794"><ele>80.89</ele><time>2026-04-22T08:51:46Z</time></trkpt><trkpt lat="59.0974224452" lon="30.0038983114"><ele>80.89</ele><time>2026-04-22T08:51:54Z</time></trkpt><trkpt lat="59.0973770991" lon="30.0039495248"><ele>80.89</ele><time>2026-04-22T08:51:59Z</time></trkpt><trkpt lat="59.0972862393" lon="30.0040796120"><ele>80.89</ele><time>2026-04-22T08:52:14Z</time></trkpt><trkpt lat="59.0971756820" lon="30.0040992256"><ele>80.89</ele><time>2026-04-22T08:52:28Z</time></trkpt><trkpt lat="59.0970826428" lon="30.0041407999"><ele>80.89</ele><time>2026-04-22T08:52:41Z</time></trkpt><trkpt lat="59.0969888493" lon="30.0041239522"><ele>80.89</ele><time>2026-04-22T08:52:58Z</time></trkpt><trkpt lat="59.0968968999" lon="30.0042461604"><ele>80.89</ele><time>2026-04-22T08:53:10Z</time></trkpt><trkpt lat="59.0967989992" lon="30.0043132994"><ele>80.41</ele><time>2026-04-22T08:53:24Z</time></trkpt><trkpt lat="59.0967753623" lon="30.0043753255"><ele>80.41</ele><time>2026-04-22T08:53:29Z</time></trkpt><trkpt lat="59.0966611169" lon="30.0044680294"><ele>80.89</ele><time>2026-04-22T08:53:43Z</time></trkpt><trkpt lat="59.0965551697" lon="30.0045461487"><ele>80.89</ele><time>2026-04-22T08:53:55Z</time></trkpt><trkpt lat="59.0964953229" lon="30.0046311412"><ele>79.93</ele><time>2026-04-22T08:54:09Z</time></trkpt><trkpt lat="59.0964881983" lon="30.0046444684"><ele>79.93</ele><time>2026-04-22T08:54:10Z</time></trkpt><trkpt lat="59.0963904653" lon="30.0046889763"><ele>79.93</ele><time>2026-04-22T08:54:24Z</time></trkpt><trkpt lat="59.0962923970" lon="30.0046888087"><ele>79.93</ele><time>2026-04-22T08:54:38Z</time></trkpt><trkpt lat="59.0962707717" lon="30.0047501642"><ele>79.93</ele><time>2026-04-22T08:54:42Z</time></trkpt><trkpt lat="59.0962181333" lon="30.0049505755"><ele>79.45</ele><time>2026-04-22T08:55:00Z</time></trkpt><trkpt lat="59.0962161217" lon="30.0050012022"><ele>79.45</ele><time>2026-04-22T08:55:04Z</time></trkpt><trkpt lat="59.0961872879" lon="30.0050994381"><ele>79.45</ele><time>2026-04-22T08:55:14Z</time></trkpt><trkpt lat="59.0961426124" lon="30.0050941575"><ele>79.45</ele><time>2026-04-22T08:55:18Z</time></trkpt><trkpt lat="59.0960548539" lon="30.0049613044"><ele>79.45</ele><time>2026-04-22T08:55:47Z</time></trkpt><trkpt lat="59.0959805902" lon="30.0048222486"><ele>79.45</ele><time>2026-04-22T08:56:00Z</time></trkpt><trkpt lat="59.0959370881" lon="30.0046022236"><ele>79.45</ele><time>2026-04-22T08:56:14Z</time></trkpt><trkpt lat="59.0959409438" lon="30.0043369364"><ele>80.41</ele><time>2026-04-22T08:56:28Z</time></trkpt><trkpt lat="59.0958682727" lon="30.0042157341"><ele>80.89</ele><time>2026-04-22T08:56:40Z</time></trkpt><trkpt lat="59.0957973618" lon="30.0041698013"><ele>80.41</ele><time>2026-04-22T08:56:48Z</time></trkpt><trkpt lat="59.0958048217" lon="30.0040855631"><ele>79.45</ele><time>2026-04-22T08:57:08Z</time></trkpt><trkpt lat="59.0958130360" lon="30.0040615071"><ele>80.41</ele><time>2026-04-22T08:57:12Z</time></trkpt><trkpt lat="59.0958197415" lon="30.0040645245"><ele>80.41</ele><time>2026-04-22T08:57:13Z</time></trkpt><trkpt lat="59.0958422050" lon="30.0040467549"><ele>81.37</ele><time>2026-04-22T08:57:16Z</time></trkpt><trkpt lat="59.0959190670" lon="30.0040746666"><ele>80.89</ele><time>2026-04-22T08:57:25Z</time></trkpt><trkpt lat="59.0959921572" lon="30.0040881615"><ele>80.89</ele><time>2026-04-22T08:57:34Z</time></trkpt><trkpt lat="59.0961001161" lon="30.0040750857"><ele>80.89</ele><time>2026-04-22T08:57:50Z</time></trkpt><trkpt lat="59.0961494017" lon="30.0040108804"><ele>81.37</ele><time>2026-04-22T08:58:08Z</time></trkpt><trkpt lat="59.0961854439" lon="30.0039113872"><ele>80.89</ele><time>2026-04-22T08:58:20Z</time></trkpt><trkpt lat="59.0962942410" lon="30.0038899295"><ele>80.89</ele><time>2026-04-22T08:58:35Z</time></trkpt><trkpt lat="59.0964341350" lon="30.0037942920"><ele>79.93</ele><time>2026-04-22T08:58:48Z</time></trkpt><trkpt lat="59.0964444447" lon="30.0037753489"><ele>79.93</ele><time>2026-04-22T08:58:50Z</time></trkpt><trkpt lat="59.0964922216" lon="30.0037244707"><ele>79.93</ele><time>2026-04-22T08:58:56Z</time></trkpt><trkpt lat="59.0964971669" lon="30.0036388077"><ele>79.45</ele><time>2026-04-22T08:59:10Z</time></trkpt><trkpt lat="59.0965792257" lon="30.0035864208"><ele>79.45</ele><time>2026-04-22T08:59:21Z</time></trkpt><trkpt lat="59.0966394078" lon="30.0035374705"><ele>79.45</ele><time>2026-04-22T08:59:33Z</time></trkpt><trkpt lat="59.0967140906" lon="30.0033416692"><ele>79.45</ele><time>2026-04-22T08:59:49Z</time></trkpt><trkpt lat="59.0967255738" lon="30.0033449382"><ele>78.97</ele><time>2026-04-22T08:59:59Z</time></trkpt><trkpt lat="59.0968708321" lon="30.0032489654"><ele>78.97</ele><time>2026-04-22T09:00:13Z</time></trkpt><trkpt lat="59.0969294216" lon="30.0031476282"><ele>78.97</ele><time>2026-04-22T09:00:25Z</time></trkpt><trkpt lat="59.0969842393" lon="30.0031026173"><ele>80.89</ele><time>2026-04-22T09:00:36Z</time></trkpt><trkpt lat="59.0970165934" lon="30.0030809082"><ele>80.41</ele><time>2026-04-22T09:00:39Z</time></trkpt><trkpt lat="59.0971383825" lon="30.0029159524"><ele>80.41</ele><time>2026-04-22T09:00:55Z</time></trkpt><trkpt lat="59.0971685573" lon="30.0028762221"><ele>79.45</ele><time>2026-04-22T09:01:16Z</time></trkpt><trkpt lat="59.0973511152" lon="30.0027422793"><ele>78.97</ele><time>2026-04-22T09:01:30Z</time></trkpt><trkpt lat="59.0974759217" lon="30.0026112702"><ele>78.97</ele><time>2026-04-22T09:01:44Z</time></trkpt><trkpt lat="59.0975615010" lon="30.0024715438"><ele>78.97</ele><time>2026-04-22T09:01:59Z</time></trkpt><trkpt lat="59.0976613294" lon="30.0024084281"><ele>78.48</ele><time>2026-04-22T09:02:13Z</time></trkpt><trkpt lat="59.0977557935" lon="30.0023960229"><ele>78.48</ele><time>2026-04-22T09:02:29Z</time></trkpt><trkpt lat="59.0977940988" lon="30.0023758225"><ele>78.48</ele><time>2026-04-22T09:02:34Z</time></trkpt><trkpt lat="59.0978904068" lon="30.0023653451"><ele>78.48</ele><time>2026-04-22T09:02:48Z</time></trkpt><trkpt lat="59.0979216713" lon="30.0023227651"><ele>79.45</ele><time>2026-04-22T09:02:51Z</time></trkpt><trkpt lat="59.0979313105" lon="30.0022868067"><ele>79.93</ele><time>2026-04-22T09:03:10Z</time></trkpt><trkpt lat="59.0979773272" lon="30.0022935960"><ele>79.93</ele><time>2026-04-22T09:03:29Z</time></trkpt><trkpt lat="59.0979493316" lon="30.0022988766"><ele>79.93</ele><time>2026-04-22T09:03:55Z</time></trkpt><trkpt lat="59.0979429614" lon="30.0022736471"><ele>79.93</ele><time>2026-04-22T09:04:17Z</time></trkpt><trkpt lat="59.0978604835" lon="30.0021408778"><ele>81.37</ele><time>2026-04-22T09:04:37Z</time></trkpt><trkpt lat="59.0979145467" lon="30.0020000618"><ele>81.37</ele><time>2026-04-22T09:04:46Z</time></trkpt><trkpt lat="59.0978921670" lon="30.0019241218"><ele>80.41</ele><time>2026-04-22T09:04:51Z</time></trkpt><trkpt lat="59.0978582203" lon="30.0016502850"><ele>79.93</ele><time>2026-04-22T09:05:07Z</time></trkpt><trkpt lat="59.0978436358" lon="30.0013724249"><ele>79.93</ele><time>2026-04-22T09:05:21Z</time></trkpt><trkpt lat="59.0978511795" lon="30.0012014341"><ele>79.93</ele><time>2026-04-22T09:05:35Z</time></trkpt><trkpt lat="59.0978215076" lon="30.0012640469"><ele>79.93</ele><time>2026-04-22T09:06:03Z</time></trkpt><trkpt lat="59.0978111140" lon="30.0012648012"><ele>79.93</ele><time>2026-04-22T09:06:05Z</time></trkpt><trkpt lat="59.0977601521" lon="30.0012609456"><ele>79.93</ele><time>2026-04-22T09:06:12Z</time></trkpt><trkpt lat="59.0976219345" lon="30.0013145059"><ele>79.93</ele><time>2026-04-22T09:06:30Z</time></trkpt><trkpt lat="59.0975027438" lon="30.0013135839"><ele>79.93</ele><time>2026-04-22T09:06:43Z</time></trkpt><trkpt lat="59.0974317491" lon="30.0013305154"><ele>79.93</ele><time>2026-04-22T09:06:53Z</time></trkpt><trkpt lat="59.0974032506" lon="30.0013159309"><ele>79.93</ele><time>2026-04-22T09:06:57Z</time></trkpt><trkpt lat="59.0973321721" lon="30.0013539847"><ele>79.93</ele><time>2026-04-22T09:07:04Z</time></trkpt><trkpt lat="59.0973071940" lon="30.0013287552"><ele>79.93</ele><time>2026-04-22T09:07:07Z</time></trkpt><trkpt lat="59.0972450003" lon="30.0014492869"><ele>79.93</ele><time>2026-04-22T09:07:30Z</time></trkpt><trkpt lat="59.0972215310" lon="30.0014844909"><ele>79.93</ele><time>2026-04-22T09:07:34Z</time></trkpt><trkpt lat="59.0971416514" lon="30.0016135722"><ele>79.93</ele><time>2026-04-22T09:07:49Z</time></trkpt><trkpt lat="59.0971291624" lon="30.0017185975"><ele>79.93</ele><time>2026-04-22T09:07:58Z</time></trkpt><trkpt lat="59.0969823115" lon="30.0016818848"><ele>79.93</ele><time>2026-04-22T09:08:18Z</time></trkpt><trkpt lat="59.0968997497" lon="30.0018782727"><ele>79.93</ele><time>2026-04-22T09:08:32Z</time></trkpt><trkpt lat="59.0968444292" lon="30.0020410493"><ele>79.93</ele><time>2026-04-22T09:08:50Z</time></trkpt><trkpt lat="59.0968032740" lon="30.0020750798"><ele>79.93</ele><time>2026-04-22T09:09:04Z</time></trkpt><trkpt lat="59.0967790503" lon="30.0021557976"><ele>79.93</ele><time>2026-04-22T09:09:13Z</time></trkpt><trkpt lat="59.0966912080" lon="30.0022115372"><ele>79.93</ele><time>2026-04-22T09:09:29Z</time></trkpt><trkpt lat="59.0965920500" lon="30.0022426341"><ele>79.93</ele><time>2026-04-22T09:09:43Z</time></trkpt><trkpt lat="59.0965426806" lon="30.0022826996"><ele>79.93</ele><time>2026-04-22T09:10:00Z</time></trkpt><trkpt lat="59.0965337958" lon="30.0023464020"><ele>80.89</ele><time>2026-04-22T09:10:11Z</time></trkpt><trkpt lat="59.0965038724" lon="30.0023906585"><ele>80.89</ele><time>2026-04-22T09:10:14Z</time></trkpt><trkpt lat="59.0964401700" lon="30.0023550354"><ele>81.37</ele><time>2026-04-22T09:10:28Z</time></trkpt><trkpt lat="59.0963971708" lon="30.0025002938"><ele>81.37</ele><time>2026-04-22T09:10:45Z</time></trkpt><trkpt lat="59.0963773057" lon="30.0025095977"><ele>81.37</ele><time>2026-04-22T09:10:50Z</time></trkpt><trkpt lat="59.0963623859" lon="30.0025216676"><ele>81.37</ele><time>2026-04-22T09:11:07Z</time></trkpt><trkpt lat="59.0963494778" lon="30.0024961866"><ele>81.37</ele><time>2026-04-22T09:11:23Z</time></trkpt><trkpt lat="59.0962922294" lon="30.0024163909"><ele>81.37</ele><time>2026-04-22T09:11:34Z</time></trkpt><trkpt lat="59.0961991064" lon="30.0024735555"><ele>81.37</ele><time>2026-04-22T09:11:46Z</time></trkpt><trkpt lat="59.0961247589" lon="30.0023871381"><ele>81.37</ele><time>2026-04-22T09:12:05Z</time></trkpt><trkpt lat="59.0960158780" lon="30.0023011398"><ele>81.85</ele><time>2026-04-22T09:12:27Z</time></trkpt><trkpt lat="59.0959584620" lon="30.0022557937"><ele>81.85</ele><time>2026-04-22T09:12:43Z</time></trkpt><trkpt lat="59.0958920773" lon="30.0023431331"><ele>81.85</ele><time>2026-04-22T09:13:03Z</time></trkpt><trkpt lat="59.0959619824" lon="30.0024499185"><ele>81.85</ele><time>2026-04-22T09:13:15Z</time></trkpt><trkpt lat="59.0960057359" lon="30.0026382599"><ele>81.85</ele><time>2026-04-22T09:13:31Z</time></trkpt><trkpt lat="59.0959708672" lon="30.0026281178"><ele>82.33</ele><time>2026-04-22T09:13:50Z</time></trkpt><trkpt lat="59.0958689433" lon="30.0027126912"><ele>82.33</ele><time>2026-04-22T09:14:10Z</time></trkpt><trkpt lat="59.0958561189" lon="30.0027556065"><ele>82.33</ele><time>2026-04-22T09:14:18Z</time></trkpt><trkpt lat="59.0958177298" lon="30.0028117653"><ele>82.33</ele><time>2026-04-22T09:14:34Z</time></trkpt><trkpt lat="59.0957463160" lon="30.0027793273"><ele>82.33</ele><time>2026-04-22T09:14:46Z</time></trkpt><trkpt lat="59.0957175661" lon="30.0027718674"><ele>82.33</ele><time>2026-04-22T09:14:48Z</time></trkpt><trkpt lat="59.0956420451" lon="30.0027768128"><ele>82.81</ele><time>2026-04-22T09:15:05Z</time></trkpt><trkpt lat="59.0956743155" lon="30.0026477315"><ele>82.81</ele><time>2026-04-22T09:15:25Z</time></trkpt><trkpt lat="59.0956900734" lon="30.0025950093"><ele>82.81</ele><time>2026-04-22T09:15:50Z</time></trkpt><trkpt lat="59.0957242716" lon="30.0026086718"><ele>82.81</ele><time>2026-04-22T09:16:12Z</time></trkpt><trkpt lat="59.0956560429" lon="30.0025186501"><ele>82.81</ele><time>2026-04-22T09:16:36Z</time></trkpt><trkpt lat="59.0956583060" lon="30.0025957637"><ele>82.81</ele><time>2026-04-22T09:17:02Z</time></trkpt><trkpt lat="59.0957730543" lon="30.0025990326"><ele>82.33</ele><time>2026-04-22T09:19:43Z</time></trkpt><trkpt lat="59.0957335755" lon="30.0027307123"><ele>82.33</ele><time>2026-04-22T09:20:02Z</time></trkpt><trkpt lat="59.0957992058" lon="30.0026435405"><ele>82.33</ele><time>2026-04-22T09:20:26Z</time></trkpt><trkpt lat="59.0957629122" lon="30.0026152097"><ele>82.33</ele><time>2026-04-22T09:20:46Z</time></trkpt><trkpt lat="59.0957298037" lon="30.0026940834"><ele>83.77</ele><time>2026-04-22T09:21:16Z</time></trkpt><trkpt lat="59.0957006346" lon="30.0027167145"><ele>83.77</ele><time>2026-04-22T09:21:29Z</time></trkpt><trkpt lat="59.0956674423" lon="30.0026915688"><ele>83.77</ele><time>2026-04-22T09:21:32Z</time></trkpt><trkpt lat="59.0956116188" lon="30.0026362482"><ele>84.25</ele><time>2026-04-22T09:21:58Z</time></trkpt><trkpt lat="59.0956157260" lon="30.0025815144"><ele>84.25</ele><time>2026-04-22T09:22:10Z</time></trkpt><trkpt lat="59.0956501756" lon="30.0024498347"><ele>84.25</ele><time>2026-04-22T09:22:29Z</time></trkpt><trkpt lat="59.0956399497" lon="30.0023957714"><ele>84.25</ele><time>2026-04-22T09:22:38Z</time></trkpt><trkpt lat="59.0956429671" lon="30.0022782572"><ele>84.73</ele><time>2026-04-22T09:22:49Z</time></trkpt><trkpt lat="59.0955794323" lon="30.0021778420"><ele>84.73</ele><time>2026-04-22T09:23:09Z</time></trkpt><trkpt lat="59.0955783427" lon="30.0020501856"><ele>85.21</ele><time>2026-04-22T09:23:31Z</time></trkpt><trkpt lat="59.0955460723" lon="30.0019113813"><ele>85.21</ele><time>2026-04-22T09:23:54Z</time></trkpt><trkpt lat="59.0955444798" lon="30.0017925259"><ele>85.69</ele><time>2026-04-22T09:24:04Z</time></trkpt><trkpt lat="59.0955009777" lon="30.0016317610"><ele>85.69</ele><time>2026-04-22T09:24:20Z</time></trkpt><trkpt lat="59.0955294762" lon="30.0015683100"><ele>85.69</ele><time>2026-04-22T09:24:26Z</time></trkpt><trkpt lat="59.0955229383" lon="30.0014228839"><ele>85.69</ele><time>2026-04-22T09:24:39Z</time></trkpt><trkpt lat="59.0955602378" lon="30.0012750272"><ele>85.69</ele><time>2026-04-22T09:24:56Z</time></trkpt><trkpt lat="59.0955520235" lon="30.0012843311"><ele>85.69</ele><time>2026-04-22T09:24:59Z</time></trkpt><trkpt lat="59.0955323260" lon="30.0013770349"><ele>86.18</ele><time>2026-04-22T09:25:21Z</time></trkpt><trkpt lat="59.0955537837" lon="30.0013036095"><ele>85.21</ele><time>2026-04-22T09:25:43Z</time></trkpt><trkpt lat="59.0956552047" lon="30.0012105703"><ele>85.21</ele><time>2026-04-22T09:25:57Z</time></trkpt><trkpt lat="59.0956749022" lon="30.0011693314"><ele>85.21</ele><time>2026-04-22T09:26:01Z</time></trkpt><trkpt lat="59.0957545303" lon="30.0010860153"><ele>85.21</ele><time>2026-04-22T09:26:16Z</time></trkpt><trkpt lat="59.0957599785" lon="30.0010830816"><ele>85.21</ele><time>2026-04-22T09:26:17Z</time></trkpt><trkpt lat="59.0958137903" lon="30.0009710994"><ele>87.14</ele><time>2026-04-22T09:26:36Z</time></trkpt><trkpt lat="59.0958077554" lon="30.0009544194"><ele>86.18</ele><time>2026-04-22T09:26:53Z</time></trkpt><trkpt lat="59.0959340706" lon="30.0009581074"><ele>86.18</ele><time>2026-04-22T09:27:07Z</time></trkpt><trkpt lat="59.0960114356" lon="30.0009359792"><ele>86.18</ele><time>2026-04-22T09:27:23Z</time></trkpt><trkpt lat="59.0960794128" lon="30.0008074008"><ele>86.18</ele><time>2026-04-22T09:27:37Z</time></trkpt><trkpt lat="59.0961712785" lon="30.0007573608"><ele>86.18</ele><time>2026-04-22T09:27:53Z</time></trkpt><trkpt lat="59.0961738769" lon="30.0007923134"><ele>86.18</ele><time>2026-04-22T09:28:13Z</time></trkpt><trkpt lat="59.0962078236" lon="30.0007236656"><ele>86.18</ele><time>2026-04-22T09:28:38Z</time></trkpt><trkpt lat="59.0962493140" lon="30.0006811693"><ele>86.18</ele><time>2026-04-22T09:28:59Z</time></trkpt><trkpt lat="59.0961931553" lon="30.0008094124"><ele>86.18</ele><time>2026-04-22T09:29:15Z</time></trkpt><trkpt lat="59.0961670876" lon="30.0008443650"><ele>86.18</ele><time>2026-04-22T09:29:17Z</time></trkpt><trkpt lat="59.0961681772" lon="30.0009150244"><ele>86.18</ele><time>2026-04-22T09:29:20Z</time></trkpt><trkpt lat="59.0961486474" lon="30.0011090655"><ele>86.18</ele><time>2026-04-22T09:29:33Z</time></trkpt><trkpt lat="59.0962229948" lon="30.0011428446"><ele>86.18</ele><time>2026-04-22T09:29:50Z</time></trkpt><trkpt lat="59.0962377470" lon="30.0011284277"><ele>86.18</ele><time>2026-04-22T09:29:56Z</time></trkpt><trkpt lat="59.0962801594" lon="30.0009771343"><ele>86.18</ele><time>2026-04-22T09:30:11Z</time></trkpt><trkpt lat="59.0963609610" lon="30.0008446164"><ele>86.18</ele><time>2026-04-22T09:30:28Z</time></trkpt><trkpt lat="59.0964089055" lon="30.0007747952"><ele>86.18</ele><time>2026-04-22T09:30:41Z</time></trkpt><trkpt lat="59.0964539163" lon="30.0007157866"><ele>86.18</ele><time>2026-04-22T09:30:55Z</time></trkpt><trkpt lat="59.0965298563" lon="30.0006712787"><ele>86.66</ele><time>2026-04-22T09:31:11Z</time></trkpt><trkpt lat="59.0966056287" lon="30.0006334763"><ele>85.69</ele><time>2026-04-22T09:31:31Z</time></trkpt><trkpt lat="59.0966795571" lon="30.0006307941"><ele>85.69</ele><time>2026-04-22T09:31:45Z</time></trkpt><trkpt lat="59.0966834966" lon="30.0006259326"><ele>85.69</ele><time>2026-04-22T09:31:46Z</time></trkpt><trkpt lat="59.0967892762" lon="30.0005564466"><ele>85.69</ele><time>2026-04-22T09:32:03Z</time></trkpt><trkpt lat="59.0968245640" lon="30.0004967675"><ele>86.18</ele><time>2026-04-22T09:32:20Z</time></trkpt><trkpt lat="59.0968803875" lon="30.0004084222"><ele>85.69</ele><time>2026-04-22T09:32:30Z</time></trkpt><trkpt lat="59.0969131608" lon="30.0003910717"><ele>85.69</ele><time>2026-04-22T09:32:45Z</time></trkpt><trkpt lat="59.0969523042" lon="30.0002990384"><ele>85.69</ele><time>2026-04-22T09:33:03Z</time></trkpt><trkpt lat="59.0969733428" lon="30.0002355035"><ele>85.69</ele><time>2026-04-22T09:33:11Z</time></trkpt><trkpt lat="59.0970329382" lon="30.0001053326"><ele>85.69</ele><time>2026-04-22T09:33:29Z</time></trkpt><trkpt lat="59.0971222892" lon="30.0000855513"><ele>85.69</ele><time>2026-04-22T09:33:43Z</time></trkpt><trkpt lat="59.0971436631" lon="30.0000806060"><ele>85.69</ele><time>2026-04-22T09:33:45Z</time></trkpt><trkpt lat="59.0972425696" lon="30.0000311527"><ele>85.69</ele><time>2026-04-22T09:33:59Z</time></trkpt><trkpt lat="59.0972503647" lon="29.9998831283"><ele>85.69</ele><time>2026-04-22T09:34:12Z</time></trkpt><trkpt lat="59.0972946212" lon="29.9998960365"><ele>85.69</ele><time>2026-04-22T09:34:23Z</time></trkpt><trkpt lat="59.0973087866" lon="29.9999112077"><ele>86.66</ele><time>2026-04-22T09:34:32Z</time></trkpt><trkpt lat="59.0973693039" lon="29.9998839665"><ele>86.66</ele><time>2026-04-22T09:34:47Z</time></trkpt><trkpt lat="59.0974038374" lon="29.9998718128"><ele>88.10</ele><time>2026-04-22T09:35:02Z</time></trkpt><trkpt lat="59.0975320805" lon="29.9998303223"><ele>87.14</ele><time>2026-04-22T09:35:17Z</time></trkpt><trkpt lat="59.0975986328" lon="29.9997765943"><ele>86.66</ele><time>2026-04-22T09:35:30Z</time></trkpt><trkpt lat="59.0976555459" lon="29.9995903485"><ele>86.66</ele><time>2026-04-22T09:35:45Z</time></trkpt><trkpt lat="59.0977595653" lon="29.9995286576"><ele>86.66</ele><time>2026-04-22T09:36:01Z</time></trkpt><trkpt lat="59.0977376886" lon="29.9995225389"><ele>86.66</ele><time>2026-04-22T09:36:26Z</time></trkpt><trkpt lat="59.0976734832" lon="29.9995460082"><ele>86.66</ele><time>2026-04-22T09:37:00Z</time></trkpt><trkpt lat="59.0975761693" lon="29.9994372111"><ele>86.66</ele><time>2026-04-22T09:37:48Z</time></trkpt><trkpt lat="59.0975999739" lon="29.9994430784"><ele>86.66</ele><time>2026-04-22T09:38:11Z</time></trkpt><trkpt lat="59.0976454876" lon="29.9994778633"><ele>87.62</ele><time>2026-04-22T09:38:39Z</time></trkpt><trkpt lat="59.0976881515" lon="29.9994318467"><ele>87.62</ele><time>2026-04-22T09:39:01Z</time></trkpt><trkpt lat="59.0976873133" lon="29.9995222874"><ele>87.62</ele><time>2026-04-22T09:39:19Z</time></trkpt><trkpt lat="59.0976801887" lon="29.9996316712"><ele>87.14</ele><time>2026-04-22T09:39:36Z</time></trkpt><trkpt lat="59.0976864751" lon="29.9996325932"><ele>87.62</ele><time>2026-04-22T09:39:58Z</time></trkpt><trkpt lat="59.0977342520" lon="29.9995629396"><ele>87.62</ele><time>2026-04-22T09:40:12Z</time></trkpt><trkpt lat="59.0976951923" lon="29.9994733371"><ele>87.62</ele><time>2026-04-22T09:40:36Z</time></trkpt><trkpt lat="59.0977476630" lon="29.9994092155"><ele>87.62</ele><time>2026-04-22T09:40:56Z</time></trkpt><trkpt lat="59.0978856292" lon="29.9993849080"><ele>87.62</ele><time>2026-04-22T09:41:11Z</time></trkpt><trkpt lat="59.0980218351" lon="29.9993712455"><ele>87.62</ele><time>2026-04-22T09:41:27Z</time></trkpt><trkpt lat="59.0980693605" lon="29.9993562419"><ele>87.62</ele><time>2026-04-22T09:41:50Z</time></trkpt><trkpt lat="59.0980900638" lon="29.9993631989"><ele>87.62</ele><time>2026-04-22T09:42:01Z</time></trkpt><trkpt lat="59.0982091706" lon="29.9991596024"><ele>87.62</ele><time>2026-04-22T09:42:18Z</time></trkpt><trkpt lat="59.0982524212" lon="29.9990311917"><ele>87.62</ele><time>2026-04-22T09:42:33Z</time></trkpt><trkpt lat="59.0983198117" lon="29.9988951534"><ele>87.62</ele><time>2026-04-22T09:42:48Z</time></trkpt><trkpt lat="59.0984319616" lon="29.9988494720"><ele>88.10</ele><time>2026-04-22T09:43:04Z</time></trkpt><trkpt lat="59.0986032877" lon="29.9987306166"><ele>88.10</ele><time>2026-04-22T09:43:24Z</time></trkpt><trkpt lat="59.0987270884" lon="29.9986395892"><ele>88.10</ele><time>2026-04-22T09:43:47Z</time></trkpt><trkpt lat="59.0988718439" lon="29.9985909741"><ele>88.10</ele><time>2026-04-22T09:44:05Z</time></trkpt><trkpt lat="59.0989988297" lon="29.9984294549"><ele>88.10</ele><time>2026-04-22T09:44:21Z</time></trkpt><trkpt lat="59.0991611872" lon="29.9983570352"><ele>88.10</ele><time>2026-04-22T09:44:39Z</time></trkpt><trkpt lat="59.0992785338" lon="29.9982211646"><ele>88.10</ele><time>2026-04-22T09:45:01Z</time></trkpt><trkpt lat="59.0993842296" lon="29.9982800055"><ele>88.10</ele><time>2026-04-22T09:45:25Z</time></trkpt><trkpt lat="59.0995544661" lon="29.9983480666"><ele>87.62</ele><time>2026-04-22T09:45:49Z</time></trkpt><trkpt lat="59.0996208508" lon="29.9983670935"><ele>87.62</ele><time>2026-04-22T09:46:12Z</time></trkpt><trkpt lat="59.0997824538" lon="29.9983837735"><ele>87.62</ele><time>2026-04-22T09:46:30Z</time></trkpt><trkpt lat="59.0997580625" lon="29.9984671734"><ele>87.62</ele><time>2026-04-22T09:46:59Z</time></trkpt><trkpt lat="59.0997889079" lon="29.9984405190"><ele>87.62</ele><time>2026-04-22T09:47:29Z</time></trkpt><trkpt lat="59.0999049135" lon="29.9984247610"><ele>87.14</ele><time>2026-04-22T09:47:47Z</time></trkpt><trkpt lat="59.1000204161" lon="29.9984545168"><ele>87.14</ele><time>2026-04-22T09:48:05Z</time></trkpt><trkpt lat="59.1000950988" lon="29.9983960111"><ele>87.14</ele><time>2026-04-22T09:48:15Z</time></trkpt><trkpt lat="59.1001816001" lon="29.9983235914"><ele>87.14</ele><time>2026-04-22T09:48:30Z</time></trkpt><trkpt lat="59.1003188957" lon="29.9983789120"><ele>87.62</ele><time>2026-04-22T09:48:46Z</time></trkpt><trkpt lat="59.1003535967" lon="29.9983678479"><ele>87.62</ele><time>2026-04-22T09:48:52Z</time></trkpt><trkpt lat="59.1004274413" lon="29.9982152134"><ele>87.62</ele><time>2026-04-22T09:49:12Z</time></trkpt><trkpt lat="59.1005776450" lon="29.9982006289"><ele>87.62</ele><time>2026-04-22T09:49:27Z</time></trkpt><trkpt lat="59.1006321274" lon="29.9982706178"><ele>87.62</ele><time>2026-04-22T09:49:34Z</time></trkpt><trkpt lat="59.1006830893" lon="29.9981303886"><ele>87.14</ele><time>2026-04-22T09:49:49Z</time></trkpt><trkpt lat="59.1007182095" lon="29.9980774149"><ele>87.14</ele><time>2026-04-22T09:49:54Z</time></trkpt><trkpt lat="59.1007473785" lon="29.9980720505"><ele>87.14</ele><time>2026-04-22T09:49:57Z</time></trkpt><trkpt lat="59.1007957421" lon="29.9980842881"><ele>87.14</ele><time>2026-04-22T09:50:04Z</time></trkpt><trkpt lat="59.1008708440" lon="29.9980990402"><ele>87.14</ele><time>2026-04-22T09:50:13Z</time></trkpt><trkpt lat="59.1009748634" lon="29.9980363436"><ele>87.14</ele><time>2026-04-22T09:50:31Z</time></trkpt><trkpt lat="59.1010658909" lon="29.9979566317"><ele>87.14</ele><time>2026-04-22T09:50:44Z</time></trkpt><trkpt lat="59.1011207923" lon="29.9980153888"><ele>87.62</ele><time>2026-04-22T09:51:08Z</time></trkpt><trkpt lat="59.1011300124" lon="29.9980247766"><ele>87.62</ele><time>2026-04-22T09:51:27Z</time></trkpt><trkpt lat="59.1012217943" lon="29.9980961066"><ele>87.62</ele><time>2026-04-22T09:51:43Z</time></trkpt><trkpt lat="59.1012909450" lon="29.9979998823"><ele>87.62</ele><time>2026-04-22T09:52:01Z</time></trkpt><trkpt lat="59.1014171764" lon="29.9979202542"><ele>87.62</ele><time>2026-04-22T09:52:16Z</time></trkpt><trkpt lat="59.1014532186" lon="29.9978844635"><ele>87.14</ele><time>2026-04-22T09:52:21Z</time></trkpt><trkpt lat="59.1015331820" lon="29.9978470802"><ele>87.14</ele><time>2026-04-22T09:52:35Z</time></trkpt><trkpt lat="59.1016177554" lon="29.9977345951"><ele>87.14</ele><time>2026-04-22T09:52:49Z</time></trkpt><trkpt lat="59.1017029993" lon="29.9977007322"><ele>87.14</ele><time>2026-04-22T09:53:03Z</time></trkpt><trkpt lat="59.1017511114" lon="29.9977444857"><ele>87.14</ele><time>2026-04-22T09:53:17Z</time></trkpt><trkpt lat="59.1018194240" lon="29.9977184180"><ele>87.14</ele><time>2026-04-22T09:53:31Z</time></trkpt><trkpt lat="59.1018988006" lon="29.9976192601"><ele>87.14</ele><time>2026-04-22T09:53:49Z</time></trkpt><trkpt lat="59.1019600723" lon="29.9976580683"><ele>86.66</ele><time>2026-04-22T09:54:05Z</time></trkpt><trkpt lat="59.1020768322" lon="29.9975874927"><ele>86.66</ele><time>2026-04-22T09:54:24Z</time></trkpt><trkpt lat="59.1021062527" lon="29.9974558968"><ele>86.66</ele><time>2026-04-22T09:54:42Z</time></trkpt><trkpt lat="59.1020918358" lon="29.9973610137"><ele>86.66</ele><time>2026-04-22T09:54:55Z</time></trkpt><trkpt lat="59.1021365952" lon="29.9973039329"><ele>86.66</ele><time>2026-04-22T09:55:12Z</time></trkpt><trkpt lat="59.1021527722" lon="29.9971248955"><ele>86.66</ele><time>2026-04-22T09:55:26Z</time></trkpt><trkpt lat="59.1022632457" lon="29.9971392285"><ele>88.58</ele><time>2026-04-22T09:55:40Z</time></trkpt><trkpt lat="59.1022635810" lon="29.9971504603"><ele>88.58</ele><time>2026-04-22T09:55:41Z</time></trkpt><trkpt lat="59.1023308877" lon="29.9972067028"><ele>87.14</ele><time>2026-04-22T09:56:00Z</time></trkpt><trkpt lat="59.1023576260" lon="29.9971907772"><ele>87.14</ele><time>2026-04-22T09:56:10Z</time></trkpt><trkpt lat="59.1024609748" lon="29.9972517975"><ele>87.14</ele><time>2026-04-22T09:56:27Z</time></trkpt><trkpt lat="59.1025535949" lon="29.9971437547"><ele>86.66</ele><time>2026-04-22T09:56:42Z</time></trkpt><trkpt lat="59.1026305407" lon="29.9971031025"><ele>86.66</ele><time>2026-04-22T09:56:59Z</time></trkpt><trkpt lat="59.1027219035" lon="29.9971452635"><ele>86.66</ele><time>2026-04-22T09:57:14Z</time></trkpt><trkpt lat="59.1027756315" lon="29.9972098041"><ele>86.66</ele><time>2026-04-22T09:57:28Z</time></trkpt><trkpt lat="59.1028125118" lon="29.9970867578"><ele>86.66</ele><time>2026-04-22T09:57:48Z</time></trkpt><trkpt lat="59.1028388310" lon="29.9970813096"><ele>86.66</ele><time>2026-04-22T09:57:52Z</time></trkpt><trkpt lat="59.1030034516" lon="29.9969973229"><ele>86.66</ele><time>2026-04-22T09:58:09Z</time></trkpt><trkpt lat="59.1031270847" lon="29.9969462771"><ele>86.66</ele><time>2026-04-22T09:58:23Z</time></trkpt><trkpt lat="59.1031876020" lon="29.9969368894"><ele>86.18</ele><time>2026-04-22T09:58:31Z</time></trkpt><trkpt lat="59.1032841615" lon="29.9970113207"><ele>86.18</ele><time>2026-04-22T09:58:48Z</time></trkpt><trkpt lat="59.1033535637" lon="29.9970179424"><ele>87.14</ele><time>2026-04-22T09:59:10Z</time></trkpt><trkpt lat="59.1033648793" lon="29.9970072974"><ele>87.14</ele><time>2026-04-22T09:59:11Z</time></trkpt><trkpt lat="59.1034941282" lon="29.9969357159"><ele>87.14</ele><time>2026-04-22T09:59:26Z</time></trkpt><trkpt lat="59.1035583336" lon="29.9968784675"><ele>87.14</ele><time>2026-04-22T09:59:35Z</time></trkpt><trkpt lat="59.1036039311" lon="29.9967455305"><ele>87.14</ele><time>2026-04-22T09:59:50Z</time></trkpt><trkpt lat="59.1036108043" lon="29.9967479613"><ele>87.14</ele><time>2026-04-22T09:59:51Z</time></trkpt><trkpt lat="59.1037154105" lon="29.9967024475"><ele>87.14</ele><time>2026-04-22T10:00:07Z</time></trkpt><trkpt lat="59.1038298234" lon="29.9967705924"><ele>87.14</ele><time>2026-04-22T10:00:23Z</time></trkpt><trkpt lat="59.1039555520" lon="29.9968047906"><ele>87.14</ele><time>2026-04-22T10:00:37Z</time></trkpt><trkpt lat="59.1040825378" lon="29.9966803193"><ele>87.14</ele><time>2026-04-22T10:00:53Z</time></trkpt><trkpt lat="59.1040962841" lon="29.9966447800"><ele>87.14</ele><time>2026-04-22T10:00:56Z</time></trkpt><trkpt lat="59.1042215936" lon="29.9965447001"><ele>86.66</ele><time>2026-04-22T10:01:11Z</time></trkpt><trkpt lat="59.1042669397" lon="29.9965804908"><ele>86.66</ele><time>2026-04-22T10:01:17Z</time></trkpt><trkpt lat="59.1043665167" lon="29.9964964204"><ele>86.66</ele><time>2026-04-22T10:01:33Z</time></trkpt><trkpt lat="59.1043141298" lon="29.9963804986"><ele>86.66</ele><time>2026-04-22T10:01:43Z</time></trkpt><trkpt lat="59.1043743119" lon="29.9961457215"><ele>86.66</ele><time>2026-04-22T10:01:59Z</time></trkpt><trkpt lat="59.1043902375" lon="29.9960852880"><ele>86.66</ele><time>2026-04-22T10:02:06Z</time></trkpt><trkpt lat="59.1044463124" lon="29.9960999563"><ele>86.66</ele><time>2026-04-22T10:02:11Z</time></trkpt><trkpt lat="59.1045248508" lon="29.9960385170"><ele>86.66</ele><time>2026-04-22T10:02:26Z</time></trkpt><trkpt lat="59.1046114359" lon="29.9960460607"><ele>86.66</ele><time>2026-04-22T10:02:43Z</time></trkpt><trkpt lat="59.1047456302" lon="29.9961866252"><ele>86.66</ele><time>2026-04-22T10:02:56Z</time></trkpt><trkpt lat="59.1047535930" lon="29.9961827695"><ele>86.66</ele><time>2026-04-22T10:02:57Z</time></trkpt><trkpt lat="59.1048453748" lon="29.9961777404"><ele>86.18</ele><time>2026-04-22T10:03:10Z</time></trkpt><trkpt lat="59.1048928164" lon="29.9959707912"><ele>85.21</ele><time>2026-04-22T10:03:27Z</time></trkpt><trkpt lat="59.1049400065" lon="29.9960235972"><ele>85.21</ele><time>2026-04-22T10:03:34Z</time></trkpt><trkpt lat="59.1049653199" lon="29.9960629921"><ele>85.21</ele><time>2026-04-22T10:03:39Z</time></trkpt><trkpt lat="59.1050576884" lon="29.9961516727"><ele>85.21</ele><time>2026-04-22T10:03:58Z</time></trkpt><trkpt lat="59.1050768830" lon="29.9961722922"><ele>85.21</ele><time>2026-04-22T10:04:00Z</time></trkpt><trkpt lat="59.1052206326" lon="29.9960877188"><ele>85.21</ele><time>2026-04-22T10:04:15Z</time></trkpt><trkpt lat="59.1052068863" lon="29.9960447196"><ele>85.21</ele><time>2026-04-22T10:04:34Z</time></trkpt><trkpt lat="59.1051305272" lon="29.9960771576"><ele>85.21</ele><time>2026-04-22T10:05:05Z</time></trkpt><trkpt lat="59.1051660664" lon="29.9960812647"><ele>85.21</ele><time>2026-04-22T10:05:33Z</time></trkpt><trkpt lat="59.1052104067" lon="29.9959267862"><ele>84.73</ele><time>2026-04-22T10:05:49Z</time></trkpt><trkpt lat="59.1052381508" lon="29.9957896583"><ele>84.73</ele><time>2026-04-22T10:06:02Z</time></trkpt><trkpt lat="59.1052574292" lon="29.9957787618"><ele>84.73</ele><time>2026-04-22T10:06:04Z</time></trkpt><trkpt lat="59.1052868497" lon="29.9957831204"><ele>84.73</ele><time>2026-04-22T10:06:06Z</time></trkpt><trkpt lat="59.1053449363" lon="29.9957026541"><ele>84.73</ele><time>2026-04-22T10:06:19Z</time></trkpt><trkpt lat="59.1053510550" lon="29.9954983033"><ele>84.73</ele><time>2026-04-22T10:06:32Z</time></trkpt><trkpt lat="59.1053711716" lon="29.9954607524"><ele>84.73</ele><time>2026-04-22T10:06:36Z</time></trkpt><trkpt lat="59.1053292621" lon="29.9952568207"><ele>84.73</ele><time>2026-04-22T10:06:50Z</time></trkpt><trkpt lat="59.1052715108" lon="29.9952296633"><ele>84.73</ele><time>2026-04-22T10:07:00Z</time></trkpt><trkpt lat="59.1052685771" lon="29.9950958043"><ele>84.73</ele><time>2026-04-22T10:07:20Z</time></trkpt><trkpt lat="59.1053316090" lon="29.9950708263"><ele>84.73</ele><time>2026-04-22T10:07:25Z</time></trkpt><trkpt lat="59.1053539049" lon="29.9949090555"><ele>84.73</ele><time>2026-04-22T10:07:40Z</time></trkpt><trkpt lat="59.1052616201" lon="29.9949077982"><ele>84.25</ele><time>2026-04-22T10:08:14Z</time></trkpt><trkpt lat="59.1052939743" lon="29.9949528091"><ele>84.25</ele><time>2026-04-22T10:08:19Z</time></trkpt><trkpt lat="59.1052596923" lon="29.9948056228"><ele>84.25</ele><time>2026-04-22T10:08:45Z</time></trkpt><trkpt lat="59.1052543279" lon="29.9949630350"><ele>84.25</ele><time>2026-04-22T10:09:15Z</time></trkpt><trkpt lat="59.1052996740" lon="29.9949581735"><ele>84.25</ele><time>2026-04-22T10:09:39Z</time></trkpt><trkpt lat="59.1052769590" lon="29.9948127475"><ele>84.25</ele><time>2026-04-22T10:10:04Z</time></trkpt><trkpt lat="59.1052694991" lon="29.9948324449"><ele>83.77</ele><time>2026-04-22T10:10:30Z</time></trkpt><trkpt lat="59.1052726842" lon="29.9948714208"><ele>83.77</ele><time>2026-04-22T10:11:06Z</time></trkpt><trkpt lat="59.1052382346" lon="29.9949108995"><ele>83.77</ele><time>2026-04-22T10:11:13Z</time></trkpt><trkpt lat="59.1052218899" lon="29.9949739315"><ele>83.77</ele><time>2026-04-22T10:11:16Z</time></trkpt><trkpt lat="59.1051545832" lon="29.9950080458"><ele>83.77</ele><time>2026-04-22T10:11:30Z</time></trkpt><trkpt lat="59.1050861869" lon="29.9950636178"><ele>83.77</ele><time>2026-04-22T10:11:56Z</time></trkpt><trkpt lat="59.1050742008" lon="29.9949588440"><ele>83.77</ele><time>2026-04-22T10:12:10Z</time></trkpt><trkpt lat="59.1049663257" lon="29.9949882645"><ele>83.29</ele><time>2026-04-22T10:12:24Z</time></trkpt><trkpt lat="59.1049274337" lon="29.9949567486"><ele>84.73</ele><time>2026-04-22T10:12:38Z</time></trkpt><trkpt lat="59.1049125977" lon="29.9948605243"><ele>84.73</ele><time>2026-04-22T10:12:57Z</time></trkpt><trkpt lat="59.1048630606" lon="29.9948111549"><ele>84.73</ele><time>2026-04-22T10:13:19Z</time></trkpt><trkpt lat="59.1048079077" lon="29.9948238116"><ele>84.73</ele><time>2026-04-22T10:13:32Z</time></trkpt><trkpt lat="59.1047833487" lon="29.9947843328"><ele>84.73</ele><time>2026-04-22T10:13:40Z</time></trkpt><trkpt lat="59.1047665849" lon="29.9947701674"><ele>84.25</ele><time>2026-04-22T10:14:00Z</time></trkpt><trkpt lat="59.1046996973" lon="29.9948094785"><ele>84.25</ele><time>2026-04-22T10:14:19Z</time></trkpt><trkpt lat="59.1046850290" lon="29.9948071316"><ele>84.25</ele><time>2026-04-22T10:14:22Z</time></trkpt><trkpt lat="59.1046053171" lon="29.9948273320"><ele>84.73</ele><time>2026-04-22T10:14:38Z</time></trkpt><trkpt lat="59.1045744717" lon="29.9948521424"><ele>84.73</ele><time>2026-04-22T10:14:55Z</time></trkpt><trkpt lat="59.1045611445" lon="29.9948936328"><ele>84.25</ele><time>2026-04-22T10:14:59Z</time></trkpt><trkpt lat="59.1045171395" lon="29.9950038549"><ele>84.25</ele><time>2026-04-22T10:15:13Z</time></trkpt><trkpt lat="59.1044843663" lon="29.9950622767"><ele>84.25</ele><time>2026-04-22T10:15:28Z</time></trkpt><trkpt lat="59.1044177301" lon="29.9950639531"><ele>84.25</ele><time>2026-04-22T10:15:44Z</time></trkpt><trkpt lat="59.1043703724" lon="29.9950765260"><ele>84.25</ele><time>2026-04-22T10:16:01Z</time></trkpt><trkpt lat="59.1042997129" lon="29.9951764382"><ele>84.25</ele><time>2026-04-22T10:16:17Z</time></trkpt><trkpt lat="59.1042146366" lon="29.9952486064"><ele>84.25</ele><time>2026-04-22T10:16:32Z</time></trkpt><trkpt lat="59.1041399539" lon="29.9953705631"><ele>83.77</ele><time>2026-04-22T10:16:49Z</time></trkpt><trkpt lat="59.1041187476" lon="29.9954583216"><ele>83.77</ele><time>2026-04-22T10:17:01Z</time></trkpt><trkpt lat="59.1040309891" lon="29.9954024144"><ele>83.77</ele><time>2026-04-22T10:17:15Z</time></trkpt><trkpt lat="59.1039654426" lon="29.9953543860"><ele>83.77</ele><time>2026-04-22T10:17:29Z</time></trkpt><trkpt lat="59.1039467510" lon="29.9953318387"><ele>83.77</ele><time>2026-04-22T10:17:32Z</time></trkpt><trkpt lat="59.1038708948" lon="29.9953111354"><ele>84.25</ele><time>2026-04-22T10:17:54Z</time></trkpt><trkpt lat="59.1037909314" lon="29.9953737482"><ele>84.25</ele><time>2026-04-22T10:18:13Z</time></trkpt><trkpt lat="59.1037000716" lon="29.9953128956"><ele>84.25</ele><time>2026-04-22T10:18:29Z</time></trkpt><trkpt lat="59.1036234610" lon="29.9952671304"><ele>84.25</ele><time>2026-04-22T10:18:44Z</time></trkpt><trkpt lat="59.1035752650" lon="29.9953311682"><ele>84.25</ele><time>2026-04-22T10:18:50Z</time></trkpt><trkpt lat="59.1035290807" lon="29.9953435734"><ele>83.77</ele><time>2026-04-22T10:18:55Z</time></trkpt><trkpt lat="59.1034616902" lon="29.9954191782"><ele>83.77</ele><time>2026-04-22T10:19:02Z</time></trkpt><trkpt lat="59.1033718362" lon="29.9955379497"><ele>83.77</ele><time>2026-04-22T10:19:18Z</time></trkpt><trkpt lat="59.1033512168" lon="29.9955361057"><ele>83.77</ele><time>2026-04-22T10:19:24Z</time></trkpt><trkpt lat="59.1033057868" lon="29.9956254568"><ele>84.25</ele><time>2026-04-22T10:19:40Z</time></trkpt><trkpt lat="59.1033113189" lon="29.9956339225"><ele>84.25</ele><time>2026-04-22T10:19:42Z</time></trkpt><trkpt lat="59.1032476164" lon="29.9957425520"><ele>84.25</ele><time>2026-04-22T10:19:54Z</time></trkpt><trkpt lat="59.1031628754" lon="29.9957591482"><ele>83.77</ele><time>2026-04-22T10:20:08Z</time></trkpt><trkpt lat="59.1031409148" lon="29.9957548734"><ele>83.77</ele><time>2026-04-22T10:20:11Z</time></trkpt><trkpt lat="59.1030288488" lon="29.9957514368"><ele>83.77</ele><time>2026-04-22T10:20:26Z</time></trkpt><trkpt lat="59.1029525734" lon="29.9957478326"><ele>83.77</ele><time>2026-04-22T10:20:40Z</time></trkpt><trkpt lat="59.1028854344" lon="29.9957780913"><ele>84.25</ele><time>2026-04-22T10:21:12Z</time></trkpt><trkpt lat="59.1028198879" lon="29.9957129639"><ele>84.25</ele><time>2026-04-22T10:21:29Z</time></trkpt><trkpt lat="59.1027321294" lon="29.9957127124"><ele>84.25</ele><time>2026-04-22T10:21:42Z</time></trkpt><trkpt lat="59.1026409343" lon="29.9958546180"><ele>84.25</ele><time>2026-04-22T10:21:54Z</time></trkpt><trkpt lat="59.1025423631" lon="29.9959156383"><ele>84.25</ele><time>2026-04-22T10:22:08Z</time></trkpt><trkpt lat="59.1024853662" lon="29.9959500041"><ele>84.25</ele><time>2026-04-22T10:22:23Z</time></trkpt><trkpt lat="59.1023975238" lon="29.9960292969"><ele>84.25</ele><time>2026-04-22T10:22:39Z</time></trkpt><trkpt lat="59.1023313906" lon="29.9960833602"><ele>84.73</ele><time>2026-04-22T10:22:52Z</time></trkpt><trkpt lat="59.1023005452" lon="29.9960466474"><ele>84.25</ele><time>2026-04-22T10:23:10Z</time></trkpt><trkpt lat="59.1021769121" lon="29.9961702805"><ele>84.25</ele><time>2026-04-22T10:23:27Z</time></trkpt><trkpt lat="59.1021526884" lon="29.9962521717"><ele>84.25</ele><time>2026-04-22T10:23:50Z</time></trkpt><trkpt lat="59.1021237709" lon="29.9961611442"><ele>84.25</ele><time>2026-04-22T10:24:07Z</time></trkpt><trkpt lat="59.1020721383" lon="29.9961707834"><ele>84.25</ele><time>2026-04-22T10:24:15Z</time></trkpt><trkpt lat="59.1020288877" lon="29.9962307978"><ele>84.73</ele><time>2026-04-22T10:24:32Z</time></trkpt><trkpt lat="59.1020251159" lon="29.9962224998"><ele>84.73</ele><time>2026-04-22T10:24:33Z</time></trkpt><trkpt lat="59.1019880679" lon="29.9961682688"><ele>84.73</ele><time>2026-04-22T10:24:50Z</time></trkpt><trkpt lat="59.1018946096" lon="29.9961504992"><ele>84.73</ele><time>2026-04-22T10:25:18Z</time></trkpt><trkpt lat="59.1018102039" lon="29.9963068217"><ele>84.73</ele><time>2026-04-22T10:25:32Z</time></trkpt><trkpt lat="59.1017319169" lon="29.9963966757"><ele>84.73</ele><time>2026-04-22T10:26:12Z</time></trkpt><trkpt lat="59.1016730759" lon="29.9965416826"><ele>84.73</ele><time>2026-04-22T10:26:39Z</time></trkpt><trkpt lat="59.1016437393" lon="29.9965156149"><ele>84.73</ele><time>2026-04-22T10:27:03Z</time></trkpt><trkpt lat="59.1015703138" lon="29.9965064786"><ele>84.73</ele><time>2026-04-22T10:27:25Z</time></trkpt><trkpt lat="59.1015128978" lon="29.9965509865"><ele>84.73</ele><time>2026-04-22T10:27:45Z</time></trkpt><trkpt lat="59.1014695633" lon="29.9965970032"><ele>84.73</ele><time>2026-04-22T10:28:07Z</time></trkpt><trkpt lat="59.1014249716" lon="29.9966753740"><ele>84.73</ele><time>2026-04-22T10:28:25Z</time></trkpt><trkpt lat="59.1013978142" lon="29.9967680778"><ele>84.73</ele><time>2026-04-22T10:28:36Z</time></trkpt><trkpt lat="59.1013450921" lon="29.9968602788"><ele>84.73</ele><time>2026-04-22T10:28:50Z</time></trkpt><trkpt lat="59.1013409011" lon="29.9969163537"><ele>84.73</ele><time>2026-04-22T10:28:59Z</time></trkpt><trkpt lat="59.1013347823" lon="29.9969558325"><ele>84.73</ele><time>2026-04-22T10:29:01Z</time></trkpt><trkpt lat="59.1013020091" lon="29.9969281722"><ele>84.73</ele><time>2026-04-22T10:29:15Z</time></trkpt><trkpt lat="59.1012055334" lon="29.9968528189"><ele>84.73</ele><time>2026-04-22T10:29:28Z</time></trkpt><trkpt lat="59.1011748556" lon="29.9968632124"><ele>84.73</ele><time>2026-04-22T10:29:43Z</time></trkpt><trkpt lat="59.1011546552" lon="29.9968624581"><ele>84.73</ele><time>2026-04-22T10:29:57Z</time></trkpt><trkpt lat="59.1011394840" lon="29.9968545791"><ele>84.73</ele><time>2026-04-22T10:30:00Z</time></trkpt><trkpt lat="59.1010483727" lon="29.9967992585"><ele>84.73</ele><time>2026-04-22T10:30:18Z</time></trkpt><trkpt lat="59.1010174435" lon="29.9967954867"><ele>84.25</ele><time>2026-04-22T10:30:45Z</time></trkpt><trkpt lat="59.1009906214" lon="29.9968284275"><ele>84.25</ele><time>2026-04-22T10:31:01Z</time></trkpt><trkpt lat="59.1009822395" lon="29.9968686607"><ele>84.25</ele><time>2026-04-22T10:31:10Z</time></trkpt><trkpt lat="59.1009012703" lon="29.9969414994"><ele>84.25</ele><time>2026-04-22T10:31:26Z</time></trkpt><trkpt lat="59.1008358076" lon="29.9969553296"><ele>84.25</ele><time>2026-04-22T10:31:42Z</time></trkpt><trkpt lat="59.1008252464" lon="29.9968366418"><ele>84.73</ele><time>2026-04-22T10:31:57Z</time></trkpt><trkpt lat="59.1008249111" lon="29.9968733545"><ele>84.73</ele><time>2026-04-22T10:32:06Z</time></trkpt><trkpt lat="59.1008373164" lon="29.9969084747"><ele>85.21</ele><time>2026-04-22T10:32:35Z</time></trkpt><trkpt lat="59.1008197144" lon="29.9969575088"><ele>84.73</ele><time>2026-04-22T10:33:07Z</time></trkpt><trkpt lat="59.1007002722" lon="29.9969997536"><ele>83.77</ele><time>2026-04-22T10:33:23Z</time></trkpt><trkpt lat="59.1006903816" lon="29.9970273301"><ele>83.77</ele><time>2026-04-22T10:33:25Z</time></trkpt><trkpt lat="59.1006737854" lon="29.9970828183"><ele>83.77</ele><time>2026-04-22T10:33:28Z</time></trkpt><trkpt lat="59.1006320436" lon="29.9970710836"><ele>83.77</ele><time>2026-04-22T10:33:51Z</time></trkpt><trkpt lat="59.1006022040" lon="29.9970383942"><ele>83.77</ele><time>2026-04-22T10:34:18Z</time></trkpt><trkpt lat="59.1006702650" lon="29.9970192835"><ele>83.77</ele><time>2026-04-22T10:34:35Z</time></trkpt><trkpt lat="59.1006172076" lon="29.9970472790"><ele>83.77</ele><time>2026-04-22T10:34:53Z</time></trkpt><trkpt lat="59.1006110050" lon="29.9969533179"><ele>83.77</ele><time>2026-04-22T10:35:24Z</time></trkpt><trkpt lat="59.1005670000" lon="29.9969514739"><ele>83.77</ele><time>2026-04-22T10:35:57Z</time></trkpt><trkpt lat="59.1006071493" lon="29.9971100595"><ele>83.77</ele><time>2026-04-22T10:36:39Z</time></trkpt><trkpt lat="59.1006737016" lon="29.9970999174"><ele>83.77</ele><time>2026-04-22T10:37:03Z</time></trkpt><trkpt lat="59.1006493941" lon="29.9971880112"><ele>84.73</ele><time>2026-04-22T10:37:32Z</time></trkpt><trkpt lat="59.1005682573" lon="29.9970066268"><ele>84.73</ele><time>2026-04-22T10:38:05Z</time></trkpt><trkpt lat="59.1006574407" lon="29.9971158430"><ele>83.77</ele><time>2026-04-22T10:38:25Z</time></trkpt><trkpt lat="59.1006597877" lon="29.9971001688"><ele>83.77</ele><time>2026-04-22T10:38:45Z</time></trkpt><trkpt lat="59.1006234940" lon="29.9970416632"><ele>84.73</ele><time>2026-04-22T10:39:17Z</time></trkpt><trkpt lat="59.1006240807" lon="29.9969815649"><ele>84.73</ele><time>2026-04-22T10:39:41Z</time></trkpt><trkpt lat="59.1006015334" lon="29.9970674794"><ele>84.73</ele><time>2026-04-22T10:39:56Z</time></trkpt><trkpt lat="59.1005949955" lon="29.9970585108"><ele>84.73</ele><time>2026-04-22T10:40:20Z</time></trkpt><trkpt lat="59.1006513219" lon="29.9971711636"><ele>84.73</ele><time>2026-04-22T10:40:34Z</time></trkpt><trkpt lat="59.1007031221" lon="29.9970395677"><ele>84.73</ele><time>2026-04-22T10:40:52Z</time></trkpt><trkpt lat="59.1006155312" lon="29.9970425852"><ele>84.73</ele><time>2026-04-22T10:41:46Z</time></trkpt><trkpt lat="59.1006005276" lon="29.9971025996"><ele>84.73</ele><time>2026-04-22T10:42:04Z</time></trkpt><trkpt lat="59.1005453747" lon="29.9970901944"><ele>85.21</ele><time>2026-04-22T10:42:23Z</time></trkpt><trkpt lat="59.1004794929" lon="29.9970956426"><ele>85.21</ele><time>2026-04-22T10:42:34Z</time></trkpt><trkpt lat="59.1003496572" lon="29.9970654678"><ele>85.69</ele><time>2026-04-22T10:42:48Z</time></trkpt><trkpt lat="59.1002484877" lon="29.9969979934"><ele>85.21</ele><time>2026-04-22T10:43:01Z</time></trkpt><trkpt lat="59.1001508385" lon="29.9970167689"><ele>85.21</ele><time>2026-04-22T10:43:15Z</time></trkpt><trkpt lat="59.1000597272" lon="29.9970372207"><ele>85.69</ele><time>2026-04-22T10:43:32Z</time></trkpt><trkpt lat="59.1000519320" lon="29.9970420823"><ele>85.69</ele><time>2026-04-22T10:43:51Z</time></trkpt><trkpt lat="59.0999650117" lon="29.9970164336"><ele>85.69</ele><time>2026-04-22T10:44:05Z</time></trkpt><trkpt lat="59.0998727269" lon="29.9970716704"><ele>85.69</ele><time>2026-04-22T10:44:20Z</time></trkpt><trkpt lat="59.0998375230" lon="29.9971747678"><ele>86.18</ele><time>2026-04-22T10:44:40Z</time></trkpt><trkpt lat="59.0997423045" lon="29.9970132485"><ele>86.18</ele><time>2026-04-22T10:44:58Z</time></trkpt><trkpt lat="59.0997162368" lon="29.9968688283"><ele>86.18</ele><time>2026-04-22T10:45:14Z</time></trkpt><trkpt lat="59.0997171588" lon="29.9968527351"><ele>86.18</ele><time>2026-04-22T10:45:15Z</time></trkpt><trkpt lat="59.0996215213" lon="29.9967860989"><ele>86.18</ele><time>2026-04-22T10:45:31Z</time></trkpt><trkpt lat="59.0996099543" lon="29.9967002682"><ele>86.18</ele><time>2026-04-22T10:45:46Z</time></trkpt><trkpt lat="59.0996076073" lon="29.9967368133"><ele>86.18</ele><time>2026-04-22T10:45:57Z</time></trkpt><trkpt lat="59.0996648557" lon="29.9970546551"><ele>86.18</ele><time>2026-04-22T10:46:11Z</time></trkpt><trkpt lat="59.0996034164" lon="29.9970300123"><ele>86.18</ele><time>2026-04-22T10:46:28Z</time></trkpt><trkpt lat="59.0994480997" lon="29.9971634522"><ele>86.18</ele><time>2026-04-22T10:46:43Z</time></trkpt><trkpt lat="59.0993323456" lon="29.9973392207"><ele>86.18</ele><time>2026-04-22T10:47:00Z</time></trkpt><trkpt lat="59.0993002430" lon="29.9973634444"><ele>86.18</ele><time>2026-04-22T10:47:04Z</time></trkpt><trkpt lat="59.0992657095" lon="29.9973906856"><ele>86.18</ele><time>2026-04-22T10:47:22Z</time></trkpt><trkpt lat="59.0991866682" lon="29.9975147378"><ele>86.18</ele><time>2026-04-22T10:47:35Z</time></trkpt><trkpt lat="59.0991328564" lon="29.9975716509"><ele>86.18</ele><time>2026-04-22T10:47:56Z</time></trkpt><trkpt lat="59.0990623645" lon="29.9975511152"><ele>86.66</ele><time>2026-04-22T10:48:14Z</time></trkpt><trkpt lat="59.0989837423" lon="29.9975715671"><ele>86.66</ele><time>2026-04-22T10:48:29Z</time></trkpt><trkpt lat="59.0989165194" lon="29.9976565596"><ele>86.66</ele><time>2026-04-22T10:48:46Z</time></trkpt><trkpt lat="59.0988632105" lon="29.9977711402"><ele>86.66</ele><time>2026-04-22T10:49:01Z</time></trkpt><trkpt lat="59.0987942275" lon="29.9977600761"><ele>86.66</ele><time>2026-04-22T10:49:12Z</time></trkpt><trkpt lat="59.0986722708" lon="29.9977259617"><ele>86.66</ele><time>2026-04-22T10:49:27Z</time></trkpt><trkpt lat="59.0985573549" lon="29.9977390375"><ele>86.66</ele><time>2026-04-22T10:49:41Z</time></trkpt><trkpt lat="59.0984996036" lon="29.9977282248"><ele>86.66</ele><time>2026-04-22T10:50:03Z</time></trkpt><trkpt lat="59.0983929858" lon="29.9978598207"><ele>86.66</ele><time>2026-04-22T10:50:19Z</time></trkpt><trkpt lat="59.0982941631" lon="29.9979637563"><ele>86.66</ele><time>2026-04-22T10:50:31Z</time></trkpt><trkpt lat="59.0982263535" lon="29.9979843758"><ele>86.66</ele><time>2026-04-22T10:50:45Z</time></trkpt><trkpt lat="59.0981116053" lon="29.9980154727"><ele>86.66</ele><time>2026-04-22T10:50:58Z</time></trkpt><trkpt lat="59.0979892295" lon="29.9979497585"><ele>86.66</ele><time>2026-04-22T10:51:12Z</time></trkpt><trkpt lat="59.0978634171" lon="29.9979883153"><ele>86.66</ele><time>2026-04-22T10:51:27Z</time></trkpt><trkpt lat="59.0977994632" lon="29.9980590586"><ele>86.66</ele><time>2026-04-22T10:51:50Z</time></trkpt><trkpt lat="59.0977264568" lon="29.9980256986"><ele>86.66</ele><time>2026-04-22T10:52:05Z</time></trkpt><trkpt lat="59.0976479184" lon="29.9981470685"><ele>86.66</ele><time>2026-04-22T10:52:19Z</time></trkpt><trkpt lat="59.0976355970" lon="29.9981966894"><ele>86.66</ele><time>2026-04-22T10:52:22Z</time></trkpt><trkpt lat="59.0975382831" lon="29.9982641637"><ele>86.66</ele><time>2026-04-22T10:52:49Z</time></trkpt><trkpt lat="59.0975923464" lon="29.9982122798"><ele>85.69</ele><time>2026-04-22T10:53:13Z</time></trkpt><trkpt lat="59.0975871496" lon="29.9981957674"><ele>85.69</ele><time>2026-04-22T10:53:40Z</time></trkpt><trkpt lat="59.0975600760" lon="29.9982309714"><ele>85.69</ele><time>2026-04-22T10:53:58Z</time></trkpt><trkpt lat="59.0975780971" lon="29.9981678557"><ele>85.69</ele><time>2026-04-22T10:54:25Z</time></trkpt><trkpt lat="59.0976386145" lon="29.9982868787"><ele>85.69</ele><time>2026-04-22T10:54:57Z</time></trkpt><trkpt lat="59.0976466611" lon="29.9983271118"><ele>85.21</ele><time>2026-04-22T10:55:14Z</time></trkpt><trkpt lat="59.0976118762" lon="29.9982410297"><ele>85.21</ele><time>2026-04-22T10:55:43Z</time></trkpt><trkpt lat="59.0975730680" lon="29.9981940910"><ele>86.18</ele><time>2026-04-22T10:56:08Z</time></trkpt><trkpt lat="59.0976077691" lon="29.9982399400"><ele>86.18</ele><time>2026-04-22T10:56:31Z</time></trkpt><trkpt lat="59.0975931007" lon="29.9982289597"><ele>87.14</ele><time>2026-04-22T10:57:13Z</time></trkpt><trkpt lat="59.0975861438" lon="29.9982610624"><ele>87.14</ele><time>2026-04-22T10:57:31Z</time></trkpt><trkpt lat="59.0975431446" lon="29.9983110186"><ele>85.69</ele><time>2026-04-22T10:57:45Z</time></trkpt><trkpt lat="59.0975451563" lon="29.9983184785"><ele>85.69</ele><time>2026-04-22T10:57:46Z</time></trkpt><trkpt lat="59.0975346789" lon="29.9984033033"><ele>85.69</ele><time>2026-04-22T10:58:07Z</time></trkpt><trkpt lat="59.0975366067" lon="29.9984141160"><ele>85.69</ele><time>2026-04-22T10:58:39Z</time></trkpt><trkpt lat="59.0975026600" lon="29.9983952567"><ele>85.69</ele><time>2026-04-22T10:58:54Z</time></trkpt><trkpt lat="59.0974595770" lon="29.9983986933"><ele>85.69</ele><time>2026-04-22T10:59:09Z</time></trkpt><trkpt lat="59.0974508598" lon="29.9984122720"><ele>85.69</ele><time>2026-04-22T10:59:21Z</time></trkpt><trkpt lat="59.0973790269" lon="29.9984504096"><ele>85.69</ele><time>2026-04-22T10:59:31Z</time></trkpt><trkpt lat="59.0973276459" lon="29.9984550197"><ele>85.69</ele><time>2026-04-22T10:59:38Z</time></trkpt><trkpt lat="59.0972071979" lon="29.9984940793"><ele>85.69</ele><time>2026-04-22T10:59:54Z</time></trkpt><trkpt lat="59.0971250553" lon="29.9986186344"><ele>86.66</ele><time>2026-04-22T11:00:07Z</time></trkpt><trkpt lat="59.0971221216" lon="29.9986468814"><ele>86.66</ele><time>2026-04-22T11:00:08Z</time></trkpt><trkpt lat="59.0971068665" lon="29.9987583607"><ele>86.66</ele><time>2026-04-22T11:00:13Z</time></trkpt><trkpt lat="59.0970776137" lon="29.9988579378"><ele>86.66</ele><time>2026-04-22T11:00:35Z</time></trkpt><trkpt lat="59.0969844908" lon="29.9989477079"><ele>86.66</ele><time>2026-04-22T11:00:47Z</time></trkpt><trkpt lat="59.0969088860" lon="29.9989489652"><ele>86.66</ele><time>2026-04-22T11:01:01Z</time></trkpt><trkpt lat="59.0969144180" lon="29.9989853427"><ele>86.66</ele><time>2026-04-22T11:01:04Z</time></trkpt><trkpt lat="59.0968316887" lon="29.9990192056"><ele>87.14</ele><time>2026-04-22T11:01:18Z</time></trkpt><trkpt lat="59.0967378113" lon="29.9991420843"><ele>87.14</ele><time>2026-04-22T11:01:30Z</time></trkpt><trkpt lat="59.0966468677" lon="29.9992202874"><ele>86.66</ele><time>2026-04-22T11:01:44Z</time></trkpt><trkpt lat="59.0966603626" lon="29.9993843213"><ele>86.66</ele><time>2026-04-22T11:01:58Z</time></trkpt><trkpt lat="59.0966019407" lon="29.9994469341"><ele>86.66</ele><time>2026-04-22T11:02:06Z</time></trkpt><trkpt lat="59.0965763759" lon="29.9994855747"><ele>86.66</ele><time>2026-04-22T11:02:09Z</time></trkpt><trkpt lat="59.0965493023" lon="29.9996584933"><ele>86.66</ele><time>2026-04-22T11:02:32Z</time></trkpt><trkpt lat="59.0964604542" lon="29.9996432383"><ele>86.66</ele><time>2026-04-22T11:02:49Z</time></trkpt><trkpt lat="59.0964054689" lon="29.9996071123"><ele>86.66</ele><time>2026-04-22T11:03:04Z</time></trkpt><trkpt lat="59.0963405091" lon="29.9995148275"><ele>86.66</ele><time>2026-04-22T11:03:18Z</time></trkpt><trkpt lat="59.0962420218" lon="29.9995154142"><ele>86.18</ele><time>2026-04-22T11:03:31Z</time></trkpt><trkpt lat="59.0962030459" lon="29.9995012488"><ele>86.18</ele><time>2026-04-22T11:03:36Z</time></trkpt><trkpt lat="59.0960909799" lon="29.9994631950"><ele>86.66</ele><time>2026-04-22T11:03:54Z</time></trkpt><trkpt lat="59.0960818436" lon="29.9994594231"><ele>86.66</ele><time>2026-04-22T11:03:59Z</time></trkpt><trkpt lat="59.0959678497" lon="29.9993972294"><ele>86.66</ele><time>2026-04-22T11:04:14Z</time></trkpt><trkpt lat="59.0959569532" lon="29.9994123168"><ele>86.66</ele><time>2026-04-22T11:04:17Z</time></trkpt><trkpt lat="59.0959161334" lon="29.9995761830"><ele>86.66</ele><time>2026-04-22T11:04:45Z</time></trkpt><trkpt lat="59.0959043149" lon="29.9996066932"><ele>87.14</ele><time>2026-04-22T11:05:04Z</time></trkpt><trkpt lat="59.0958241001" lon="29.9997279793"><ele>87.14</ele><time>2026-04-22T11:05:19Z</time></trkpt><trkpt lat="59.0958057437" lon="29.9998076912"><ele>87.14</ele><time>2026-04-22T11:05:27Z</time></trkpt><trkpt lat="59.0957005508" lon="29.9999237806"><ele>87.14</ele><time>2026-04-22T11:05:40Z</time></trkpt><trkpt lat="59.0956194140" lon="30.0000799354"><ele>87.14</ele><time>2026-04-22T11:05:52Z</time></trkpt><trkpt lat="59.0955811087" lon="30.0002460647"><ele>87.14</ele><time>2026-04-22T11:06:08Z</time></trkpt><trkpt lat="59.0955866408" lon="30.0002748985"><ele>86.66</ele><time>2026-04-22T11:06:10Z</time></trkpt><trkpt lat="59.0955223516" lon="30.0005266070"><ele>86.66</ele><time>2026-04-22T11:06:27Z</time></trkpt><trkpt lat="59.0954879858" lon="30.0005314685"><ele>86.66</ele><time>2026-04-22T11:06:39Z</time></trkpt><trkpt lat="59.0953806974" lon="30.0002881419"><ele>86.66</ele><time>2026-04-22T11:06:52Z</time></trkpt><trkpt lat="59.0952575672" lon="30.0002123695"><ele>86.66</ele><time>2026-04-22T11:07:06Z</time></trkpt><trkpt lat="59.0951921884" lon="30.0003631599"><ele>86.66</ele><time>2026-04-22T11:07:26Z</time></trkpt><trkpt lat="59.0951965470" lon="30.0003535207"><ele>86.66</ele><time>2026-04-22T11:07:46Z</time></trkpt><trkpt lat="59.0951857343" lon="30.0001821946"><ele>87.14</ele><time>2026-04-22T11:08:14Z</time></trkpt><trkpt lat="59.0952069405" lon="30.0001708791"><ele>87.62</ele><time>2026-04-22T11:08:43Z</time></trkpt><trkpt lat="59.0952135623" lon="29.9998933543"><ele>87.62</ele><time>2026-04-22T11:08:59Z</time></trkpt><trkpt lat="59.0951421484" lon="29.9996905122"><ele>87.62</ele><time>2026-04-22T11:09:13Z</time></trkpt><trkpt lat="59.0951018315" lon="29.9994896818"><ele>87.62</ele><time>2026-04-22T11:09:32Z</time></trkpt><trkpt lat="59.0950382967" lon="29.9994417373"><ele>88.10</ele><time>2026-04-22T11:10:01Z</time></trkpt><trkpt lat="59.0950119775" lon="29.9992710818"><ele>88.10</ele><time>2026-04-22T11:10:21Z</time></trkpt><trkpt lat="59.0949098021" lon="29.9993398972"><ele>87.62</ele><time>2026-04-22T11:10:44Z</time></trkpt><trkpt lat="59.0950339381" lon="29.9992160965"><ele>87.62</ele><time>2026-04-22T11:11:11Z</time></trkpt><trkpt lat="59.0952264704" lon="29.9989558384"><ele>87.62</ele><time>2026-04-22T11:11:34Z</time></trkpt><trkpt lat="59.0953538753" lon="29.9987330474"><ele>87.62</ele><time>2026-04-22T11:11:52Z</time></trkpt><trkpt lat="59.0954846330" lon="29.9986141920"><ele>87.62</ele><time>2026-04-22T11:12:08Z</time></trkpt><trkpt lat="59.0957190748" lon="29.9984998628"><ele>88.10</ele><time>2026-04-22T11:12:39Z</time></trkpt><trkpt lat="59.0958787501" lon="29.9984048959"><ele>88.10</ele><time>2026-04-22T11:12:59Z</time></trkpt><trkpt lat="59.0959308855" lon="29.9980878085"><ele>88.10</ele><time>2026-04-22T11:13:16Z</time></trkpt><trkpt lat="59.0960183088" lon="29.9979075976"><ele>87.62</ele><time>2026-04-22T11:13:36Z</time></trkpt><trkpt lat="59.0959544387" lon="29.9976939429"><ele>87.62</ele><time>2026-04-22T11:13:58Z</time></trkpt><trkpt lat="59.0959856194" lon="29.9976615049"><ele>86.66</ele><time>2026-04-22T11:14:19Z</time></trkpt><trkpt lat="59.0961469710" lon="29.9977042526"><ele>86.66</ele><time>2026-04-22T11:14:39Z</time></trkpt><trkpt lat="59.0962734539" lon="29.9978614133"><ele>86.18</ele><time>2026-04-22T11:14:55Z</time></trkpt><trkpt lat="59.0963128489" lon="29.9979536142"><ele>86.18</ele><time>2026-04-22T11:15:09Z</time></trkpt><trkpt lat="59.0964081511" lon="29.9977503531"><ele>86.18</ele><time>2026-04-22T11:15:23Z</time></trkpt><trkpt lat="59.0965539124" lon="29.9975577369"><ele>86.18</ele><time>2026-04-22T11:15:42Z</time></trkpt><trkpt lat="59.0967593528" lon="29.9974861555"><ele>87.62</ele><time>2026-04-22T11:16:01Z</time></trkpt><trkpt lat="59.0969399828" lon="29.9972160906"><ele>87.62</ele><time>2026-04-22T11:16:25Z</time></trkpt><trkpt lat="59.0970153362" lon="29.9971501250"><ele>87.14</ele><time>2026-04-22T11:17:14Z</time></trkpt><trkpt lat="59.0971988998" lon="29.9970762804"><ele>87.14</ele><time>2026-04-22T11:17:32Z</time></trkpt><trkpt lat="59.0972464252" lon="29.9968606979"><ele>87.14</ele><time>2026-04-22T11:17:56Z</time></trkpt><trkpt lat="59.0971899312" lon="29.9966294412"><ele>87.14</ele><time>2026-04-22T11:18:13Z</time></trkpt><trkpt lat="59.0971584991" lon="29.9964189716"><ele>87.14</ele><time>2026-04-22T11:18:31Z</time></trkpt><trkpt lat="59.0972056054" lon="29.9960613158"><ele>86.66</ele><time>2026-04-22T11:18:57Z</time></trkpt><trkpt lat="59.0971818846" lon="29.9958136305"><ele>86.66</ele><time>2026-04-22T11:19:13Z</time></trkpt><trkpt lat="59.0972301643" lon="29.9958702084"><ele>87.62</ele><time>2026-04-22T11:19:58Z</time></trkpt><trkpt lat="59.0972854849" lon="29.9958864693"><ele>87.62</ele><time>2026-04-22T11:20:26Z</time></trkpt><trkpt lat="59.0971765202" lon="29.9958289694"><ele>87.62</ele><time>2026-04-22T11:20:57Z</time></trkpt><trkpt lat="59.0971601754" lon="29.9958377704"><ele>87.62</ele><time>2026-04-22T11:21:27Z</time></trkpt><trkpt lat="59.0971787833" lon="29.9957943521"><ele>87.62</ele><time>2026-04-22T11:21:43Z</time></trkpt><trkpt lat="59.0971214511" lon="29.9957831204"><ele>87.14</ele><time>2026-04-22T11:22:05Z</time></trkpt><trkpt lat="59.0971372090" lon="29.9958149716"><ele>87.14</ele><time>2026-04-22T11:22:37Z</time></trkpt><trkpt lat="59.0971354488" lon="29.9957088567"><ele>87.14</ele><time>2026-04-22T11:23:02Z</time></trkpt><trkpt lat="59.0970765240" lon="29.9957537837"><ele>87.14</ele><time>2026-04-22T11:23:17Z</time></trkpt><trkpt lat="59.0969891008" lon="29.9958200846"><ele>86.66</ele><time>2026-04-22T11:23:31Z</time></trkpt><trkpt lat="59.0969246440" lon="29.9958278798"><ele>86.66</ele><time>2026-04-22T11:23:41Z</time></trkpt><trkpt lat="59.0968205407" lon="29.9960074201"><ele>86.66</ele><time>2026-04-22T11:23:59Z</time></trkpt><trkpt lat="59.0967522282" lon="29.9961265270"><ele>86.66</ele><time>2026-04-22T11:24:09Z</time></trkpt><trkpt lat="59.0966531541" lon="29.9962085020"><ele>87.14</ele><time>2026-04-22T11:24:20Z</time></trkpt><trkpt lat="59.0965217259" lon="29.9963525869"><ele>87.14</ele><time>2026-04-22T11:24:35Z</time></trkpt><trkpt lat="59.0964369848" lon="29.9965034612"><ele>87.14</ele><time>2026-04-22T11:24:49Z</time></trkpt><trkpt lat="59.0963506512" lon="29.9966174550"><ele>87.14</ele><time>2026-04-22T11:25:02Z</time></trkpt><trkpt lat="59.0962199774" lon="29.9965920579"><ele>87.14</ele><time>2026-04-22T11:25:19Z</time></trkpt><trkpt lat="59.0961458813" lon="29.9966487195"><ele>87.14</ele><time>2026-04-22T11:25:33Z</time></trkpt><trkpt lat="59.0960527584" lon="29.9966709316"><ele>87.14</ele><time>2026-04-22T11:25:49Z</time></trkpt><trkpt lat="59.0960493218" lon="29.9966614600"><ele>87.14</ele><time>2026-04-22T11:25:51Z</time></trkpt><trkpt lat="59.0959131159" lon="29.9966297764"><ele>87.14</ele><time>2026-04-22T11:26:08Z</time></trkpt><trkpt lat="59.0957712941" lon="29.9967752025"><ele>87.14</ele><time>2026-04-22T11:26:22Z</time></trkpt><trkpt lat="59.0956878942" lon="29.9968681578"><ele>87.14</ele><time>2026-04-22T11:26:31Z</time></trkpt><trkpt lat="59.0955809411" lon="29.9970058724"><ele>87.14</ele><time>2026-04-22T11:26:52Z</time></trkpt><trkpt lat="59.0955721401" lon="29.9970430881"><ele>87.14</ele><time>2026-04-22T11:27:05Z</time></trkpt><trkpt lat="59.0955358464" lon="29.9970549066"><ele>87.14</ele><time>2026-04-22T11:27:20Z</time></trkpt><trkpt lat="59.0954818670" lon="29.9969710875"><ele>87.14</ele><time>2026-04-22T11:27:34Z</time></trkpt><trkpt lat="59.0954775084" lon="29.9969784636"><ele>87.14</ele><time>2026-04-22T11:27:41Z</time></trkpt><trkpt lat="59.0954966191" lon="29.9969531503"><ele>87.14</ele><time>2026-04-22T11:28:02Z</time></trkpt><trkpt lat="59.0954736527" lon="29.9968990870"><ele>87.14</ele><time>2026-04-22T11:28:24Z</time></trkpt><trkpt lat="59.0954330843" lon="29.9968896993"><ele>86.66</ele><time>2026-04-22T11:28:51Z</time></trkpt><trkpt lat="59.0954603255" lon="29.9969622865"><ele>86.66</ele><time>2026-04-22T11:29:11Z</time></trkpt><trkpt lat="59.0954557993" lon="29.9969207123"><ele>86.66</ele><time>2026-04-22T11:29:41Z</time></trkpt><trkpt lat="59.0954217687" lon="29.9968139268"><ele>86.66</ele><time>2026-04-22T11:30:16Z</time></trkpt><trkpt lat="59.0954702161" lon="29.9969230592"><ele>86.66</ele><time>2026-04-22T11:30:42Z</time></trkpt><trkpt lat="59.0954672825" lon="29.9968865141"><ele>86.66</ele><time>2026-04-22T11:31:14Z</time></trkpt><trkpt lat="59.0954252891" lon="29.9968352169"><ele>86.18</ele><time>2026-04-22T11:31:47Z</time></trkpt><trkpt lat="59.0954946075" lon="29.9970417470"><ele>86.18</ele><time>2026-04-22T11:32:08Z</time></trkpt><trkpt lat="59.0954810288" lon="29.9971032701"><ele>86.18</ele><time>2026-04-22T11:32:13Z</time></trkpt><trkpt lat="59.0954112075" lon="29.9973682221"><ele>86.18</ele><time>2026-04-22T11:32:27Z</time></trkpt><trkpt lat="59.0953512769" lon="29.9975335971"><ele>86.18</ele><time>2026-04-22T11:32:38Z</time></trkpt><trkpt lat="59.0952969622" lon="29.9975545518"><ele>86.18</ele><time>2026-04-22T11:32:45Z</time></trkpt><trkpt lat="59.0952627640" lon="29.9976515304"><ele>86.18</ele><time>2026-04-22T11:32:51Z</time></trkpt><trkpt lat="59.0952237882" lon="29.9978262093"><ele>86.18</ele><time>2026-04-22T11:33:03Z</time></trkpt><trkpt lat="59.0952009056" lon="29.9978766683"><ele>86.66</ele><time>2026-04-22T11:33:18Z</time></trkpt><trkpt lat="59.0951865725" lon="29.9977950286"><ele>86.18</ele><time>2026-04-22T11:33:25Z</time></trkpt><trkpt lat="59.0950027574" lon="29.9978770036"><ele>86.18</ele><time>2026-04-22T11:33:41Z</time></trkpt><trkpt lat="59.0948764421" lon="29.9979269598"><ele>86.66</ele><time>2026-04-22T11:33:53Z</time></trkpt><trkpt lat="59.0948665515" lon="29.9977884069"><ele>86.66</ele><time>2026-04-22T11:34:15Z</time></trkpt><trkpt lat="59.0949055273" lon="29.9977083597"><ele>86.66</ele><time>2026-04-22T11:34:38Z</time></trkpt><trkpt lat="59.0948787052" lon="29.9977115449"><ele>86.66</ele><time>2026-04-22T11:34:57Z</time></trkpt><trkpt lat="59.0948155057" lon="29.9979448132"><ele>86.66</ele><time>2026-04-22T11:35:07Z</time></trkpt><trkpt lat="59.0947180241" lon="29.9980598129"><ele>86.18</ele><time>2026-04-22T11:35:23Z</time></trkpt><trkpt lat="59.0946784616" lon="29.9979086034"><ele>86.66</ele><time>2026-04-22T11:35:42Z</time></trkpt><trkpt lat="59.0946202911" lon="29.9976152368"><ele>86.66</ele><time>2026-04-22T11:35:56Z</time></trkpt><trkpt lat="59.0945761185" lon="29.9972752668"><ele>86.66</ele><time>2026-04-22T11:36:12Z</time></trkpt><trkpt lat="59.0945609473" lon="29.9970362149"><ele>86.66</ele><time>2026-04-22T11:36:26Z</time></trkpt><trkpt lat="59.0946104005" lon="29.9970670603"><ele>86.18</ele><time>2026-04-22T11:36:53Z</time></trkpt><trkpt lat="59.0946166869" lon="29.9970719218"><ele>86.18</ele><time>2026-04-22T11:36:54Z</time></trkpt><trkpt lat="59.0946954768" lon="29.9969202932"><ele>86.18</ele><time>2026-04-22T11:37:08Z</time></trkpt><trkpt lat="59.0947897732" lon="29.9968048744"><ele>86.18</ele><time>2026-04-22T11:37:21Z</time></trkpt><trkpt lat="59.0948424954" lon="29.9967517331"><ele>86.18</ele><time>2026-04-22T11:37:29Z</time></trkpt><trkpt lat="59.0949087124" lon="29.9966431037"><ele>86.18</ele><time>2026-04-22T11:37:40Z</time></trkpt><trkpt lat="59.0949585009" lon="29.9965172913"><ele>85.69</ele><time>2026-04-22T11:37:59Z</time></trkpt><trkpt lat="59.0949673858" lon="29.9965042155"><ele>85.69</ele><time>2026-04-22T11:38:00Z</time></trkpt><trkpt lat="59.0950423200" lon="29.9963482283"><ele>85.69</ele><time>2026-04-22T11:38:14Z</time></trkpt><trkpt lat="59.0951360296" lon="29.9961193185"><ele>85.69</ele><time>2026-04-22T11:38:29Z</time></trkpt><trkpt lat="59.0951567329" lon="29.9960795045"><ele>85.69</ele><time>2026-04-22T11:38:36Z</time></trkpt><trkpt lat="59.0951947868" lon="29.9960435461"><ele>85.69</ele><time>2026-04-22T11:38:49Z</time></trkpt><trkpt lat="59.0953280590" lon="29.9960774090"><ele>85.69</ele><time>2026-04-22T11:39:05Z</time></trkpt><trkpt lat="59.0952897537" lon="29.9960966036"><ele>85.69</ele><time>2026-04-22T11:39:27Z</time></trkpt><trkpt lat="59.0952097904" lon="29.9959602300"><ele>84.25</ele><time>2026-04-22T11:40:02Z</time></trkpt><trkpt lat="59.0953407157" lon="29.9961613119"><ele>84.25</ele><time>2026-04-22T11:40:29Z</time></trkpt><trkpt lat="59.0953432303" lon="29.9961426202"><ele>84.73</ele><time>2026-04-22T11:41:03Z</time></trkpt><trkpt lat="59.0952492692" lon="29.9960407801"><ele>84.25</ele><time>2026-04-22T11:41:40Z</time></trkpt><trkpt lat="59.0952376183" lon="29.9960261118"><ele>85.69</ele><time>2026-04-22T11:41:55Z</time></trkpt><trkpt lat="59.0952617582" lon="29.9960440490"><ele>85.69</ele><time>2026-04-22T11:42:18Z</time></trkpt><trkpt lat="59.0952385403" lon="29.9961029738"><ele>85.69</ele><time>2026-04-22T11:42:40Z</time></trkpt><trkpt lat="59.0952983033" lon="29.9961695261"><ele>85.21</ele><time>2026-04-22T11:42:58Z</time></trkpt><trkpt lat="59.0952576511" lon="29.9961688556"><ele>85.21</ele><time>2026-04-22T11:43:29Z</time></trkpt><trkpt lat="59.0952309966" lon="29.9961804226"><ele>84.73</ele><time>2026-04-22T11:43:58Z</time></trkpt><trkpt lat="59.0953124687" lon="29.9960888922"><ele>84.73</ele><time>2026-04-22T11:44:31Z</time></trkpt><trkpt lat="59.0953112114" lon="29.9962244276"><ele>84.25</ele><time>2026-04-22T11:45:36Z</time></trkpt><trkpt lat="59.0952982195" lon="29.9961408600"><ele>84.25</ele><time>2026-04-22T11:45:59Z</time></trkpt><trkpt lat="59.0952936094" lon="29.9961986113"><ele>84.25</ele><time>2026-04-22T11:46:18Z</time></trkpt><trkpt lat="59.0952455811" lon="29.9962178059"><ele>84.25</ele><time>2026-04-22T11:46:44Z</time></trkpt><trkpt lat="59.0952437371" lon="29.9962182250"><ele>83.77</ele><time>2026-04-22T11:47:14Z</time></trkpt><trkpt lat="59.0952962078" lon="29.9962118547"><ele>83.77</ele><time>2026-04-22T11:47:43Z</time></trkpt><trkpt lat="59.0952854790" lon="29.9961888045"><ele>83.77</ele><time>2026-04-22T11:48:09Z</time></trkpt><trkpt lat="59.0953306574" lon="29.9961434584"><ele>83.29</ele><time>2026-04-22T11:48:38Z</time></trkpt><trkpt lat="59.0952418093" lon="29.9961657543"><ele>83.29</ele><time>2026-04-22T11:48:58Z</time></trkpt><trkpt lat="59.0952900890" lon="29.9961725436"><ele>84.25</ele><time>2026-04-22T11:49:17Z</time></trkpt><trkpt lat="59.0952619258" lon="29.9961676821"><ele>84.25</ele><time>2026-04-22T11:49:34Z</time></trkpt><trkpt lat="59.0952859819" lon="29.9960915744"><ele>86.18</ele><time>2026-04-22T11:50:03Z</time></trkpt><trkpt lat="59.0953167435" lon="29.9960555322"><ele>85.21</ele><time>2026-04-22T11:50:07Z</time></trkpt><trkpt lat="59.0954268817" lon="29.9959226791"><ele>84.73</ele><time>2026-04-22T11:50:18Z</time></trkpt><trkpt lat="59.0954919253" lon="29.9957277998"><ele>84.73</ele><time>2026-04-22T11:50:33Z</time></trkpt><trkpt lat="59.0955206752" lon="29.9956210982"><ele>84.73</ele><time>2026-04-22T11:50:47Z</time></trkpt><trkpt lat="59.0955587290" lon="29.9955952819"><ele>84.73</ele><time>2026-04-22T11:51:00Z</time></trkpt><trkpt lat="59.0956976172" lon="29.9954978004"><ele>84.25</ele><time>2026-04-22T11:51:19Z</time></trkpt><trkpt lat="59.0958303865" lon="29.9954176694"><ele>83.29</ele><time>2026-04-22T11:51:39Z</time></trkpt><trkpt lat="59.0958553646" lon="29.9956075195"><ele>83.29</ele><time>2026-04-22T11:51:59Z</time></trkpt><trkpt lat="59.0959817637" lon="29.9955511931"><ele>84.25</ele><time>2026-04-22T11:52:20Z</time></trkpt><trkpt lat="59.0961043071" lon="29.9955763388"><ele>84.25</ele><time>2026-04-22T11:52:41Z</time></trkpt><trkpt lat="59.0961096715" lon="29.9952640291"><ele>84.25</ele><time>2026-04-22T11:52:58Z</time></trkpt><trkpt lat="59.0962543432" lon="29.9952106364"><ele>84.25</ele><time>2026-04-22T11:53:18Z</time></trkpt><trkpt lat="59.0961703565" lon="29.9953905120"><ele>84.25</ele><time>2026-04-22T11:53:55Z</time></trkpt><trkpt lat="59.0963065624" lon="29.9951559026"><ele>83.77</ele><time>2026-04-22T11:54:18Z</time></trkpt><trkpt lat="59.0964731108" lon="29.9949583411"><ele>83.77</ele><time>2026-04-22T11:54:37Z</time></trkpt><trkpt lat="59.0965263359" lon="29.9947512243"><ele>83.77</ele><time>2026-04-22T11:54:56Z</time></trkpt><trkpt lat="59.0966634639" lon="29.9948739354"><ele>83.29</ele><time>2026-04-22T11:55:15Z</time></trkpt><trkpt lat="59.0967395715" lon="29.9950092193"><ele>83.29</ele><time>2026-04-22T11:55:30Z</time></trkpt><trkpt lat="59.0968754422" lon="29.9949330278"><ele>83.29</ele><time>2026-04-22T11:55:48Z</time></trkpt><trkpt lat="59.0969616920" lon="29.9949430861"><ele>83.29</ele><time>2026-04-22T11:55:59Z</time></trkpt><trkpt lat="59.0970701538" lon="29.9948759470"><ele>83.77</ele><time>2026-04-22T11:56:15Z</time></trkpt><trkpt lat="59.0971923620" lon="29.9948400725"><ele>83.77</ele><time>2026-04-22T11:56:31Z</time></trkpt><trkpt lat="59.0972852334" lon="29.9948225543"><ele>83.77</ele><time>2026-04-22T11:56:44Z</time></trkpt><trkpt lat="59.0973135643" lon="29.9948138371"><ele>83.77</ele><time>2026-04-22T11:56:49Z</time></trkpt><trkpt lat="59.0973285679" lon="29.9947844166"><ele>83.77</ele><time>2026-04-22T11:56:51Z</time></trkpt><trkpt lat="59.0974458307" lon="29.9946219753"><ele>83.77</ele><time>2026-04-22T11:57:07Z</time></trkpt><trkpt lat="59.0975339245" lon="29.9946074747"><ele>83.77</ele><time>2026-04-22T11:57:25Z</time></trkpt><trkpt lat="59.0975342598" lon="29.9946314469"><ele>83.77</ele><time>2026-04-22T11:57:30Z</time></trkpt><trkpt lat="59.0975851379" lon="29.9948622845"><ele>84.25</ele><time>2026-04-22T11:57:58Z</time></trkpt><trkpt lat="59.0975867305" lon="29.9951077905"><ele>84.25</ele><time>2026-04-22T11:58:12Z</time></trkpt><trkpt lat="59.0976048354" lon="29.9954158254"><ele>83.29</ele><time>2026-04-22T11:58:28Z</time></trkpt><trkpt lat="59.0975970402" lon="29.9956756644"><ele>83.29</ele><time>2026-04-22T11:58:43Z</time></trkpt><trkpt lat="59.0976258740" lon="29.9958836194"><ele>83.29</ele><time>2026-04-22T11:58:57Z</time></trkpt><trkpt lat="59.0976135526" lon="29.9959593080"><ele>83.29</ele><time>2026-04-22T11:59:02Z</time></trkpt><trkpt lat="59.0976250358" lon="29.9961602222"><ele>83.29</ele><time>2026-04-22T11:59:16Z</time></trkpt><trkpt lat="59.0975996386" lon="29.9962003715"><ele>83.29</ele><time>2026-04-22T11:59:20Z</time></trkpt><trkpt lat="59.0974994749" lon="29.9964158703"><ele>82.81</ele><time>2026-04-22T11:59:42Z</time></trkpt><trkpt lat="59.0975086112" lon="29.9965680018"><ele>82.81</ele><time>2026-04-22T11:59:58Z</time></trkpt><trkpt lat="59.0975347627" lon="29.9966492224"><ele>82.81</ele><time>2026-04-22T12:00:04Z</time></trkpt><trkpt lat="59.0975638479" lon="29.9967987556"><ele>82.81</ele><time>2026-04-22T12:00:14Z</time></trkpt><trkpt lat="59.0975904185" lon="29.9968653917"><ele>82.81</ele><time>2026-04-22T12:00:29Z</time></trkpt><trkpt lat="59.0976366028" lon="29.9969472829"><ele>82.81</ele><time>2026-04-22T12:00:53Z</time></trkpt><trkpt lat="59.0976827033" lon="29.9969791342"><ele>82.81</ele><time>2026-04-22T12:01:07Z</time></trkpt><trkpt lat="59.0977843758" lon="29.9968610331"><ele>82.81</ele><time>2026-04-22T12:01:26Z</time></trkpt><trkpt lat="59.0977962781" lon="29.9968682416"><ele>82.81</ele><time>2026-04-22T12:01:48Z</time></trkpt><trkpt lat="59.0977771673" lon="29.9968553334"><ele>82.81</ele><time>2026-04-22T12:02:10Z</time></trkpt><trkpt lat="59.0978045762" lon="29.9969509710"><ele>82.81</ele><time>2026-04-22T12:02:25Z</time></trkpt><trkpt lat="59.0978350025" lon="29.9969881866"><ele>82.81</ele><time>2026-04-22T12:02:35Z</time></trkpt><trkpt lat="59.0979417041" lon="29.9969180301"><ele>82.81</ele><time>2026-04-22T12:02:54Z</time></trkpt><trkpt lat="59.0980025567" lon="29.9968669005"><ele>82.81</ele><time>2026-04-22T12:03:08Z</time></trkpt><trkpt lat="59.0980494954" lon="29.9967252463"><ele>82.81</ele><time>2026-04-22T12:03:21Z</time></trkpt><trkpt lat="59.0980788320" lon="29.9967268389"><ele>82.81</ele><time>2026-04-22T12:03:45Z</time></trkpt><trkpt lat="59.0981372539" lon="29.9967467040"><ele>83.29</ele><time>2026-04-22T12:04:06Z</time></trkpt><trkpt lat="59.0981707815" lon="29.9966794811"><ele>83.77</ele><time>2026-04-22T12:04:17Z</time></trkpt><trkpt lat="59.0981297940" lon="29.9965026230"><ele>83.29</ele><time>2026-04-22T12:04:33Z</time></trkpt><trkpt lat="59.0981348231" lon="29.9964814167"><ele>83.29</ele><time>2026-04-22T12:04:35Z</time></trkpt><trkpt lat="59.0981947538" lon="29.9964558519"><ele>83.29</ele><time>2026-04-22T12:04:45Z</time></trkpt><trkpt lat="59.0981615614" lon="29.9967282638"><ele>83.29</ele><time>2026-04-22T12:05:04Z</time></trkpt><trkpt lat="59.0981974360" lon="29.9968974944"><ele>83.29</ele><time>2026-04-22T12:05:22Z</time></trkpt><trkpt lat="59.0981818456" lon="29.9969582632"><ele>83.29</ele><time>2026-04-22T12:05:37Z</time></trkpt><trkpt lat="59.0981343202" lon="29.9970849138"><ele>83.29</ele><time>2026-04-22T12:05:45Z</time></trkpt><trkpt lat="59.0980121121" lon="29.9972781166"><ele>83.29</ele><time>2026-04-22T12:06:01Z</time></trkpt><trkpt lat="59.0980015509" lon="29.9972929526"><ele>83.29</ele><time>2026-04-22T12:06:02Z</time></trkpt><trkpt lat="59.0979332384" lon="29.9973155838"><ele>83.29</ele><time>2026-04-22T12:06:29Z</time></trkpt><trkpt lat="59.0980576258" lon="29.9970958941"><ele>83.29</ele><time>2026-04-22T12:06:45Z</time></trkpt><trkpt lat="59.0981573705" lon="29.9968906213"><ele>83.29</ele><time>2026-04-22T12:07:00Z</time></trkpt><trkpt lat="59.0982722864" lon="29.9968348816"><ele>83.29</ele><time>2026-04-22T12:07:16Z</time></trkpt><trkpt lat="59.0982816741" lon="29.9968309421"><ele>82.81</ele><time>2026-04-22T12:07:17Z</time></trkpt><trkpt lat="59.0983949974" lon="29.9968016054"><ele>82.81</ele><time>2026-04-22T12:07:34Z</time></trkpt><trkpt lat="59.0984634776" lon="29.9967750348"><ele>82.81</ele><time>2026-04-22T12:07:47Z</time></trkpt><trkpt lat="59.0985384118" lon="29.9966582749"><ele>82.81</ele><time>2026-04-22T12:08:01Z</time></trkpt><trkpt lat="59.0985854343" lon="29.9965437781"><ele>82.81</ele><time>2026-04-22T12:08:18Z</time></trkpt><trkpt lat="59.0986842569" lon="29.9966069777"><ele>82.81</ele><time>2026-04-22T12:08:33Z</time></trkpt><trkpt lat="59.0988067165" lon="29.9964995217"><ele>82.81</ele><time>2026-04-22T12:08:47Z</time></trkpt><trkpt lat="59.0989182796" lon="29.9963774811"><ele>82.81</ele><time>2026-04-22T12:09:03Z</time></trkpt><trkpt lat="59.0990183596" lon="29.9962418620"><ele>82.81</ele><time>2026-04-22T12:09:19Z</time></trkpt><trkpt lat="59.0991219599" lon="29.9962338991"><ele>82.33</ele><time>2026-04-22T12:09:35Z</time></trkpt><trkpt lat="59.0992679726" lon="29.9962028023"><ele>83.29</ele><time>2026-04-22T12:09:47Z</time></trkpt><trkpt lat="59.0993927792" lon="29.9962025508"><ele>83.77</ele><time>2026-04-22T12:10:00Z</time></trkpt><trkpt lat="59.0994782746" lon="29.9962468073"><ele>83.29</ele><time>2026-04-22T12:10:14Z</time></trkpt><trkpt lat="59.0996235330" lon="29.9962215777"><ele>83.29</ele><time>2026-04-22T12:10:30Z</time></trkpt><trkpt lat="59.0997123811" lon="29.9962615594"><ele>83.29</ele><time>2026-04-22T12:10:44Z</time></trkpt><trkpt lat="59.0998088568" lon="29.9962328095"><ele>83.29</ele><time>2026-04-22T12:10:56Z</time></trkpt><trkpt lat="59.0998724755" lon="29.9960954301"><ele>83.29</ele><time>2026-04-22T12:11:10Z</time></trkpt><trkpt lat="59.0999059193" lon="29.9959975295"><ele>83.29</ele><time>2026-04-22T12:11:24Z</time></trkpt><trkpt lat="59.0999315679" lon="29.9959657621"><ele>83.29</ele><time>2026-04-22T12:11:34Z</time></trkpt><trkpt lat="59.1000145487" lon="29.9958650116"><ele>83.29</ele><time>2026-04-22T12:11:48Z</time></trkpt><trkpt lat="59.1000857949" lon="29.9957373552"><ele>83.29</ele><time>2026-04-22T12:12:00Z</time></trkpt><trkpt lat="59.1002424527" lon="29.9957276322"><ele>83.29</ele><time>2026-04-22T12:12:15Z</time></trkpt><trkpt lat="59.1003665049" lon="29.9957278837"><ele>83.29</ele><time>2026-04-22T12:12:29Z</time></trkpt><trkpt lat="59.1004673392" lon="29.9956684560"><ele>83.29</ele><time>2026-04-22T12:12:45Z</time></trkpt><trkpt lat="59.1005815845" lon="29.9956423882"><ele>82.81</ele><time>2026-04-22T12:12:59Z</time></trkpt><trkpt lat="59.1006467957" lon="29.9957174063"><ele>82.81</ele><time>2026-04-22T12:13:16Z</time></trkpt><trkpt lat="59.1007562634" lon="29.9957402889"><ele>82.81</ele><time>2026-04-22T12:13:46Z</time></trkpt><trkpt lat="59.1007679980" lon="29.9957402889"><ele>82.81</ele><time>2026-04-22T12:13:47Z</time></trkpt><trkpt lat="59.1008752026" lon="29.9958393630"><ele>82.81</ele><time>2026-04-22T12:14:00Z</time></trkpt><trkpt lat="59.1009215545" lon="29.9957982916"><ele>82.81</ele><time>2026-04-22T12:14:09Z</time></trkpt><trkpt lat="59.1009456944" lon="29.9957238603"><ele>82.81</ele><time>2026-04-22T12:14:15Z</time></trkpt><trkpt lat="59.1010052897" lon="29.9955221079"><ele>82.81</ele><time>2026-04-22T12:14:30Z</time></trkpt><trkpt lat="59.1010345425" lon="29.9954920169"><ele>82.33</ele><time>2026-04-22T12:14:51Z</time></trkpt><trkpt lat="59.1011574212" lon="29.9955230299"><ele>82.33</ele><time>2026-04-22T12:15:06Z</time></trkpt><trkpt lat="59.1012001690" lon="29.9955492653"><ele>82.33</ele><time>2026-04-22T12:15:19Z</time></trkpt><trkpt lat="59.1012618598" lon="29.9955318309"><ele>82.33</ele><time>2026-04-22T12:15:44Z</time></trkpt><trkpt lat="59.1012944654" lon="29.9955556355"><ele>82.33</ele><time>2026-04-22T12:16:04Z</time></trkpt><trkpt lat="59.1012966447" lon="29.9955642689"><ele>81.85</ele><time>2026-04-22T12:16:35Z</time></trkpt><trkpt lat="59.1013643704" lon="29.9954156578"><ele>80.41</ele><time>2026-04-22T12:16:47Z</time></trkpt><trkpt lat="59.1014145780" lon="29.9954185076"><ele>80.41</ele><time>2026-04-22T12:17:01Z</time></trkpt><trkpt lat="59.1014665458" lon="29.9953034241"><ele>80.41</ele><time>2026-04-22T12:17:19Z</time></trkpt><trkpt lat="59.1014973074" lon="29.9951368757"><ele>80.41</ele><time>2026-04-22T12:17:36Z</time></trkpt><trkpt lat="59.1015053540" lon="29.9950503744"><ele>80.41</ele><time>2026-04-22T12:17:50Z</time></trkpt><trkpt lat="59.1015941184" lon="29.9950382207"><ele>80.41</ele><time>2026-04-22T12:18:05Z</time></trkpt><trkpt lat="59.1017004848" lon="29.9950595945"><ele>79.93</ele><time>2026-04-22T12:18:21Z</time></trkpt><trkpt lat="59.1017090343" lon="29.9950599298"><ele>79.93</ele><time>2026-04-22T12:18:22Z</time></trkpt><trkpt lat="59.1017963737" lon="29.9950274918"><ele>79.93</ele><time>2026-04-22T12:18:37Z</time></trkpt><trkpt lat="59.1018616688" lon="29.9950176850"><ele>79.45</ele><time>2026-04-22T12:18:53Z</time></trkpt><trkpt lat="59.1019266285" lon="29.9949476961"><ele>79.45</ele><time>2026-04-22T12:19:07Z</time></trkpt><trkpt lat="59.1020018142" lon="29.9948551599"><ele>78.97</ele><time>2026-04-22T12:19:23Z</time></trkpt><trkpt lat="59.1020698752" lon="29.9947572593"><ele>78.97</ele><time>2026-04-22T12:19:39Z</time></trkpt><trkpt lat="59.1021034028" lon="29.9946422596"><ele>78.97</ele><time>2026-04-22T12:19:56Z</time></trkpt><trkpt lat="59.1021843720" lon="29.9946871866"><ele>78.97</ele><time>2026-04-22T12:20:17Z</time></trkpt><trkpt lat="59.1022606473" lon="29.9946114980"><ele>78.97</ele><time>2026-04-22T12:20:32Z</time></trkpt><trkpt lat="59.1022922471" lon="29.9946125038"><ele>78.97</ele><time>2026-04-22T12:20:46Z</time></trkpt><trkpt lat="59.1023226734" lon="29.9946416728"><ele>78.48</ele><time>2026-04-22T12:20:57Z</time></trkpt><trkpt lat="59.1023725457" lon="29.9944604561"><ele>79.93</ele><time>2026-04-22T12:21:16Z</time></trkpt><trkpt lat="59.1023112740" lon="29.9942406826"><ele>79.93</ele><time>2026-04-22T12:21:32Z</time></trkpt><trkpt lat="59.1022862960" lon="29.9941384234"><ele>79.93</ele><time>2026-04-22T12:21:45Z</time></trkpt><trkpt lat="59.1023223381" lon="29.9940942507"><ele>79.93</ele><time>2026-04-22T12:22:12Z</time></trkpt><trkpt lat="59.1023054067" lon="29.9940520898"><ele>79.45</ele><time>2026-04-22T12:22:22Z</time></trkpt><trkpt lat="59.1022510920" lon="29.9939391017"><ele>79.45</ele><time>2026-04-22T12:22:43Z</time></trkpt><trkpt lat="59.1023241822" lon="29.9942116812"><ele>79.45</ele><time>2026-04-22T12:22:59Z</time></trkpt><trkpt lat="59.1023513395" lon="29.9943407625"><ele>79.45</ele><time>2026-04-22T12:23:12Z</time></trkpt><trkpt lat="59.1023246013" lon="29.9944632221"><ele>79.45</ele><time>2026-04-22T12:23:27Z</time></trkpt><trkpt lat="59.1023119446" lon="29.9945729412"><ele>79.93</ele><time>2026-04-22T12:23:40Z</time></trkpt><trkpt lat="59.1023166385" lon="29.9947258271"><ele>79.93</ele><time>2026-04-22T12:23:54Z</time></trkpt><trkpt lat="59.1023450531" lon="29.9946156889"><ele>79.93</ele><time>2026-04-22T12:24:13Z</time></trkpt><trkpt lat="59.1023846157" lon="29.9946369790"><ele>79.93</ele><time>2026-04-22T12:24:35Z</time></trkpt><trkpt lat="59.1023847833" lon="29.9946705904"><ele>79.93</ele><time>2026-04-22T12:24:50Z</time></trkpt><trkpt lat="59.1024691891" lon="29.9946933053"><ele>79.93</ele><time>2026-04-22T12:25:05Z</time></trkpt><trkpt lat="59.1025264375" lon="29.9946756195"><ele>79.93</ele><time>2026-04-22T12:25:13Z</time></trkpt><trkpt lat="59.1025945824" lon="29.9946706742"><ele>79.93</ele><time>2026-04-22T12:25:24Z</time></trkpt><trkpt lat="59.1026416048" lon="29.9948197883"><ele>79.93</ele><time>2026-04-22T12:25:40Z</time></trkpt><trkpt lat="59.1026921477" lon="29.9947542418"><ele>79.93</ele><time>2026-04-22T12:25:56Z</time></trkpt><trkpt lat="59.1027069837" lon="29.9947454408"><ele>79.93</ele><time>2026-04-22T12:26:00Z</time></trkpt><trkpt lat="59.1027532518" lon="29.9946012720"><ele>79.45</ele><time>2026-04-22T12:26:17Z</time></trkpt><trkpt lat="59.1027079057" lon="29.9944704305"><ele>79.45</ele><time>2026-04-22T12:26:28Z</time></trkpt><trkpt lat="59.1027392540" lon="29.9943632260"><ele>78.48</ele><time>2026-04-22T12:26:43Z</time></trkpt><trkpt lat="59.1028348915" lon="29.9944747891"><ele>78.48</ele><time>2026-04-22T12:26:54Z</time></trkpt><trkpt lat="59.1028562654" lon="29.9944309518"><ele>78.00</ele><time>2026-04-22T12:26:58Z</time></trkpt><trkpt lat="59.1029669065" lon="29.9943978433"><ele>78.00</ele><time>2026-04-22T12:27:13Z</time></trkpt><trkpt lat="59.1030527372" lon="29.9943424389"><ele>78.00</ele><time>2026-04-22T12:27:26Z</time></trkpt><trkpt lat="59.1031934693" lon="29.9943414330"><ele>78.00</ele><time>2026-04-22T12:27:42Z</time></trkpt><trkpt lat="59.1032237280" lon="29.9942999426"><ele>78.00</ele><time>2026-04-22T12:27:56Z</time></trkpt><trkpt lat="59.1033057030" lon="29.9942587875"><ele>78.00</ele><time>2026-04-22T12:28:09Z</time></trkpt><trkpt lat="59.1033062059" lon="29.9942676723"><ele>77.52</ele><time>2026-04-22T12:28:30Z</time></trkpt><trkpt lat="59.1033090558" lon="29.9943845160"><ele>77.52</ele><time>2026-04-22T12:28:49Z</time></trkpt><trkpt lat="59.1033896059" lon="29.9943845160"><ele>77.52</ele><time>2026-04-22T12:29:02Z</time></trkpt><trkpt lat="59.1034222115" lon="29.9944572710"><ele>77.52</ele><time>2026-04-22T12:29:18Z</time></trkpt><trkpt lat="59.1034411546" lon="29.9945020303"><ele>77.52</ele><time>2026-04-22T12:29:24Z</time></trkpt><trkpt lat="59.1035193577" lon="29.9945110828"><ele>77.52</ele><time>2026-04-22T12:29:33Z</time></trkpt><trkpt lat="59.1035396419" lon="29.9943366554"><ele>77.04</ele><time>2026-04-22T12:29:48Z</time></trkpt><trkpt lat="59.1035975609" lon="29.9942521658"><ele>77.04</ele><time>2026-04-22T12:30:04Z</time></trkpt><trkpt lat="59.1035895143" lon="29.9941981863"><ele>77.04</ele><time>2026-04-22T12:30:08Z</time></trkpt><trkpt lat="59.1035921965" lon="29.9940506648"><ele>76.56</ele><time>2026-04-22T12:30:21Z</time></trkpt><trkpt lat="59.1035884246" lon="29.9940213282"><ele>76.56</ele><time>2026-04-22T12:30:48Z</time></trkpt><trkpt lat="59.1036826372" lon="29.9940266088"><ele>76.56</ele><time>2026-04-22T12:31:03Z</time></trkpt><trkpt lat="59.1037020832" lon="29.9940387625"><ele>76.56</ele><time>2026-04-22T12:31:04Z</time></trkpt><trkpt lat="59.1037754249" lon="29.9941661675"><ele>76.56</ele><time>2026-04-22T12:31:17Z</time></trkpt><trkpt lat="59.1038184240" lon="29.9943020381"><ele>77.04</ele><time>2026-04-22T12:31:25Z</time></trkpt><trkpt lat="59.1038280632" lon="29.9943631422"><ele>77.04</ele><time>2026-04-22T12:31:27Z</time></trkpt><trkpt lat="59.1038643569" lon="29.9944480509"><ele>77.04</ele><time>2026-04-22T12:31:41Z</time></trkpt><trkpt lat="59.1038855631" lon="29.9943912216"><ele>77.04</ele><time>2026-04-22T12:31:55Z</time></trkpt><trkpt lat="59.1039219406" lon="29.9943554308"><ele>77.04</ele><time>2026-04-22T12:31:58Z</time></trkpt><trkpt lat="59.1040177457" lon="29.9943535868"><ele>77.04</ele><time>2026-04-22T12:32:08Z</time></trkpt><trkpt lat="59.1041082703" lon="29.9944038782"><ele>77.04</ele><time>2026-04-22T12:32:20Z</time></trkpt><trkpt lat="59.1042427160" lon="29.9944006093"><ele>77.04</ele><time>2026-04-22T12:32:36Z</time></trkpt><trkpt lat="59.1042667720" lon="29.9943736196"><ele>76.56</ele><time>2026-04-22T12:32:48Z</time></trkpt><trkpt lat="59.1042835359" lon="29.9941649102"><ele>76.56</ele><time>2026-04-22T12:33:03Z</time></trkpt><trkpt lat="59.1043114476" lon="29.9941456318"><ele>76.56</ele><time>2026-04-22T12:33:06Z</time></trkpt><trkpt lat="59.1044235136" lon="29.9941951688"><ele>76.56</ele><time>2026-04-22T12:33:19Z</time></trkpt><trkpt lat="59.1044841148" lon="29.9942670017"><ele>76.56</ele><time>2026-04-22T12:33:31Z</time></trkpt><trkpt lat="59.1045183968" lon="29.9941454642"><ele>76.56</ele><time>2026-04-22T12:33:45Z</time></trkpt><trkpt lat="59.1046038084" lon="29.9941517506"><ele>76.56</ele><time>2026-04-22T12:34:09Z</time></trkpt><trkpt lat="59.1045929957" lon="29.9941430334"><ele>76.56</ele><time>2026-04-22T12:34:11Z</time></trkpt><trkpt lat="59.1046612244" lon="29.9941031355"><ele>76.56</ele><time>2026-04-22T12:34:23Z</time></trkpt><trkpt lat="59.1047850251" lon="29.9940283690"><ele>76.56</ele><time>2026-04-22T12:34:38Z</time></trkpt><trkpt lat="59.1048209835" lon="29.9939456396"><ele>76.56</ele><time>2026-04-22T12:34:55Z</time></trkpt><trkpt lat="59.1048546787" lon="29.9939701986"><ele>76.56</ele><time>2026-04-22T12:35:13Z</time></trkpt><trkpt lat="59.1048984323" lon="29.9939442985"><ele>76.56</ele><time>2026-04-22T12:35:20Z</time></trkpt><trkpt lat="59.1049217340" lon="29.9939073343"><ele>76.08</ele><time>2026-04-22T12:35:39Z</time></trkpt><trkpt lat="59.1049701814" lon="29.9938585516"><ele>76.08</ele><time>2026-04-22T12:35:51Z</time></trkpt><trkpt lat="59.1049592849" lon="29.9939717073"><ele>76.08</ele><time>2026-04-22T12:36:13Z</time></trkpt><trkpt lat="59.1050497256" lon="29.9939797539"><ele>76.08</ele><time>2026-04-22T12:36:20Z</time></trkpt><trkpt lat="59.1050540842" lon="29.9941425305"><ele>76.08</ele><time>2026-04-22T12:36:39Z</time></trkpt><trkpt lat="59.1049571056" lon="29.9941448774"><ele>76.08</ele><time>2026-04-22T12:36:54Z</time></trkpt><trkpt lat="59.1049100831" lon="29.9940951727"><ele>76.08</ele><time>2026-04-22T12:37:02Z</time></trkpt><trkpt lat="59.1048877034" lon="29.9940456357"><ele>76.08</ele><time>2026-04-22T12:37:13Z</time></trkpt><trkpt lat="59.1050241608" lon="29.9940987770"><ele>76.08</ele><time>2026-04-22T12:37:30Z</time></trkpt><trkpt lat="59.1051307786" lon="29.9939987808"><ele>76.08</ele><time>2026-04-22T12:37:42Z</time></trkpt><trkpt lat="59.1051938105" lon="29.9939583801"><ele>76.08</ele><time>2026-04-22T12:37:57Z</time></trkpt><trkpt lat="59.1052741930" lon="29.9939034786"><ele>76.08</ele><time>2026-04-22T12:38:11Z</time></trkpt><trkpt lat="59.1053074691" lon="29.9939229246"><ele>75.60</ele><time>2026-04-22T12:38:27Z</time></trkpt><trkpt lat="59.1052702535" lon="29.9939113576"><ele>75.60</ele><time>2026-04-22T12:38:44Z</time></trkpt><trkpt lat="59.1052710917" lon="29.9939197395"><ele>75.60</ele><time>2026-04-22T12:39:19Z</time></trkpt><trkpt lat="59.1053024400" lon="29.9938754831"><ele>75.60</ele><time>2026-04-22T12:39:44Z</time></trkpt><trkpt lat="59.1054032743" lon="29.9937319010"><ele>75.12</ele><time>2026-04-22T12:39:58Z</time></trkpt><trkpt lat="59.1054129973" lon="29.9936909974"><ele>75.12</ele><time>2026-04-22T12:40:06Z</time></trkpt><trkpt lat="59.1053914558" lon="29.9936609901"><ele>75.12</ele><time>2026-04-22T12:40:08Z</time></trkpt><trkpt lat="59.1054106504" lon="29.9934881553"><ele>75.12</ele><time>2026-04-22T12:40:24Z</time></trkpt><trkpt lat="59.1054662224" lon="29.9932917673"><ele>75.12</ele><time>2026-04-22T12:40:38Z</time></trkpt><trkpt lat="59.1054255702" lon="29.9932884146"><ele>74.64</ele><time>2026-04-22T12:41:01Z</time></trkpt><trkpt lat="59.1053509712" lon="29.9933066033"><ele>74.64</ele><time>2026-04-22T12:41:17Z</time></trkpt><trkpt lat="59.1052496340" lon="29.9932517856"><ele>74.64</ele><time>2026-04-22T12:41:33Z</time></trkpt><trkpt lat="59.1051643901" lon="29.9933107104"><ele>75.12</ele><time>2026-04-22T12:41:47Z</time></trkpt><trkpt lat="59.1051410884" lon="29.9933044240"><ele>75.12</ele><time>2026-04-22T12:41:50Z</time></trkpt><trkpt lat="59.1050344706" lon="29.9934170768"><ele>75.12</ele><time>2026-04-22T12:42:03Z</time></trkpt><trkpt lat="59.1049731988" lon="29.9934255425"><ele>75.12</ele><time>2026-04-22T12:42:13Z</time></trkpt><trkpt lat="59.1049901303" lon="29.9934327509"><ele>75.12</ele><time>2026-04-22T12:42:36Z</time></trkpt><trkpt lat="59.1049182974" lon="29.9934526160"><ele>75.12</ele><time>2026-04-22T12:42:47Z</time></trkpt><trkpt lat="59.1048997734" lon="29.9934655242"><ele>75.12</ele><time>2026-04-22T12:42:49Z</time></trkpt><trkpt lat="59.1047784872" lon="29.9934485089"><ele>75.12</ele><time>2026-04-22T12:43:04Z</time></trkpt><trkpt lat="59.1047132760" lon="29.9934423901"><ele>75.12</ele><time>2026-04-22T12:43:15Z</time></trkpt><trkpt lat="59.1045976896" lon="29.9935479183"><ele>75.12</ele><time>2026-04-22T12:43:25Z</time></trkpt><trkpt lat="59.1045795009" lon="29.9933427293"><ele>75.60</ele><time>2026-04-22T12:43:49Z</time></trkpt><trkpt lat="59.1045868769" lon="29.9933246244"><ele>75.60</ele><time>2026-04-22T12:43:50Z</time></trkpt><trkpt lat="59.1045915708" lon="29.9932767637"><ele>75.60</ele><time>2026-04-22T12:44:01Z</time></trkpt><trkpt lat="59.1045556962" lon="29.9932533782"><ele>76.08</ele><time>2026-04-22T12:44:11Z</time></trkpt><trkpt lat="59.1045191512" lon="29.9931791145"><ele>76.08</ele><time>2026-04-22T12:44:16Z</time></trkpt><trkpt lat="59.1043496691" lon="29.9930650368"><ele>76.08</ele><time>2026-04-22T12:44:32Z</time></trkpt><trkpt lat="59.1044002958" lon="29.9930652045"><ele>76.08</ele><time>2026-04-22T12:44:42Z</time></trkpt><trkpt lat="59.1043334920" lon="29.9931791145"><ele>76.56</ele><time>2026-04-22T12:44:59Z</time></trkpt><trkpt lat="59.1042702924" lon="29.9932905100"><ele>76.56</ele><time>2026-04-22T12:45:25Z</time></trkpt><trkpt lat="59.1042622458" lon="29.9932290707"><ele>76.56</ele><time>2026-04-22T12:45:29Z</time></trkpt><trkpt lat="59.1042205039" lon="29.9932848942"><ele>76.56</ele><time>2026-04-22T12:45:47Z</time></trkpt><trkpt lat="59.1041435581" lon="29.9933468364"><ele>76.56</ele><time>2026-04-22T12:45:56Z</time></trkpt><trkpt lat="59.1040666122" lon="29.9932563957"><ele>76.56</ele><time>2026-04-22T12:46:03Z</time></trkpt><trkpt lat="59.1040216852" lon="29.9932306632"><ele>76.56</ele><time>2026-04-22T12:46:11Z</time></trkpt><trkpt lat="59.1039800271" lon="29.9931806233"><ele>76.56</ele><time>2026-04-22T12:46:28Z</time></trkpt><trkpt lat="59.1039721482" lon="29.9931315053"><ele>76.56</ele><time>2026-04-22T12:46:53Z</time></trkpt><trkpt lat="59.1039772611" lon="29.9929442536"><ele>76.56</ele><time>2026-04-22T12:47:04Z</time></trkpt><trkpt lat="59.1039794404" lon="29.9926640466"><ele>76.56</ele><time>2026-04-22T12:47:21Z</time></trkpt><trkpt lat="59.1038619261" lon="29.9926406611"><ele>76.56</ele><time>2026-04-22T12:47:34Z</time></trkpt><trkpt lat="59.1037791129" lon="29.9926430918"><ele>76.56</ele><time>2026-04-22T12:47:48Z</time></trkpt><trkpt lat="59.1037591640" lon="29.9927717540"><ele>76.56</ele><time>2026-04-22T12:48:04Z</time></trkpt><trkpt lat="59.1038152389" lon="29.9925561715"><ele>76.56</ele><time>2026-04-22T12:48:23Z</time></trkpt><trkpt lat="59.1038702242" lon="29.9923633039"><ele>76.56</ele><time>2026-04-22T12:48:36Z</time></trkpt><trkpt lat="59.1038615070" lon="29.9923617952"><ele>76.56</ele><time>2026-04-22T12:48:37Z</time></trkpt><trkpt lat="59.1038266383" lon="29.9925756175"><ele>76.56</ele><time>2026-04-22T12:49:04Z</time></trkpt><trkpt lat="59.1037983913" lon="29.9926264957"><ele>77.04</ele><time>2026-04-22T12:49:18Z</time></trkpt><trkpt lat="59.1038248781" lon="29.9926089775"><ele>76.56</ele><time>2026-04-22T12:49:34Z</time></trkpt><trkpt lat="59.1037806217" lon="29.9924686644"><ele>76.56</ele><time>2026-04-22T12:49:44Z</time></trkpt><trkpt lat="59.1038819589" lon="29.9922301993"><ele>76.56</ele><time>2026-04-22T12:50:02Z</time></trkpt><trkpt lat="59.1039637662" lon="29.9921565223"><ele>76.08</ele><time>2026-04-22T12:50:20Z</time></trkpt><trkpt lat="59.1039889120" lon="29.9921298679"><ele>76.08</ele><time>2026-04-22T12:50:45Z</time></trkpt><trkpt lat="59.1038501076" lon="29.9924529064"><ele>76.08</ele><time>2026-04-22T12:51:02Z</time></trkpt><trkpt lat="59.1037576552" lon="29.9927765317"><ele>76.08</ele><time>2026-04-22T12:51:21Z</time></trkpt><trkpt lat="59.1037037596" lon="29.9930499494"><ele>75.60</ele><time>2026-04-22T12:51:41Z</time></trkpt><trkpt lat="59.1036165040" lon="29.9932663701"><ele>76.08</ele><time>2026-04-22T12:52:04Z</time></trkpt><trkpt lat="59.1037253011" lon="29.9929154199"><ele>76.08</ele><time>2026-04-22T12:52:24Z</time></trkpt><trkpt lat="59.1037929431" lon="29.9926164374"><ele>76.08</ele><time>2026-04-22T12:52:44Z</time></trkpt><trkpt lat="59.1040433105" lon="29.9927915353"><ele>75.60</ele><time>2026-04-22T12:53:11Z</time></trkpt><trkpt lat="59.1039663646" lon="29.9928933755"><ele>75.60</ele><time>2026-04-22T12:53:36Z</time></trkpt><trkpt lat="59.1038711462" lon="29.9928216264"><ele>75.60</ele><time>2026-04-22T12:53:55Z</time></trkpt><trkpt lat="59.1039021593" lon="29.9928221293"><ele>75.12</ele><time>2026-04-22T12:54:11Z</time></trkpt><trkpt lat="59.1038393788" lon="29.9928715825"><ele>75.12</ele><time>2026-04-22T12:54:16Z</time></trkpt><trkpt lat="59.1037382931" lon="29.9929078761"><ele>75.12</ele><time>2026-04-22T12:54:30Z</time></trkpt><trkpt lat="59.1037206911" lon="29.9931003246"><ele>75.12</ele><time>2026-04-22T12:54:45Z</time></trkpt><trkpt lat="59.1036491096" lon="29.9931784440"><ele>75.12</ele><time>2026-04-22T12:55:01Z</time></trkpt><trkpt lat="59.1036301665" lon="29.9931118079"><ele>74.64</ele><time>2026-04-22T12:55:30Z</time></trkpt><trkpt lat="59.1035901010" lon="29.9930091295"><ele>74.64</ele><time>2026-04-22T12:55:43Z</time></trkpt><trkpt lat="59.1035538912" lon="29.9929890968"><ele>74.64</ele><time>2026-04-22T12:56:00Z</time></trkpt><trkpt lat="59.1034787893" lon="29.9930151645"><ele>74.64</ele><time>2026-04-22T12:56:12Z</time></trkpt><trkpt lat="59.1034290008" lon="29.9930299167"><ele>74.16</ele><time>2026-04-22T12:56:30Z</time></trkpt><trkpt lat="59.1033816431" lon="29.9931054376"><ele>74.16</ele><time>2026-04-22T12:56:46Z</time></trkpt><trkpt lat="59.1033273283" lon="29.9932373688"><ele>74.16</ele><time>2026-04-22T12:57:01Z</time></trkpt><trkpt lat="59.1032893583" lon="29.9931491911"><ele>74.16</ele><time>2026-04-22T12:57:15Z</time></trkpt><trkpt lat="59.1032100655" lon="29.9931300804"><ele>74.16</ele><time>2026-04-22T12:57:31Z</time></trkpt><trkpt lat="59.1031732690" lon="29.9931743369"><ele>73.68</ele><time>2026-04-22T12:57:49Z</time></trkpt><trkpt lat="59.1031074710" lon="29.9931082036"><ele>73.68</ele><time>2026-04-22T12:58:06Z</time></trkpt><trkpt lat="59.1031002626" lon="29.9931089580"><ele>73.68</ele><time>2026-04-22T12:58:07Z</time></trkpt><trkpt lat="59.1030161921" lon="29.9930683058"><ele>73.68</ele><time>2026-04-22T12:58:19Z</time></trkpt><trkpt lat="59.1029614583" lon="29.9930207804"><ele>73.68</ele><time>2026-04-22T12:58:35Z</time></trkpt><trkpt lat="59.1028908826" lon="29.9930009991"><ele>73.20</ele><time>2026-04-22T12:58:51Z</time></trkpt><trkpt lat="59.1028863564" lon="29.9931758456"><ele>73.20</ele><time>2026-04-22T12:59:04Z</time></trkpt><trkpt lat="59.1028956603" lon="29.9932637718"><ele>73.20</ele><time>2026-04-22T12:59:22Z</time></trkpt><trkpt lat="59.1028343048" lon="29.9931653682"><ele>73.20</ele><time>2026-04-22T12:59:37Z</time></trkpt><trkpt lat="59.1027456243" lon="29.9932616763"><ele>73.20</ele><time>2026-04-22T12:59:53Z</time></trkpt><trkpt lat="59.1026898008" lon="29.9933236185"><ele>73.20</ele><time>2026-04-22T13:00:07Z</time></trkpt><trkpt lat="59.1026305407" lon="29.9933239538"><ele>72.72</ele><time>2026-04-22T13:00:21Z</time></trkpt><trkpt lat="59.1025388427" lon="29.9934834614"><ele>72.72</ele><time>2026-04-22T13:00:35Z</time></trkpt><trkpt lat="59.1025040578" lon="29.9935123790"><ele>73.20</ele><time>2026-04-22T13:00:54Z</time></trkpt><trkpt lat="59.1024672613" lon="29.9934294820"><ele>73.20</ele><time>2026-04-22T13:01:06Z</time></trkpt><trkpt lat="59.1024440434" lon="29.9933514465"><ele>73.20</ele><time>2026-04-22T13:01:11Z</time></trkpt><trkpt lat="59.1023740545" lon="29.9932986405"><ele>73.20</ele><time>2026-04-22T13:01:29Z</time></trkpt><trkpt lat="59.1023413651" lon="29.9934159871"><ele>73.20</ele><time>2026-04-22T13:01:52Z</time></trkpt><trkpt lat="59.1022998746" lon="29.9936527759"><ele>72.72</ele><time>2026-04-22T13:02:06Z</time></trkpt><trkpt lat="59.1022337414" lon="29.9936620798"><ele>72.72</ele><time>2026-04-22T13:02:20Z</time></trkpt><trkpt lat="59.1022011358" lon="29.9936478306"><ele>72.72</ele><time>2026-04-22T13:02:36Z</time></trkpt><trkpt lat="59.1021480784" lon="29.9936562125"><ele>72.72</ele><time>2026-04-22T13:02:50Z</time></trkpt><trkpt lat="59.1020777542" lon="29.9936108664"><ele>72.72</ele><time>2026-04-22T13:03:04Z</time></trkpt><trkpt lat="59.1020690370" lon="29.9936197512"><ele>72.72</ele><time>2026-04-22T13:03:06Z</time></trkpt><trkpt lat="59.1019587312" lon="29.9937039055"><ele>72.72</ele><time>2026-04-22T13:03:23Z</time></trkpt><trkpt lat="59.1018982138" lon="29.9938062485"><ele>72.72</ele><time>2026-04-22T13:03:37Z</time></trkpt><trkpt lat="59.1018657759" lon="29.9939133693"><ele>72.24</ele><time>2026-04-22T13:03:51Z</time></trkpt><trkpt lat="59.1018075217" lon="29.9939358328"><ele>72.24</ele><time>2026-04-22T13:04:11Z</time></trkpt><trkpt lat="59.1017879918" lon="29.9939986132"><ele>72.24</ele><time>2026-04-22T13:04:27Z</time></trkpt><trkpt lat="59.1016743332" lon="29.9939818494"><ele>72.24</ele><time>2026-04-22T13:04:41Z</time></trkpt><trkpt lat="59.1016282327" lon="29.9939225893"><ele>72.24</ele><time>2026-04-22T13:04:48Z</time></trkpt><trkpt lat="59.1015604232" lon="29.9939147942"><ele>72.24</ele><time>2026-04-22T13:05:00Z</time></trkpt><trkpt lat="59.1014954634" lon="29.9938343279"><ele>72.24</ele><time>2026-04-22T13:05:15Z</time></trkpt><trkpt lat="59.1014505364" lon="29.9938023090"><ele>72.24</ele><time>2026-04-22T13:05:27Z</time></trkpt><trkpt lat="59.1013662983" lon="29.9939800054"><ele>72.24</ele><time>2026-04-22T13:05:43Z</time></trkpt><trkpt lat="59.1012932081" lon="29.9940206576"><ele>72.24</ele><time>2026-04-22T13:05:55Z</time></trkpt><trkpt lat="59.1012326907" lon="29.9941649102"><ele>72.24</ele><time>2026-04-22T13:06:09Z</time></trkpt><trkpt lat="59.1012481134" lon="29.9941086676"><ele>72.24</ele><time>2026-04-22T13:06:12Z</time></trkpt><trkpt lat="59.1011784598" lon="29.9941592105"><ele>72.24</ele><time>2026-04-22T13:06:25Z</time></trkpt><trkpt lat="59.1011326108" lon="29.9940411095"><ele>72.24</ele><time>2026-04-22T13:06:37Z</time></trkpt><trkpt lat="59.1011290066" lon="29.9940418638"><ele>72.24</ele><time>2026-04-22T13:06:38Z</time></trkpt><trkpt lat="59.1010191198" lon="29.9940930773"><ele>72.24</ele><time>2026-04-22T13:06:51Z</time></trkpt><trkpt lat="59.1008946486" lon="29.9942785688"><ele>72.24</ele><time>2026-04-22T13:07:06Z</time></trkpt><trkpt lat="59.1008764599" lon="29.9944176245"><ele>72.24</ele><time>2026-04-22T13:07:20Z</time></trkpt><trkpt lat="59.1008775495" lon="29.9943951610"><ele>72.24</ele><time>2026-04-22T13:07:23Z</time></trkpt><trkpt lat="59.1008941457" lon="29.9944619648"><ele>72.24</ele><time>2026-04-22T13:07:28Z</time></trkpt><trkpt lat="59.1008118354" lon="29.9943876173"><ele>72.24</ele><time>2026-04-22T13:07:43Z</time></trkpt><trkpt lat="59.1008025315" lon="29.9943907186"><ele>72.24</ele><time>2026-04-22T13:07:44Z</time></trkpt><trkpt lat="59.1007077321" lon="29.9944724422"><ele>72.24</ele><time>2026-04-22T13:07:58Z</time></trkpt><trkpt lat="59.1006322112" lon="29.9945393298"><ele>72.24</ele><time>2026-04-22T13:08:20Z</time></trkpt><trkpt lat="59.1006244998" lon="29.9945783895"><ele>71.76</ele><time>2026-04-22T13:08:37Z</time></trkpt><trkpt lat="59.1006190516" lon="29.9946065526"><ele>71.76</ele><time>2026-04-22T13:08:39Z</time></trkpt><trkpt lat="59.1006774735" lon="29.9944333825"><ele>71.76</ele><time>2026-04-22T13:09:02Z</time></trkpt><trkpt lat="59.1005576961" lon="29.9944939837"><ele>71.76</ele><time>2026-04-22T13:09:16Z</time></trkpt><trkpt lat="59.1005571093" lon="29.9946068879"><ele>72.24</ele><time>2026-04-22T13:09:38Z</time></trkpt><trkpt lat="59.1005156189" lon="29.9944787286"><ele>72.24</ele><time>2026-04-22T13:09:52Z</time></trkpt><trkpt lat="59.1004210711" lon="29.9945830833"><ele>72.24</ele><time>2026-04-22T13:10:01Z</time></trkpt><trkpt lat="59.1002785787" lon="29.9946114141"><ele>72.24</ele><time>2026-04-22T13:10:16Z</time></trkpt><trkpt lat="59.1002313886" lon="29.9944976717"><ele>72.24</ele><time>2026-04-22T13:10:31Z</time></trkpt><trkpt lat="59.1001232620" lon="29.9946052954"><ele>72.24</ele><time>2026-04-22T13:10:46Z</time></trkpt><trkpt lat="59.1000582185" lon="29.9946140125"><ele>72.24</ele><time>2026-04-22T13:11:02Z</time></trkpt><trkpt lat="59.0999034047" lon="29.9946729373"><ele>72.24</ele><time>2026-04-22T13:11:17Z</time></trkpt><trkpt lat="59.0998227708" lon="29.9945511483"><ele>72.24</ele><time>2026-04-22T13:11:31Z</time></trkpt><trkpt lat="59.0997367725" lon="29.9946740270"><ele>71.76</ele><time>2026-04-22T13:11:38Z</time></trkpt><trkpt lat="59.0996174980" lon="29.9947324488"><ele>71.76</ele><time>2026-04-22T13:11:56Z</time></trkpt><trkpt lat="59.0995212737" lon="29.9947571754"><ele>71.76</ele><time>2026-04-22T13:12:09Z</time></trkpt><trkpt lat="59.0994165000" lon="29.9948410783"><ele>71.76</ele><time>2026-04-22T13:12:24Z</time></trkpt><trkpt lat="59.0993459243" lon="29.9948778749"><ele>71.76</ele><time>2026-04-22T13:12:38Z</time></trkpt><trkpt lat="59.0992627759" lon="29.9949300103"><ele>71.76</ele><time>2026-04-22T13:12:52Z</time></trkpt><trkpt lat="59.0992373787" lon="29.9949255679"><ele>71.76</ele><time>2026-04-22T13:12:55Z</time></trkpt><trkpt lat="59.0991921164" lon="29.9949932098"><ele>71.76</ele><time>2026-04-22T13:13:00Z</time></trkpt><trkpt lat="59.0990989935" lon="29.9953241274"><ele>72.24</ele><time>2026-04-22T13:13:16Z</time></trkpt><trkpt lat="59.0990642924" lon="29.9954262190"><ele>72.24</ele><time>2026-04-22T13:13:30Z</time></trkpt><trkpt lat="59.0990589280" lon="29.9954386242"><ele>72.24</ele><time>2026-04-22T13:13:34Z</time></trkpt><trkpt lat="59.0990462713" lon="29.9954412226"><ele>72.24</ele><time>2026-04-22T13:13:57Z</time></trkpt><trkpt lat="59.0990485344" lon="29.9954190943"><ele>72.24</ele><time>2026-04-22T13:13:58Z</time></trkpt><trkpt lat="59.0990790445" lon="29.9952847324"><ele>72.24</ele><time>2026-04-22T13:14:08Z</time></trkpt><trkpt lat="59.0991232172" lon="29.9950155895"><ele>72.24</ele><time>2026-04-22T13:14:23Z</time></trkpt><trkpt lat="59.0990798827" lon="29.9948199559"><ele>72.24</ele><time>2026-04-22T13:14:38Z</time></trkpt><trkpt lat="59.0990552399" lon="29.9948614463"><ele>72.24</ele><time>2026-04-22T13:14:59Z</time></trkpt><trkpt lat="59.0990416612" lon="29.9948443472"><ele>72.24</ele><time>2026-04-22T13:15:04Z</time></trkpt><trkpt lat="59.0990293398" lon="29.9946559221"><ele>72.24</ele><time>2026-04-22T13:15:18Z</time></trkpt><trkpt lat="59.0990129113" lon="29.9946325365"><ele>72.24</ele><time>2026-04-22T13:15:35Z</time></trkpt><trkpt lat="59.0989388991" lon="29.9946244899"><ele>72.24</ele><time>2026-04-22T13:15:45Z</time></trkpt><trkpt lat="59.0988579299" lon="29.9948008452"><ele>72.24</ele><time>2026-04-22T13:16:01Z</time></trkpt><trkpt lat="59.0988138411" lon="29.9948397372"><ele>72.24</ele><time>2026-04-22T13:16:21Z</time></trkpt><trkpt lat="59.0987879410" lon="29.9948570877"><ele>72.24</ele><time>2026-04-22T13:16:37Z</time></trkpt><trkpt lat="59.0987507254" lon="29.9949963950"><ele>71.76</ele><time>2026-04-22T13:16:53Z</time></trkpt><trkpt lat="59.0987425949" lon="29.9949523900"><ele>71.76</ele><time>2026-04-22T13:17:35Z</time></trkpt><trkpt lat="59.0987006854" lon="29.9949683994"><ele>72.24</ele><time>2026-04-22T13:17:53Z</time></trkpt><trkpt lat="59.0986697562" lon="29.9950273242"><ele>72.72</ele><time>2026-04-22T13:18:04Z</time></trkpt><trkpt lat="59.0986335464" lon="29.9950530566"><ele>73.20</ele><time>2026-04-22T13:18:09Z</time></trkpt><trkpt lat="59.0985691734" lon="29.9949969817"><ele>72.24</ele><time>2026-04-22T13:18:21Z</time></trkpt><trkpt lat="59.0984866954" lon="29.9949932098"><ele>71.76</ele><time>2026-04-22T13:18:34Z</time></trkpt><trkpt lat="59.0984314587" lon="29.9950119015"><ele>71.76</ele><time>2026-04-22T13:18:42Z</time></trkpt><trkpt lat="59.0984037146" lon="29.9950053636"><ele>71.76</ele><time>2026-04-22T13:18:46Z</time></trkpt><trkpt lat="59.0983005334" lon="29.9950060342"><ele>71.76</ele><time>2026-04-22T13:19:03Z</time></trkpt><trkpt lat="59.0982099250" lon="29.9951529689"><ele>71.76</ele><time>2026-04-22T13:19:19Z</time></trkpt><trkpt lat="59.0981898922" lon="29.9952134024"><ele>71.76</ele><time>2026-04-22T13:19:27Z</time></trkpt><trkpt lat="59.0980921593" lon="29.9951808807"><ele>71.27</ele><time>2026-04-22T13:19:43Z</time></trkpt><trkpt lat="59.0979961026" lon="29.9951197766"><ele>71.27</ele><time>2026-04-22T13:20:15Z</time></trkpt><trkpt lat="59.0979914926" lon="29.9951212015"><ele>71.27</ele><time>2026-04-22T13:20:16Z</time></trkpt><trkpt lat="59.0979729686" lon="29.9951570760"><ele>71.27</ele><time>2026-04-22T13:20:19Z</time></trkpt><trkpt lat="59.0978567954" lon="29.9953100458"><ele>71.27</ele><time>2026-04-22T13:20:35Z</time></trkpt><trkpt lat="59.0977709647" lon="29.9955197610"><ele>71.27</ele><time>2026-04-22T13:20:49Z</time></trkpt><trkpt lat="59.0977725573" lon="29.9955756683"><ele>71.27</ele><time>2026-04-22T13:20:51Z</time></trkpt><trkpt lat="59.0977261215" lon="29.9956886563"><ele>71.27</ele><time>2026-04-22T13:21:04Z</time></trkpt><trkpt lat="59.0977044962" lon="29.9957169034"><ele>71.27</ele><time>2026-04-22T13:21:08Z</time></trkpt><trkpt lat="59.0975547954" lon="29.9958354235"><ele>70.79</ele><time>2026-04-22T13:21:24Z</time></trkpt><trkpt lat="59.0974342637" lon="29.9960095156"><ele>70.79</ele><time>2026-04-22T13:21:38Z</time></trkpt><trkpt lat="59.0973542165" lon="29.9961482361"><ele>70.79</ele><time>2026-04-22T13:21:51Z</time></trkpt><trkpt lat="59.0972774383" lon="29.9960562028"><ele>70.79</ele><time>2026-04-22T13:22:07Z</time></trkpt><trkpt lat="59.0971850697" lon="29.9961790815"><ele>70.79</ele><time>2026-04-22T13:22:22Z</time></trkpt><trkpt lat="59.0971367899" lon="29.9961489066"><ele>70.79</ele><time>2026-04-22T13:22:36Z</time></trkpt><trkpt lat="59.0971294977" lon="29.9961756449"><ele>71.76</ele><time>2026-04-22T13:22:38Z</time></trkpt><trkpt lat="59.0970817208" lon="29.9964637309"><ele>71.76</ele><time>2026-04-22T13:22:54Z</time></trkpt><trkpt lat="59.0970695671" lon="29.9966661539"><ele>71.76</ele><time>2026-04-22T13:23:07Z</time></trkpt><trkpt lat="59.0970517136" lon="29.9966877792"><ele>71.76</ele><time>2026-04-22T13:23:09Z</time></trkpt><trkpt lat="59.0968947206" lon="29.9968589377"><ele>71.76</ele><time>2026-04-22T13:23:24Z</time></trkpt><trkpt lat="59.0967435110" lon="29.9969222210"><ele>71.76</ele><time>2026-04-22T13:23:38Z</time></trkpt><trkpt lat="59.0967332013" lon="29.9969488755"><ele>71.76</ele><time>2026-04-22T13:23:42Z</time></trkpt><trkpt lat="59.0966369770" lon="29.9971598480"><ele>71.76</ele><time>2026-04-22T13:23:58Z</time></trkpt><trkpt lat="59.0965393279" lon="29.9973625224"><ele>71.76</ele><time>2026-04-22T13:24:13Z</time></trkpt><trkpt lat="59.0965454467" lon="29.9973718263"><ele>71.76</ele><time>2026-04-22T13:24:17Z</time></trkpt><trkpt lat="59.0965194628" lon="29.9974548072"><ele>71.76</ele><time>2026-04-22T13:24:42Z</time></trkpt><trkpt lat="59.0965031181" lon="29.9974585790"><ele>72.24</ele><time>2026-04-22T13:24:59Z</time></trkpt><trkpt lat="59.0964162815" lon="29.9975965451"><ele>72.24</ele><time>2026-04-22T13:25:07Z</time></trkpt><trkpt lat="59.0962692630" lon="29.9975870736"><ele>72.24</ele><time>2026-04-22T13:25:21Z</time></trkpt><trkpt lat="59.0961495694" lon="29.9976726528"><ele>72.24</ele><time>2026-04-22T13:25:36Z</time></trkpt><trkpt lat="59.0960233379" lon="29.9976377841"><ele>72.24</ele><time>2026-04-22T13:25:51Z</time></trkpt><trkpt lat="59.0959484037" lon="29.9975045118"><ele>72.24</ele><time>2026-04-22T13:26:05Z</time></trkpt><trkpt lat="59.0959499963" lon="29.9975051824"><ele>72.24</ele><time>2026-04-22T13:26:07Z</time></trkpt><trkpt lat="59.0959315561" lon="29.9976563081"><ele>71.76</ele><time>2026-04-22T13:26:23Z</time></trkpt><trkpt lat="59.0959255211" lon="29.9977350980"><ele>71.76</ele><time>2026-04-22T13:26:28Z</time></trkpt><trkpt lat="59.0958984476" lon="29.9978697952"><ele>71.76</ele><time>2026-04-22T13:26:43Z</time></trkpt><trkpt lat="59.0959054884" lon="29.9978669453"><ele>71.76</ele><time>2026-04-22T13:26:44Z</time></trkpt><trkpt lat="59.0959727112" lon="29.9978103675"><ele>72.24</ele><time>2026-04-22T13:26:50Z</time></trkpt><trkpt lat="59.0959819313" lon="29.9978843797"><ele>72.24</ele><time>2026-04-22T13:26:55Z</time></trkpt><trkpt lat="59.0958862100" lon="29.9982835259"><ele>72.24</ele><time>2026-04-22T13:27:12Z</time></trkpt><trkpt lat="59.0958339069" lon="29.9985025451"><ele>72.24</ele><time>2026-04-22T13:27:27Z</time></trkpt><trkpt lat="59.0957450587" lon="29.9986816663"><ele>72.24</ele><time>2026-04-22T13:27:42Z</time></trkpt><trkpt lat="59.0957465675" lon="29.9988833349"><ele>71.76</ele><time>2026-04-22T13:27:54Z</time></trkpt><trkpt lat="59.0956619103" lon="29.9990205467"><ele>71.76</ele><time>2026-04-22T13:28:08Z</time></trkpt><trkpt lat="59.0956205036" lon="29.9990509730"><ele>71.76</ele><time>2026-04-22T13:28:15Z</time></trkpt><trkpt lat="59.0955974534" lon="29.9990722630"><ele>72.24</ele><time>2026-04-22T13:28:46Z</time></trkpt><trkpt lat="59.0955932625" lon="29.9990926310"><ele>72.24</ele><time>2026-04-22T13:28:48Z</time></trkpt><trkpt lat="59.0956172347" lon="29.9990850035"><ele>71.76</ele><time>2026-04-22T13:29:04Z</time></trkpt><trkpt lat="59.0956875589" lon="29.9990763701"><ele>71.76</ele><time>2026-04-22T13:29:25Z</time></trkpt><trkpt lat="59.0955707151" lon="29.9990149308"><ele>71.76</ele><time>2026-04-22T13:29:53Z</time></trkpt><trkpt lat="59.0955715533" lon="29.9990669824"><ele>71.27</ele><time>2026-04-22T13:30:30Z</time></trkpt><trkpt lat="59.0955683682" lon="29.9989955686"><ele>71.27</ele><time>2026-04-22T13:31:10Z</time></trkpt><trkpt lat="59.0955884010" lon="29.9989960715"><ele>71.76</ele><time>2026-04-22T13:31:29Z</time></trkpt><trkpt lat="59.0955809411" lon="29.9989721831"><ele>71.76</ele><time>2026-04-22T13:31:50Z</time></trkpt><trkpt lat="59.0955439769" lon="29.9990551639"><ele>71.76</ele><time>2026-04-22T13:32:21Z</time></trkpt><trkpt lat="59.0956545342" lon="29.9990614504"><ele>72.24</ele><time>2026-04-22T13:33:33Z</time></trkpt><trkpt lat="59.0955728106" lon="29.9989589397"><ele>72.24</ele><time>2026-04-22T13:34:16Z</time></trkpt><trkpt lat="59.0955757443" lon="29.9990458600"><ele>72.72</ele><time>2026-04-22T13:35:22Z</time></trkpt><trkpt lat="59.0956144687" lon="29.9989576824"><ele>72.72</ele><time>2026-04-22T13:35:55Z</time></trkpt><trkpt lat="59.0955889039" lon="29.9989964906"><ele>72.72</ele><time>2026-04-22T13:36:45Z</time></trkpt><trkpt lat="59.0956113674" lon="29.9989822414"><ele>72.72</ele><time>2026-04-22T13:37:05Z</time></trkpt><trkpt lat="59.0955744032" lon="29.9990061298"><ele>72.72</ele><time>2026-04-22T13:37:51Z</time></trkpt><trkpt lat="59.0955810249" lon="29.9991047010"><ele>72.72</ele><time>2026-04-22T13:38:13Z</time></trkpt><trkpt lat="59.0955599025" lon="29.9990585167"><ele>73.20</ele><time>2026-04-22T13:39:04Z</time></trkpt><trkpt lat="59.0955736488" lon="29.9991009291"><ele>73.20</ele><time>2026-04-22T13:39:10Z</time></trkpt><trkpt lat="59.0956448950" lon="29.9991542380"><ele>74.64</ele><time>2026-04-22T13:39:30Z</time></trkpt><trkpt lat="59.0955987107" lon="29.9990616180"><ele>74.64</ele><time>2026-04-22T13:39:40Z</time></trkpt><trkpt lat="59.0955403727" lon="29.9991208781"><ele>74.64</ele><time>2026-04-22T13:39:53Z</time></trkpt><trkpt lat="59.0954073519" lon="29.9993103929"><ele>74.64</ele><time>2026-04-22T13:40:09Z</time></trkpt><trkpt lat="59.0953222755" lon="29.9994123168"><ele>74.64</ele><time>2026-04-22T13:40:23Z</time></trkpt><trkpt lat="59.0953194257" lon="29.9993911106"><ele>74.64</ele><time>2026-04-22T13:40:24Z</time></trkpt><trkpt lat="59.0952878259" lon="29.9993894342"><ele>74.64</ele><time>2026-04-22T13:40:27Z</time></trkpt><trkpt lat="59.0952554718" lon="29.9994320143"><ele>74.64</ele><time>2026-04-22T13:40:30Z</time></trkpt><trkpt lat="59.0951631032" lon="29.9996017478"><ele>74.64</ele><time>2026-04-22T13:40:45Z</time></trkpt><trkpt lat="59.0951200202" lon="29.9997940287"><ele>74.64</ele><time>2026-04-22T13:40:59Z</time></trkpt><trkpt lat="59.0950733330" lon="29.9998607486"><ele>74.64</ele><time>2026-04-22T13:41:19Z</time></trkpt><trkpt lat="59.0950242989" lon="29.9999184161"><ele>74.64</ele><time>2026-04-22T13:41:52Z</time></trkpt><trkpt lat="59.0950124804" lon="30.0000754930"><ele>74.64</ele><time>2026-04-22T13:42:09Z</time></trkpt><trkpt lat="59.0950044338" lon="30.0002155546"><ele>75.12</ele><time>2026-04-22T13:42:18Z</time></trkpt><trkpt lat="59.0949905198" lon="30.0002443045"><ele>75.12</ele><time>2026-04-22T13:42:20Z</time></trkpt><trkpt lat="59.0949541423" lon="30.0003221724"><ele>75.12</ele><time>2026-04-22T13:42:27Z</time></trkpt><trkpt lat="59.0948166791" lon="30.0004105177"><ele>75.12</ele><time>2026-04-22T13:42:38Z</time></trkpt><trkpt lat="59.0947686508" lon="30.0004708674"><ele>75.12</ele><time>2026-04-22T13:42:44Z</time></trkpt><trkpt lat="59.0946543217" lon="30.0006203167"><ele>75.12</ele><time>2026-04-22T13:43:00Z</time></trkpt><trkpt lat="59.0945952293" lon="30.0005654991"><ele>75.12</ele><time>2026-04-22T13:43:12Z</time></trkpt><trkpt lat="59.0944997594" lon="30.0005030539"><ele>75.12</ele><time>2026-04-22T13:43:26Z</time></trkpt><trkpt lat="59.0943682473" lon="30.0005737133"><ele>75.60</ele><time>2026-04-22T13:43:39Z</time></trkpt><trkpt lat="59.0942552593" lon="30.0003950112"><ele>76.08</ele><time>2026-04-22T13:43:54Z</time></trkpt><trkpt lat="59.0941331349" lon="30.0005508307"><ele>75.60</ele><time>2026-04-22T13:44:07Z</time></trkpt><trkpt lat="59.0940713603" lon="30.0004751422"><ele>75.60</ele><time>2026-04-22T13:44:17Z</time></trkpt><trkpt lat="59.0939568635" lon="30.0004789978"><ele>74.64</ele><time>2026-04-22T13:44:30Z</time></trkpt><trkpt lat="59.0938585438" lon="30.0004493259"><ele>74.64</ele><time>2026-04-22T13:44:42Z</time></trkpt><trkpt lat="59.0937453043" lon="30.0005032215"><ele>74.64</ele><time>2026-04-22T13:44:52Z</time></trkpt><trkpt lat="59.0937231760" lon="30.0001441408"><ele>74.64</ele><time>2026-04-22T13:45:08Z</time></trkpt><trkpt lat="59.0936451405" lon="29.9999655224"><ele>74.64</ele><time>2026-04-22T13:45:23Z</time></trkpt><trkpt lat="59.0935475752" lon="29.9998699687"><ele>74.64</ele><time>2026-04-22T13:45:41Z</time></trkpt><trkpt lat="59.0935346670" lon="29.9995548930"><ele>74.64</ele><time>2026-04-22T13:46:01Z</time></trkpt><trkpt lat="59.0935358405" lon="29.9993830640"><ele>74.64</ele><time>2026-04-22T13:46:16Z</time></trkpt><trkpt lat="59.0934854653" lon="29.9991767853"><ele>74.64</ele><time>2026-04-22T13:46:33Z</time></trkpt><trkpt lat="59.0933229402" lon="29.9989840016"><ele>74.64</ele><time>2026-04-22T13:46:57Z</time></trkpt><trkpt lat="59.0932026599" lon="29.9987857696"><ele>74.64</ele><time>2026-04-22T13:47:18Z</time></trkpt><trkpt lat="59.0930847265" lon="29.9985908903"><ele>74.64</ele><time>2026-04-22T13:47:36Z</time></trkpt><trkpt lat="59.0931731556" lon="29.9982869625"><ele>74.64</ele><time>2026-04-22T13:47:57Z</time></trkpt><trkpt lat="59.0932478383" lon="29.9979379401"><ele>74.64</ele><time>2026-04-22T13:48:18Z</time></trkpt><trkpt lat="59.0933223534" lon="29.9976125546"><ele>74.64</ele><time>2026-04-22T13:48:40Z</time></trkpt><trkpt lat="59.0933682863" lon="29.9973714072"><ele>76.08</ele><time>2026-04-22T13:49:04Z</time></trkpt><trkpt lat="59.0932552144" lon="29.9972220417"><ele>76.08</ele><time>2026-04-22T13:49:28Z</time></trkpt><trkpt lat="59.0932113770" lon="29.9970828183"><ele>76.56</ele><time>2026-04-22T13:49:45Z</time></trkpt><trkpt lat="59.0930676274" lon="29.9970379751"><ele>75.60</ele><time>2026-04-22T13:50:17Z</time></trkpt><trkpt lat="59.0930273943" lon="29.9969486240"><ele>76.08</ele><time>2026-04-22T13:50:32Z</time></trkpt><trkpt lat="59.0929894242" lon="29.9968798086"><ele>76.08</ele><time>2026-04-22T13:50:47Z</time></trkpt><trkpt lat="59.0929971356" lon="29.9967189599"><ele>76.08</ele><time>2026-04-22T13:50:57Z</time></trkpt><trkpt lat="59.0930097923" lon="29.9965499807"><ele>76.08</ele><time>2026-04-22T13:51:03Z</time></trkpt><trkpt lat="59.0930284839" lon="29.9963478930"><ele>76.08</ele><time>2026-04-22T13:51:15Z</time></trkpt><trkpt lat="59.0930248797" lon="29.9963335600"><ele>76.08</ele><time>2026-04-22T13:51:16Z</time></trkpt><trkpt lat="59.0930099599" lon="29.9962209072"><ele>76.08</ele><time>2026-04-22T13:51:24Z</time></trkpt><trkpt lat="59.0930080321" lon="29.9961032253"><ele>76.08</ele><time>2026-04-22T13:51:29Z</time></trkpt><trkpt lat="59.0929988120" lon="29.9959936738"><ele>76.08</ele><time>2026-04-22T13:51:46Z</time></trkpt><trkpt lat="59.0930005722" lon="29.9960228428"><ele>76.08</ele><time>2026-04-22T13:51:48Z</time></trkpt><trkpt lat="59.0930401348" lon="29.9960965198"><ele>76.56</ele><time>2026-04-22T13:52:03Z</time></trkpt></trkseg></trk></gpx>